<<back to data home page
Ready for summer? Stay in touch!! - DONATE ANY AMOUNT BY CLICKING THIS LINK!!!


    Month/Day/Year       Maximum   Minimum    Rel    Dew       Rainfall  Seasonal  Soil     Soil      Baro       Wind    Wind        Peak    Peak Gust  Evap     Leaf     Net
    and                  Air Temp  Air Temp   Hum    Point     Inches    Rainfall  Temp     Moisture  Pressure   Speed   Direction   Gust    Direction  Pan      Wetness  Radiation
    Local Time           Deg F     Deg F      %      Deg F               Inches    Deg F    dS/m      mbar       knots   comp deg    knots   comp deg   Inches   mV       W_m2
----------------------------------------------------------------------------------------------------------------------------------------------------------------------------------
   07/26/2017 23:40      68.7      68.4       72     59.3      0.00      0.00      86.8     0.32      1015.0     1        63         2        70        8.05     272      -69.1
   07/26/2017 23:30      69.0      68.7       72     59.4      0.00      0.00      86.8     0.32      1015.0     2        43         2        72        8.05     272      -69.5
   07/26/2017 23:20      69.0      68.8       72     59.6      0.00      0.00      86.9     0.32      1015.0     2        34         3        35        8.05     271      -69.9
   07/26/2017 23:10      69.1      68.8       72     59.6      0.00      0.00      87.1     0.32      1015.0     2        69         2        91        8.05     271      -69.7
   07/26/2017 23:00      69.4      69.1       71     59.6      0.00      0.00      87.0     0.32      1015.0     1        72         2        80        8.05     271      -70.3
   07/26/2017 22:50      69.9      69.6       71     59.8      0.00      0.00      86.9     0.32      1015.0     1        58         3        17        8.05     271      -70.8
   07/26/2017 22:40      69.9      69.6       71     60.0      0.00      0.00      86.9     0.32      1015.0     2        49         3        79        8.06     271      -70.9
   07/26/2017 22:30      70.2      69.7       71     60.0      0.00      0.00      87.1     0.32      1015.0     2        70         3        64        8.06     271      -71.1
   07/26/2017 22:20      70.5      70.2       70     60.0      0.00      0.00      86.7     0.32      1015.0     2        64         3        70        8.06     271      -72.3
   07/26/2017 22:10      70.9      70.5       69     60.1      0.00      0.00      87.0     0.32      1015.0     2        52         5        62        8.06     271      -72.9
   07/26/2017 22:00      71.2      70.9       68     60.1      0.00      0.00      86.9     0.32      1015.0     2        41         3        89        8.06     271      -73.6
   07/26/2017 21:50      71.9      71.3       68     60.2      0.00      0.00      86.9     0.32      1015.0     2        41         4        30        8.06     270      -74.1
   07/26/2017 21:40      72.6      71.8       66     60.2      0.00      0.00      87.0     0.32      1015.0     3        53         5        66        8.06     270      -74.5
   07/26/2017 21:30      73.2      72.7       64     60.3      0.00      0.00      86.8     0.32      1014.0     3        62         4        75        8.06     270      -75.2
   07/26/2017 21:20      73.4      73.1       64     60.3      0.00      0.00      86.9     0.32      1014.0     2        56         4        73        8.06     270      -75.6
   07/26/2017 21:10      74.0      73.6       63     60.4      0.00      0.00      86.9     0.32      1014.0     3        68         5        80        8.06     270      -76.3
   07/26/2017 21:00      74.5      74.1       62     60.4      0.00      0.00      86.8     0.32      1014.0     3        50         5        73        8.06     270      -77.8
   07/26/2017 20:50      75.7      74.7       60     60.4      0.00      0.00      86.7     0.32      1014.0     2        65         3        77        8.06     270      -79.0
   07/26/2017 20:40      76.8      75.8       58     60.7      0.00      0.00      87.0     0.32      1014.0     2        77         3        90        8.07     270      -80.1
   07/26/2017 20:30      78.4      77.1       56     60.8      0.00      0.00      86.9     0.32      1014.0     2        56         4        75        8.07     270      -81.4
   07/26/2017 20:20      79.9      78.6       54     61.1      0.00      0.00      86.6     0.32      1013.0     2        56         4        68        8.07     270      -82.4
   07/26/2017 20:10      80.9      80.2       52     61.5      0.00      0.00      86.8     0.32      1013.0     2        49         3        32        8.07     269      -82.4
   07/26/2017 20:00      81.9      81.0       51     61.6      0.00      0.00      86.9     0.32      1013.0     1        83         2        93        8.07     269      -81.0
   07/26/2017 19:50      82.5      81.8       50     61.7      0.00      0.00      86.8     0.32      1013.0     1        40         3        64        8.07     269      -79.1
   07/26/2017 19:40      83.5      82.8       48     61.8      0.00      0.00      86.7     0.32      1013.0     2        49         2        58        8.07     269      -75.1
   07/26/2017 19:30      84.7      83.8       47     61.8      0.00      0.00      86.6     0.32      1013.0     2        55         4        74        8.08     269      -57.9
   07/26/2017 19:20      86.9      85.0       45     62.0      0.00      0.00      86.7     0.32      1013.0     3        53         6        80        8.08     269      -45.7
   07/26/2017 19:10      88.2      87.2       39     59.8      0.00      0.00      86.4     0.32      1013.0     2        39         4        77        8.08     269      -26.4
   07/26/2017 19:00      88.7      88.2       34     56.8      0.00      0.00      86.6     0.32      1013.0     5       333         6         1        8.08     268       -5.2
   07/26/2017 18:50      89.5      88.8       34     57.0      0.00      0.00      86.5     0.32      1013.0     4       321         7       321        8.08     268       17.4
   07/26/2017 18:40      89.8      89.6       33     57.2      0.00      0.00      86.4     0.32      1013.0     4       327         6       350        8.08     268       41.2
   07/26/2017 18:30      91.0      89.9       33     57.2      0.00      0.00      86.6     0.32      1013.0     5       325         8       289        8.09     268       64.3
   07/26/2017 18:20      91.0      90.5       33     57.7      0.00      0.00      86.4     0.32      1013.0     3       332         6       345        8.11     269       87.5
   07/26/2017 18:10      91.6      89.8       38     61.7      0.00      0.00      86.3     0.32      1013.0     3        15         5       330        8.11     268      110.6
   07/26/2017 18:00      92.6      91.7       37     62.0      0.00      0.00      86.3     0.32      1012.0     2         3         4       344        8.12     269      131.9
   07/26/2017 17:50      93.7      92.6       34     60.6      0.00      0.00      86.3     0.32      1012.0     2       353         4       341        8.12     269      155.7
   07/26/2017 17:40      94.0      92.5       31     58.4      0.00      0.00      86.2     0.32      1012.0     3       279         7       216        8.12     268      180.2
   07/26/2017 17:30      94.1      93.2       31     58.5      0.00      0.00      86.2     0.32      1012.0     3       282         6       260        8.13     269      202.3
   07/26/2017 17:20      93.4      92.7       31     58.4      0.00      0.00      85.9     0.32      1012.0     4       273         7       300        8.13     269      226.1
   07/26/2017 17:10      94.4      93.4       31     58.5      0.00      0.00      86.0     0.32      1013.0     5       302         7       311        8.13     269      248.9
   07/26/2017 17:00      94.7      93.8       31     59.0      0.00      0.00      86.0     0.32      1013.0     4       290         7       270        8.13     269      268.6
   07/26/2017 16:50      94.8      94.1       31     59.0      0.00      0.00      85.8     0.32      1013.0     4       277         6       260        8.17     269      288.8
   07/26/2017 16:40      94.9      93.8       31     59.2      0.00      0.00      85.8     0.32      1013.0     4       291         7       349        8.17     269      310.0
   07/26/2017 16:30      94.8      93.8       31     59.3      0.00      0.00      85.7     0.32      1013.0     4       312         6       299        8.18     269      329.5
   07/26/2017 16:20      94.0      93.3       32     59.1      0.00      0.00      85.7     0.32      1013.0     5       328         8       327        8.19     269      349.4
   07/26/2017 16:10      94.5      93.8       31     59.2      0.00      0.00      85.5     0.32      1013.0     6       327         9       332        8.19     269      369.3
   07/26/2017 16:00      93.8      92.9       32     58.9      0.00      0.00      85.5     0.32      1013.0     5       314        10       330        8.19     269      389.5
   07/26/2017 15:50      93.6      93.0       32     58.8      0.00      0.00      85.3     0.32      1013.0     6       301         9       300        8.20     269      403.1
   07/26/2017 15:40      95.1      93.9       31     59.0      0.00      0.00      85.3     0.32      1013.0     6       334         9       311        8.20     269      416.9
   07/26/2017 15:30      94.4      93.6       31     59.1      0.00      0.00      85.3     0.32      1013.0     5       308        10       315        8.20     269      432.8
   07/26/2017 15:20      93.9      93.1       32     59.0      0.00      0.00      85.2     0.32      1013.0     6       310        10       300        8.20     269      447.5
   07/26/2017 15:10      93.9      93.3       32     59.1      0.00      0.00      85.2     0.32      1013.0     6       299        10       336        8.24     269      461.4
   07/26/2017 15:00      94.3      93.8       31     59.3      0.00      0.00      85.2     0.31      1013.0     6       310        10       316        8.25     269      472.9
   07/26/2017 14:50      95.0      94.1       31     59.6      0.00      0.00      85.0     0.31      1013.0     6       266        12       242        8.25     269      485.1
   07/26/2017 14:40      95.8      94.6       33     61.5      0.00      0.00      84.8     0.31      1013.0     3       324         6       275        8.26     270      492.6
   07/26/2017 14:30      95.2      94.5       33     60.9      0.00      0.00      84.9     0.31      1014.0     5       298        11       292        8.26     270      503.4
   07/26/2017 14:20      94.5      93.3       34     61.2      0.00      0.00      84.8     0.31      1014.0     4       103         7       115        8.26     270      513.5
   07/26/2017 14:10      95.3      93.9       33     61.6      0.00      0.00      84.7     0.31      1014.0     3        61         5        32        8.26     270      517.8
   07/26/2017 14:00      95.4      94.4       33     61.3      0.00      0.00      84.6     0.31      1014.0     5        57         8        76        8.26     270      525.6
   07/26/2017 13:50      94.4      92.7       33     59.8      0.00      0.00      84.7     0.31      1014.0     3        85         6        88        8.26     270      533.3
   07/26/2017 13:40      93.6      92.8       33     59.5      0.00      0.00      84.6     0.31      1014.0     4       101         6        73        8.26     270      539.1
   07/26/2017 13:30      93.9      92.7       33     59.7      0.00      0.00      84.6     0.31      1014.0     3        77         5        78        8.26     271      540.4
   07/26/2017 13:20      93.3      91.9       33     59.7      0.00      0.00      84.4     0.31      1014.0     3        29         5        35        8.26     271      543.6
   07/26/2017 13:10      92.9      91.0       34     59.3      0.00      0.00      84.4     0.31      1014.0     3        33         5         5        8.27     271      550.3
   07/26/2017 13:00      92.7      90.8       34     59.2      0.00      0.00      84.4     0.31      1014.0     3       181         5       191        8.27     271      552.4
   07/26/2017 12:50      92.3      90.4       35     59.5      0.00      0.00      84.5     0.31      1014.0     2        44         5        19        8.27     271      559.8
   07/26/2017 12:40      90.7      90.3       35     59.5      0.00      0.00      84.3     0.31      1015.0     3       322         5         6        8.27     271      549.5
   07/26/2017 12:30      90.7      88.9       37     59.5      0.00      0.00      84.3     0.31      1015.0     3        25         4        57        8.27     271      550.8
   07/26/2017 12:20      88.6      87.8       38     59.1      0.00      0.00      84.4     0.31      1015.0     2        10         4       356        8.27     271      549.5
   07/26/2017 12:10      88.1      87.7       38     59.1      0.00      0.00      84.2     0.31      1015.0     2       333         4       345        8.27     271      545.7
   07/26/2017 12:00      87.9      87.3       39     59.3      0.00      0.00      84.5     0.31      1015.0     3        52         5        95        8.27     271      541.4
   07/26/2017 11:50      87.6      85.8       39     59.1      0.00      0.00      84.2     0.31      1015.0     3       358         4       334        8.27     272      535.3
   07/26/2017 11:40      85.6      85.0       41     59.2      0.00      0.00      84.4     0.31      1015.0     3       348         6       355        8.28     272      529.3
   07/26/2017 11:30      85.6      84.9       41     59.2      0.00      0.00      84.2     0.31      1015.0     2       357         3       346        8.28     273      523.3
   07/26/2017 11:20      84.9      84.0       43     59.5      0.00      0.00      84.4     0.31      1015.0     3        16         4        12        8.28     273      514.7
   07/26/2017 11:10      84.0      82.9       44     59.3      0.00      0.00      84.4     0.31      1015.0     3       355         5         4        8.28     273      506.7
   07/26/2017 11:00      83.6      82.4       45     59.2      0.00      0.00      84.6     0.31      1016.0     3        68         6        71        8.28     273      497.3
   07/26/2017 10:50      82.8      82.2       45     58.9      0.00      0.00      84.4     0.31      1016.0     3        39         5       118        8.28     273      484.4
   07/26/2017 10:40      82.4      80.9       46     59.0      0.00      0.00      84.5     0.32      1016.0     2        70         4        91        8.28     274      474.4
   07/26/2017 10:30      80.9      79.9       48     58.9      0.00      0.00      84.7     0.32      1016.0     2        43         3        13        8.28     274      462.0
   07/26/2017 10:20      80.2      79.6       49     59.1      0.00      0.00      84.1     0.32      1016.0     3        56         3        20        8.29     275      445.9
   07/26/2017 10:10      79.5      78.2       51     59.1      0.00      0.00      84.2     0.32      1016.0     3       356         4        29        8.29     275      429.2
   07/26/2017 10:00      78.0      77.4       53     59.4      0.00      0.00      84.3     0.32      1016.0     3        10         3        23        8.29     274      413.4
   07/26/2017 09:50      77.9      76.9       54     59.2      0.00      0.00      84.7     0.32      1016.0     2        11         5        48        8.29     274      396.1
   07/26/2017 09:40      77.1      76.8       54     59.3      0.00      0.00      84.7     0.32      1016.0     3        16         3        31        8.29     274      379.3
   07/26/2017 09:30      76.5      75.5       56     59.0      0.00      0.00      84.6     0.32      1016.0     2       302         3       287        8.29     274      362.7
   07/26/2017 09:20      75.8      73.8       58     59.1      0.00      0.00      85.0     0.32      1016.0     2        22         4       340        8.29     274      344.6
   07/26/2017 09:10      73.8      73.2       60     59.1      0.00      0.00      84.4     0.32      1016.0     3       349         4       335        8.29     275      330.4
   07/26/2017 09:00      73.2      72.1       62     58.9      0.00      0.00      84.7     0.32      1016.0     2       323         4       351        8.29     275      325.8
   07/26/2017 08:50      71.9      71.0       64     58.7      0.00      0.00      85.0     0.32      1016.0     2         1         4        12        8.30     275      125.0
   07/26/2017 08:40      71.0      70.6       65     58.7      0.00      0.00      84.6     0.32      1016.0     2         2         3       350        8.30     275      -16.3
   07/26/2017 08:30      70.6      69.8       67     58.7      0.00      0.00      84.9     0.32      1016.0     3        36         4        32        8.30     275      -11.5
   07/26/2017 08:20      70.1      69.5       68     58.7      0.00      0.00      84.9     0.32      1016.0     2        15         3        33        8.30     275       -8.9
   07/26/2017 08:10      69.7      69.1       69     58.7      0.00      0.00      84.7     0.32      1016.0     2        27         4        75        8.30     275       -9.3
   07/26/2017 08:00      69.2      68.1       70     58.5      0.00      0.00      84.6     0.32      1016.0     1        14         3        78        8.30     275      -10.2
   07/26/2017 07:50      68.2      67.8       71     58.3      0.00      0.00      85.0     0.32      1016.0     1        17         3        24        8.30     274      -10.4
   07/26/2017 07:40      67.9      67.1       72     58.2      0.00      0.00      84.9     0.32      1016.0     2        59         3        74        8.30     274      -11.3
   07/26/2017 07:30      67.3      66.5       75     58.6      0.00      0.00      85.1     0.32      1016.0     1       245         2         7        8.30     274      -19.4
   07/26/2017 07:20      66.5      66.2       76     58.5      0.00      0.00      85.0     0.32      1016.0     1       166         2       182        8.30     274      -21.7
   07/26/2017 07:10      66.2      65.8       78     58.7      0.00      0.00      85.0     0.32      1016.0     1       155         2       149        8.33     274      -22.1
   07/26/2017 07:00      65.8      65.2       79     58.8      0.00      0.00      85.1     0.32      1016.0     1       160         2       152        8.34     274      -27.3
   07/26/2017 06:50      65.3      64.8       81     58.9      0.00      0.00      85.2     0.32      1016.0     1       183         1       217        8.34     274      -29.9
   07/26/2017 06:40      64.8      64.3       81     58.9      0.00      0.00      85.0     0.32      1016.0     1       159         1       111        8.34     274      -36.5
   07/26/2017 06:30      64.6      64.0       81     58.4      0.00      0.00      85.3     0.32      1016.0     1       117         1        99        8.34     274      -38.9
   07/26/2017 06:20      64.1      63.8       82     58.1      0.00      0.00      85.3     0.32      1016.0     1        86         2        58        8.34     274      -41.5
   07/26/2017 06:10      64.2      64.0       81     58.3      0.00      0.00      85.5     0.32      1016.0     1       110         1       118        8.34     274      -44.7
   07/26/2017 06:00      64.4      64.1       81     58.2      0.00      0.00      85.1     0.32      1016.0     1       111         2       124        8.34     274      -48.0
   07/26/2017 05:50      64.5      64.2       80     58.2      0.00      0.00      85.1     0.32      1016.0     1       116         2       119        8.34     274      -49.0
   07/26/2017 05:40      64.7      64.5       80     58.3      0.00      0.00      85.0     0.32      1016.0     1        97         1        89        8.34     274      -50.5
   07/26/2017 05:30      64.6      64.4       80     58.1      0.00      0.00      85.6     0.32      1016.0     1       111         2        89        8.34     274      -50.3
   07/26/2017 05:20      64.6      64.2       79     57.7      0.00      0.00      85.3     0.32      1016.0     1        93         2        76        8.34     274      -50.0
   07/26/2017 05:10      64.7      64.5       78     57.7      0.00      0.00      85.2     0.32      1016.0     1        65         1       102        8.34     274      -49.2
   07/26/2017 05:00      65.1      64.7       77     57.5      0.00      0.00      85.6     0.32      1016.0     1       130         1       120        8.35     273      -49.5
   07/26/2017 04:50      65.3      65.0       76     57.3      0.00      0.00      85.4     0.32      1016.0     0       134         1       127        8.35     273      -49.9
   07/26/2017 04:40      65.5      65.2       74     56.9      0.00      0.00      85.8     0.32      1016.0     1        80         1        81        8.35     273      -50.8
   07/26/2017 04:30      65.8      65.5       73     57.0      0.00      0.00      85.3     0.32      1016.0     1        76         1        58        8.35     274      -51.1
   07/26/2017 04:20      66.0      65.8       74     57.3      0.00      0.00      85.9     0.32      1016.0     1        53         2        76        8.35     274      -51.4
   07/26/2017 04:10      66.2      65.9       75     58.1      0.00      0.00      85.8     0.32      1016.0     1        90         2        75        8.35     273      -50.9
   07/26/2017 04:00      66.4      66.1       76     58.4      0.00      0.00      85.7     0.32      1016.0     1       101         2        82        8.35     273      -51.3
   07/26/2017 03:50      66.3      66.0       76     58.6      0.00      0.00      85.8     0.32      1016.0     1       102         1       106        8.35     273      -50.5
   07/26/2017 03:40      66.3      66.0       76     58.5      0.00      0.00      85.9     0.32      1016.0     1        90         2        62        8.35     273      -50.0
   07/26/2017 03:30      66.2      65.8       77     58.5      0.00      0.00      86.0     0.32      1016.0     1       100         1        79        8.35     273      -49.0
   07/26/2017 03:20      66.2      65.9       76     58.5      0.00      0.00      85.8     0.32      1016.0     1       122         1       118        8.35     273      -49.5
   07/26/2017 03:10      66.3      66.2       76     58.4      0.00      0.00      85.8     0.32      1016.0     0        56         1        72        8.39     273      -49.1
   07/26/2017 03:00      66.7      66.3       75     58.3      0.00      0.00      86.0     0.32      1016.0     1        86         1        67        8.40     273      -50.3
   07/26/2017 02:50      66.8      66.7       74     58.3      0.00      0.00      85.8     0.32      1016.0     0        60         1        79        8.41     273      -49.7
   07/26/2017 02:40      67.1      67.0       73     58.3      0.00      0.00      86.1     0.32      1016.0     0        62         0        54        8.41     273      -49.9
   07/26/2017 02:30      67.3      67.1       73     58.3      0.00      0.00      85.6     0.32      1015.0     1       111         1       143        8.42     273      -51.0
   07/26/2017 02:20      67.3      66.7       73     58.2      0.00      0.00      86.0     0.32      1015.0     2       161         3       161        8.42     273      -51.1
   07/26/2017 02:10      67.1      66.7       73     58.0      0.00      0.00      86.1     0.32      1015.0     1       133         2       141        8.42     273      -51.3
   07/26/2017 02:00      67.2      67.0       73     58.2      0.00      0.00      86.0     0.32      1015.0     1       124         1       136        8.43     273      -50.8
   07/26/2017 01:50      67.3      67.1       72     58.0      0.00      0.00      86.1     0.32      1015.0     1       126         1       137        8.43     273      -51.3
   07/26/2017 01:40      67.7      67.3       71     57.9      0.00      0.00      86.2     0.32      1016.0     1       147         2       172        8.43     273      -51.1
   07/26/2017 01:30      67.7      67.5       72     58.2      0.00      0.00      86.2     0.32      1015.0     1       188         1       174        8.43     273      -51.1
   07/26/2017 01:20      67.7      67.4       72     58.1      0.00      0.00      86.0     0.32      1016.0     2       160         2       153        8.43     273      -51.5
   07/26/2017 01:10      67.7      67.6       71     57.9      0.00      0.00      86.1     0.32      1016.0     2       161         2       165        8.43     272      -51.7
   07/26/2017 01:00      68.2      67.8       70     58.0      0.00      0.00      86.3     0.32      1016.0     1       142         2       161        8.44     272      -52.1
   07/26/2017 00:50      68.4      68.1       70     58.1      0.00      0.00      86.1     0.32      1016.0     1       113         1        97        8.44     273      -52.7
   07/26/2017 00:40      68.7      68.5       70     58.3      0.00      0.00      86.1     0.32      1016.0     1        61         2         8        8.44     272      -53.6
   07/26/2017 00:30      68.7      68.3       71     58.7      0.00      0.00      86.3     0.32      1016.0     1        35         2        34        8.44     272      -54.2
   07/26/2017 00:20      68.7      68.5       72     59.1      0.00      0.00      86.0     0.32      1016.0     1        83         2        84        8.44     272      -54.1
   07/26/2017 00:10      68.9      68.5       72     59.3      0.00      0.00      86.3     0.32      1016.0     1        55         2        65        8.45     272      -54.5
   07/26/2017 00:00      69.1      68.8       72     59.5      0.00      0.00      86.3     0.32      1016.0     1        42         2        55        8.45     272      -55.1
   07/25/2017 23:50      69.3      69.1       72     59.7      0.00      0.00      86.4     0.32      1016.0     2        37         3        68        8.45     272      -55.5
   07/25/2017 23:40      69.7      69.4       71     59.7      0.00      0.00      86.4     0.32      1016.0     2        42         3        27        8.45     272      -55.7
   07/25/2017 23:30      70.0      69.7       70     59.6      0.00      0.00      86.2     0.32      1016.0     2        57         2        68        8.45     272      -55.7
   07/25/2017 23:20      70.3      70.1       69     59.5      0.00      0.00      86.3     0.32      1015.0     2        54         3        73        8.45     272      -56.1
   07/25/2017 23:10      70.5      70.2       68     59.2      0.00      0.00      86.0     0.32      1015.0     2        79         2        67        8.45     272      -56.4
   07/25/2017 23:00      70.8      70.5       67     59.0      0.00      0.00      86.3     0.32      1015.0     1        69         2        64        8.45     271      -57.4
   07/25/2017 22:50      70.9      70.7       66     59.1      0.00      0.00      86.4     0.32      1015.0     2        54         3        69        8.45     271      -57.8
   07/25/2017 22:40      71.0      70.8       66     58.9      0.00      0.00      86.3     0.32      1015.0     1        56         2        38        8.45     271      -57.8
   07/25/2017 22:30      71.1      70.9       64     58.3      0.00      0.00      86.1     0.32      1015.0     2        61         3        89        8.45     271      -58.3
   07/25/2017 22:20      71.6      71.2       62     57.9      0.00      0.00      86.1     0.32      1015.0     2        91         4        56        8.48     271      -58.6
   07/25/2017 22:10      72.0      71.6       62     58.0      0.00      0.00      86.4     0.32      1015.0     3        85         5        85        8.48     271      -59.0
   07/25/2017 22:00      72.3      72.1       61     58.2      0.00      0.00      86.4     0.32      1015.0     1        76         3        90        8.48     271      -59.5
   07/25/2017 21:50      72.6      72.2       61     58.2      0.00      0.00      86.4     0.32      1015.0     2        93         3        92        8.48     271      -59.9
   07/25/2017 21:40      73.0      72.6       61     58.6      0.00      0.00      86.4     0.32      1015.0     2        89         3        82        8.49     271      -60.6
   07/25/2017 21:30      73.5      73.1       60     58.6      0.00      0.00      86.6     0.32      1015.0     2        86         3        73        8.49     270      -61.5
   07/25/2017 21:20      74.2      73.7       59     58.7      0.00      0.00      86.2     0.32      1015.0     2        83         3        71        8.50     270      -62.0
   07/25/2017 21:10      74.5      74.2       58     58.6      0.00      0.00      86.3     0.32      1014.0     2        39         2        54        8.50     270      -63.0
   07/25/2017 21:00      74.9      74.6       57     58.8      0.00      0.00      86.1     0.32      1014.0     2        35         3        34        8.50     270      -63.6
   07/25/2017 20:50      75.1      74.8       57     58.9      0.00      0.00      86.2     0.32      1014.0     2        63         3        71        8.50     270      -64.7
   07/25/2017 20:40      75.5      75.1       57     58.9      0.00      0.00      86.2     0.32      1014.0     1        95         3        93        8.50     270      -65.7
   07/25/2017 20:30      76.1      75.3       56     58.9      0.00      0.00      86.2     0.32      1014.0     2        54         4        65        8.50     270      -67.0
   07/25/2017 20:20      76.7      76.3       54     58.9      0.00      0.00      86.4     0.32      1014.0     2        58         2        67        8.55     270      -68.1
   07/25/2017 20:10      78.5      76.9       53     59.0      0.00      0.00      86.2     0.32      1014.0     2        46         3        26        8.56     270      -68.1
   07/25/2017 20:00      80.3      78.8       49     58.9      0.00      0.00      86.2     0.32      1014.0     2        38         4        67        8.56     270      -66.2
   07/25/2017 19:50      81.5      80.7       42     55.7      0.00      0.00      86.1     0.32      1014.0     3       322         6       302        8.57     269      -62.7
   07/25/2017 19:40      82.0      81.6       40     55.0      0.00      0.00      86.2     0.32      1014.0     3       303         6       249        8.57     269      -56.4
   07/25/2017 19:30      82.5      82.1       39     55.1      0.00      0.00      86.0     0.32      1014.0     4       297         6       302        8.57     269      -40.8
   07/25/2017 19:20      82.6      82.1       40     55.4      0.00      0.00      86.1     0.32      1014.0     4       307         7       336        8.57     269      -27.5
   07/25/2017 19:10      82.9      82.7       40     55.9      0.00      0.00      86.1     0.32      1014.0     4       305         7       303        8.58     269       -9.3
   07/25/2017 19:00      83.4      83.0       40     56.6      0.00      0.00      86.1     0.32      1013.0     5       308         8       309        8.58     269       11.7
   07/25/2017 18:50      83.5      83.1       41     57.3      0.00      0.00      86.1     0.32      1013.0     5       304         9       309        8.58     269       34.7
   07/25/2017 18:40      84.4      83.7       42     58.2      0.00      0.00      85.9     0.32      1013.0     5       312         8       303        8.58     269       57.0
   07/25/2017 18:30      85.0      84.4       41     58.6      0.00      0.00      86.0     0.32      1013.0     5       322         8       332        8.58     269       79.2
   07/25/2017 18:20      85.5      84.9       41     58.9      0.00      0.00      86.0     0.32      1013.0     6       312         9       331        8.58     269      101.4
   07/25/2017 18:10      86.4      85.5       41     59.3      0.00      0.00      85.9     0.32      1013.0     6       300         9       297        8.58     269      123.0
   07/25/2017 18:00      86.6      86.1       41     59.7      0.00      0.00      85.8     0.32      1013.0     7       313        11       319        8.59     269      145.8
   07/25/2017 17:50      87.5      86.5       40     59.9      0.00      0.00      85.7     0.32      1013.0     5       302        10       299        8.62     269      168.1
   07/25/2017 17:40      88.0      87.3       40     60.1      0.00      0.00      85.7     0.32      1013.0     5       288         8       293        8.63     269      190.8
   07/25/2017 17:30      88.0      87.4       40     60.2      0.00      0.00      85.8     0.32      1013.0     5       275         8       246        8.64     269      215.1
   07/25/2017 17:20      88.4      86.8       40     60.3      0.00      0.00      85.8     0.32      1013.0     6       250         9       245        8.65     270      237.7
   07/25/2017 17:10      87.3      86.9       39     59.4      0.00      0.00      85.7     0.32      1013.0     5       185         8       172        8.65     269      260.7
   07/25/2017 17:00      87.7      86.7       39     59.5      0.00      0.00      85.4     0.32      1013.0     7       188        10       159        8.66     269      284.2
   07/25/2017 16:50      87.8      86.9       39     59.3      0.00      0.00      85.6     0.32      1013.0     7       167         9       139        8.66     269      304.5
   07/25/2017 16:40      88.0      87.2       38     59.0      0.00      0.00      85.3     0.32      1013.0     7       160        11       198        8.67     270      323.9
   07/25/2017 16:30      89.1      87.6       37     58.9      0.00      0.00      85.3     0.32      1013.0     7       147         9       140        8.67     270      342.5
   07/25/2017 16:20      89.3      87.9       37     59.2      0.00      0.00      85.3     0.32      1013.0     6       180         9       188        8.68     270      359.3
   07/25/2017 16:10      88.9      87.8       38     59.6      0.00      0.00      85.3     0.32      1013.0     4       178         7       194        8.68     270      377.2
   07/25/2017 16:00      88.6      87.8       39     60.0      0.00      0.00      85.2     0.32      1013.0     5       142         9       146        8.68     270      393.1
   07/25/2017 15:50      88.8      88.4       39     60.7      0.00      0.00      85.2     0.32      1013.0     4       152         8       131        8.69     270      407.8
   07/25/2017 15:40      90.7      89.7       35     58.9      0.00      0.00      85.2     0.32      1013.0     4       121         7       100        8.69     270      421.2
   07/25/2017 15:30      91.0      90.1       34     58.2      0.00      0.00      85.0     0.32      1013.0     3        68         5        70        8.70     270      432.9
   07/25/2017 15:20      90.4      89.6       34     58.1      0.00      0.00      85.0     0.32      1013.0     3        59         6        67        8.70     270      449.3
   07/25/2017 15:10      90.1      89.6       34     57.8      0.00      0.00      85.0     0.32      1013.0     3        60         7        82        8.71     270      462.2
   07/25/2017 15:00      90.3      89.0       34     57.8      0.00      0.00      84.8     0.32      1013.0     4        37         6        40        8.71     270      473.9
   07/25/2017 14:50      90.2      89.3       35     58.3      0.00      0.00      84.8     0.32      1013.0     3        32         5        19        8.71     271      488.0
   07/25/2017 14:40      89.7      89.2       36     59.0      0.00      0.00      84.8     0.32      1014.0     4        55         7        89        8.72     271      504.6
   07/25/2017 14:30      89.2      88.5       37     59.3      0.00      0.00      84.8     0.32      1014.0     4        27         5        57        8.72     271      516.1
   07/25/2017 14:20      89.1      87.7       39     60.0      0.00      0.00      84.8     0.32      1014.0     4        71         7        71        8.72     271      512.1
   07/25/2017 14:10      89.1      88.0       39     60.8      0.00      0.00      84.6     0.32      1014.0     3        50         4       125        8.72     271      537.4
   07/25/2017 14:00      88.4      87.7       41     61.0      0.00      0.00      84.2     0.32      1014.0     3        48         6        76        8.72     272      550.6
   07/25/2017 13:50      88.0      86.6       41     60.6      0.00      0.00      84.4     0.32      1014.0     3        44         5        64        8.72     272      561.0
   07/25/2017 13:40      87.9      86.7       41     60.8      0.00      0.00      84.4     0.32      1014.0     4        56         6        86        8.72     272      537.3
   07/25/2017 13:30      87.2      85.0       43     61.1      0.00      0.00      84.5     0.32      1014.0     3        52         6        36        8.72     273      593.4
   07/25/2017 13:20      85.1      84.5       46     61.5      0.00      0.00      84.5     0.32      1014.0     5        58         8        68        8.72     273      398.8
   07/25/2017 13:10      85.3      84.5       47     62.6      0.00      0.00      84.4     0.32      1014.0     4        70         6        82        8.85     273      401.9
   07/25/2017 13:00      85.9      84.5       47     62.6      0.00      0.00      84.4     0.32      1014.0     3        39         5       352        8.85     273      424.5
   07/25/2017 12:50      85.6      84.0       48     62.8      0.00      0.00      84.4     0.32      1014.0     3        53         4         1        8.86     273      380.4
   07/25/2017 12:40      85.2      84.4       48     62.7      0.00      0.00      84.2     0.32      1015.0     3        12         6       142        8.86     273      294.9
   07/25/2017 12:30      85.7      84.8       48     63.1      0.00      0.00      84.3     0.31      1015.0     4        49         7        81        8.86     273      565.2
   07/25/2017 12:20      84.5      83.6       49     62.6      0.00      0.00      84.3     0.31      1015.0     3        47         6        69        8.87     273      564.1
   07/25/2017 12:10      83.4      81.8       50     62.5      0.00      0.00      84.3     0.32      1015.0     3        57         8        64        8.87     273      557.9
   07/25/2017 12:00      82.8      81.8       51     62.4      0.00      0.00      84.5     0.32      1015.0     4       150         7       125        8.87     273      565.6
   07/25/2017 11:50      83.5      82.1       51     62.8      0.00      0.00      84.4     0.31      1015.0     3        41         6        90        8.87     273      560.6
   07/25/2017 11:40      82.5      81.8       51     62.5      0.00      0.00      84.5     0.32      1015.0     3        38         6        77        8.87     274      535.7
   07/25/2017 11:30      81.9      81.4       52     62.6      0.00      0.00      84.5     0.32      1015.0     3        32         5        31        8.87     275      522.7
   07/25/2017 11:20      82.7      82.2       51     62.6      0.00      0.00      84.3     0.32      1015.0     3        64         7        78        8.87     275      515.7
   07/25/2017 11:10      82.7      80.4       53     62.7      0.00      0.00      84.6     0.32      1015.0     2        46         5        30        8.88     276      513.2
   07/25/2017 11:00      80.5      79.6       55     62.4      0.00      0.00      84.2     0.32      1015.0     2        14         3       338        8.88     276      518.0
   07/25/2017 10:50      79.6      78.0       57     62.2      0.00      0.00      84.4     0.32      1015.0     2        91         3       203        8.89     276      537.4
   07/25/2017 10:40      78.5      77.5       59     62.4      0.00      0.00      84.5     0.32      1015.0     3        25         5        33        8.90     276      570.4
   07/25/2017 10:30      77.6      76.2       60     62.2      0.00      0.00      84.6     0.32      1015.0     2        48         4        92        8.90     276      370.3
   07/25/2017 10:20      76.5      76.1       62     62.2      0.00      0.00      84.7     0.32      1015.0     2        18         4        38        8.90     277      323.8
   07/25/2017 10:10      76.2      74.3       64     62.1      0.00      0.00      84.6     0.32      1015.0     2         3         3       355        8.92     277      319.6
   07/25/2017 10:00      74.3      73.6       66     61.9      0.00      0.00      84.8     0.32      1015.0     1       349         3         8        8.92     277      275.3
   07/25/2017 09:50      73.5      72.2       68     61.8      0.00      0.00      84.6     0.32      1015.0     1       331         2       326        8.92     277      185.2
   07/25/2017 09:40      72.1      71.7       70     61.6      0.00      0.00      84.7     0.32      1015.0     2       143         4       140        8.92     277      151.7
   07/25/2017 09:30      73.0      72.3       69     61.7      0.00      0.00      84.7     0.32      1015.0     3       354         5       353        8.93     277      190.1
   07/25/2017 09:20      72.6      72.1       69     61.5      0.00      0.00      84.8     0.32      1015.0     2       327         4       332        8.93     277      388.8
   07/25/2017 09:10      73.0      70.6       71     61.6      0.00      0.00      84.7     0.32      1015.0     1        38         2       105        8.93     277      292.6
   07/25/2017 09:00      70.9      70.2       73     61.3      0.00      0.00      84.5     0.32      1015.0     2        49         2        43        8.93     277      100.2
   07/25/2017 08:50      70.8      70.3       72     61.3      0.00      0.00      84.8     0.32      1015.0     2        29         3        16        8.93     277       79.7
   07/25/2017 08:40      70.8      69.8       73     61.4      0.00      0.00      84.7     0.32      1015.0     2        44         3       336        8.94     277      128.5
   07/25/2017 08:30      69.9      69.2       74     61.1      0.00      0.00      84.7     0.32      1015.0     2        54         3        65        8.94     277      107.3
   07/25/2017 08:20      69.3      69.2       75     61.1      0.00      0.00      84.7     0.32      1015.0     3        40         5        86        8.94     277       82.7
   07/25/2017 08:10      69.7      69.1       75     61.2      0.00      0.00      84.4     0.32      1015.0     2        25         3        44        8.94     277       59.8
   07/25/2017 08:00      69.3      69.0       76     61.2      0.00      0.00      85.1     0.32      1015.0     2        58         4       354        8.94     277       50.0
   07/25/2017 07:50      69.1      68.7       76     61.1      0.00      0.00      85.1     0.32      1015.0     2        45         2        34        8.94     277       39.3
   07/25/2017 07:40      68.8      68.2       77     61.0      0.00      0.00      84.9     0.32      1015.0     1        57         2        73        8.94     277       28.7
   07/25/2017 07:30      68.5      67.8       78     61.0      0.00      0.00      85.0     0.32      1015.0     2        28         2        30        8.94     277       29.7
   07/25/2017 07:20      67.9      67.6       79     60.9      0.00      0.00      84.8     0.32      1015.0     2        50         4       107        8.94     277       31.3
   07/25/2017 07:10      67.8      67.2       80     60.9      0.00      0.00      84.8     0.32      1015.0     2        62         3        74        8.94     277       21.0
   07/25/2017 07:00      67.3      66.9       81     60.9      0.00      0.00      85.0     0.32      1015.0     2        62         3        71        8.94     277        4.8
   07/25/2017 06:50      67.1      66.7       81     60.7      0.00      0.00      85.0     0.32      1015.0     2        67         4        68        8.94     277       -5.9
   07/25/2017 06:40      66.8      66.6       81     60.6      0.00      0.00      85.2     0.32      1014.0     1        45         3        32        8.94     277      -22.0
   07/25/2017 06:30      66.8      66.7       80     60.5      0.00      0.00      85.2     0.32      1014.0     2        41         2        50        8.95     277      -30.8
   07/25/2017 06:20      66.9      66.7       80     60.3      0.00      0.00      84.8     0.32      1014.0     2        52         3        67        8.95     277      -34.6
   07/25/2017 06:10      67.0      66.7       79     60.1      0.00      0.00      85.2     0.32      1014.0     2        58         4        77        8.95     277      -38.2
   07/25/2017 06:00      67.2      67.0       78     60.1      0.00      0.00      85.1     0.32      1014.0     1        59         2        57        8.95     277      -36.0
   07/25/2017 05:50      67.3      67.0       78     60.0      0.00      0.00      85.1     0.32      1014.0     2        55         3        85        8.95     277      -30.0
   07/25/2017 05:40      67.1      66.8       78     59.9      0.00      0.00      85.3     0.32      1014.0     1        36         1       126        8.95     277      -26.6
   07/25/2017 05:30      67.0      66.6       79     59.9      0.00      0.00      85.6     0.32      1014.0     1        75         2        88        8.95     277      -25.1
   07/25/2017 05:20      66.8      66.6       79     60.1      0.00      0.00      85.5     0.32      1014.0     1        90         2        77        8.95     277      -24.6
   07/25/2017 05:10      66.8      66.5       80     60.2      0.00      0.00      85.6     0.32      1014.0     1        76         2        85        8.95     277      -25.2
   07/25/2017 05:00      66.6      66.4       80     60.2      0.00      0.00      85.4     0.32      1014.0     1        76         3        86        8.95     277      -26.5
   07/25/2017 04:50      66.4      66.2       81     60.2      0.00      0.00      85.0     0.32      1014.0     1        66         2        70        8.95     277      -26.8
   07/25/2017 04:40      66.4      66.2       81     60.1      0.00      0.00      85.9     0.32      1013.0     1        92         1        98        8.95     277      -31.2
   07/25/2017 04:30      66.5      66.2       80     60.0      0.00      0.00      85.2     0.32      1013.0     1        79         2        91        8.95     277      -40.8
   07/25/2017 04:20      66.7      66.3       80     60.1      0.00      0.00      85.4     0.32      1013.0     1        89         1        91        8.96     277      -43.1
   07/25/2017 04:10      66.8      66.7       80     60.2      0.00      0.00      85.6     0.32      1013.0     1        37         2        14        8.96     277      -43.3
   07/25/2017 04:00      66.9      66.8       79     60.1      0.00      0.00      85.6     0.32      1014.0     1        58         2        14        8.96     277      -40.9
   07/25/2017 03:50      67.0      66.8       79     60.1      0.00      0.00      85.9     0.32      1014.0     1        52         2        35        8.96     277      -38.8
   07/25/2017 03:40      66.9      66.7       79     60.1      0.00      0.00      85.5     0.32      1014.0     2        53         2        76        8.96     277      -40.8
   07/25/2017 03:30      66.9      66.8       79     60.2      0.00      0.00      85.8     0.32      1014.0     2        84         3        80        8.96     277      -44.0
   07/25/2017 03:20      67.2      67.0       79     60.3      0.00      0.00      85.8     0.32      1014.0     2        85         3        96        8.96     277      -45.6
   07/25/2017 03:10      67.1      67.0       79     60.3      0.00      0.00      86.0     0.32      1014.0     2        55         4        76        8.96     276      -45.2
   07/25/2017 03:00      67.4      67.1       78     60.3      0.00      0.00      85.7     0.32      1014.0     1        64         4        81        8.96     276      -46.1
   07/25/2017 02:50      67.4      67.1       78     60.3      0.00      0.00      85.9     0.32      1014.0     1        60         2        84        8.96     276      -46.6
   07/25/2017 02:40      67.6      67.4       78     60.3      0.00      0.00      86.2     0.32      1014.0     1        88         2        79        8.96     276      -47.0
   07/25/2017 02:30      67.8      67.6       78     60.4      0.00      0.00      85.8     0.33      1014.0     1        34         1        50        8.96     276      -47.1
   07/25/2017 02:20      67.8      67.6       78     60.4      0.00      0.00      86.2     0.33      1014.0     1        27         2        26        8.96     276      -43.8
   07/25/2017 02:10      67.9      67.5       77     60.3      0.00      0.00      86.1     0.33      1014.0     1        47         2       353        8.97     276      -38.7
   07/25/2017 02:00      67.6      67.4       78     60.3      0.00      0.00      86.0     0.32      1014.0     1        65         2        89        8.97     276      -34.8
   07/25/2017 01:50      67.6      67.4       77     60.3      0.00      0.00      86.0     0.33      1014.0     2        75         4        85        8.97     276      -36.1
   07/25/2017 01:40      67.8      67.6       77     60.2      0.00      0.00      86.0     0.33      1014.0     2        60         2        66        8.97     275      -40.4
   07/25/2017 01:30      68.2      67.7       76     60.1      0.00      0.00      86.1     0.33      1014.0     3        59         4        86        8.97     276      -47.1
   07/25/2017 01:20      68.3      68.1       75     60.1      0.00      0.00      86.1     0.33      1014.0     2        55         3        76        8.97     275      -50.9
   07/25/2017 01:10      68.7      68.3       74     60.0      0.00      0.00      86.2     0.33      1014.0     2        49         4        72        8.97     275      -52.3
   07/25/2017 01:00      69.3      68.8       72     59.5      0.00      0.00      86.2     0.33      1014.0     2        46         4        75        8.98     275      -50.5
   07/25/2017 00:50      69.3      69.1       68     58.1      0.00      0.00      86.2     0.33      1014.0     2        59         3        64        8.98     275      -48.7
   07/25/2017 00:40      69.2      69.0       63     56.0      0.00      0.00      86.3     0.33      1014.0     1        69         2        46        8.99     275      -50.1
   07/25/2017 00:30      69.3      69.1       62     55.6      0.00      0.00      86.4     0.33      1014.0     1       142         2       173        8.99     275      -51.1
   07/25/2017 00:20      69.7      69.3       61     55.4      0.00      0.00      86.4     0.33      1014.0     1       185         2       182        8.99     275      -51.3
   07/25/2017 00:10      69.6      69.4       61     55.5      0.00      0.00      86.2     0.33      1014.0     0       155         1       138        8.99     275      -52.2
   07/25/2017 00:00      70.2      69.6       60     55.3      0.00      0.00      86.6     0.33      1014.0     1       128         2       169        8.99     275      -53.4
   07/24/2017 23:50      70.3      69.9       60     55.5      0.00      0.00      86.5     0.33      1013.0     1       133         1       152        8.99     275      -53.1
   07/24/2017 23:40      70.8      70.4       59     55.8      0.00      0.00      86.6     0.33      1013.0     1       163         1       177        8.99     275      -52.5
   07/24/2017 23:30      71.1      70.8       59     55.8      0.00      0.00      86.3     0.33      1013.0     2       146         2       143        8.99     275      -49.4
   07/24/2017 23:20      71.0      70.8       58     55.4      0.00      0.00      86.4     0.33      1013.0     2       153         2       163        8.99     275      -51.0
   07/24/2017 23:10      71.3      70.8       58     55.7      0.00      0.00      86.4     0.33      1013.0     1       119         2       127        8.99     275      -55.7
   07/24/2017 23:00      71.6      71.3       59     56.2      0.00      0.00      86.7     0.33      1013.0     1        63         1       109        8.99     275      -55.1
   07/24/2017 22:50      71.8      71.7       60     57.0      0.00      0.00      86.6     0.33      1013.0     1       119         1       111        8.99     275      -54.7
   07/24/2017 22:40      72.2      71.8       60     57.3      0.00      0.00      86.6     0.33      1013.0     1        85         1        63        8.99     274      -53.7
   07/24/2017 22:30      72.7      72.2       59     57.4      0.00      0.00      86.5     0.33      1013.0     1        82         1        77        8.99     274      -55.4
   07/24/2017 22:20      72.9      72.7       59     57.8      0.00      0.00      86.6     0.33      1013.0     1        76         1       100        8.99     274      -54.8
   07/24/2017 22:10      73.0      72.8       60     58.2      0.00      0.00      86.9     0.33      1013.0     1        89         1        64        8.99     274      -48.9
   07/24/2017 22:00      73.2      72.9       61     58.7      0.00      0.00      86.6     0.33      1013.0     1        97         1       120        8.99     274      -46.2
   07/24/2017 21:50      73.4      73.2       60     58.8      0.00      0.00      86.6     0.33      1012.0     1        95         1       122        8.99     274      -48.2
   07/24/2017 21:40      73.8      73.3       60     58.9      0.00      0.00      86.7     0.33      1012.0     1       111         1       100        8.99     274      -50.8
   07/24/2017 21:30      74.2      73.9       60     59.1      0.00      0.00      86.6     0.33      1012.0     1        53         1        76        9.00     274      -54.3
   07/24/2017 21:20      74.5      74.3       59     59.2      0.00      0.00      86.3     0.33      1012.0     1        39         1        39        9.00     274      -57.6
   07/24/2017 21:10      74.6      74.4       60     59.7      0.00      0.00      86.7     0.33      1012.0     2        24         2        28        9.00     273      -58.0
   07/24/2017 21:00      74.8      74.5       60     59.7      0.00      0.00      86.7     0.33      1012.0     1        57         2        29        9.00     274      -56.0
   07/24/2017 20:50      75.1      74.8       59     59.8      0.00      0.00      86.6     0.33      1012.0     1        46         2        31        9.00     273      -51.8
   07/24/2017 20:40      75.2      75.0       59     59.8      0.00      0.00      86.7     0.33      1012.0     1        39         2        29        9.01     273      -46.5
   07/24/2017 20:30      75.5      75.2       58     59.4      0.00      0.00      86.6     0.33      1012.0     2        29         3         6        9.01     273      -45.1
   07/24/2017 20:20      75.8      75.5       56     59.0      0.00      0.00      86.5     0.33      1012.0     2        47         3        81        9.01     273      -46.8
   07/24/2017 20:10      76.5      75.9       54     58.5      0.00      0.00      86.7     0.33      1012.0     3        52         4        65        9.01     273      -49.2
   07/24/2017 20:00      77.4      76.8       52     58.1      0.00      0.00      86.6     0.33      1012.0     2        33         3        35        9.01     273      -48.9
   07/24/2017 19:50      78.3      77.6       49     57.5      0.00      0.00      86.5     0.33      1012.0     2        53         3        13        9.02     272      -46.9
   07/24/2017 19:40      79.0      78.5       42     53.4      0.00      0.00      86.8     0.33      1011.0     2        87         3        70        9.02     272      -45.7
   07/24/2017 19:30      79.0      78.5       42     53.5      0.00      0.00      86.5     0.33      1011.0     2       127         3       157        9.02     272      -39.1
   07/24/2017 19:20      79.3      78.7       40     52.7      0.00      0.00      86.5     0.33      1011.0     3       155         4       150        9.02     272      -24.8
   07/24/2017 19:10      79.5      79.1       41     53.5      0.00      0.00      86.4     0.33      1011.0     3       153         4       129        9.02     272      -13.7
   07/24/2017 19:00      80.3      79.6       40     53.2      0.00      0.00      86.4     0.33      1011.0     4       155         6       162        9.03     272        1.6
   07/24/2017 18:50      80.7      80.3       37     52.1      0.00      0.00      86.4     0.32      1011.0     4       151         6       138        9.03     272       27.1
   07/24/2017 18:40      80.9      80.7       39     53.3      0.00      0.00      86.6     0.32      1011.0     4       164         6       160        9.03     272       39.6
   07/24/2017 18:30      81.3      80.9       39     53.7      0.00      0.00      86.5     0.32      1011.0     4       181         6       171        9.03     272       54.4
   07/24/2017 18:20      81.6      81.1       39     53.8      0.00      0.00      86.5     0.32      1011.0     4       142         6       136        9.04     272       99.8
   07/24/2017 18:10      81.8      81.0       38     53.7      0.00      0.00      86.3     0.32      1011.0     4       170         6       166        9.04     272      137.8
   07/24/2017 18:00      81.8      80.9       38     53.1      0.00      0.00      86.8     0.32      1011.0     4       160         7       166        9.04     273      195.7
   07/24/2017 17:50      81.4      80.7       36     51.8      0.00      0.00      86.5     0.32      1011.0     5       154         7       141        9.04     273      179.6
   07/24/2017 17:40      80.7      79.4       36     50.9      0.00      0.00      86.4     0.32      1011.0     4       154         8       178        9.04     274      124.3
   07/24/2017 17:30      80.2      79.5       38     52.2      0.00      0.00      86.2     0.32      1011.0     6       168         8       174        9.05     272       79.9
   07/24/2017 17:20      80.9      80.2       39     53.1      0.00      0.00      86.5     0.32      1011.0     5       171         6       157        9.05     273       74.2
   07/24/2017 17:10      81.4      80.7       39     53.6      0.00      0.00      86.2     0.32      1011.0     5       173         7       207        9.05     273       99.2
   07/24/2017 17:00      81.0      80.5       40     54.0      0.00      0.00      86.4     0.32      1011.0     4       166         6       167        9.05     273      111.6
   07/24/2017 16:50      82.1      80.7       40     55.1      0.00      0.00      86.0     0.32      1011.0     7       173        10       160        9.06     273      153.4
   07/24/2017 16:40      82.6      82.0       41     56.1      0.00      0.00      86.4     0.32      1011.0     6       154        11       150        9.06     274      198.7
   07/24/2017 16:30      83.6      82.6       41     57.1      0.00      0.00      86.4     0.32      1011.0     5       150         7       139        9.06     274      174.7
   07/24/2017 16:20      84.5      83.8       40     57.3      0.00      0.00      86.1     0.32      1011.0     4       128         6       158        9.07     274      175.4
   07/24/2017 16:10      84.2      83.3       41     57.5      0.00      0.00      86.2     0.32      1011.0     3       103         5       101        9.07     275      211.6
   07/24/2017 16:00      83.6      82.7       42     57.5      0.00      0.00      86.1     0.32      1011.0     4        87         6        72        9.07     275      257.6
   07/24/2017 15:50      82.7      82.3       43     57.6      0.00      0.00      86.2     0.32      1011.0     3       140         5       194        9.08     275      175.3
   07/24/2017 15:40      82.5      81.7       45     58.4      0.00      0.00      85.9     0.32      1011.0     5       105         8        57        9.09     275      158.5
   07/24/2017 15:30      82.6      81.9       46     59.1      0.00      0.00      85.9     0.32      1011.0     6       131         9       128        9.09     276      133.5
   07/24/2017 15:20      83.4      82.3       44     59.0      0.00      0.00      85.9     0.32      1011.0     4       128         7       130        9.10     276      119.0
   07/24/2017 15:10      83.9      82.7       43     58.9      0.00      0.00      85.6     0.32      1011.0     4        99         7       120        9.10     276      144.9
   07/24/2017 15:00      84.0      82.7       44     58.9      0.00      0.00      86.0     0.32      1011.0     4       141         6       189        9.10     276      144.1
   07/24/2017 14:50      83.8      82.8       43     58.7      0.00      0.00      86.0     0.32      1011.0     5       169         7       169        9.10     277      152.0
   07/24/2017 14:40      83.0      82.5       44     58.4      0.00      0.00      85.9     0.32      1011.0     6       154         9       162        9.11     278      218.0
   07/24/2017 14:30      83.2      82.5       44     58.6      0.00      0.00      85.7     0.32      1012.0     7       148         8       170        9.11     278      220.1
   07/24/2017 14:20      85.5      82.7       42     58.3      0.00      0.00      85.9     0.32      1012.0     6       171         7       164        9.11     279      205.8
   07/24/2017 14:10      87.0      85.8       37     57.5      0.00      0.00      85.6     0.32      1012.0     4       131         7       166        9.11     280      286.0
   07/24/2017 14:00      87.6      86.9       33     54.7      0.00      0.00      85.7     0.32      1012.0     3       136         7       137        9.11     281      277.3
   07/24/2017 13:50      88.7      87.9       30     53.2      0.00      0.00      86.0     0.32      1012.0     3        27         4        21        9.11     281      219.7
   07/24/2017 13:40      88.5      87.6       31     53.9      0.00      0.00      85.7     0.32      1012.0     3        37         6        74        9.11     282      363.7
   07/24/2017 13:30      88.0      87.6       33     54.8      0.00      0.00      85.8     0.32      1012.0     3        56         4        60        9.11     284      255.9
   07/24/2017 13:20      89.0      87.8       35     57.2      0.00      0.00      85.9     0.32      1012.0     4        25         6         5        9.11     285      430.6
   07/24/2017 13:10      87.7      87.0       36     56.9      0.00      0.00      85.8     0.32      1012.0     3        52         6        89        9.11     285      564.0
   07/24/2017 13:00      88.0      87.6       35     56.8      0.00      0.00      85.7     0.32      1012.0     4        66         6        85        9.11     286      372.8
   07/24/2017 12:50      88.0      85.8       36     56.8      0.00      0.00      85.7     0.32      1012.0     4        71         7        82        9.11     287      642.7
   07/24/2017 12:40      86.7      86.1       36     55.9      0.00      0.00      85.6     0.32      1013.0     3        68         8       139        9.11     289      333.6
   07/24/2017 12:30      86.2      85.2       36     55.9      0.00      0.00      85.8     0.32      1013.0     3        37         4        74        9.11     290      343.1
   07/24/2017 12:20      86.0      85.1       38     56.8      0.00      0.00      85.8     0.32      1013.0     4        42         6       352        9.11     293      337.5
   07/24/2017 12:10      85.8      84.8       39     57.8      0.00      0.00      86.0     0.32      1013.0     4        34         6        60        9.11     296      641.1
   07/24/2017 12:00      85.8      84.6       39     57.5      0.00      0.00      85.9     0.32      1013.0     4        54         7        76        9.11     300      689.9
   07/24/2017 11:50      85.7      85.0       36     55.3      0.00      0.00      86.0     0.32      1013.0     5        60         9        84        9.11     303      619.6
   07/24/2017 11:40      85.7      84.7       35     54.7      0.00      0.00      86.0     0.32      1013.0     4        69         7        23        9.11     311      631.9
   07/24/2017 11:30      84.7      82.8       34     52.8      0.00      0.00      85.7     0.32      1013.0     4        71         8        82        9.11     321      650.0
   07/24/2017 11:20      82.8      81.6       36     52.6      0.00      0.00      86.2     0.32      1013.0     4        91         7        94        9.11     328      434.2
   07/24/2017 11:10      82.3      81.6       41     55.7      0.00      0.00      85.8     0.32      1013.0     4        74         6       109        9.11     341      290.8
   07/24/2017 11:00      83.6      82.4       39     55.6      0.00      0.00      86.1     0.33      1013.0     3        61         7        75        9.11     363      541.7
   07/24/2017 10:50      83.4      81.6       40     55.5      0.00      0.00      86.0     0.32      1013.0     3        69         5        70        9.11     392      606.5
   07/24/2017 10:40      81.8      80.6       43     56.6      0.00      0.00      86.0     0.32      1014.0     3        57         5       125        9.11     423      692.2
   07/24/2017 10:30      80.3      77.3       49     57.6      0.00      0.00      86.1     0.33      1014.0     3        58         5       122        9.11     452      545.1
   07/24/2017 10:20      77.3      76.6       53     58.5      0.00      0.00      86.1     0.33      1014.0     3       116         6        56        9.11     466      253.5
   07/24/2017 10:10      76.6      75.6       55     58.7      0.00      0.00      86.3     0.33      1014.0     3        29         4        90        9.11     480      191.1
   07/24/2017 10:00      75.7      75.1       57     59.1      0.00      0.00      86.1     0.33      1014.0     2        50         2        34        9.11     493      120.6
   07/24/2017 09:50      75.5      75.2       58     59.6      0.00      0.00      86.2     0.33      1013.0     2        27         6        77        9.11     507      178.2
   07/24/2017 09:40      75.2      74.3       59     59.4      0.00      0.00      86.3     0.33      1013.0     3        52         4       134        9.11     524      280.6
   07/24/2017 09:30      74.4      74.0       59     58.9      0.00      0.00      86.3     0.33      1013.0     2       102         4        88        9.11     529      168.6
   07/24/2017 09:20      74.6      73.8       60     59.1      0.00      0.00      86.3     0.33      1013.0     1        48         2        57        9.11     538      190.5
   07/24/2017 09:10      73.9      73.0       61     59.2      0.00      0.00      86.4     0.33      1013.0     2        53         4        59        9.11     553      169.4
   07/24/2017 09:00      73.3      72.5       62     59.4      0.00      0.00      86.7     0.33      1013.0     3        25         4        21        9.11     567      254.1
   07/24/2017 08:50      72.5      71.9       65     59.6      0.00      0.00      85.9     0.33      1013.0     3        59         4        81        9.11     586      172.3
   07/24/2017 08:40      71.9      71.2       67     60.0      0.00      0.00      86.8     0.33      1013.0     2        54         5       103        9.11     609        1.5
   07/24/2017 08:30      71.4      70.6       68     60.0      0.00      0.00      86.6     0.33      1013.0     2        76         4        79        9.11     581       -0.9
   07/24/2017 08:20      70.5      70.0       70     60.0      0.00      0.00      86.3     0.32      1013.0     2        53         4        68        9.11     272       -2.1
   07/24/2017 08:10      70.2      69.6       71     60.2      0.00      0.00      86.5     0.32      1013.0     2        37         4        27        9.11     272       -7.1
   07/24/2017 08:00      69.7      69.0       73     60.1      0.00      0.00      86.6     0.32      1013.0     2       357         2        12        8.02     272       -2.4
   07/24/2017 07:50      69.2      68.4       74     60.3      0.00      0.00      86.3     0.32      1013.0     2        62         3       356        8.02     272      -11.0
   07/24/2017 07:40      68.7      68.2       75     60.4      0.00      0.00      86.6     0.32      1013.0     3        10         4        20        8.03     272       -9.2
   07/24/2017 07:30      68.2      67.8       77     60.5      0.00      0.00      86.7     0.32      1013.0     2        24         3       352        8.03     272      -17.8
   07/24/2017 07:20      68.0      67.2       78     60.5      0.00      0.00      87.0     0.32      1013.0     1       118         2       127        8.03     272      -17.0
   07/24/2017 07:10      67.3      66.2       80     60.3      0.00      0.00      86.5     0.32      1013.0     1       102         1        87        8.03     272      -19.4
   07/24/2017 07:00      66.3      65.6       82     60.0      0.00      0.00      86.8     0.32      1013.0     1       151         1        86        8.03     272      -25.4
   07/24/2017 06:50      65.6      65.2       82     59.7      0.00      0.00      86.8     0.32      1013.0     1        65         2        91        8.03     272      -29.9
   07/24/2017 06:40      65.3      65.0       83     59.7      0.00      0.00      86.9     0.32      1013.0     1       125         1       152        8.03     272      -35.8
   07/24/2017 06:30      65.1      64.5       84     59.7      0.00      0.00      87.1     0.33      1012.0     1       202         2       198        8.03     271      -40.4
   07/24/2017 06:20      64.8      64.5       83     59.4      0.00      0.00      86.4     0.33      1012.0     1       116         1       122        8.03     271      -45.5
   07/24/2017 06:10      65.0      64.7       84     59.8      0.00      0.00      87.0     0.32      1012.0     1       148         1       159        8.03     271      -47.4
   07/24/2017 06:00      65.1      64.7       82     59.3      0.00      0.00      86.8     0.33      1012.0     1       143         1       193        8.03     272      -50.5
   07/24/2017 05:50      65.2      64.8       83     59.8      0.00      0.00      87.0     0.33      1012.0     1       202         1       186        8.03     271      -49.8
   07/24/2017 05:40      65.1      64.8       83     59.6      0.00      0.00      87.0     0.33      1012.0     0       188         1       185        8.03     271      -49.7
   07/24/2017 05:30      65.2      64.8       82     59.3      0.00      0.00      86.7     0.33      1012.0     1        96         1        97        8.03     271      -49.9
   07/24/2017 05:20      65.3      64.8       83     59.8      0.00      0.00      86.8     0.33      1012.0     1       150         1       173        8.03     271      -46.9
   07/24/2017 05:10      65.3      65.0       82     59.6      0.00      0.00      86.7     0.33      1012.0     1       151         2       156        8.03     271      -48.0
   07/24/2017 05:00      65.5      65.1       81     59.5      0.00      0.00      87.2     0.33      1012.0     1       128         1       112        8.03     271      -48.3
   07/24/2017 04:50      65.7      65.4       82     59.8      0.00      0.00      87.2     0.33      1012.0     1       138         1       129        8.03     271      -46.3
   07/24/2017 04:40      65.8      65.6       81     59.8      0.00      0.00      87.3     0.33      1012.0     0       171         1        88        8.03     271      -44.6
   07/24/2017 04:30      66.0      65.6       81     59.7      0.00      0.00      87.1     0.33      1012.0     1        78         2        69        8.03     271      -46.5
   07/24/2017 04:20      66.2      65.9       80     59.9      0.00      0.00      87.4     0.33      1012.0     1        48         2        37        8.03     271      -51.5
   07/24/2017 04:10      66.3      66.0       81     60.0      0.00      0.00      87.3     0.33      1012.0     1        25         2        25        8.03     271      -52.5
   07/24/2017 04:00      66.3      66.0       80     59.8      0.00      0.00      87.4     0.33      1012.0     1        47         1        58        8.03     271      -52.6
   07/24/2017 03:50      66.5      66.2       80     59.8      0.00      0.00      87.5     0.33      1012.0     1        64         2        43        8.03     271      -53.6
   07/24/2017 03:40      66.5      66.3       80     60.0      0.00      0.00      87.5     0.33      1012.0     2        31         2        30        8.03     271      -55.1
   07/24/2017 03:30      66.5      66.2       80     59.9      0.00      0.00      87.1     0.33      1012.0     1        36         2        33        8.03     271      -55.7
   07/24/2017 03:20      66.6      66.3       79     59.8      0.00      0.00      87.4     0.33      1012.0     1        60         2        57        8.03     271      -55.8
   07/24/2017 03:10      66.7      66.4       79     59.8      0.00      0.00      87.5     0.33      1012.0     2        48         2        72        8.03     271      -56.1
   07/24/2017 03:00      67.0      66.7       78     59.8      0.00      0.00      87.4     0.33      1012.0     2        52         3        67        8.03     271      -56.9
   07/24/2017 02:50      67.0      66.8       78     59.8      0.00      0.00      87.6     0.33      1012.0     2        44         3        33        8.03     271      -57.2
   07/24/2017 02:40      67.1      66.8       78     59.8      0.00      0.00      87.5     0.33      1012.0     2        64         3        98        8.03     271      -56.9
   07/24/2017 02:30      67.3      67.1       77     59.8      0.00      0.00      87.7     0.33      1012.0     3        62         5        64        8.03     271      -57.0
   07/24/2017 02:20      67.5      67.3       76     59.7      0.00      0.00      87.5     0.33      1012.0     3        70         4        62        8.04     271      -57.0
   07/24/2017 02:10      67.7      67.5       75     59.4      0.00      0.00      87.9     0.33      1012.0     3        64         4        82        8.04     271      -57.1
   07/24/2017 02:00      67.8      67.6       73     59.0      0.00      0.00      87.6     0.33      1012.0     2        62         3        81        8.04     271      -57.4
   07/24/2017 01:50      67.9      67.8       72     58.7      0.00      0.00      87.8     0.33      1012.0     2        58         5        69        8.04     271      -57.9
   07/24/2017 01:40      68.0      67.8       72     58.5      0.00      0.00      87.6     0.33      1012.0     2        56         3        54        8.04     270      -57.7
   07/24/2017 01:30      68.2      68.0       71     58.3      0.00      0.00      88.0     0.33      1012.0     2        81         3        74        8.04     270      -58.1
   07/24/2017 01:20      68.2      68.1       70     58.0      0.00      0.00      87.8     0.33      1012.0     2        47         3       100        8.04     270      -58.0
   07/24/2017 01:10      68.3      68.0       70     57.8      0.00      0.00      87.7     0.33      1012.0     2        62         3        68        8.04     270      -58.1
   07/24/2017 01:00      68.3      68.0       69     57.8      0.00      0.00      88.0     0.33      1012.0     2        80         2        68        8.04     270      -58.1
   07/24/2017 00:50      68.4      68.1       70     58.0      0.00      0.00      87.9     0.33      1012.0     2        70         3        59        8.04     270      -57.8
   07/24/2017 00:40      68.3      68.1       71     58.4      0.00      0.00      88.1     0.33      1012.0     1        75         2       100        8.04     270      -58.4
   07/24/2017 00:30      68.5      68.2       71     58.6      0.00      0.00      88.0     0.33      1012.0     1        79         2        72        8.04     270      -58.5
   07/24/2017 00:20      68.4      68.3       71     58.5      0.00      0.00      88.0     0.33      1012.0     1        72         3        76        8.04     270      -58.8
   07/24/2017 00:10      68.5      68.3       70     58.1      0.00      0.00      88.0     0.33      1012.0     1        76         1        86        8.04     270      -58.9
   07/24/2017 00:00      68.8      68.6       70     58.3      0.00      0.00      87.9     0.33      1012.0     1        87         1       107        8.04     269      -59.5
   07/23/2017 23:50      69.1      68.7       69     58.5      0.00      0.00      87.9     0.33      1013.0     1        64         3        73        8.04     269      -60.3
   07/23/2017 23:40      69.0      68.8       68     58.1      0.00      0.00      88.1     0.33      1013.0     1        45         1        39        8.04     270      -60.9
   07/23/2017 23:30      69.1      68.9       68     58.1      0.00      0.00      88.1     0.33      1013.0     1        90         2        91        8.04     269      -61.8
   07/23/2017 23:20      69.2      69.1       68     58.2      0.00      0.00      88.0     0.33      1013.0     2        68         4        90        8.04     269      -62.6
   07/23/2017 23:10      69.3      69.1       68     58.1      0.00      0.00      87.9     0.33      1013.0     2        63         4        70        8.04     269      -63.8
   07/23/2017 23:00      69.9      69.5       67     58.2      0.00      0.00      87.9     0.33      1013.0     2        70         3        79        8.04     269      -64.7
   07/23/2017 22:50      70.0      69.8       66     58.2      0.00      0.00      88.2     0.33      1013.0     1        31         3        74        8.04     269      -65.1
   07/23/2017 22:40      70.5      69.9       66     58.5      0.00      0.00      88.0     0.33      1013.0     1        36         2        57        8.04     269      -64.8
   07/23/2017 22:30      70.6      70.5       66     58.7      0.00      0.00      88.1     0.33      1013.0     2        31         3        21        8.04     269      -64.5
   07/23/2017 22:20      70.6      70.5       64     57.6      0.00      0.00      88.1     0.33      1013.0     1        73         3        73        8.04     269      -64.1
   07/23/2017 22:10      70.7      70.4       65     58.4      0.00      0.00      88.0     0.33      1012.0     2        45         3        62        8.04     269      -64.6
   07/23/2017 22:00      70.9      70.6       65     58.5      0.00      0.00      87.9     0.33      1012.0     2        72         3        80        8.04     269      -65.3
   07/23/2017 21:50      71.6      71.0       65     58.9      0.00      0.00      88.0     0.33      1012.0     2        58         3        33        8.05     269      -65.8
   07/23/2017 21:40      72.8      71.8       63     59.2      0.00      0.00      88.0     0.33      1012.0     3        26         4         9        8.05     268      -66.8
   07/23/2017 21:30      73.3      72.7       56     56.5      0.00      0.00      87.9     0.33      1012.0     3       114         5       359        8.05     268      -67.1
   07/23/2017 21:20      73.8      73.2       54     55.7      0.00      0.00      87.9     0.33      1012.0     3       152         6       184        8.05     268      -67.7
   07/23/2017 21:10      75.1      74.1       52     55.9      0.00      0.00      88.1     0.33      1011.0     3       194         5       187        8.05     268      -68.9
   07/23/2017 21:00      77.4      75.4       49     56.2      0.00      0.00      87.9     0.33      1011.0     3       128         6       150        8.05     268      -70.8
   07/23/2017 20:50      77.9      77.4       48     56.3      0.00      0.00      87.8     0.33      1011.0     3       356         5       350        8.05     268      -72.0
   07/23/2017 20:40      78.2      77.8       45     55.1      0.00      0.00      88.0     0.33      1011.0     1        65         4        88        8.05     268      -71.8
   07/23/2017 20:30      78.6      78.0       45     55.4      0.00      0.00      87.8     0.32      1010.0     3       183         4       180        8.05     268      -72.0
   07/23/2017 20:20      79.0      78.5       45     55.7      0.00      0.00      87.8     0.32      1010.0     4       192         4       183        8.05     268      -72.8
   07/23/2017 20:10      79.8      79.2       45     56.1      0.00      0.00      87.8     0.32      1010.0     4       184         6       173        8.05     268      -73.2
   07/23/2017 20:00      80.9      80.2       44     56.6      0.00      0.00      87.8     0.32      1010.0     2       185         3       200        8.05     268      -71.8
   07/23/2017 19:50      81.9      81.2       43     57.0      0.00      0.00      87.8     0.32      1010.0     3       200         5       212        8.05     267      -68.3
   07/23/2017 19:40      83.1      82.1       42     57.5      0.00      0.00      87.8     0.32      1009.0     3       200         5       217        8.05     267      -61.1
   07/23/2017 19:30      83.5      83.1       42     57.8      0.00      0.00      87.8     0.32      1009.0     3       172         4       171        8.06     268      -47.0
   07/23/2017 19:20      83.8      83.4       42     58.2      0.00      0.00      87.7     0.32      1009.0     3       183         5       194        8.06     267      -33.3
   07/23/2017 19:10      84.6      84.0       42     58.5      0.00      0.00      87.6     0.32      1009.0     5       171         7       161        8.09     267      -15.6
   07/23/2017 19:00      85.6      84.7       41     59.0      0.00      0.00      87.4     0.32      1009.0     4       171         7       163        8.10     267        4.0
   07/23/2017 18:50      86.3      85.6       40     59.2      0.00      0.00      87.5     0.32      1009.0     4       161         6       161        8.10     267       25.4
   07/23/2017 18:40      87.2      86.5       40     59.5      0.00      0.00      87.4     0.32      1009.0     5       162         7       147        8.10     268       48.2
   07/23/2017 18:30      88.9      87.3       39     59.7      0.00      0.00      87.4     0.32      1009.0     4       179         6       204        8.11     267       71.3
   07/23/2017 18:20      90.7      89.0       35     58.6      0.00      0.00      87.2     0.32      1009.0     3       226         6       217        8.11     267       92.7
   07/23/2017 18:10      91.3      90.7       33     58.3      0.00      0.00      87.2     0.32      1009.0     4       258         7       304        8.11     267      115.4
   07/23/2017 18:00      92.0      91.4       32     57.6      0.00      0.00      87.4     0.32      1009.0     4       269         7       288        8.11     267      138.2
   07/23/2017 17:50      93.0      92.5       31     57.8      0.00      0.00      87.4     0.32      1009.0     4       286         8       307        8.12     268      160.9
   07/23/2017 17:40      93.0      92.3       32     58.5      0.00      0.00      87.4     0.32      1009.0     4       298         7       238        8.12     268      183.4
   07/23/2017 17:30      91.8      91.0       36     60.3      0.00      0.00      87.2     0.32      1009.0     5       210        10       200        8.12     268      209.5
   07/23/2017 17:20      91.5      90.9       37     60.9      0.00      0.00      87.0     0.32      1009.0     5       177         8       171        8.12     268      232.9
   07/23/2017 17:10      91.6      90.8       37     60.9      0.00      0.00      87.0     0.32      1008.0     7       162        12       176        8.12     268      256.6
   07/23/2017 17:00      91.6      91.1       36     61.0      0.00      0.00      87.0     0.32      1009.0     7       166        10       176        8.12     268      277.1
   07/23/2017 16:50      92.2      91.3       36     61.2      0.00      0.00      86.7     0.32      1009.0     7       160        10       167        8.13     268      296.1
   07/23/2017 16:40      91.9      91.5       36     61.2      0.00      0.00      86.7     0.32      1009.0     6       169        10       169        8.14     268      317.2
   07/23/2017 16:30      92.0      91.5       36     61.2      0.00      0.00      86.9     0.32      1009.0     5       153         8       133        8.14     268      335.9
   07/23/2017 16:20      92.2      91.8       36     60.9      0.00      0.00      86.7     0.32      1009.0     5       185         8       165        8.14     268      354.0
   07/23/2017 16:10      92.5      91.7       35     60.8      0.00      0.00      86.6     0.32      1009.0     5       188         7       221        8.14     268      371.3
   07/23/2017 16:00      93.3      92.3       35     61.0      0.00      0.00      86.5     0.32      1009.0     5       185        10       170        8.14     268      387.6
   07/23/2017 15:50      93.7      92.2       35     60.9      0.00      0.00      86.4     0.32      1009.0     4       170         6       167        8.15     268      403.6
   07/23/2017 15:40      93.1      91.3       36     61.0      0.00      0.00      86.3     0.32      1009.0     6       174         8       187        8.15     268      420.9
   07/23/2017 15:30      94.1      92.9       35     61.5      0.00      0.00      86.3     0.32      1009.0     4       137         8       160        8.15     268      430.7
   07/23/2017 15:20      94.3      92.9       35     61.9      0.00      0.00      86.4     0.32      1009.0     4       100         6       122        8.16     268      445.5
   07/23/2017 15:10      94.5      93.4       35     62.5      0.00      0.00      86.3     0.32      1009.0     5        78         7       120        8.16     269      459.2
   07/23/2017 15:00      94.7      94.0       35     62.5      0.00      0.00      86.2     0.32      1009.0     5        54         6        73        8.16     269      469.4
   07/23/2017 14:50      95.5      94.2       33     61.0      0.00      0.00      86.1     0.32      1009.0     5        80         8        98        8.17     268      477.6
   07/23/2017 14:40      95.0      93.8       31     59.5      0.00      0.00      86.1     0.32      1010.0     3        22         4        63        8.17     269      486.5
   07/23/2017 14:30      94.1      93.0       33     59.7      0.00      0.00      86.0     0.32      1010.0     3        24         4       113        8.17     269      497.0
   07/23/2017 14:20      94.0      93.6       32     59.8      0.00      0.00      86.0     0.31      1010.0     3        32         4       359        8.17     269      506.6
   07/23/2017 14:10      93.9      93.0       33     60.0      0.00      0.00      86.0     0.31      1010.0     3        23         5        34        8.18     269      514.5
   07/23/2017 14:00      93.5      91.2       33     59.3      0.00      0.00      86.0     0.31      1010.0     3        23         6       356        8.18     269      526.0
   07/23/2017 13:50      92.9      91.3       35     60.1      0.00      0.00      85.8     0.31      1010.0     3        86         7        84        8.18     269      536.4
   07/23/2017 13:40      92.3      91.5       35     59.9      0.00      0.00      85.9     0.31      1010.0     3        62         5        80        8.18     269      538.6
   07/23/2017 13:30      91.5      90.9       35     60.1      0.00      0.00      85.8     0.31      1010.0     3       106         5        75        8.18     269      542.3
   07/23/2017 13:20      91.9      90.6       37     61.1      0.00      0.00      85.7     0.31      1011.0     3        34         6        32        8.19     270      548.2
   07/23/2017 13:10      91.2      90.1       38     61.4      0.00      0.00      85.8     0.31      1011.0     3        57         6        72        8.18     269      551.3
   07/23/2017 13:00      90.6      89.2       39     61.5      0.00      0.00      85.6     0.31      1011.0     3        81         6       134        8.19     269      554.8
   07/23/2017 12:50      89.8      89.2       39     61.4      0.00      0.00      85.7     0.31      1011.0     3        10         5       350        8.24     269      553.5
   07/23/2017 12:40      89.8      88.7       40     61.3      0.00      0.00      85.8     0.31      1011.0     3        55         6        85        8.24     270      556.8
   07/23/2017 12:30      89.3      88.6       40     61.4      0.00      0.00      85.8     0.31      1011.0     5         6         8         0        8.24     270      551.8
   07/23/2017 12:20      88.7      87.7       41     61.4      0.00      0.00      85.7     0.31      1011.0     4        27         7         9        8.25     270      549.5
   07/23/2017 12:10      88.3      87.4       41     61.0      0.00      0.00      85.5     0.31      1012.0     4        23         7       354        8.25     270      545.4
   07/23/2017 12:00      87.9      87.3       41     61.1      0.00      0.00      85.7     0.31      1012.0     4        48         6        91        8.25     270      543.6
   07/23/2017 11:50      87.9      86.3       42     61.2      0.00      0.00      85.6     0.31      1012.0     4        26         7        64        8.25     270      538.3
   07/23/2017 11:40      87.1      85.8       42     60.5      0.00      0.00      85.7     0.31      1012.0     4        37         6        24        8.25     271      528.6
   07/23/2017 11:30      86.1      85.3       43     60.5      0.00      0.00      85.8     0.32      1012.0     4         7         6       353        8.25     271      521.1
   07/23/2017 11:20      85.7      84.6       44     60.8      0.00      0.00      85.6     0.32      1012.0     4        28         8       355        8.25     271      513.1
   07/23/2017 11:10      85.0      83.9       45     60.7      0.00      0.00      85.7     0.32      1012.0     3        11         4        11        8.25     271      505.9
   07/23/2017 11:00      84.0      82.8       46     60.5      0.00      0.00      85.6     0.32      1012.0     3        46         5        93        8.25     271      496.8
   07/23/2017 10:50      83.2      82.5       47     60.8      0.00      0.00      85.7     0.32      1012.0     3        59         6        73        8.25     271      483.6
   07/23/2017 10:40      83.8      82.6       49     61.8      0.00      0.00      85.8     0.32      1012.0     4        39         5        31        8.25     272      471.3
   07/23/2017 10:30      83.0      82.3       50     62.4      0.00      0.00      85.7     0.32      1012.0     3        36         6        18        8.26     273      457.3
   07/23/2017 10:20      82.3      81.4       52     62.4      0.00      0.00      86.1     0.32      1012.0     3        50         5       350        8.27     273      443.6
   07/23/2017 10:10      81.7      80.8       53     62.5      0.00      0.00      85.9     0.32      1012.0     3        79         6        87        8.27     272      429.1
   07/23/2017 10:00      80.3      79.6       55     62.4      0.00      0.00      86.0     0.32      1012.0     3        45         4        53        8.27     272      411.6
   07/23/2017 09:50      79.7      79.3       55     62.2      0.00      0.00      85.7     0.32      1012.0     3        27         4        26        8.27     272      393.3
   07/23/2017 09:40      79.5      78.3       56     61.9      0.00      0.00      86.0     0.32      1012.0     3        59         4         3        8.27     272      375.7
   07/23/2017 09:30      78.0      76.9       58     61.6      0.00      0.00      86.1     0.32      1012.0     2        75         4        24        8.27     272      358.2
   07/23/2017 09:20      77.0      76.3       60     61.6      0.00      0.00      86.1     0.32      1012.0     3        71         6       111        8.27     272      339.9
   07/23/2017 09:10      76.3      75.0       61     61.4      0.00      0.00      86.2     0.32      1012.0     2        35         4       351        8.27     272      326.6
   07/23/2017 09:00      74.9      73.3       64     61.3      0.00      0.00      86.0     0.32      1012.0     2        24         3       347        8.27     272      322.7
   07/23/2017 08:50      73.3      72.2       68     61.5      0.00      0.00      85.6     0.32      1012.0     2        23         4        83        8.27     272      175.9
   07/23/2017 08:40      72.4      71.7       70     61.5      0.00      0.00      86.7     0.32      1012.0     2        11         3        46        8.27     272       -6.4
   07/23/2017 08:30      71.7      71.0       71     61.5      0.00      0.00      86.2     0.32      1012.0     1       111         2       359        8.27     272       -5.9
   07/23/2017 08:20      71.3      70.8       72     61.6      0.00      0.00      86.5     0.32      1012.0     2       358         3       311        8.27     272       -5.1
   07/23/2017 08:10      70.8      70.0       73     61.5      0.00      0.00      86.2     0.32      1012.0     1        49         2        31        8.27     272       -7.6
   07/23/2017 08:00      70.1      69.3       75     61.3      0.00      0.00      86.2     0.32      1012.0     1       257         3       320        8.28     272       -0.0
   07/23/2017 07:50      69.3      69.0       76     61.2      0.00      0.00      86.3     0.32      1012.0     1       149         3       140        8.28     272      -11.7
   07/23/2017 07:40      69.1      68.5       77     61.1      0.00      0.00      86.5     0.32      1012.0     2        73         3        82        8.28     272      -11.8
   07/23/2017 07:30      68.6      68.1       77     61.0      0.00      0.00      86.3     0.32      1012.0     3        78         5        72        8.28     272      -14.4
   07/23/2017 07:20      68.4      67.4       79     61.0      0.00      0.00      86.1     0.32      1012.0     2        71         3        69        8.28     272      -12.5
   07/23/2017 07:10      67.4      67.0       80     60.8      0.00      0.00      86.4     0.32      1012.0     2       137         2       142        8.28     272      -18.2
   07/23/2017 07:00      67.1      66.4       81     60.6      0.00      0.00      86.7     0.32      1012.0     1       121         2       141        8.28     272      -25.3
   07/23/2017 06:50      66.5      65.8       82     60.5      0.00      0.00      86.4     0.32      1012.0     1       115         2        81        8.28     272      -28.6
   07/23/2017 06:40      65.8      64.9       83     60.1      0.00      0.00      86.7     0.32      1012.0     1       172         1       136        8.29     271      -34.2
   07/23/2017 06:30      65.0      64.7       83     59.5      0.00      0.00      86.3     0.32      1012.0     1       120         1        93        8.29     271      -38.2
   07/23/2017 06:20      64.8      64.1       83     59.0      0.00      0.00      86.6     0.32      1012.0     1       146         1       128        8.29     271      -41.4
   07/23/2017 06:10      64.4      64.1       82     58.8      0.00      0.00      86.4     0.32      1012.0     1       133         1       138        8.29     271      -46.8
   07/23/2017 06:00      64.7      64.4       83     59.1      0.00      0.00      86.8     0.33      1012.0     1       165         1       158        8.29     271      -48.9
   07/23/2017 05:50      65.0      64.5       81     58.9      0.00      0.00      86.9     0.33      1012.0     1       144         1       142        8.29     271      -51.6
   07/23/2017 05:40      65.1      64.7       81     59.0      0.00      0.00      86.6     0.33      1012.0     1       147         1       142        8.29     271      -51.4
   07/23/2017 05:30      65.0      64.7       80     58.7      0.00      0.00      86.7     0.33      1012.0     1       132         2       127        8.29     271      -52.2
   07/23/2017 05:20      65.0      64.8       81     58.8      0.00      0.00      86.7     0.33      1012.0     1       155         1       182        8.29     271      -51.9
   07/23/2017 05:10      65.1      64.8       80     58.5      0.00      0.00      86.9     0.33      1012.0     0       153         1       169        8.29     271      -52.6
   07/23/2017 05:00      65.2      64.8       80     58.6      0.00      0.00      86.9     0.33      1012.0     0       123         1       181        8.29     271      -52.7
   07/23/2017 04:50      65.3      65.0       79     58.3      0.00      0.00      87.0     0.33      1012.0     1       137         1       115        8.29     271      -54.1
   07/23/2017 04:40      65.6      65.2       79     58.7      0.00      0.00      87.3     0.33      1012.0     1       140         1       125        8.29     271      -53.8
   07/23/2017 04:30      65.3      65.2       78     58.2      0.00      0.00      86.9     0.33      1011.0     1       115         1       124        8.30     271      -54.4
   07/23/2017 04:20      65.9      65.3       77     58.2      0.00      0.00      87.2     0.33      1011.0     1        92         1       124        8.30     271      -54.8
   07/23/2017 04:10      65.9      65.7       77     58.4      0.00      0.00      87.2     0.33      1011.0     0        90         1        69        8.30     271      -55.0
   07/23/2017 04:00      66.2      65.8       75     57.9      0.00      0.00      87.0     0.33      1011.0     1        83         1        68        8.30     271      -55.7
   07/23/2017 03:50      66.3      66.2       75     58.2      0.00      0.00      87.1     0.33      1011.0     1       111         1       105        8.30     271      -56.1
   07/23/2017 03:40      66.4      66.1       74     57.9      0.00      0.00      87.1     0.33      1011.0     1       103         2       114        8.30     271      -56.5
   07/23/2017 03:30      66.5      66.0       74     57.5      0.00      0.00      87.1     0.33      1011.0     1       105         2        81        8.30     271      -56.1
   07/23/2017 03:20      66.4      66.2       74     57.8      0.00      0.00      87.0     0.33      1011.0     0       125         1       134        8.30     271      -55.5
   07/23/2017 03:10      66.8      66.4       72     57.4      0.00      0.00      87.2     0.33      1011.0     1       105         1        86        8.30     271      -56.9
   07/23/2017 03:00      67.1      66.7       71     57.3      0.00      0.00      87.6     0.33      1011.0     1       159         1       155        8.30     271      -56.3
   07/23/2017 02:50      67.1      67.0       72     57.7      0.00      0.00      87.4     0.33      1011.0     1       147         1       159        8.30     271      -56.5
   07/23/2017 02:40      67.3      66.9       72     57.6      0.00      0.00      87.3     0.33      1011.0     0       122         1       120        8.31     271      -56.3
   07/23/2017 02:30      67.1      66.7       72     57.7      0.00      0.00      87.4     0.33      1012.0     1       181         1       180        8.31     271      -56.6
   07/23/2017 02:20      67.4      66.7       72     57.6      0.00      0.00      87.3     0.33      1012.0     1       111         1       106        8.31     270      -57.9
   07/23/2017 02:10      67.4      66.9       72     57.9      0.00      0.00      87.0     0.33      1012.0     0       243         1       223        8.32     270      -56.7
   07/23/2017 02:00      67.0      66.7       71     57.1      0.00      0.00      87.5     0.33      1012.0     1       103         2       105        8.32     270      -58.5
   07/23/2017 01:50      67.1      66.8       71     57.2      0.00      0.00      87.6     0.33      1012.0     1        96         2        92        8.32     270      -59.7
   07/23/2017 01:40      67.2      67.0       70     57.1      0.00      0.00      87.2     0.33      1012.0     1       110         1        99        8.32     270      -59.5
   07/23/2017 01:30      67.7      67.3       70     57.3      0.00      0.00      87.6     0.33      1012.0     1       101         1        76        8.32     270      -59.8
   07/23/2017 01:20      67.9      67.8       69     57.5      0.00      0.00      87.3     0.33      1012.0     1       114         1       134        8.32     270      -61.0
   07/23/2017 01:10      68.2      68.0       68     57.3      0.00      0.00      87.4     0.33      1012.0     1       124         2       105        8.33     270      -61.8
   07/23/2017 01:00      68.7      68.4       67     57.3      0.00      0.00      87.3     0.33      1012.0     1       112         2       126        8.33     270      -62.3
   07/23/2017 00:50      68.9      68.6       67     57.4      0.00      0.00      87.7     0.33      1012.0     1       114         2        94        8.33     270      -63.5
   07/23/2017 00:40      69.1      68.8       67     57.6      0.00      0.00      87.4     0.33      1012.0     2        88         2        65        8.33     270      -63.8
   07/23/2017 00:30      69.2      69.1       68     58.0      0.00      0.00      87.2     0.33      1012.0     1        96         1       109        8.33     270      -64.2
   07/23/2017 00:20      69.6      69.2       67     58.1      0.00      0.00      87.5     0.33      1012.0     1        62         1        47        8.33     270      -64.8
   07/23/2017 00:10      69.7      69.6       67     58.4      0.00      0.00      87.5     0.33      1012.0     1        64         2        99        8.33     270      -64.8
   07/23/2017 00:00      69.9      69.8       67     58.5      0.00      0.00      87.5     0.33      1013.0     1        85         1       116        8.33     270      -65.2
   07/22/2017 23:50      70.2      69.9       67     58.6      0.00      0.00      87.6     0.33      1013.0     1        91         1        64        8.33     270      -65.5
   07/22/2017 23:40      70.6      70.2       66     58.7      0.00      0.00      87.7     0.33      1012.0     1        89         2        56        8.33     270      -65.7
   07/22/2017 23:30      70.9      70.5       66     58.8      0.00      0.00      87.5     0.33      1012.0     1        52         2        67        8.33     270      -65.8
   07/22/2017 23:20      71.4      70.9       66     59.0      0.00      0.00      87.6     0.33      1012.0     2        59         3        97        8.33     270      -66.5
   07/22/2017 23:10      71.4      71.3       66     59.4      0.00      0.00      87.7     0.33      1012.0     1        60         2        58        8.40     270      -66.6
   07/22/2017 23:00      72.0      71.5       66     59.6      0.00      0.00      87.8     0.33      1012.0     2        93         3       117        8.40     270      -67.0
   07/22/2017 22:50      72.3      72.0       65     59.8      0.00      0.00      87.6     0.33      1012.0     2        87         3        82        8.41     270      -67.4
   07/22/2017 22:40      72.5      72.2       64     59.8      0.00      0.00      87.7     0.33      1012.0     2        76         3        78        8.41     270      -67.7
   07/22/2017 22:30      72.9      72.6       65     60.1      0.00      0.00      87.7     0.33      1012.0     2        84         2        79        8.41     270      -68.1
   07/22/2017 22:20      73.0      72.8       64     60.2      0.00      0.00      87.6     0.33      1012.0     1        94         2        68        8.41     269      -68.7
   07/22/2017 22:10      73.5      73.2       64     60.3      0.00      0.00      87.6     0.33      1012.0     2        92         3        98        8.41     269      -69.0
   07/22/2017 22:00      73.8      73.5       63     60.4      0.00      0.00      87.8     0.33      1012.0     2        83         3        76        8.42     269      -69.6
   07/22/2017 21:50      74.4      74.0       62     60.3      0.00      0.00      87.6     0.33      1012.0     2        82         3       100        8.42     269      -70.2
   07/22/2017 21:40      75.0      74.5       60     60.2      0.00      0.00      87.6     0.33      1012.0     2        92         2       116        8.42     269      -71.2
   07/22/2017 21:30      75.3      75.0       59     60.1      0.00      0.00      87.6     0.33      1012.0     1        61         2        83        8.42     269      -72.3
   07/22/2017 21:20      75.7      75.3       59     60.1      0.00      0.00      87.5     0.33      1011.0     2        87         4        97        8.42     269      -73.4
   07/22/2017 21:10      76.0      75.7       58     60.1      0.00      0.00      87.5     0.33      1011.0     2        82         2        65        8.42     269      -74.5
   07/22/2017 21:00      76.6      76.1       58     60.4      0.00      0.00      87.2     0.32      1011.0     2        90         3       106        8.42     269      -75.3
   07/22/2017 20:50      77.2      76.6       57     60.6      0.00      0.00      87.5     0.32      1011.0     2        96         3        84        8.42     269      -76.4
   07/22/2017 20:40      77.9      77.3       57     60.9      0.00      0.00      87.5     0.32      1011.0     2        92         3        82        8.43     268      -77.4
   07/22/2017 20:30      78.7      77.9       55     61.0      0.00      0.00      87.5     0.32      1011.0     2        84         3        93        8.43     268      -78.4
   07/22/2017 20:20      79.2      78.7       55     61.3      0.00      0.00      87.4     0.32      1011.0     2        79         3        82        8.43     268      -79.7
   07/22/2017 20:10      79.6      79.2       54     61.5      0.00      0.00      87.3     0.32      1011.0     2        72         5        74        8.43     268      -79.3
   07/22/2017 20:00      80.9      79.9       53     61.6      0.00      0.00      87.4     0.32      1011.0     2        60         4        77        8.43     268      -78.5
   07/22/2017 19:50      82.9      81.1       51     61.9      0.00      0.00      87.2     0.32      1010.0     3        57         4        62        8.43     267      -76.4
   07/22/2017 19:40      84.5      83.0       49     62.4      0.00      0.00      87.4     0.32      1010.0     2        63         4        83        8.44     267      -68.9
   07/22/2017 19:30      86.9      84.6       46     62.8      0.00      0.00      87.2     0.32      1010.0     3        76         4        74        8.44     267      -56.1
   07/22/2017 19:20      89.2      87.1       36     57.5      0.00      0.00      87.2     0.32      1010.0     2        32         4        14        8.44     267      -43.1
   07/22/2017 19:10      89.2      88.8       28     51.5      0.00      0.00      87.3     0.32      1010.0     3       304         5       314        8.44     267      -24.5
   07/22/2017 19:00      89.6      89.3       29     52.7      0.00      0.00      87.1     0.32      1010.0     4       303         6       262        8.45     267       -3.9
   07/22/2017 18:50      90.2      89.3       29     53.3      0.00      0.00      87.1     0.32      1010.0     4       322         6       323        8.45     267       19.3
   07/22/2017 18:40      90.9      90.4       28     52.7      0.00      0.00      87.0     0.32      1010.0     4       282         6       282        8.45     267       42.3
   07/22/2017 18:30      91.3      91.0       27     52.3      0.00      0.00      87.0     0.32      1010.0     3       289         6       252        8.45     267       66.2
   07/22/2017 18:20      92.0      91.1       26     52.3      0.00      0.00      87.0     0.32      1010.0     4       285         6       304        8.45     267       87.8
   07/22/2017 18:10      93.4      92.5       26     52.5      0.00      0.00      87.1     0.32      1009.0     4       289         7       304        8.45     267      109.2
   07/22/2017 18:00      93.7      92.9       28     55.0      0.00      0.00      86.9     0.32      1009.0     3       306         5       284        8.45     267      132.5
   07/22/2017 17:50      93.3      92.8       33     59.7      0.00      0.00      86.9     0.32      1009.0     3        42         4        61        8.45     268      152.1
   07/22/2017 17:40      93.3      92.7       33     60.0      0.00      0.00      86.6     0.32      1009.0     3        26         4        32        8.45     267      172.1
   07/22/2017 17:30      93.4      93.0       32     59.2      0.00      0.00      86.7     0.32      1009.0     4        26         5        18        8.46     267      196.5
   07/22/2017 17:20      94.5      93.1       31     58.4      0.00      0.00      87.1     0.32      1009.0     4        24         7        32        8.57     267      218.5
   07/22/2017 17:10      95.1      94.2       29     57.6      0.00      0.00      86.5     0.32      1009.0     4        34         6        27        8.57     267      236.8
   07/22/2017 17:00      95.6      95.0       29     58.6      0.00      0.00      86.5     0.32      1009.0     4        29         5        33        8.57     268      257.8
   07/22/2017 16:50      95.8      95.0       30     58.6      0.00      0.00      86.5     0.32      1009.0     3        34         4        20        8.58     268      284.7
   07/22/2017 16:40      95.1      94.7       29     58.0      0.00      0.00      86.4     0.32      1009.0     4        27         7         0        8.58     268      298.7
   07/22/2017 16:30      95.1      94.5       29     57.9      0.00      0.00      86.3     0.32      1009.0     4        39         6        31        8.58     268      318.9
   07/22/2017 16:20      96.2      94.9       29     57.8      0.00      0.00      86.3     0.32      1010.0     4        25         5        42        8.58     267      335.2
   07/22/2017 16:10      98.0      96.4       27     57.7      0.00      0.00      86.2     0.32      1010.0     5        11         9       344        8.58     267      354.5
   07/22/2017 16:00      96.7      96.2       27     56.8      0.00      0.00      86.1     0.32      1010.0     4        31         7        24        8.58     267      374.7
   07/22/2017 15:50      98.1      96.8       26     56.9      0.00      0.00      86.0     0.32      1010.0     4        26         5        12        8.58     268      389.6
   07/22/2017 15:40      96.5      95.3       27     56.0      0.00      0.00      86.0     0.32      1010.0     4        43         6        58        8.59     268      405.8
   07/22/2017 15:30      96.6      95.4       28     57.2      0.00      0.00      85.8     0.32      1010.0     4        45         5        35        8.59     268      424.4
   07/22/2017 15:20      95.8      95.2       30     58.7      0.00      0.00      85.9     0.32      1010.0     4        48         6        94        8.59     268      438.1
   07/22/2017 15:10      95.8      95.1       31     60.2      0.00      0.00      85.6     0.32      1010.0     4        54         7       118        8.59     268      448.7
   07/22/2017 15:00      96.0      95.3       31     60.0      0.00      0.00      85.7     0.32      1011.0     5        56         7        78        8.59     268      464.1
   07/22/2017 14:50      97.3      96.1       30     59.8      0.00      0.00      85.7     0.32      1011.0     4        47         5        22        8.59     268      476.7
   07/22/2017 14:40      96.7      96.1       29     59.3      0.00      0.00      85.6     0.31      1011.0     4        63         6        75        8.59     268      489.4
   07/22/2017 14:30      95.6      95.0       30     59.0      0.00      0.00      85.6     0.31      1011.0     4        53         5        79        8.60     268      499.4
   07/22/2017 14:20      96.7      95.1       29     58.1      0.00      0.00      85.5     0.31      1011.0     4        64         7        84        8.60     268      500.5
   07/22/2017 14:10      97.7      96.6       25     56.0      0.00      0.00      85.3     0.31      1011.0     4        72         6        89        8.61     268      510.0
   07/22/2017 14:00      96.1      95.5       22     51.1      0.00      0.00      85.3     0.31      1011.0     2       164         4       341        8.64     268      518.4
   07/22/2017 13:50      95.7      94.6       23     51.0      0.00      0.00      85.3     0.31      1011.0     3       354         6       300        8.64     268      527.9
   07/22/2017 13:40      95.2      94.5       23     51.7      0.00      0.00      85.3     0.31      1011.0     2        28         3         8        8.64     269      532.1
   07/22/2017 13:30      96.9      94.4       24     52.7      0.00      0.00      85.3     0.31      1011.0     3        27         5        65        8.65     269      537.8
   07/22/2017 13:20      96.7      94.0       24     52.8      0.00      0.00      85.2     0.31      1012.0     3        19         4       304        8.65     269      543.3
   07/22/2017 13:10      93.6      92.7       26     52.9      0.00      0.00      85.3     0.31      1012.0     2        46         4       319        8.65     269      547.1
   07/22/2017 13:00      94.0      92.8       25     53.0      0.00      0.00      85.1     0.31      1012.0     3         1         5        39        8.65     268      548.2
   07/22/2017 12:50      92.7      91.8       27     53.3      0.00      0.00      85.2     0.31      1012.0     3        57         5       118        8.65     268      552.1
   07/22/2017 12:40      92.9      91.0       27     53.6      0.00      0.00      85.1     0.31      1012.0     2       346         3        27        8.66     269      551.3
   07/22/2017 12:30      91.9      90.8       29     54.3      0.00      0.00      85.2     0.31      1012.0     2        74         5        81        8.66     269      549.2
   07/22/2017 12:20      91.7      89.8       29     54.6      0.00      0.00      84.9     0.31      1012.0     2        78         4        64        8.66     269      548.5
   07/22/2017 12:10      90.1      89.2       31     55.4      0.00      0.00      85.1     0.31      1012.0     3        12         5         2        8.66     269      544.6
   07/22/2017 12:00      90.2      89.2       32     55.5      0.00      0.00      85.1     0.31      1012.0     2       332         4        62        8.66     269      538.9
   07/22/2017 11:50      89.1      86.7       33     55.5      0.00      0.00      85.4     0.31      1013.0     2       345         3       328        8.66     270      535.1
   07/22/2017 11:40      87.2      86.4       35     55.7      0.00      0.00      85.1     0.31      1013.0     3       346         5         3        8.66     270      528.8
   07/22/2017 11:30      87.3      86.3       35     56.0      0.00      0.00      85.0     0.31      1013.0     3       349         4       351        8.66     271      522.6
   07/22/2017 11:20      86.1      85.6       36     55.9      0.00      0.00      85.1     0.32      1013.0     3        16         5       337        8.66     271      515.8
   07/22/2017 11:10      85.7      83.6       38     56.3      0.00      0.00      85.2     0.32      1013.0     3       106         4       105        8.66     271      507.2
   07/22/2017 11:00      84.5      83.7       40     56.9      0.00      0.00      85.6     0.32      1013.0     2        55         4        88        8.66     271      496.7
   07/22/2017 10:50      83.8      82.1       42     57.6      0.00      0.00      85.2     0.32      1013.0     3        28         4        78        8.67     271      484.2
   07/22/2017 10:40      82.0      80.9       44     57.6      0.00      0.00      85.4     0.32      1013.0     3       359         4        12        8.67     272      472.1
   07/22/2017 10:30      81.4      80.4       45     57.6      0.00      0.00      85.4     0.32      1013.0     3         9         4       352        8.67     272      459.9
   07/22/2017 10:20      81.0      80.0       47     58.3      0.00      0.00      85.4     0.32      1013.0     2        45         3        14        8.67     273      445.3
   07/22/2017 10:10      80.7      79.1       49     58.8      0.00      0.00      85.6     0.32      1013.0     2        28         4        68        8.67     272      429.9
   07/22/2017 10:00      79.1      78.5       50     58.7      0.00      0.00      85.6     0.32      1013.0     3        19         4       351        8.67     272      414.5
   07/22/2017 09:50      78.6      77.3       53     59.4      0.00      0.00      85.6     0.32      1013.0     3        73         5        70        8.67     272      398.2
   07/22/2017 09:40      77.0      76.0       55     59.3      0.00      0.00      85.5     0.32      1013.0     2        20         4         4        8.67     272      378.6
   07/22/2017 09:30      76.5      76.1       56     59.4      0.00      0.00      85.4     0.32      1013.0     3        23         4        66        8.68     272      361.5
   07/22/2017 09:20      76.3      74.6       58     59.6      0.00      0.00      85.4     0.32      1014.0     2        78         4       102        8.68     272      345.0
   07/22/2017 09:10      75.0      74.1       59     59.6      0.00      0.00      85.4     0.32      1014.0     3        86         5       107        8.68     273      330.0
   07/22/2017 09:00      74.3      73.0       63     60.3      0.00      0.00      85.8     0.32      1013.0     2        26         3       352        8.68     273      329.0
   07/22/2017 08:50      72.6      70.9       68     60.4      0.00      0.00      85.2     0.32      1014.0     2        55         4        81        8.69     272      196.4
   07/22/2017 08:40      70.9      70.2       70     60.3      0.00      0.00      86.0     0.32      1014.0     2         7         3       353        8.69     273      -22.7
   07/22/2017 08:30      70.5      70.1       71     60.2      0.00      0.00      85.9     0.32      1013.0     2        46         3        26        8.69     273      -23.4
   07/22/2017 08:20      70.0      69.2       71     60.1      0.00      0.00      85.7     0.32      1013.0     2        77         4        73        8.69     272      -24.6
   07/22/2017 08:10      69.3      68.6       72     59.7      0.00      0.00      85.8     0.32      1013.0     2        37         3        88        8.69     272      -26.4
   07/22/2017 08:00      68.6      67.7       74     59.6      0.00      0.00      85.8     0.32      1013.0     2        40         3        70        8.69     272       -8.0
   07/22/2017 07:50      67.7      67.2       75     59.4      0.00      0.00      85.8     0.32      1013.0     1       341         2       348        8.69     272      -23.1
   07/22/2017 07:40      67.2      66.7       77     59.6      0.00      0.00      86.0     0.32      1013.0     1       318         2       243        8.69     272      -11.5
   07/22/2017 07:30      66.5      66.0       79     59.5      0.00      0.00      86.2     0.32      1013.0     0       349         1       298        8.69     272       -7.2
   07/22/2017 07:20      66.1      65.2       81     59.5      0.00      0.00      86.1     0.32      1013.0     1       329         1       341        8.70     272        1.7
   07/22/2017 07:10      65.1      64.0       82     59.0      0.00      0.00      86.2     0.32      1013.0     0       317         1         1        8.70     272       -2.4
   07/22/2017 07:00      63.9      62.9       84     58.5      0.00      0.00      86.1     0.32      1013.0     0       312         1       309        8.70     271       -9.1
   07/22/2017 06:50      63.0      61.8       85     58.0      0.00      0.00      86.1     0.32      1013.0     0       268         1       218        8.70     271      -13.2
   07/22/2017 06:40      61.9      61.3       86     57.2      0.00      0.00      86.1     0.32      1013.0     2       143         2       137        8.70     271      -20.2
   07/22/2017 06:30      61.5      61.1       86     57.1      0.00      0.00      86.1     0.32      1013.0     2       147         2       146        8.70     271      -24.5
   07/22/2017 06:20      61.3      60.9       87     57.2      0.00      0.00      86.1     0.32      1013.0     1       142         3       136        8.70     271      -26.4
   07/22/2017 06:10      61.3      60.9       87     57.4      0.00      0.00      86.3     0.33      1013.0     1       175         1       172        8.70     271      -32.7
   07/22/2017 06:00      61.3      60.9       87     57.3      0.00      0.00      86.2     0.33      1013.0     1       158         2       129        8.70     271      -36.9
   07/22/2017 05:50      61.5      61.2       87     57.4      0.00      0.00      86.5     0.33      1013.0     1       159         2       154        8.70     271      -40.8
   07/22/2017 05:40      61.7      61.3       86     57.3      0.00      0.00      86.3     0.33      1013.0     1       164         2       161        8.70     271      -42.5
   07/22/2017 05:30      61.9      61.6       86     57.5      0.00      0.00      86.2     0.33      1013.0     1       190         2       143        8.70     271      -43.6
   07/22/2017 05:20      62.0      61.6       86     57.7      0.00      0.00      86.7     0.33      1013.0     1       151         1       142        8.70     271      -47.1
   07/22/2017 05:10      61.9      61.4       86     57.3      0.00      0.00      86.4     0.33      1013.0     1       152         2       142        8.70     271      -51.4
   07/22/2017 05:00      61.4      61.2       84     56.4      0.00      0.00      86.5     0.33      1013.0     2       139         2       138        8.71     271      -57.1
   07/22/2017 04:50      61.4      61.2       84     56.3      0.00      0.00      86.5     0.33      1013.0     2       137         2       140        8.71     271      -59.1
   07/22/2017 04:40      61.6      61.2       84     56.5      0.00      0.00      86.5     0.33      1013.0     2       157         3       177        8.71     271      -60.3
   07/22/2017 04:30      61.6      61.3       84     56.5      0.00      0.00      86.5     0.33      1013.0     2       150         2       150        8.71     271      -60.2
   07/22/2017 04:20      61.8      61.5       82     56.2      0.00      0.00      86.7     0.33      1013.0     2       144         2       139        8.71     271      -62.3
   07/22/2017 04:10      62.2      61.8       83     56.6      0.00      0.00      86.5     0.33      1013.0     1       156         2       165        8.71     271      -61.3
   07/22/2017 04:00      61.8      61.7       81     56.1      0.00      0.00      86.9     0.33      1013.0     2       136         2       147        8.71     271      -63.3
   07/22/2017 03:50      62.5      61.9       80     56.0      0.00      0.00      86.9     0.33      1013.0     2       139         2       147        8.71     271      -63.8
   07/22/2017 03:40      62.9      62.7       80     56.7      0.00      0.00      86.7     0.33      1013.0     1       152         2       127        8.71     271      -63.8
   07/22/2017 03:30      63.4      63.0       79     56.8      0.00      0.00      86.6     0.33      1013.0     1       152         1       158        8.71     271      -64.4
   07/22/2017 03:20      63.6      63.3       78     56.5      0.00      0.00      86.9     0.33      1013.0     1       145         2       139        8.71     270      -65.1
   07/22/2017 03:10      63.8      63.6       78     56.7      0.00      0.00      86.9     0.33      1013.0     1       150         1       152        8.71     270      -65.6
   07/22/2017 03:00      63.8      63.6       78     56.6      0.00      0.00      87.0     0.33      1013.0     1       153         1       189        8.71     270      -67.1
   07/22/2017 02:50      63.9      63.7       77     56.6      0.00      0.00      86.9     0.33      1013.0     1       173         1       197        8.71     270      -67.4
   07/22/2017 02:40      64.0      63.8       77     56.6      0.00      0.00      86.9     0.33      1013.0     1       172         1       204        8.72     270      -68.5
   07/22/2017 02:30      64.5      63.8       76     56.4      0.00      0.00      87.2     0.33      1013.0     1       135         1       126        8.72     270      -69.3
   07/22/2017 02:20      64.9      64.6       75     56.5      0.00      0.00      87.2     0.33      1013.0     1       148         1       145        8.72     270      -70.0
   07/22/2017 02:10      65.3      64.9       74     56.5      0.00      0.00      87.1     0.33      1013.0     1       148         2       150        8.72     270      -69.6
   07/22/2017 02:00      66.1      65.3       71     56.0      0.00      0.00      87.3     0.33      1013.0     1       123         2       118        8.72     270      -71.0
   07/22/2017 01:50      66.5      66.2       70     56.3      0.00      0.00      87.1     0.33      1013.0     1        82         1        58        8.72     270      -72.3
   07/22/2017 01:40      67.1      66.7       69     56.5      0.00      0.00      87.1     0.33      1013.0     1        70         2        79        8.72     270      -73.2
   07/22/2017 01:30      67.3      67.1       69     56.7      0.00      0.00      87.1     0.33      1013.0     2        77         2        76        8.72     270      -73.6
   07/22/2017 01:20      67.3      67.1       69     56.7      0.00      0.00      87.2     0.33      1013.0     1        61         2        71        8.72     270      -73.3
   07/22/2017 01:10      67.3      67.1       70     57.2      0.00      0.00      87.3     0.33      1013.0     1        74         2        62        8.72     270      -72.4
   07/22/2017 01:00      67.6      67.1       71     57.6      0.00      0.00      87.1     0.33      1013.0     1        95         2        60        8.72     270      -72.0
   07/22/2017 00:50      67.9      67.6       70     57.8      0.00      0.00      87.4     0.33      1013.0     1        77         2        78        8.72     270      -73.3
   07/22/2017 00:40      68.1      67.9       69     57.8      0.00      0.00      87.3     0.33      1013.0     2        58         3        67        8.72     270      -73.2
   07/22/2017 00:30      68.6      68.2       69     57.9      0.00      0.00      87.2     0.33      1013.0     1        81         2        85        8.72     269      -74.3
   07/22/2017 00:20      69.0      68.5       69     58.0      0.00      0.00      87.2     0.33      1013.0     2        99         3       106        8.72     269      -74.6
   07/22/2017 00:10      69.4      69.0       67     58.0      0.00      0.00      87.3     0.33      1013.0     1        66         3        68        8.73     269      -75.4
   07/22/2017 00:00      69.9      69.6       66     57.8      0.00      0.00      87.3     0.33      1012.0     2        58         4        68        8.73     269      -76.4
   07/21/2017 23:50      70.3      69.9       65     57.9      0.00      0.00      87.5     0.33      1012.0     2        57         3        63        8.73     269      -76.8
   07/21/2017 23:40      70.4      70.2       65     57.9      0.00      0.00      87.4     0.33      1013.0     2        62         3        70        8.73     269      -77.3
   07/21/2017 23:30      70.9      70.3       65     58.1      0.00      0.00      87.3     0.33      1012.0     1        57         3        67        8.73     269      -77.5
   07/21/2017 23:20      71.3      70.9       63     58.1      0.00      0.00      87.4     0.33      1012.0     2        86         3        79        8.73     269      -78.2
   07/21/2017 23:10      71.8      71.4       62     57.9      0.00      0.00      87.4     0.33      1013.0     1        60         3        73        8.73     269      -78.2
   07/21/2017 23:00      71.8      71.6       61     57.4      0.00      0.00      87.3     0.33      1012.0     2        99         3        65        8.73     269      -78.7
   07/21/2017 22:50      72.4      71.9       59     56.8      0.00      0.00      87.5     0.33      1012.0     2        86         3        77        8.73     268      -78.6
   07/21/2017 22:40      72.4      72.2       57     56.4      0.00      0.00      87.4     0.33      1012.0     2        92         3        92        8.73     268      -78.7
   07/21/2017 22:30      72.4      72.2       57     56.3      0.00      0.00      87.6     0.33      1012.0     2        94         3        69        8.74     268      -78.5
   07/21/2017 22:20      73.1      72.5       57     56.5      0.00      0.00      87.5     0.33      1012.0     1        97         2        53        8.74     268      -78.8
   07/21/2017 22:10      73.7      73.2       56     56.7      0.00      0.00      87.5     0.33      1012.0     1        98         2        96        8.74     268      -79.8
   07/21/2017 22:00      73.8      73.5       56     57.0      0.00      0.00      87.4     0.33      1012.0     2        93         3        82        8.74     268      -80.4
   07/21/2017 21:50      74.2      73.6       55     56.7      0.00      0.00      87.4     0.33      1012.0     1       101         2        76        8.74     268      -79.2
   07/21/2017 21:40      75.0      74.3       53     56.5      0.00      0.00      87.5     0.33      1012.0     1       107         2       131        8.74     268      -80.7
   07/21/2017 21:30      75.5      75.2       53     56.8      0.00      0.00      87.4     0.33      1012.0     1       120         2        93        8.74     268      -82.4
   07/21/2017 21:20      76.2      75.6       51     56.4      0.00      0.00      87.5     0.33      1012.0     1        91         1        54        8.74     268      -84.0
   07/21/2017 21:10      77.5      76.3       48     55.9      0.00      0.00      87.4     0.33      1012.0     1        69         2        66        8.74     268      -84.2
   07/21/2017 21:00      78.3      77.8       47     56.0      0.00      0.00      87.3     0.33      1012.0     1        58         1        51        8.74     268      -86.2
   07/21/2017 20:50      78.8      78.3       44     54.9      0.00      0.00      87.4     0.33      1012.0     1         2         1       236        8.74     267      -87.7
   07/21/2017 20:40      79.7      79.1       43     54.9      0.00      0.00      87.5     0.33      1012.0     1       223         2       200        8.74     268      -90.0
   07/21/2017 20:30      80.4      79.8       42     54.8      0.00      0.00      87.5     0.33      1011.0     2       223         3       237        8.74     267      -91.5
   07/21/2017 20:20      81.4      80.7       40     54.5      0.00      0.00      87.2     0.32      1011.0     2       228         3       230        8.74     267      -92.6
   07/21/2017 20:10      82.8      81.4       38     54.0      0.00      0.00      87.2     0.32      1011.0     3       229         5       253        8.74     267      -92.3
   07/21/2017 20:00      83.8      82.9       35     52.8      0.00      0.00      87.2     0.32      1011.0     3       249         4       235        8.75     267      -90.7
   07/21/2017 19:50      84.5      83.9       32     51.2      0.00      0.00      87.3     0.32      1011.0     2       272         3       277        8.86     267      -88.6
   07/21/2017 19:40      85.7      84.8       31     51.3      0.00      0.00      87.2     0.32      1011.0     3       299         4       284        8.86     267      -79.7
   07/21/2017 19:30      86.4      85.6       30     51.2      0.00      0.00      87.3     0.32      1011.0     4       297         6       248        8.87     267      -66.7
   07/21/2017 19:20      86.6      86.3       30     50.9      0.00      0.00      87.2     0.32      1011.0     4       302         6       296        8.87     267      -51.3
   07/21/2017 19:10      86.9      86.4       30     51.2      0.00      0.00      87.0     0.32      1011.0     4       305         6       295        8.87     267      -32.0
   07/21/2017 19:00      87.2      86.7       29     50.9      0.00      0.00      87.1     0.32      1011.0     4       312         8       297        8.87     267       -9.3
   07/21/2017 18:50      87.6      87.2       28     50.7      0.00      0.00      87.1     0.32      1011.0     5       286         7       260        8.87     267       14.8
   07/21/2017 18:40      87.9      87.5       28     50.4      0.00      0.00      87.1     0.32      1011.0     4       288         7       294        8.87     267       39.9
   07/21/2017 18:30      87.9      87.3       28     50.4      0.00      0.00      87.1     0.32      1011.0     5       309         9       296        8.88     267       66.9
   07/21/2017 18:20      88.6      88.1       28     51.0      0.00      0.00      87.0     0.32      1011.0     5       305         6       308        8.88     267       89.2
   07/21/2017 18:10      88.8      88.5       29     52.3      0.00      0.00      86.8     0.32      1011.0     5       290         7       278        8.88     267      113.3
   07/21/2017 18:00      89.0      88.4       29     52.5      0.00      0.00      86.8     0.32      1011.0     6       294        10       300        8.89     267      136.5
   07/21/2017 17:50      89.2      88.9       31     54.1      0.00      0.00      86.9     0.32      1011.0     6       313         9       313        8.89     267      158.7
   07/21/2017 17:40      90.0      89.0       32     55.4      0.00      0.00      86.6     0.32      1011.0     7       308        12       318        8.89     267      182.1
   07/21/2017 17:30      90.6      89.7       31     55.5      0.00      0.00      86.9     0.32      1011.0     6       309         8       299        8.89     267      204.1
   07/21/2017 17:20      90.6      89.8       30     55.2      0.00      0.00      86.6     0.32      1011.0     7       308        10       320        8.89     267      225.9
   07/21/2017 17:10      91.3      90.0       30     54.6      0.00      0.00      86.5     0.32      1011.0     6       304        10       331        8.90     268      250.9
   07/21/2017 17:00      92.1      91.2       31     56.5      0.00      0.00      86.5     0.32      1011.0     5       289         7       317        8.90     268      271.9
   07/21/2017 16:50      92.0      91.0       32     57.8      0.00      0.00      86.4     0.32      1011.0     5       273         9       252        8.90     268      296.1
   07/21/2017 16:40      91.8      90.8       33     58.3      0.00      0.00      86.4     0.32      1011.0     6       267         8       255        8.91     268      314.0
   07/21/2017 16:30      92.1      91.3       33     58.6      0.00      0.00      86.3     0.32      1011.0     5       273        10       259        8.92     268      332.7
   07/21/2017 16:20      92.0      91.3       33     58.9      0.00      0.00      86.3     0.32      1011.0     5       283         7       269        8.92     268      351.2
   07/21/2017 16:10      92.2      91.3       34     59.2      0.00      0.00      86.1     0.32      1011.0     5       257         9       238        8.92     268      370.8
   07/21/2017 16:00      92.5      91.8       34     59.6      0.00      0.00      86.0     0.32      1011.0     6       279         9       268        8.92     268      384.7
   07/21/2017 15:50      92.2      91.5       34     59.9      0.00      0.00      85.9     0.32      1011.0     4       284         8       341        8.93     268      401.3
   07/21/2017 15:40      92.3      91.8       34     60.0      0.00      0.00      85.9     0.32      1011.0     4       244         9       236        8.93     268      418.3
   07/21/2017 15:30      92.4      91.3       34     59.3      0.00      0.00      86.0     0.32      1012.0     3       239         7       248        8.93     268      429.6
   07/21/2017 15:20      91.9      91.2       34     59.3      0.00      0.00      85.9     0.32      1012.0     4       217        11       200        8.93     268      446.3
   07/21/2017 15:10      91.3      90.1       35     59.4      0.00      0.00      85.7     0.32      1012.0     3       195         7       191        8.93     268      465.8
   07/21/2017 15:00      91.2      90.3       35     59.3      0.00      0.00      85.7     0.32      1012.0     5       201         7       186        8.94     268      470.2
   07/21/2017 14:50      91.1      89.8       35     59.1      0.00      0.00      85.7     0.32      1012.0     4        90         6        94        8.94     268      480.0
   07/21/2017 14:40      90.7      89.6       35     59.0      0.00      0.00      85.7     0.32      1012.0     5       135         9       146        8.94     268      495.3
   07/21/2017 14:30      91.5      90.5       35     59.6      0.00      0.00      85.7     0.32      1012.0     4        87         7        86        8.94     268      503.6
   07/21/2017 14:20      92.3      89.7       36     59.8      0.00      0.00      85.5     0.31      1013.0     5       112        10       128        8.94     268      511.6
   07/21/2017 14:10      92.4      91.5       34     60.0      0.00      0.00      85.5     0.31      1013.0     4        63         6        81        8.94     269      515.5
   07/21/2017 14:00      92.3      90.6       34     59.1      0.00      0.00      85.4     0.31      1013.0     4        73         8        77        8.94     269      524.2
   07/21/2017 13:50      91.3      90.7       34     58.5      0.00      0.00      85.4     0.31      1013.0     2       346         4        93        8.94     269      530.3
   07/21/2017 13:40      91.2      90.0       34     58.5      0.00      0.00      85.4     0.31      1013.0     3        63         6        77        8.94     269      533.8
   07/21/2017 13:30      90.1      89.0       34     57.6      0.00      0.00      85.4     0.31      1013.0     3       346         5       348        8.94     269      538.8
   07/21/2017 13:20      89.4      88.6       35     57.4      0.00      0.00      85.2     0.31      1013.0     4       311         6       333        8.94     269      547.3
   07/21/2017 13:10      88.6      87.4       36     57.6      0.00      0.00      85.3     0.31      1013.0     3       301         5       311        8.94     269      549.0
   07/21/2017 13:00      88.2      87.1       37     58.7      0.00      0.00      85.1     0.31      1014.0     4       357         5         3        8.94     269      550.6
   07/21/2017 12:50      88.0      86.7       38     58.9      0.00      0.00      85.2     0.31      1014.0     3       352         5        11        8.94     269      553.8
   07/21/2017 12:40      86.8      86.3       39     58.7      0.00      0.00      85.1     0.31      1014.0     3        46         3       115        8.94     269      551.5
   07/21/2017 12:30      87.2      86.7       38     58.7      0.00      0.00      85.1     0.31      1014.0     3        37         6        17        8.95     269      548.9
   07/21/2017 12:20      87.2      85.8       39     58.6      0.00      0.00      85.2     0.32      1014.0     3        37         5       327        8.95     269      550.0
   07/21/2017 12:10      86.5      85.2       39     58.3      0.00      0.00      85.0     0.32      1014.0     4        52         7        72        8.95     269      548.2
   07/21/2017 12:00      86.6      85.2       39     58.3      0.00      0.00      85.0     0.32      1014.0     3        29         6        55        8.95     269      540.2
   07/21/2017 11:50      85.2      84.1       41     58.5      0.00      0.00      85.2     0.32      1014.0     3        45         7        72        8.95     270      535.1
   07/21/2017 11:40      84.3      83.9       42     58.7      0.00      0.00      85.2     0.32      1014.0     5        18         7        18        8.95     270      532.2
   07/21/2017 11:30      84.6      83.8       42     58.9      0.00      0.00      85.1     0.32      1014.0     3        39         4        78        8.95     271      521.7
   07/21/2017 11:20      83.8      82.7       43     58.5      0.00      0.00      85.4     0.32      1014.0     4        24         6        66        8.95     271      515.7
   07/21/2017 11:10      82.5      81.4       46     59.2      0.00      0.00      85.0     0.32      1014.0     3         9         6        16        8.95     271      506.2
   07/21/2017 11:00      82.1      80.9       48     59.9      0.00      0.00      85.3     0.32      1014.0     4        20         7         0        8.95     271      495.5
   07/21/2017 10:50      81.5      80.8       48     59.8      0.00      0.00      85.5     0.32      1015.0     3         0         5       128        8.95     271      484.8
   07/21/2017 10:40      81.1      80.3       49     59.7      0.00      0.00      85.3     0.32      1015.0     3        32         4        46        8.95     272      472.9
   07/21/2017 10:30      80.2      79.3       50     59.3      0.00      0.00      85.4     0.32      1015.0     2        57         5         0        8.95     272      461.0
   07/21/2017 10:20      79.5      78.7       50     59.0      0.00      0.00      85.5     0.32      1015.0     2        38         4       120        8.95     272      443.4
   07/21/2017 10:10      78.6      77.8       51     58.8      0.00      0.00      85.3     0.32      1015.0     3        69         4        50        8.99     272      428.2
   07/21/2017 10:00      78.3      76.7       52     58.8      0.00      0.00      85.6     0.32      1015.0     2        21         4       346        8.99     272      412.5
   07/21/2017 09:50      76.9      76.3       54     58.5      0.00      0.00      85.6     0.32      1015.0     2       281         4       342        8.99     272      394.2
   07/21/2017 09:40      76.4      74.7       55     58.7      0.00      0.00      85.7     0.32      1015.0     2        78         4        77        8.99     272      377.5
   07/21/2017 09:30      74.6      73.6       58     58.3      0.00      0.00      85.5     0.32      1015.0     2       332         4        37        9.00     272      359.9
   07/21/2017 09:20      74.0      73.3       59     58.6      0.00      0.00      85.7     0.32      1015.0     2       328         3       354        9.00     272      342.1
   07/21/2017 09:10      73.2      72.1       61     58.2      0.00      0.00      85.7     0.32      1015.0     2       333         3       299        9.00     272      329.1
   07/21/2017 09:00      72.1      71.0       63     58.6      0.00      0.00      85.4     0.32      1015.0     2        69         4       358        9.00     272      328.6
   07/21/2017 08:50      71.0      69.9       67     58.9      0.00      0.00      85.7     0.32      1015.0     2        72         3        17        9.00     272      246.2
   07/21/2017 08:40      70.1      69.5       68     58.6      0.00      0.00      85.7     0.32      1015.0     2        38         3        59        9.00     272      -19.2
   07/21/2017 08:30      69.4      68.8       70     58.9      0.00      0.00      85.7     0.32      1015.0     2        15         3         6        9.00     272      -20.1
   07/21/2017 08:20      69.1      68.5       70     58.8      0.00      0.00      85.7     0.32      1015.0     2        71         3        28        9.00     272      -18.3
   07/21/2017 08:10      68.6      68.3       71     58.9      0.00      0.00      86.2     0.32      1015.0     2        41         4        35        9.01     271      -16.5
   07/21/2017 08:00      68.4      67.7       72     58.7      0.00      0.00      86.1     0.32      1015.0     2        44         3        80        9.01     271        5.9
   07/21/2017 07:50      67.7      67.2       73     58.6      0.00      0.00      85.9     0.32      1015.0     2        25         2        28        9.01     271      -20.9
   07/21/2017 07:40      67.4      66.7       74     58.5      0.00      0.00      85.7     0.32      1015.0     1        68         2        32        9.01     271      -26.2
   07/21/2017 07:30      66.8      66.0       75     58.2      0.00      0.00      86.1     0.32      1015.0     1        61         2        49        9.01     271      -29.4
   07/21/2017 07:20      66.0      65.1       76     57.9      0.00      0.00      86.0     0.32      1014.0     1         3         1        42        9.01     271      -27.1
   07/21/2017 07:10      65.2      64.3       78     57.5      0.00      0.00      86.6     0.33      1014.0     1       196         1       181        9.01     271      -30.3
   07/21/2017 07:00      64.5      63.3       80     57.4      0.00      0.00      86.1     0.33      1014.0     1       129         1        94        9.01     271      -30.9
   07/21/2017 06:50      63.3      62.2       82     57.1      0.00      0.00      86.4     0.33      1014.0     0       174         1       152        9.01     271      -31.1
   07/21/2017 06:40      62.3      62.1       83     56.9      0.00      0.00      86.1     0.33      1014.0     1       142         1       147        9.01     271      -34.2
   07/21/2017 06:30      62.2      61.3       84     56.9      0.00      0.00      86.2     0.33      1014.0     1       145         1       150        9.01     271      -38.4
   07/21/2017 06:20      61.3      61.0       84     56.3      0.00      0.00      86.3     0.33      1014.0     1       142         1       144        9.01     270      -41.4
   07/21/2017 06:10      61.3      61.2       84     56.3      0.00      0.00      86.4     0.33      1014.0     1       132         1       139        9.01     270      -47.8
   07/21/2017 06:00      61.4      61.2       83     56.0      0.00      0.00      86.3     0.33      1014.0     1       149         1       154        9.01     270      -53.8
   07/21/2017 05:50      61.3      61.2       82     55.7      0.00      0.00      86.5     0.33      1014.0     1       150         1       143        9.01     270      -56.2
   07/21/2017 05:40      61.7      61.5       82     56.0      0.00      0.00      86.4     0.33      1014.0     1       149         2       157        9.02     270      -58.5
   07/21/2017 05:30      61.7      61.3       81     55.4      0.00      0.00      86.7     0.33      1014.0     2       150         2       141        9.02     270      -61.3
   07/21/2017 05:20      62.2      61.5       79     55.3      0.00      0.00      86.2     0.33      1014.0     1       159         2       132        9.02     270      -61.6
   07/21/2017 05:10      62.3      62.2       79     55.7      0.00      0.00      86.7     0.33      1014.0     1       167         2       170        9.02     270      -62.0
   07/21/2017 05:00      62.4      62.0       80     56.0      0.00      0.00      86.6     0.33      1014.0     2       161         2       154        9.02     270      -62.2
   07/21/2017 04:50      62.3      61.8       81     56.2      0.00      0.00      86.5     0.33      1014.0     2       159         2       168        9.02     270      -62.6
   07/21/2017 04:40      61.8      61.6       81     55.8      0.00      0.00      86.6     0.33      1014.0     2       153         3       157        9.02     270      -63.2
   07/21/2017 04:30      62.0      61.5       81     55.8      0.00      0.00      86.8     0.33      1013.0     2       136         2       139        9.02     270      -63.3
   07/21/2017 04:20      62.0      61.6       80     55.6      0.00      0.00      86.8     0.33      1013.0     2       133         2       134        9.02     270      -63.2
   07/21/2017 04:10      62.1      61.7       79     55.4      0.00      0.00      86.8     0.33      1013.0     2       157         3       166        9.02     270      -63.5
   07/21/2017 04:00      62.5      62.1       78     55.3      0.00      0.00      86.9     0.33      1013.0     2       145         2       165        9.02     269      -64.2
   07/21/2017 03:50      62.9      62.5       76     55.2      0.00      0.00      87.0     0.33      1013.0     1       152         2       159        9.02     270      -65.1
   07/21/2017 03:40      63.8      63.0       76     55.9      0.00      0.00      87.0     0.33      1013.0     1       152         2       140        9.03     270      -65.0
   07/21/2017 03:30      64.1      63.8       76     56.3      0.00      0.00      87.0     0.33      1013.0     1       157         1       188        9.03     270      -63.8
   07/21/2017 03:20      64.1      63.8       75     55.9      0.00      0.00      87.1     0.33      1013.0     1       152         2       133        9.03     269      -63.7
   07/21/2017 03:10      65.2      64.2       73     55.9      0.00      0.00      87.1     0.33      1014.0     1       125         2       127        9.03     269      -64.4
   07/21/2017 03:00      65.2      64.8       73     56.3      0.00      0.00      86.8     0.33      1014.0     1        90         1        10        9.03     269      -64.8
   07/21/2017 02:50      65.3      65.0       71     55.6      0.00      0.00      87.4     0.33      1014.0     1        85         1        72        9.03     269      -65.5
   07/21/2017 02:40      65.3      64.7       70     55.0      0.00      0.00      87.2     0.33      1014.0     1        80         2        94        9.04     269      -66.3
   07/21/2017 02:30      65.2      64.8       68     54.0      0.00      0.00      87.2     0.33      1014.0     1       104         2        90        9.04     269      -65.9
   07/21/2017 02:20      66.1      65.3       66     54.1      0.00      0.00      87.3     0.33      1014.0     1        88         3        87        9.04     269      -66.8
   07/21/2017 02:10      65.9      65.7       65     54.0      0.00      0.00      87.2     0.33      1014.0     1        89         2        74        9.04     269      -68.1
   07/21/2017 02:00      66.0      65.6       64     53.2      0.00      0.00      87.3     0.33      1014.0     1        80         3        79        9.05     269      -67.0
   07/21/2017 01:50      66.0      65.6       63     52.8      0.00      0.00      87.4     0.33      1014.0     1       122         1       100        9.06     269      -66.5
   07/21/2017 01:40      65.8      65.6       62     52.6      0.00      0.00      87.2     0.33      1014.0     1       135         1       141        9.07     269      -66.6
   07/21/2017 01:30      66.2      65.6       62     52.5      0.00      0.00      87.3     0.33      1014.0     1       130         1       149        9.07     269      -66.7
   07/21/2017 01:20      66.7      66.2       60     52.4      0.00      0.00      87.3     0.33      1014.0     1        71         2        68        9.08     269      -66.8
   07/21/2017 01:10      67.0      66.7       61     52.7      0.00      0.00      87.4     0.33      1014.0     0        80         1       108        9.08     269      -66.5
   07/21/2017 01:00      67.0      66.7       62     53.4      0.00      0.00      87.3     0.33      1014.0     1        92         1       109        9.08     268      -67.8
   07/21/2017 00:50      67.1      66.8       64     54.2      0.00      0.00      87.4     0.33      1014.0     1        92         2       116        9.09     268      -68.1
   07/21/2017 00:40      67.9      67.2       62     54.2      0.00      0.00      87.4     0.33      1014.0     1       100         2        82        9.09     268      -68.5
   07/21/2017 00:30      68.1      67.7       63     54.8      0.00      0.00      87.5     0.33      1014.0     0       103         1       136        9.09     268      -67.8
   07/21/2017 00:20      67.9      67.8       63     55.0      0.00      0.00      87.6     0.33      1014.0     1        63         1        78        9.09     268      -68.3
   07/21/2017 00:10      68.6      68.0       62     54.9      0.00      0.00      87.6     0.33      1014.0     1       104         1       108        9.10     268      -69.4
   07/21/2017 00:00      68.7      68.5       62     55.2      0.00      0.00      87.6     0.33      1014.0     0       127         1       140        9.10     268      -69.2
   07/20/2017 23:50      68.6      68.3       62     54.8      0.00      0.00      87.6     0.33      1014.0     1       127         1       123        9.10     268      -70.6
   07/20/2017 23:40      69.3      68.7       60     54.5      0.00      0.00      87.6     0.33      1014.0     1       109         1       125        9.11     268      -71.2
   07/20/2017 23:30      69.4      69.1       59     54.3      0.00      0.00      87.5     0.33      1014.0     1        98         2        80        9.11     268      -72.5
   07/20/2017 23:20      69.9      69.4       57     53.9      0.00      0.00      87.6     0.33      1014.0     1       103         2        93        9.11     268      -72.3
   07/20/2017 23:10      70.4      69.9       55     53.4      0.00      0.00      87.5     0.33      1014.0     1        86         1        71        9.11     268      -74.6
   07/20/2017 23:00      70.5      70.3       55     53.7      0.00      0.00      87.7     0.33      1014.0     1        98         2        65        9.12     268      -77.0
   07/20/2017 22:50      71.3      70.5       56     54.4      0.00      0.00      87.6     0.33      1014.0     1        88         2        63        9.12     268      -76.5
   07/20/2017 22:40      71.9      71.4       54     54.4      0.00      0.00      87.6     0.33      1014.0     1        86         2        38        9.12     268      -78.2
   07/20/2017 22:30      72.3      72.1       54     54.7      0.00      0.00      87.7     0.33      1014.0     1        77         2        71        9.13     268      -79.6
   07/20/2017 22:20      72.9      72.3       53     54.4      0.00      0.00      87.5     0.33      1014.0     2        95         3        71        9.14     268      -80.6
   07/20/2017 22:10      73.5      73.1       51     54.0      0.00      0.00      87.7     0.33      1014.0     2        78         3        87        9.14     268      -81.3
   07/20/2017 22:00      73.9      73.7       50     53.8      0.00      0.00      87.6     0.33      1014.0     2        66         2        99        9.14     268      -81.4
   07/20/2017 21:50      74.3      73.9       48     53.3      0.00      0.00      87.7     0.33      1014.0     2        68         3        62        9.14     267      -81.1
   07/20/2017 21:40      74.9      74.3       47     53.2      0.00      0.00      87.7     0.33      1014.0     1       108         3       153        9.14     267      -82.1
   07/20/2017 21:30      75.2      74.9       47     53.4      0.00      0.00      87.7     0.33      1014.0     3       169         4       161        9.15     267      -83.6
   07/20/2017 21:20      76.3      75.4       45     52.8      0.00      0.00      87.6     0.33      1014.0     3       165         4       176        9.15     267      -85.1
   07/20/2017 21:10      76.9      76.5       40     50.8      0.00      0.00      87.7     0.33      1014.0     2       190         3       185        9.16     267      -86.2
   07/20/2017 21:00      77.9      77.1       38     50.0      0.00      0.00      87.6     0.33      1014.0     1       170         2       265        9.16     267      -88.7
   07/20/2017 20:50      78.4      77.8       37     49.6      0.00      0.00      87.6     0.33      1014.0     1       128         2       261        9.16     267      -91.3
   07/20/2017 20:40      78.9      78.4       37     49.8      0.00      0.00      87.6     0.33      1014.0     2       213         4       254        9.17     267      -91.2
   07/20/2017 20:30      79.3      78.8       36     50.0      0.00      0.00      87.7     0.33      1014.0     3       218         6       236        9.17     267      -91.0
   07/20/2017 20:20      80.3      79.6       35     50.2      0.00      0.00      87.5     0.33      1013.0     3       216         5       212        9.17     267      -91.7
   07/20/2017 20:10      81.6      80.6       35     50.8      0.00      0.00      87.4     0.33      1013.0     3       231         5       235        9.18     267      -91.2
   07/20/2017 20:00      82.8      81.8       32     49.5      0.00      0.00      87.4     0.33      1013.0     2       245         5       269        9.18     267      -89.0
   07/20/2017 19:50      84.0      82.8       32     50.2      0.00      0.00      87.4     0.33      1013.0     3       289         4       281        9.18     266      -86.1
   07/20/2017 19:40      85.1      84.1       31     51.0      0.00      0.00      87.4     0.32      1013.0     2       291         3       295        9.18     267      -76.2
   07/20/2017 19:30      85.7      84.9       31     51.4      0.00      0.00      87.3     0.32      1013.0     3       291         4       286        9.19     266      -64.0
   07/20/2017 19:20      85.8      85.5       30     50.6      0.00      0.00      87.3     0.32      1013.0     4       265         8       228        9.19     267      -48.3
   07/20/2017 19:10      86.8      85.7       31     51.7      0.00      0.00      87.1     0.32      1013.0     5       232         7       226        9.19     266      -29.4
   07/20/2017 19:00      87.2      86.7       31     52.9      0.00      0.00      87.3     0.32      1013.0     3       263         5       250        9.20     267       -8.0
   07/20/2017 18:50      87.9      87.0       31     53.6      0.00      0.00      87.3     0.32      1012.0     4       306         7       307        9.20     267       15.7
   07/20/2017 18:40      88.5      87.8       31     53.7      0.00      0.00      87.3     0.32      1012.0     4       301         6       310        9.20     267       40.4
   07/20/2017 18:30      89.5      88.5       31     54.0      0.00      0.00      87.1     0.32      1012.0     5       266         7       256        9.21     267       67.1
   07/20/2017 18:20      89.5      89.0       30     54.1      0.00      0.00      87.0     0.32      1012.0     5       286         7       270        9.21     267       89.2
   07/20/2017 18:10      90.1      89.6       30     54.5      0.00      0.00      87.1     0.32      1012.0     6       279         8       266        9.22     267      112.0
   07/20/2017 18:00      91.0      90.2       30     55.0      0.00      0.00      87.1     0.32      1012.0     6       280         7       261        9.22     267      137.6
   07/20/2017 17:50      91.8      91.0       30     56.0      0.00      0.00      87.1     0.32      1012.0     5       297         7       276        9.23     267      158.7
   07/20/2017 17:40      91.8      90.8       31     56.6      0.00      0.00      87.0     0.32      1012.0     4       261         5       294        9.23     267      181.5
   07/20/2017 17:30      92.0      91.4       31     57.0      0.00      0.00      86.8     0.32      1012.0     5       277         8       285        9.23     267      205.1
   07/20/2017 17:20      92.0      91.2       31     57.1      0.00      0.00      86.9     0.32      1012.0     4       251        10       249        9.24     267      225.3
   07/20/2017 17:10      92.9      91.8       27     53.3      0.00      0.00      86.9     0.32      1012.0     5       205         7       243        9.24     267      243.9
   07/20/2017 17:00      92.8      92.1       25     51.2      0.00      0.00      86.5     0.32      1012.0     4       208         7       205        9.24     267      270.7
   07/20/2017 16:50      93.2      91.8       23     49.8      0.00      0.00      86.8     0.32      1012.0     4       168         7       159        9.24     267      294.4
   07/20/2017 16:40      93.2      92.2       23     49.3      0.00      0.00      86.7     0.32      1012.0     4       189         7       162        9.24     267      312.8
   07/20/2017 16:30      93.5      92.6       21     47.7      0.00      0.00      86.6     0.32      1013.0     5       191         7       200        9.25     267      330.3
   07/20/2017 16:20      92.8      92.2       21     46.7      0.00      0.00      86.3     0.32      1013.0     4       218         8       183        9.25     267      350.4
   07/20/2017 16:10      92.9      92.0       21     46.7      0.00      0.00      86.3     0.32      1013.0     5       172         9       128        9.25     267      370.2
   07/20/2017 16:00      92.7      91.9       21     46.9      0.00      0.00      86.4     0.32      1013.0     5       187         7       168        9.25     267      388.7
   07/20/2017 15:50      92.8      91.8       21     46.4      0.00      0.00      86.3     0.32      1013.0     5       177         8       150        9.25     267      405.3
   07/20/2017 15:40      92.7      92.3       21     46.4      0.00      0.00      86.1     0.32      1013.0     4       169         8       209        9.25     267      421.4
   07/20/2017 15:30      93.1      92.5       21     46.7      0.00      0.00      86.1     0.32      1013.0     5       165         8       207        9.25     267      435.3
   07/20/2017 15:20      93.2      92.8       20     46.1      0.00      0.00      86.1     0.32      1014.0     5       122         7       121        9.25     267      447.0
   07/20/2017 15:10      93.8      93.1       20     46.1      0.00      0.00      86.1     0.32      1014.0     4       138         6       163        9.25     267      457.6
   07/20/2017 15:00      94.0      93.0       20     47.2      0.00      0.00      86.0     0.32      1014.0     3        79         6       133        9.25     267      470.0
   07/20/2017 14:50      93.8      91.9       22     48.1      0.00      0.00      85.9     0.32      1014.0     4        76         5        45        9.25     267      485.0
   07/20/2017 14:40      93.0      91.9       24     50.1      0.00      0.00      85.9     0.32      1014.0     3        87         7        67        9.25     267      494.8
   07/20/2017 14:30      92.9      91.7       26     52.3      0.00      0.00      85.8     0.32      1014.0     5       105         7       124        9.25     268      507.9
   07/20/2017 14:20      92.7      90.7       28     53.2      0.00      0.00      85.8     0.32      1014.0     4       179         6       188        9.25     268      519.1
   07/20/2017 14:10      92.0      89.9       28     53.6      0.00      0.00      85.7     0.31      1014.0     4       187         7       200        9.25     268      530.3
   07/20/2017 14:00      90.6      89.7       30     54.7      0.00      0.00      85.7     0.31      1014.0     5       164         9       175        9.25     268      538.5
   07/20/2017 13:50      90.6      89.4       32     56.0      0.00      0.00      85.6     0.31      1014.0     5       165         6       179        9.25     268      542.7
   07/20/2017 13:40      92.8      91.0       32     57.9      0.00      0.00      85.5     0.31      1015.0     5        93         8       145        9.25     269      540.1
   07/20/2017 13:30      92.5      91.5       32     58.0      0.00      0.00      85.5     0.31      1015.0     2        54         5        50        9.25     269      543.0
   07/20/2017 13:20      91.5      89.7       34     58.2      0.00      0.00      85.5     0.31      1015.0     4        32         7       354        9.25     269      550.0
   07/20/2017 13:10      91.0      88.9       35     58.4      0.00      0.00      85.6     0.31      1015.0     5       301         7       273        9.25     269      555.5
   07/20/2017 13:00      90.1      89.1       35     58.5      0.00      0.00      85.5     0.32      1015.0     2        36         5        22        9.25     269      557.8
   07/20/2017 12:50      89.8      89.4       36     58.9      0.00      0.00      85.5     0.31      1015.0     4        86         7        73        9.25     269      561.1
   07/20/2017 12:40      88.8      88.1       37     58.8      0.00      0.00      85.4     0.32      1015.0     3       359         4       353        9.25     269      556.9
   07/20/2017 12:30      88.5      87.4       37     58.8      0.00      0.00      85.4     0.32      1015.0     3       347         5       341        9.25     269      554.1
   07/20/2017 12:20      88.3      87.3       38     59.0      0.00      0.00      85.6     0.32      1015.0     3        10         5       350        9.25     269      552.0
   07/20/2017 12:10      88.0      86.3       39     59.4      0.00      0.00      85.3     0.32      1016.0     3        41         4        26        9.25     269      550.9
   07/20/2017 12:00      86.1      85.5       41     59.2      0.00      0.00      85.3     0.32      1016.0     3        68         7        84        9.25     269      549.2
   07/20/2017 11:50      86.2      84.5       41     59.0      0.00      0.00      85.5     0.32      1016.0     3        35         5        65        9.25     270      540.4
   07/20/2017 11:40      85.2      84.6       42     59.1      0.00      0.00      85.5     0.32      1016.0     4        20         5        31        9.25     270      534.1
   07/20/2017 11:30      85.8      85.0       42     59.9      0.00      0.00      85.4     0.32      1016.0     4        38         7        73        9.25     271      524.1
   07/20/2017 11:20      85.2      83.9       44     60.1      0.00      0.00      85.4     0.32      1016.0     3        32         6         8        9.25     271      518.0
   07/20/2017 11:10      84.4      83.5       44     59.8      0.00      0.00      85.4     0.32      1016.0     4        40         7        24        9.25     271      509.7
   07/20/2017 11:00      83.5      82.2       46     59.8      0.00      0.00      85.5     0.32      1016.0     3        32         4        15        9.25     271      500.1
   07/20/2017 10:50      83.3      82.6       44     58.8      0.00      0.00      85.4     0.32      1016.0     5        29         8        12        9.25     271      488.9
   07/20/2017 10:40      82.7      82.0       44     58.5      0.00      0.00      85.7     0.32      1016.0     4        27         7         0        9.25     271      477.6
   07/20/2017 10:30      82.2      81.4       45     58.3      0.00      0.00      85.5     0.32      1016.0     3        53         5        82        9.25     272      464.3
   07/20/2017 10:20      81.7      81.1       45     58.4      0.00      0.00      85.5     0.32      1016.0     3        22         5         7        9.25     272      450.0
   07/20/2017 10:10      81.5      80.3       47     58.6      0.00      0.00      85.6     0.32      1016.0     3        64         5        73        9.25     272      433.9
   07/20/2017 10:00      80.2      79.3       50     59.7      0.00      0.00      85.8     0.32      1016.0     3        46         4        55        9.25     272      414.9
   07/20/2017 09:50      79.5      78.1       52     60.1      0.00      0.00      85.6     0.32      1016.0     3       133         6       127        9.25     272      398.1
   07/20/2017 09:40      78.0      77.0       55     60.3      0.00      0.00      85.9     0.32      1016.0     3        84         5       113        9.25     272      380.9
   07/20/2017 09:30      77.4      76.5       57     60.3      0.00      0.00      86.2     0.32      1016.0     3        44         4        32        9.25     272      364.6
   07/20/2017 09:20      76.6      75.8       57     60.2      0.00      0.00      85.7     0.32      1016.0     3        45         5        37        9.25     272      345.7
   07/20/2017 09:10      75.9      74.7       59     60.1      0.00      0.00      86.0     0.32      1016.0     2        55         4        83        8.95     272      336.2
   07/20/2017 09:00      74.7      73.0       63     60.5      0.00      0.00      85.9     0.32      1016.0     2        44         4        67        8.95     272      334.9
   07/20/2017 08:50      73.0      72.2       66     60.5      0.00      0.00      85.9    "NAN"      1016.0     2         3         4        25        2.13     272      269.6
   07/20/2017 08:40      72.2      71.6       67     60.5      0.00      0.00      86.3    "NAN"      1016.0     2        32         3        65        2.14     272      -27.8
   07/20/2017 08:30      71.8      71.0       69     60.9      0.00      0.00      86.1    "NAN"      1016.0     2       101         3       280        2.13     272      -27.0
   07/20/2017 08:20      71.1      70.4       72     61.0      0.00      0.00      86.0    "NAN"      1016.0     1        53         2       348        2.13     272      -27.6
   07/20/2017 08:10      70.7      69.9       73     61.1      0.00      0.00      86.4     0.32      1016.0     2        18         3        29        2.14     272      -24.3
   07/20/2017 08:00      69.9      69.3       74     60.9      0.00      0.00      86.3     0.32      1016.0     2        19         4         9        2.14     272        6.2
   07/20/2017 07:50      69.3      69.1       75     61.0      0.00      0.00      86.2     0.33      1016.0     3        25         4        17        2.14     272      -23.6
   07/20/2017 07:40      69.3      69.1       75     60.9      0.00      0.00      86.1     0.33      1016.0     2        14         4         6        8.96     272      -29.9
   07/20/2017 07:30      69.2      68.6       74     60.2      0.00      0.00      86.4     0.33      1016.0     2        63         3        78        8.96     272      -31.6
   07/20/2017 07:20      68.5      67.5       75     59.6      0.00      0.00      86.3     0.33      1016.0     2        36         3        14        8.96     271      -29.3
   07/20/2017 07:10      67.7      66.7       76     59.3      0.00      0.00      86.3     0.33      1016.0     1        75         2        49        8.96     271      -34.0
   07/20/2017 07:00      66.7      65.8       77     58.7      0.00      0.00      86.1     0.33      1016.0     1        83         2        55        8.96     271      -39.3
   07/20/2017 06:50      65.8      64.9       77     58.1      0.00      0.00      86.4     0.33      1016.0     1        92         2       114        8.97     271      -42.3
   07/20/2017 06:40      65.0      64.3       79     58.1      0.00      0.00      86.4     0.33      1016.0     2       144         2       138        8.97     271      -46.5
   07/20/2017 06:30      64.3      63.5       81     57.8      0.00      0.00      86.1     0.33      1016.0     2       159         2       163        8.97     271      -49.7
   07/20/2017 06:20      63.6      63.2       81     57.4      0.00      0.00      86.5     0.33      1016.0     1       163         2       163        8.97     271      -51.6
   07/20/2017 06:10      63.5      63.2       80     57.1      0.00      0.00      86.6     0.33      1016.0     2       156         3       161        8.97     271      -56.0
   07/20/2017 06:00      64.0      63.6       81     57.8      0.00      0.00      86.5     0.33      1016.0     1       166         2       138        8.97     271      -55.6
   07/20/2017 05:50      63.6      63.2       79     56.6      0.00      0.00      86.8     0.33      1015.0     1       144         2       148        8.98     271      -59.7
   07/20/2017 05:40      63.5      63.2       77     56.1      0.00      0.00      86.5     0.33      1015.0     2       139         2       147        8.98     270      -60.2
   07/20/2017 05:30      63.9      63.5       76     56.0      0.00      0.00      86.7     0.33      1015.0     2       144         2       145        8.98     271      -61.0
   07/20/2017 05:20      64.5      64.0       75     56.1      0.00      0.00      86.9     0.33      1015.0     1       146         2       160        8.98     271      -60.8
   07/20/2017 05:10      64.9      64.5       73     56.0      0.00      0.00      86.8     0.33      1015.0     1       174         1       174        8.98     270      -59.4
   07/20/2017 05:00      64.7      64.3       72     55.4      0.00      0.00      86.6     0.33      1015.0     1       159         1       155        8.98     270      -59.6
   07/20/2017 04:50      64.4      64.1       71     54.6      0.00      0.00      86.6     0.33      1015.0     0       234         1       234        8.99     270      -59.3
   07/20/2017 04:40      64.1      63.9       70     53.9      0.00      0.00      86.9     0.33      1015.0     1       156         1       125        8.99     270      -59.9
   07/20/2017 04:30      64.7      64.2       68     53.6      0.00      0.00      87.1     0.33      1015.0     2       139         2       134        8.99     270      -60.3
   07/20/2017 04:20      64.8      64.7       67     53.6      0.00      0.00      86.7     0.33      1015.0     1       151         2       127        8.99     270      -59.8
   07/20/2017 04:10      65.0      64.7       66     53.4      0.00      0.00      86.8     0.33      1015.0     1       161         2       132        8.99     270      -59.4
   07/20/2017 04:00      65.0      64.7       66     53.0      0.00      0.00      86.9     0.33      1015.0     1       154         1       134        8.99     270      -59.5
   07/20/2017 03:50      65.0      64.8       65     52.8      0.00      0.00      87.0     0.33      1015.0     1       143         2       140        8.99     270      -60.6
   07/20/2017 03:40      65.3      65.0       64     52.5      0.00      0.00      87.0     0.33      1015.0     1       138         1       128        8.99     270      -61.3
   07/20/2017 03:30      65.4      65.2       64     52.9      0.00      0.00      87.1     0.33      1015.0     1       137         1       133        8.99     270      -61.5
   07/20/2017 03:20      65.6      65.2       64     52.9      0.00      0.00      87.1     0.33      1015.0     1       141         2       133        9.00     270      -62.6
   07/20/2017 03:10      66.4      65.8       62     53.0      0.00      0.00      87.2     0.33      1015.0     2       139         2       139        9.00     270      -63.6
   07/20/2017 03:00      66.5      66.4       62     53.2      0.00      0.00      87.3     0.33      1015.0     1       161         1       152        9.00     270      -62.8
   07/20/2017 02:50      66.8      66.4       62     53.2      0.00      0.00      87.3     0.33      1015.0     1       140         2       148        9.01     270      -63.5
   07/20/2017 02:40      67.1      66.8       61     53.2      0.00      0.00      87.3     0.33      1015.0     1       171         1       158        9.01     270      -63.3
   07/20/2017 02:30      67.3      67.0       61     53.5      0.00      0.00      87.3     0.33      1015.0     2       144         2       136        9.01     270      -64.0
   07/20/2017 02:20      67.5      67.1       61     53.5      0.00      0.00      87.2     0.33      1015.0     2       134         2       133        9.01     270      -63.8
   07/20/2017 02:10      68.0      67.3       59     53.0      0.00      0.00      87.5     0.33      1015.0     2       143         2       137        9.01     270      -63.4
   07/20/2017 02:00      68.4      68.0       57     52.5      0.00      0.00      87.4     0.33      1015.0     1       145         2       164        9.01     270      -63.0
   07/20/2017 01:50      68.5      68.4       57     52.5      0.00      0.00      87.5     0.33      1015.0     1       149         1       150        9.01     269      -62.7
   07/20/2017 01:40      68.8      68.4       57     52.7      0.00      0.00      87.2     0.33      1015.0     1       127         2        77        9.01     269      -63.4
   07/20/2017 01:30      69.3      69.0       56     52.6      0.00      0.00      87.5     0.33      1015.0     1       120         1       181        9.01     269      -63.4
   07/20/2017 01:20      69.5      69.3       56     52.8      0.00      0.00      87.6     0.33      1015.0     1       145         1       181        9.01     269      -62.4
   07/20/2017 01:10      69.6      69.3       57     53.5      0.00      0.00      87.5     0.33      1015.0     1       152         1        87        9.02     269      -63.1
   07/20/2017 01:00      70.2      69.7       56     53.4      0.00      0.00      87.6     0.33      1015.0     1       111         2       110        9.02     269      -65.4
   07/20/2017 00:50      70.7      70.2       55     53.7      0.00      0.00      87.7     0.33      1015.0     1        99         1       126        9.02     269      -65.7
   07/20/2017 00:40      71.5      70.8       55     54.2      0.00      0.00      87.6     0.33      1015.0     1        52         2        21        9.02     269      -65.4
   07/20/2017 00:30      71.4      71.1       56     54.6      0.00      0.00      87.5     0.33      1015.0     1        50         1        39        9.02     269      -65.9
   07/20/2017 00:20      71.3      70.9       56     54.4      0.00      0.00      87.6     0.33      1015.0     1        92         3        82        9.02     269      -66.0
   07/20/2017 00:10      71.4      70.9       54     53.5      0.00      0.00      87.5     0.33      1015.0     1        86         2        98        9.07     269      -65.3
   07/20/2017 00:00      71.8      71.4       52     53.2      0.00      0.00      87.7     0.33      1015.0     0        69         1        57        9.08     269      -65.0
   07/19/2017 23:50      72.7      71.9       50     52.7      0.00      0.00      87.7     0.33      1015.0     1        82         1        78        9.08     269      -66.4
   07/19/2017 23:40      73.3      72.7       49     52.8      0.00      0.00      87.7     0.33      1015.0     1        38         2       335        9.08     269      -65.2
   07/19/2017 23:30      73.8      73.1       48     52.6      0.00      0.00      87.7     0.33      1015.0     1        52         2        82        9.08     269      -65.3
   07/19/2017 23:20      74.3      73.9       47     52.4      0.00      0.00      87.6     0.33      1015.0     1        86         2        75        9.08     269      -67.6
   07/19/2017 23:10      74.3      73.5       47     52.4      0.00      0.00      87.7     0.33      1015.0     2        65         4        63        9.08     269      -67.4
   07/19/2017 23:00      74.2      73.5       51     54.7      0.00      0.00      87.8     0.33      1015.0     1        56         3        68        9.08     269      -65.6
   07/19/2017 22:50      74.8      74.2       51     55.4      0.00      0.00      87.7     0.33      1015.0     0         1         1       324        9.08     269      -65.2
   07/19/2017 22:40      75.3      74.9       50     55.3      0.00      0.00      87.7     0.33      1015.0     1         6         1       335        9.08     269      -66.5
   07/19/2017 22:30      75.8      75.4       50     55.6      0.00      0.00      87.7     0.33      1015.0     1        20         1       320        9.09     269      -68.1
   07/19/2017 22:20      76.6      76.0       49     55.9      0.00      0.00      87.7     0.33      1015.0     1        58         2        71        9.09     269      -71.6
   07/19/2017 22:10      77.1      76.6       48     55.5      0.00      0.00      87.6     0.33      1015.0     2       170         3       199        9.10     269      -73.4
   07/19/2017 22:00      77.4      76.9       49     56.5      0.00      0.00      87.5     0.33      1015.0     2       202         3       194        9.10     268      -73.4
   07/19/2017 21:50      77.7      77.4       49     56.9      0.00      0.00      87.8     0.33      1014.0     2       190         3       206        9.10     268      -73.6
   07/19/2017 21:40      78.0      77.7       49     57.2      0.00      0.00      87.7     0.33      1014.0     2       197         3       198        9.10     268      -74.1
   07/19/2017 21:30      78.4      78.0       48     57.2      0.00      0.00      87.8     0.33      1014.0     2       194         3       210        9.11     268      -75.3
   07/19/2017 21:20      78.9      78.4       48     57.1      0.00      0.00      87.6     0.33      1014.0     2       208         3       203        9.11     268      -75.9
   07/19/2017 21:10      79.9      79.1       46     56.7      0.00      0.00      87.7     0.33      1014.0     2       212         3       239        9.11     268      -76.2
   07/19/2017 21:00      80.9      80.1       40     53.9      0.00      0.00      87.6     0.33      1014.0     2       257         3       327        9.11     268      -76.5
   07/19/2017 20:50      81.0      80.9       39     53.8      0.00      0.00      87.6     0.33      1014.0     2       306         3       316        9.11     268      -77.0
   07/19/2017 20:40      81.3      81.1       39     54.2      0.00      0.00      87.5     0.33      1014.0     3       275         5       280        9.11     268      -77.2
   07/19/2017 20:30      81.6      81.2       40     54.9      0.00      0.00      87.5     0.33      1014.0     3       279         4       298        9.12     268      -77.4
   07/19/2017 20:20      81.9      81.6       41     55.8      0.00      0.00      87.5     0.33      1013.0     3       265         5       273        9.12     268      -75.8
   07/19/2017 20:10      82.6      81.9       42     56.6      0.00      0.00      87.5     0.33      1013.0     3       298         5       298        9.12     268      -72.3
   07/19/2017 20:00      82.8      82.5       42     57.2      0.00      0.00      87.3     0.33      1013.0     3       282         5       282        9.12     268      -67.1
   07/19/2017 19:50      83.7      82.9       41     57.6      0.00      0.00      87.5     0.33      1013.0     3       289         6       312        9.12     267      -61.4
   07/19/2017 19:40      85.0      83.9       40     57.7      0.00      0.00      87.5     0.33      1013.0     5       299         7       277        9.12     267      -50.9
   07/19/2017 19:30      86.0      85.3       39     57.6      0.00      0.00      87.4     0.33      1013.0     3       273         6       244        9.13     267      -39.7
   07/19/2017 19:20      86.5      86.1       38     57.5      0.00      0.00      87.3     0.33      1013.0     3       269         6       252        9.13     267      -26.6
   07/19/2017 19:10      86.9      86.3       37     57.3      0.00      0.00      87.3     0.33      1013.0     4       269         5       264        9.13     267      -10.0
   07/19/2017 19:00      87.0      86.5       37     57.2      0.00      0.00      87.3     0.33      1012.0     4       277         6       275        9.13     267       11.1
   07/19/2017 18:50      87.5      86.5       35     56.0      0.00      0.00      87.3     0.32      1012.0     5       227         6       218        9.13     267       35.6
   07/19/2017 18:40      87.7      87.2       34     55.8      0.00      0.00      87.2     0.32      1012.0     6       236         8       235        9.13     267       60.7
   07/19/2017 18:30      87.4      86.8       34     55.4      0.00      0.00      87.2     0.32      1012.0     6       183         9       179        9.14     267       88.7
   07/19/2017 18:20      87.8      87.2       32     54.5      0.00      0.00      87.1     0.32      1012.0     6       172         8       190        9.14     267      115.2
   07/19/2017 18:10      88.4      87.5       31     53.9      0.00      0.00      87.0     0.32      1012.0     6       164         8       164        9.14     267      141.7
   07/19/2017 18:00      89.1      88.6       31     54.7      0.00      0.00      86.9     0.32      1012.0     6       154         9       153        9.15     267      166.5
   07/19/2017 17:50      89.2      88.9       33     55.8      0.00      0.00      86.9     0.32      1012.0     6       163         7       140        9.15     267      196.4
   07/19/2017 17:40      88.9      88.6       33     56.3      0.00      0.00      86.7     0.32      1012.0     7       158         9       175        9.16     268      229.7
   07/19/2017 17:30      89.7      89.1       33     56.5      0.00      0.00      86.6     0.32      1012.0     7       147        10       164        9.16     267      246.4
   07/19/2017 17:20      89.7      89.3       33     56.9      0.00      0.00      86.8     0.32      1012.0     6       154        11       150        9.17     267      261.5
   07/19/2017 17:10      89.8      89.5       33     56.9      0.00      0.00      86.5     0.32      1012.0     6       154         8       139        9.18     267      141.8
   07/19/2017 17:00      90.5      90.0       32     56.2      0.00      0.00      86.4     0.32      1012.0     6       160         9       166        9.18     267      264.8
   07/19/2017 16:50      91.0      90.1       32     56.7      0.00      0.00      86.4     0.32      1012.0     6       167         9       168        9.19     267      168.0
   07/19/2017 16:40      91.5      90.8       32     56.7      0.00      0.00      86.5     0.32      1012.0     7       166        11       188        9.19     267      327.3
   07/19/2017 16:30      91.9      91.1       31     56.7      0.00      0.00      86.4     0.32      1012.0     6       180         8       180        9.19     267      374.6
   07/19/2017 16:20      92.7      91.6       30     56.5      0.00      0.00      86.5     0.32      1012.0     6       191         7       192        9.19     268      402.8
   07/19/2017 16:10      93.4      92.5       29     56.0      0.00      0.00      86.3     0.32      1012.0     6       182         9       173        9.19     268      400.9
   07/19/2017 16:00      93.6      92.5       29     56.3      0.00      0.00      86.4     0.32      1012.0     6       158        10       151        9.19     268      402.0
   07/19/2017 15:50      93.9      92.8       29     56.3      0.00      0.00      86.2     0.32      1013.0     5       184         8       174        9.19     268      411.5
   07/19/2017 15:40      93.9      93.0       29     56.2      0.00      0.00      86.1     0.32      1013.0     5       193         7       173        9.19     268      422.5
   07/19/2017 15:30      93.7      92.6       29     55.7      0.00      0.00      86.1     0.32      1013.0     5       170         7       156        9.19     268      433.6
   07/19/2017 15:20      94.3      93.0       28     56.0      0.00      0.00      86.0     0.32      1013.0     5       165         7       166        9.19     268      444.3
   07/19/2017 15:10      93.9      93.7       28     56.0      0.00      0.00      86.0     0.32      1013.0     5       148         6       147        9.19     268      458.6
   07/19/2017 15:00      93.6      92.4       29     55.8      0.00      0.00      85.9     0.32      1013.0     6       168        11       127        9.19     268      475.3
   07/19/2017 14:50      95.7      92.9       28     56.6      0.00      0.00      85.7     0.32      1013.0     6       135        10       141        9.19     268      480.1
   07/19/2017 14:40      95.5      94.8       28     57.3      0.00      0.00      85.8     0.32      1013.0     4        33         6        72        9.19     268      489.0
   07/19/2017 14:30      95.3      94.7       29     57.5      0.00      0.00      85.6     0.32      1013.0     3        58         5        35        9.19     268      495.7
   07/19/2017 14:20      95.3      94.7       29     57.9      0.00      0.00      85.7     0.32      1013.0     4        51         4        13        9.19     268      503.6
   07/19/2017 14:10      95.3      94.7       29     58.1      0.00      0.00      85.7     0.32      1013.0     4        11         7        73        9.19     269      516.4
   07/19/2017 14:00      95.2      94.7       30     58.3      0.00      0.00      85.6     0.32      1014.0     3         9         4        21        9.19     269      525.0
   07/19/2017 13:50      95.6      94.7       30     58.5      0.00      0.00      85.6     0.32      1014.0     3        45         5        69        9.19     269      528.7
   07/19/2017 13:40      94.9      94.0       31     58.7      0.00      0.00      85.4     0.31      1014.0     3        12         4       333        9.19     269      534.3
   07/19/2017 13:30      94.2      93.6       31     58.9      0.00      0.00      85.5     0.31      1014.0     3        11         5        31        9.19     270      539.7
   07/19/2017 13:20      93.9      93.2       32     59.2      0.00      0.00      85.3     0.31      1014.0     3        42         6         5        9.19     269      543.4
   07/19/2017 13:10      93.9      91.3       33     59.0      0.00      0.00      85.4     0.32      1014.0     2       342         4        31        9.19     270      544.9
   07/19/2017 13:00      92.4      91.5       34     59.1      0.00      0.00      85.3     0.32      1014.0     3        13         4        29        9.19     269      547.5
   07/19/2017 12:50      92.5      91.2       34     59.5      0.00      0.00      85.4     0.32      1014.0     3        37         5        91        9.19     269      549.4
   07/19/2017 12:40      91.3      90.3       35     59.3      0.00      0.00      85.4     0.32      1014.0     3         4         5         6        9.19     270      549.6
   07/19/2017 12:30      91.2      90.4       35     59.2      0.00      0.00      85.2     0.32      1015.0     3        49         6        76        9.20     270      550.0
   07/19/2017 12:20      90.5      89.7       36     59.2      0.00      0.00      85.4     0.32      1015.0     4        20         7       355        9.19     270      546.2
   07/19/2017 12:10      90.3      89.5       35     58.9      0.00      0.00      85.3     0.32      1015.0     4        26         6        36        9.19     270      542.0
   07/19/2017 12:00      89.7      88.8       36     58.7      0.00      0.00      85.3     0.32      1015.0     3        46         7       351        9.19     270      540.5
   07/19/2017 11:50      89.5      88.1       36     58.5      0.00      0.00      85.3     0.32      1015.0     4       100         8       112        9.19     270      536.6
   07/19/2017 11:40      88.8      88.0       36     58.4      0.00      0.00      85.4     0.32      1015.0     3        21         6       349        9.19     271      527.9
   07/19/2017 11:30      88.9      88.1       36     58.2      0.00      0.00      85.5     0.32      1015.0     4        50         7        75        9.19     271      519.9
   07/19/2017 11:20      88.2      86.8       37     58.1      0.00      0.00      85.4     0.32      1015.0     4        17         5        57        9.20     271      511.7
   07/19/2017 11:10      86.8      86.1       38     57.6      0.00      0.00      85.4     0.32      1015.0     3        40         5        86        9.20     271      505.5
   07/19/2017 11:00      86.3      85.3       38     57.6      0.00      0.00      85.3     0.32      1015.0     3        53         5        95        9.20     272      495.3
   07/19/2017 10:50      85.6      84.7       39     57.7      0.00      0.00      85.3     0.32      1015.0     4        64         7        92        9.20     272      483.7
   07/19/2017 10:40      85.2      84.0       42     59.0      0.00      0.00      85.5     0.32      1015.0     3        17         6         6        9.20     272      469.5
   07/19/2017 10:30      84.1      83.2       44     59.2      0.00      0.00      85.5     0.32      1015.0     3        37         6        26        9.19     273      456.9
   07/19/2017 10:20      83.4      83.0       44     58.9      0.00      0.00      85.6     0.32      1015.0     4        24         8       355        9.19     273      442.6
   07/19/2017 10:10      83.1      82.3       44     58.6      0.00      0.00      85.6     0.32      1015.0     4        52         5        83        9.20     273      426.0
   07/19/2017 10:00      82.6      81.6       45     58.4      0.00      0.00      85.4     0.32      1015.0     3        37         5        30        9.19     273      410.6
   07/19/2017 09:50      81.9      81.1       45     58.3      0.00      0.00      85.5     0.32      1015.0     3        38         5       358        8.89     273      394.3
   07/19/2017 09:40      81.4      80.7       45     58.0      0.00      0.00      85.6     0.32      1015.0     3        30         4        35        8.15     274      376.7
   07/19/2017 09:30      81.0      80.0       46     57.9      0.00      0.00      85.8     0.32      1015.0     3        51         5        77        8.15     274      361.0
   07/19/2017 09:20      80.1      78.9       48     58.2      0.00      0.00      85.7     0.32      1015.0     3        39         4       116        8.15     274      345.3
   07/19/2017 09:10      79.0      77.7       50     58.4      0.00      0.00      85.6     0.32      1015.0     3         9         4         1        8.15     274      333.1
   07/19/2017 09:00      77.8      75.4       54     58.6      0.00      0.00      85.8    "NAN"      1015.0     2        31         3        31        8.15     274      333.0
   07/19/2017 08:50      75.4      74.4       57     58.5      0.00      0.00      85.8    "NAN"      1015.0     2       328         3       328        8.15     273      250.8
   07/19/2017 08:40      74.4      73.6       59     58.6      0.00      0.00      85.7     0.33      1015.0     2         5         4       349        2.11     274      -17.2
   07/19/2017 08:30      73.5      73.0       60     58.8      0.00      0.00      85.8     0.32      1015.0     2         8         4         4        2.12     274      -16.4
   07/19/2017 08:20      73.0      72.5       61     58.7      0.00      0.00      86.0     0.33      1015.0     1        40         3        85        2.12     274      -16.8
   07/19/2017 08:10      72.7      71.8       62     58.7      0.00      0.00      86.0     0.33      1015.0     2        31         3         6        8.15     273      -12.9
   07/19/2017 08:00      71.8      70.5       65     58.6      0.00      0.00      85.9     0.33      1015.0     1       276         2       319        8.16     273       14.6
   07/19/2017 07:50      70.5      69.8       66     58.4      0.00      0.00      85.9     0.33      1015.0     1       171         1       259        8.25     273       -8.4
   07/19/2017 07:40      69.8      69.3       67     58.3      0.00      0.00      86.1     0.33      1015.0     1        71         2       160        8.26     273      -21.8
   07/19/2017 07:30      69.3      69.0       68     58.2      0.00      0.00      86.0     0.33      1015.0     1       134         1       141        8.26     273      -24.1
   07/19/2017 07:20      69.3      68.3       68     57.7      0.00      0.00      86.3     0.33      1015.0     1       150         2       156        8.26     273      -24.0
   07/19/2017 07:10      68.4      67.4       69     57.5      0.00      0.00      86.2     0.33      1015.0     2       139         3       128        8.26     273      -28.6
   07/19/2017 07:00      67.5      66.4       73     58.0      0.00      0.00      86.3     0.33      1015.0     2       155         2       139        8.26     273      -34.1
   07/19/2017 06:50      66.4      65.3       76     58.1      0.00      0.00      86.4     0.33      1015.0     1       146         2       186        8.26     273      -36.3
   07/19/2017 06:40      65.4      64.7       78     58.0      0.00      0.00      86.1     0.33      1015.0     0       168         1       244        8.26     273      -40.6
   07/19/2017 06:30      64.7      63.9       79     57.7      0.00      0.00      86.3     0.33      1015.0     1       199         1       257        8.26     273      -44.3
   07/19/2017 06:20      64.1      63.6       78     57.0      0.00      0.00      86.4     0.33      1015.0     1       178         2       210        8.27     273      -46.0
   07/19/2017 06:10      63.9      63.6       79     57.2      0.00      0.00      86.3     0.33      1015.0     1       204         2       212        8.27     273      -50.2
   07/19/2017 06:00      64.0      63.8       78     56.8      0.00      0.00      86.5     0.33      1015.0     1       167         2       145        8.27     273      -54.5
   07/19/2017 05:50      64.3      64.1       76     56.7      0.00      0.00      86.3     0.33      1015.0     1       172         1       140        8.27     273      -55.6
   07/19/2017 05:40      64.7      64.4       75     56.5      0.00      0.00      86.4     0.33      1015.0     1       144         2       186        8.27     273      -57.2
   07/19/2017 05:30      64.5      64.1       75     56.4      0.00      0.00      86.3     0.33      1015.0     2       172         3       195        8.27     272      -56.8
   07/19/2017 05:20      64.7      64.4       76     56.6      0.00      0.00      86.6     0.33      1014.0     2       156         2       166        8.27     272      -56.3
   07/19/2017 05:10      64.7      64.2       75     56.5      0.00      0.00      86.6     0.33      1014.0     2       142         2       139        8.27     273      -57.7
   07/19/2017 05:00      64.7      64.2       74     56.2      0.00      0.00      86.6     0.33      1014.0     2       140         3       138        8.27     272      -57.8
   07/19/2017 04:50      64.5      64.2       74     55.9      0.00      0.00      86.7     0.33      1014.0     1       178         2       131        8.27     272      -56.9
   07/19/2017 04:40      65.1      64.5       72     55.5      0.00      0.00      86.8     0.33      1014.0     2       161         2       142        8.27     272      -58.2
   07/19/2017 04:30      65.6      65.1       72     56.2      0.00      0.00      87.0     0.33      1014.0     2       166         2       124        8.27     272      -58.1
   07/19/2017 04:20      66.2      65.8       71     56.4      0.00      0.00      86.9     0.33      1014.0     1       155         1       136        8.27     272      -58.0
   07/19/2017 04:10      66.5      66.1       69     56.0      0.00      0.00      86.8     0.33      1014.0     1        93         1        92        8.27     272      -59.1
   07/19/2017 04:00      66.7      66.5       68     55.9      0.00      0.00      87.0     0.33      1014.0     1        67         2        91        8.27     272      -60.9
   07/19/2017 03:50      66.6      66.0       68     55.3      0.00      0.00      87.0     0.33      1014.0     2        86         2        86        8.28     272      -60.9
   07/19/2017 03:40      65.9      65.3       67     54.5      0.00      0.00      86.9     0.33      1014.0     1       109         2        86        8.28     272      -59.6
   07/19/2017 03:30      65.8      65.3       67     54.4      0.00      0.00      87.2     0.33      1014.0     1        93         2       101        8.28     272      -59.2
   07/19/2017 03:20      65.5      65.3       67     54.1      0.00      0.00      87.2     0.33      1014.0     1       128         1       117        8.28     271      -57.6
   07/19/2017 03:10      65.5      65.2       66     53.9      0.00      0.00      87.1     0.33      1014.0     1       110         1       113        8.28     271      -59.0
   07/19/2017 03:00      66.3      65.6       65     53.7      0.00      0.00      87.1     0.33      1014.0     1       123         2       129        8.28     271      -59.7
   07/19/2017 02:50      67.0      66.3       64     54.2      0.00      0.00      87.1     0.33      1014.0     1       105         1       127        8.28     271      -60.3
   07/19/2017 02:40      67.3      67.1       63     54.4      0.00      0.00      87.2     0.33      1014.0     1        85         1       138        8.28     271      -61.3
   07/19/2017 02:30      67.4      66.4       64     54.2      0.00      0.00      87.3     0.33      1014.0     2       130         2       124        8.28     271      -62.2
   07/19/2017 02:20      66.4      66.2       62     53.0      0.00      0.00      87.3     0.33      1014.0     1       106         2        99        8.28     271      -60.9
   07/19/2017 02:10      66.7      66.4       61     53.0      0.00      0.00      87.2     0.33      1014.0     1       111         1        90        8.28     271      -61.3
   07/19/2017 02:00      67.0      66.6       60     52.5      0.00      0.00      87.3     0.33      1014.0     2       154         2       143        8.28     271      -61.5
   07/19/2017 01:50      67.2      66.9       60     52.5      0.00      0.00      87.3     0.33      1014.0     1       162         1       164        8.28     271      -61.4
   07/19/2017 01:40      67.3      67.0       59     52.3      0.00      0.00      87.5     0.33      1014.0     1       145         1       139        8.28     271      -62.7
   07/19/2017 01:30      67.6      67.4       58     52.3      0.00      0.00      87.2     0.33      1014.0     1       147         1       130        8.28     271      -62.9
   07/19/2017 01:20      67.7      67.5       58     52.3      0.00      0.00      87.6     0.33      1014.0     0       167         1       189        8.28     271      -63.6
   07/19/2017 01:10      68.1      67.8       57     52.2      0.00      0.00      87.5     0.33      1014.0     0       117         1       109        8.28     271      -64.5
   07/19/2017 01:00      68.4      68.1       57     52.2      0.00      0.00      87.5     0.33      1014.0     1       165         2       145        8.29     271      -63.9
   07/19/2017 00:50      68.8      68.4       55     51.8      0.00      0.00      87.6     0.33      1014.0     1       132         1       142        8.29     271      -64.7
   07/19/2017 00:40      69.2      68.6       54     51.7      0.00      0.00      87.4     0.33      1014.0     1       154         1       189        8.29     271      -64.4
   07/19/2017 00:30      69.1      68.6       54     51.5      0.00      0.00      87.5     0.33      1014.0     1       138         1       129        8.29     270      -65.7
   07/19/2017 00:20      69.6      69.2       52     51.2      0.00      0.00      87.4     0.33      1014.0     1       103         1        73        8.29     270      -66.1
   07/19/2017 00:10      69.6      69.3       52     51.2      0.00      0.00      87.5     0.33      1014.0     0       113         1        68        8.29     270      -66.5
   07/19/2017 00:00      69.9      69.3       52     51.1      0.00      0.00      87.7     0.33      1014.0     1        91         1       101        8.29     270      -67.4
   07/18/2017 23:50      70.3      69.9       51     51.0      0.00      0.00      87.6     0.33      1014.0     1        90         2       121        8.29     270      -67.9
   07/18/2017 23:40      70.8      70.5       49     50.8      0.00      0.00      87.6     0.33      1014.0     1       131         2        99        8.29     270      -68.3
   07/18/2017 23:30      71.3      70.8       49     50.9      0.00      0.00      87.7     0.33      1014.0     1       118         1       131        8.29     270      -69.1
   07/18/2017 23:20      71.7      71.3       48     50.9      0.00      0.00      87.7     0.33      1014.0     1       119         1       161        8.29     270      -70.0
   07/18/2017 23:10      72.2      71.8       48     51.4      0.00      0.00      87.8     0.33      1014.0     1        63         1        69        8.29     270      -71.4
   07/18/2017 23:00      72.8      72.3       48     51.6      0.00      0.00      87.7     0.33      1014.0     1        71         2        99        8.29     270      -71.8
   07/18/2017 22:50      73.0      72.7       48     52.1      0.00      0.00      87.8     0.33      1014.0     1        40         2        28        8.29     270      -72.6
   07/18/2017 22:40      73.3      73.0       49     53.0      0.00      0.00      87.7     0.33      1014.0     1        48         2        64        8.29     270      -73.0
   07/18/2017 22:30      73.7      73.3       49     53.3      0.00      0.00      87.6     0.33      1014.0     1        60         2        86        8.30     270      -72.5
   07/18/2017 22:20      73.9      73.6       50     53.9      0.00      0.00      87.7     0.33      1014.0     2        50         3        66        8.29     270      -72.0
   07/18/2017 22:10      73.8      73.7       50     54.0      0.00      0.00      87.7     0.33      1014.0     1        54         2        64        8.30     270      -71.6
   07/18/2017 22:00      74.1      73.8       49     53.4      0.00      0.00      87.6     0.33      1014.0     1        68         2        68        8.30     270      -72.1
   07/18/2017 21:50      74.3      74.2       48     53.5      0.00      0.00      87.6     0.33      1014.0     1        89         2        53        8.30     270      -72.6
   07/18/2017 21:40      74.8      74.3       48     53.5      0.00      0.00      87.6     0.33      1014.0     1        76         3        79        8.30     270      -72.8
   07/18/2017 21:30      75.2      74.8       47     53.4      0.00      0.00      87.6     0.33      1014.0     1        73         2        59        8.30     270      -74.3
   07/18/2017 21:20      75.8      75.2       46     53.3      0.00      0.00      87.6     0.33      1013.0     1        72         1        75        8.30     270      -75.5
   07/18/2017 21:10      76.5      76.1       45     53.5      0.00      0.00      87.6     0.33      1013.0     1        55         3         0        8.31     270      -77.0
   07/18/2017 21:00      76.9      76.6       45     53.9      0.00      0.00      87.7     0.33      1013.0     1        26         2        44        8.31     269      -77.8
   07/18/2017 20:50      77.5      77.0       44     53.6      0.00      0.00      87.6     0.33      1013.0     1        52         2        21        8.32     269      -79.0
   07/18/2017 20:40      78.2      77.5       43     53.6      0.00      0.00      87.6     0.33      1013.0     2        32         3        27        8.32     269      -80.0
   07/18/2017 20:30      79.0      78.0       42     53.4      0.00      0.00      87.6     0.33      1013.0     3        42         6        71        8.32     269      -80.7
   07/18/2017 20:20      79.4      79.1       40     52.8      0.00      0.00      87.5     0.33      1013.0     2        50         4        75        8.33     269      -81.2
   07/18/2017 20:10      80.4      79.6       39     52.9      0.00      0.00      87.6     0.33      1013.0     3        61         5        77        8.39     269      -79.3
   07/18/2017 20:00      82.1      80.6       38     53.1      0.00      0.00      87.5     0.33      1013.0     3        66         4        60        8.40     269      -76.2
   07/18/2017 19:50      83.1      82.3       36     53.0      0.00      0.00      87.4     0.33      1012.0     2        35         3        35        8.40     269      -71.3
   07/18/2017 19:40      84.6      83.3       35     53.4      0.00      0.00      87.5     0.33      1012.0     2        39         4        35        8.41     268      -60.4
   07/18/2017 19:30      85.0      84.7       35     54.2      0.00      0.00      87.4     0.33      1012.0     3        26         4         0        8.41     268      -48.4
   07/18/2017 19:20      87.0      85.5       35     54.9      0.00      0.00      87.4     0.33      1012.0     3        29         4        23        8.41     269      -33.0
   07/18/2017 19:10      87.5      87.0       34     55.1      0.00      0.00      87.4     0.33      1012.0     3        83         5       148        8.41     269      -13.8
   07/18/2017 19:00      87.7      87.4       35     56.2      0.00      0.00      87.3     0.33      1012.0     3       161         5       151        8.41     269        7.7
   07/18/2017 18:50      88.1      87.6       34     56.3      0.00      0.00      87.3     0.33      1012.0     4       175         7       161        8.42     269       29.7
   07/18/2017 18:40      88.2      87.6       35     56.4      0.00      0.00      87.3     0.33      1012.0     4       197         6       204        8.42     269       53.3
   07/18/2017 18:30      88.2      87.6       34     56.3      0.00      0.00      87.2     0.33      1012.0     4       194         6       205        8.42     268       76.2
   07/18/2017 18:20      88.5      87.9       34     55.9      0.00      0.00      87.2     0.33      1012.0     5       198         8       213        8.42     269       99.5
   07/18/2017 18:10      89.9      88.6       33     56.3      0.00      0.00      87.1     0.33      1012.0     5       195         8       228        8.43     269      121.7
   07/18/2017 18:00      90.5      89.4       33     57.2      0.00      0.00      87.0     0.33      1012.0     4       175         6       160        8.43     269      145.8
   07/18/2017 17:50      91.9      91.0       33     58.5      0.00      0.00      87.2     0.33      1012.0     3       182         7       196        8.43     269      168.5
   07/18/2017 17:40      92.2      91.8       33     59.0      0.00      0.00      86.9     0.32      1012.0     5       270         6       292        8.43     269      182.7
   07/18/2017 17:30      92.9      92.2       33     58.9      0.00      0.00      87.0     0.32      1012.0     3       278         6       205        8.43     269      183.8
   07/18/2017 17:20      92.9      92.4       33     58.9      0.00      0.00      86.7     0.32      1012.0     4       284         7       266        8.43     269      218.1
   07/18/2017 17:10      92.7      91.9       33     59.4      0.00      0.00      86.9     0.32      1011.0     5       311         8       316        8.43     269      270.2
   07/18/2017 17:00      92.8      92.0       34     59.6      0.00      0.00      86.8     0.32      1011.0     5       297         9       276        8.57     269      295.7
   07/18/2017 16:50      93.0      92.4       34     60.4      0.00      0.00      86.8     0.32      1011.0     6       278         9       289        8.58     269      316.1
   07/18/2017 16:40      93.8      92.9       34     60.5      0.00      0.00      86.7     0.32      1011.0     7       246         9       219        8.58     269      334.5
   07/18/2017 16:30      93.1      92.1       32     58.6      0.00      0.00      86.6     0.32      1011.0     4       201         7       137        8.58     270      348.6
   07/18/2017 16:20      93.9      92.8       31     58.6      0.00      0.00      86.5     0.32      1011.0     3       238         7       194        8.58     270      361.2
   07/18/2017 16:10      92.8      92.2       32     58.4      0.00      0.00      86.5     0.32      1011.0     5       171         7       129        8.59     270      379.7
   07/18/2017 16:00      93.0      92.7       31     57.6      0.00      0.00      86.4     0.32      1012.0     5       183         8       158        8.59     270      395.4
   07/18/2017 15:50      93.0      91.9       30     56.7      0.00      0.00      86.3     0.32      1012.0     6       194         9       158        8.59     270      411.4
   07/18/2017 15:40      93.0      92.5       29     55.7      0.00      0.00      86.4     0.32      1012.0     5       146         8       149        8.60     270      422.3
   07/18/2017 15:30      92.5      92.0       29     55.1      0.00      0.00      86.3     0.32      1012.0     4       182         6       137        8.60     270      434.7
   07/18/2017 15:20      93.8      92.3       27     54.3      0.00      0.00      86.3     0.32      1012.0     5       174         9       190        8.60     271      449.1
   07/18/2017 15:10      94.4      93.8       26     53.6      0.00      0.00      86.1     0.32      1012.0     4       195         7       166        8.60     271      460.5
   07/18/2017 15:00      93.7      92.8       25     52.4      0.00      0.00      86.1     0.32      1012.0     4       139         7       151        8.62     271      474.0
   07/18/2017 14:50      95.0      93.7       25     52.4      0.00      0.00      86.1     0.32      1012.0     3       114         5       120        8.64     271      484.0
   07/18/2017 14:40      95.2      94.8       24     52.8      0.00      0.00      86.1     0.32      1012.0     5        56         8        76        8.64     272      490.5
   07/18/2017 14:30      94.8      94.4       24     52.7      0.00      0.00      86.0     0.32      1012.0     3        66         6        28        8.65     273      498.0
   07/18/2017 14:20      94.1      93.4       25     52.2      0.00      0.00      85.8     0.32      1012.0     4        90         5       142        8.65     273      510.5
   07/18/2017 14:10      94.7      93.6       24     52.2      0.00      0.00      85.9     0.32      1013.0     4        93         7        64        8.65     273      516.8
   07/18/2017 14:00      94.9      94.4       24     52.4      0.00      0.00      85.8     0.32      1013.0     4        61         6        86        8.66     274      522.2
   07/18/2017 13:50      94.6      94.1       23     51.3      0.00      0.00      85.8     0.32      1013.0     3         7         5       354        8.66     275      526.9
   07/18/2017 13:40      95.0      94.0       23     50.8      0.00      0.00      85.6     0.32      1013.0     4       356         6       144        8.66     277      536.5
   07/18/2017 13:30      94.7      93.5       23     50.4      0.00      0.00      85.8     0.32      1013.0     3       124         5       138        8.66     279      540.6
   07/18/2017 13:20      93.1      92.2       24     50.5      0.00      0.00      85.6     0.32      1013.0     2        53         5        82        8.66     280      545.1
   07/18/2017 13:10      92.4      91.3       25     50.5      0.00      0.00      85.7     0.32      1013.0     3       332         5         3        8.66     280      548.7
   07/18/2017 13:00      91.4      90.3       25     50.2      0.00      0.00      85.7     0.32      1013.0     2        42         3        30        8.66     281      553.0
   07/18/2017 12:50      91.4      90.7       25     50.2      0.00      0.00      85.6     0.32      1013.0     3        62         6        74        8.66     282      553.1
   07/18/2017 12:40      91.1      90.8       25     50.0      0.00      0.00      85.4     0.32      1013.0     3        39         6        80        8.66     283      550.1
   07/18/2017 12:30      90.9      90.3       25     50.2      0.00      0.00      85.4     0.32      1013.0     3        14         4         5        8.67     285      549.4
   07/18/2017 12:20      90.3      89.7       26     50.2      0.00      0.00      85.7     0.32      1014.0     3         6         6       355        8.66     286      547.9
   07/18/2017 12:10      89.9      88.3       26     49.4      0.00      0.00      85.5     0.32      1014.0     2         5         3        45        8.67     289      547.9
   07/18/2017 12:00      88.6      87.9       26     49.5      0.00      0.00      85.7     0.32      1014.0     5        47         8        59        8.67     292      545.1
   07/18/2017 11:50      88.4      87.6       28     51.0      0.00      0.00      85.5     0.32      1014.0     3        77         6       120        8.67     295      538.9
   07/18/2017 11:40      87.9      87.2       29     51.1      0.00      0.00      85.6     0.32      1014.0     3        18         6        18        8.67     298      532.2
   07/18/2017 11:30      87.2      85.9       29     50.3      0.00      0.00      85.7     0.32      1014.0     3        90         6       106        8.67     301      527.7
   07/18/2017 11:20      86.7      85.5       30     50.8      0.00      0.00      85.6     0.32      1014.0     4        38         6        62        8.67     307      518.7
   07/18/2017 11:10      86.1      85.0       30     50.2      0.00      0.00      85.5     0.32      1014.0     4        30         6        81        8.67     311      510.5
   07/18/2017 11:00      85.0      84.6       30     49.7      0.00      0.00      85.7     0.32      1014.0     4        34         5         3        8.67     318      500.5
   07/18/2017 10:50      85.1      84.1       30     49.9      0.00      0.00      85.5     0.32      1014.0     4        24         6       332        8.67     327      488.8
   07/18/2017 10:40      85.0      83.5       31     50.6      0.00      0.00      85.8     0.32      1014.0     3        41         5       351        8.67     334      477.1
   07/18/2017 10:30      83.6      82.3       33     50.8      0.00      0.00      85.8     0.32      1014.0     4        57         7        72        8.67     346      465.3
   07/18/2017 10:20      82.6      81.7       34     51.0      0.00      0.00      85.6     0.32      1014.0     4        16         6        18        8.67     356      452.0
   07/18/2017 10:10      82.6      81.7       34     50.8      0.00      0.00      85.9     0.32      1014.0     3        43         5        35        8.67     374      438.1
   07/18/2017 10:00      82.8      81.0       34     50.8      0.00      0.00      86.1     0.32      1014.0     3        55         6        67        8.67     395      423.3
   07/18/2017 09:50      81.1      80.0       35     50.0      0.00      0.00      85.5     0.32      1014.0     4        62         5       105        8.67     420      407.9
   07/18/2017 09:40      80.0      79.2       48     58.2      0.00      0.00      85.9     0.32      1014.0     3        23         5        20        8.68     441      387.5
   07/18/2017 09:30      79.2      78.0       50     58.1      0.00      0.00      86.2     0.32      1014.0     2        24         4        17        8.67     456      370.7
   07/18/2017 09:20      78.0      76.9       51     57.9      0.00      0.00      85.8     0.32      1014.0     3        17         4       350        8.67     472      356.2
   07/18/2017 09:10      77.4      75.6       54     58.6      0.00      0.00      85.9     0.33      1014.0     2        18         4       344        8.68     486      344.0
   07/18/2017 09:00      75.6      74.2       58     59.1      0.00      0.00      85.9     0.33      1014.0     3        24         4         0        8.68     494      342.5
   07/18/2017 08:50      74.2      73.3       62     59.9      0.00      0.00      85.9     0.33      1014.0     2        27         4         1        8.68     498      248.6
   07/18/2017 08:40      73.4      72.7       66     61.0      0.00      0.00      86.4     0.33      1014.0     2       353         4       346        8.68     506      -13.4
   07/18/2017 08:30      73.0      72.2       68     61.5      0.00      0.00      86.1     0.33      1014.0     3        43         4        70        8.68     495      -13.8
   07/18/2017 08:20      72.2      71.3       70     61.3      0.00      0.00      86.5     0.33      1014.0     2        24         3       348        8.68     500      -16.2
   07/18/2017 08:10      71.5      70.5       71     61.3      0.00      0.00      86.6     0.33      1014.0     3       352         4       359        8.68     509      -11.0
   07/18/2017 08:00      70.7      70.2       73     61.2      0.00      0.00      86.3     0.33      1014.0     3        27         4        27        8.68     522        7.1
   07/18/2017 07:50      70.2      69.6       74     61.3      0.00      0.00      86.3    "NAN"      1014.0     2         7         3         2        8.68     549       -5.4
   07/18/2017 07:40      69.8      69.3       74     60.9      0.00      0.00      86.7    "NAN"      1014.0     2        39         3        74        8.68     580      -20.0
   07/18/2017 07:30      69.3      68.9       74     60.6      0.00      0.00      86.6     0.33      1014.0     1        67         2        73        8.80     661      -25.5
   07/18/2017 07:20      69.0      68.1       75     60.4      0.00      0.00      86.6     0.33      1014.0     1        99         1       103        8.80     270      -22.8
   07/18/2017 07:10      68.0      67.1       76     59.8      0.00      0.00      86.4     0.33      1014.0     1        69         1       131        8.80     270      -25.1
   07/18/2017 07:00      67.2      66.1       77     59.0      0.00      0.00      86.4     0.33      1014.0     1       144         1       132        8.80     270      -32.3
   07/18/2017 06:50      66.2      64.9       78     58.4      0.00      0.00      86.6     0.33      1014.0     2       145         2       149        8.80     270      -36.0
   07/18/2017 06:40      65.0      63.8       80     58.0      0.00      0.00      86.8     0.33      1014.0     1       171         2       175        8.80     270      -39.7
   07/18/2017 06:30      64.0      63.5       82     58.0      0.00      0.00      86.4     0.33      1013.0     2       153         2       160        8.81     270      -44.7
   07/18/2017 06:20      63.8      63.5       84     58.6      0.00      0.00      86.8     0.33      1013.0     1       152         2       153        8.80     270      -46.6
   07/18/2017 06:10      63.9      63.3       84     58.8      0.00      0.00      86.7     0.33      1013.0     1       159         2       172        8.81     270      -49.6
   07/18/2017 06:00      63.8      63.5       84     58.8      0.00      0.00      86.6     0.33      1013.0     1       153         2       140        8.81     269      -52.3
   07/18/2017 05:50      63.7      63.5       84     58.5      0.00      0.00      86.9     0.33      1013.0     1       154         2       145        8.81     269      -54.6
   07/18/2017 05:40      63.8      63.5       83     58.6      0.00      0.00      86.9     0.33      1013.0     2       192         2       199        8.81     269      -54.9
   07/18/2017 05:30      64.0      63.6       83     58.5      0.00      0.00      86.9     0.33      1013.0     1       163         2       162        8.81     269      -55.6
   07/18/2017 05:20      64.1      63.9       82     58.4      0.00      0.00      86.8     0.33      1013.0     1       165         2       139        8.81     269      -55.9
   07/18/2017 05:10      64.2      64.1       82     58.5      0.00      0.00      86.9     0.33      1013.0     1       177         2       144        8.81     269      -55.6
   07/18/2017 05:00      64.3      64.0       80     58.0      0.00      0.00      87.0     0.33      1013.0     1       171         2       157        8.81     269      -56.1
   07/18/2017 04:50      64.7      64.2       79     57.7      0.00      0.00      87.1     0.33      1013.0     1       139         1       184        8.81     269      -57.1
   07/18/2017 04:40      64.8      64.5       79     58.2      0.00      0.00      87.2     0.33      1013.0     1       187         1       184        8.81     269      -56.4
   07/18/2017 04:30      64.8      64.7       78     57.7      0.00      0.00      87.0     0.33      1013.0     1       155         1       161        8.81     269      -57.3
   07/18/2017 04:20      65.1      64.7       77     57.6      0.00      0.00      87.1     0.33      1013.0     2       142         2       136        8.82     269      -57.7
   07/18/2017 04:10      65.2      64.8       77     57.6      0.00      0.00      87.1     0.33      1013.0     1       193         1       196        8.82     269      -57.7
   07/18/2017 04:00      65.6      65.0       75     57.3      0.00      0.00      87.1     0.33      1013.0     1       144         2       155        8.82     269      -58.3
   07/18/2017 03:50      65.8      65.6       74     57.3      0.00      0.00      87.3     0.33      1013.0     1       143         1       156        8.82     269      -58.0
   07/18/2017 03:40      65.8      65.6       73     57.0      0.00      0.00      87.3     0.33      1013.0     1       151         1       138        8.82     269      -58.0
   07/18/2017 03:30      65.8      65.6       72     56.5      0.00      0.00      87.4     0.33      1013.0     1       139         2       126        8.82     269      -58.6
   07/18/2017 03:20      65.8      65.6       71     56.1      0.00      0.00      87.2     0.33      1013.0     2       130         2       115        8.82     269      -59.0
   07/18/2017 03:10      65.9      65.7       72     56.6      0.00      0.00      87.5     0.33      1013.0     2       127         2       124        8.82     269      -59.2
   07/18/2017 03:00      66.0      65.7       74     57.2      0.00      0.00      87.1     0.33      1013.0     2       137         2       141        8.83     269      -59.0
   07/18/2017 02:50      65.9      65.7       75     57.8      0.00      0.00      87.1     0.33      1013.0     1       127         2       148        8.83     269      -59.3
   07/18/2017 02:40      66.2      65.8       75     57.9      0.00      0.00      87.3     0.33      1013.0     2       138         2       145        8.83     269      -60.1
   07/18/2017 02:30      67.0      66.3       75     58.3      0.00      0.00      87.5     0.33      1013.0     1       150         2       154        8.83     269      -60.4
   07/18/2017 02:20      67.2      67.0       75     58.8      0.00      0.00      87.6     0.33      1013.0     1       165         1       182        8.84     269      -59.9
   07/18/2017 02:10      67.2      67.0       74     58.7      0.00      0.00      87.5     0.33      1013.0     0        98         1        86        8.84     269      -59.7
   07/18/2017 02:00      67.6      67.0       74     58.7      0.00      0.00      87.5     0.33      1013.0     1       136         1       128        8.85     268      -60.5
   07/18/2017 01:50      67.8      67.4       73     58.7      0.00      0.00      87.6     0.33      1013.0     1        92         1       104        8.85     268      -60.9
   07/18/2017 01:40      68.2      67.6       72     58.5      0.00      0.00      87.7     0.33      1013.0     1       108         1       142        8.86     268      -61.2
   07/18/2017 01:30      68.7      68.3       71     58.6      0.00      0.00      87.6     0.33      1013.0     1        88         2        92        8.86     268      -62.0
   07/18/2017 01:20      68.8      68.6       70     58.6      0.00      0.00      87.8     0.33      1013.0     2        88         2        80        8.87     269      -63.9
   07/18/2017 01:10      69.1      68.9       70     58.8      0.00      0.00      87.8     0.33      1013.0     1        74         2        78        8.87     268      -64.5
   07/18/2017 01:00      69.3      69.1       71     59.3      0.00      0.00      87.8     0.33      1013.0     2        82         3        72        8.87     268      -64.9
   07/18/2017 00:50      69.5      69.2       71     59.6      0.00      0.00      87.9     0.33      1013.0     2        83         3        78        8.88     268      -66.2
   07/18/2017 00:40      69.7      69.4       70     59.5      0.00      0.00      87.9     0.33      1013.0     1        81         2        70        8.88     268      -66.8
   07/18/2017 00:30      70.2      69.8       69     59.4      0.00      0.00      87.7     0.33      1013.0     1        79         2        62        8.88     268      -67.7
   07/18/2017 00:20      70.4      70.2       68     59.2      0.00      0.00      87.7     0.33      1013.0     1        63         3        58        8.89     268      -69.0
   07/18/2017 00:10      70.8      70.4       66     58.9      0.00      0.00      87.8     0.33      1014.0     2        60         2        75        8.89     268      -69.4
   07/18/2017 00:00      71.2      70.8       65     58.6      0.00      0.00      87.7     0.33      1014.0     2        67         3        84        8.91     268      -69.8
   07/17/2017 23:50      71.3      71.1       64     58.6      0.00      0.00      88.0     0.33      1014.0     2        67         4        75        8.92     268      -70.0
   07/17/2017 23:40      71.7      71.4       65     59.2      0.00      0.00      87.6     0.33      1014.0     1        58         3        62        8.93     268      -69.8
   07/17/2017 23:30      72.0      71.6       65     59.6      0.00      0.00      87.7     0.33      1014.0     2        54         2        61        8.93     268      -69.8
   07/17/2017 23:20      72.2      72.0       65     59.8      0.00      0.00      87.9     0.33      1014.0     2        67         3        91        8.93     268      -69.7
   07/17/2017 23:10      72.5      72.3       65     60.0      0.00      0.00      87.9     0.33      1014.0     1        45         3        79        8.93     268      -69.5
   07/17/2017 23:00      72.8      72.6       64     60.0      0.00      0.00      87.9     0.33      1013.0     2        45         2       336        8.94     268      -69.5
   07/17/2017 22:50      73.1      72.8       63     59.8      0.00      0.00      87.7     0.33      1013.0     1        49         3        44        8.95     268      -69.3
   07/17/2017 22:40      73.4      73.0       62     59.5      0.00      0.00      87.9     0.33      1013.0     2        68         4        77        8.95     268      -69.7
   07/17/2017 22:30      73.9      73.4       60     59.0      0.00      0.00      88.1     0.33      1013.0     2        56         3        63        8.95     268      -71.3
   07/17/2017 22:20      74.0      73.8       57     57.5      0.00      0.00      87.8     0.33      1013.0     2        59         3        31        8.95     267      -71.4
   07/17/2017 22:10      74.3      73.8       49     53.5      0.00      0.00      87.9     0.33      1013.0     1        53         2        25        8.95     267      -71.3
   07/17/2017 22:00      75.1      74.2       44     51.2      0.00      0.00      87.8     0.33      1013.0     1        72         2        60        8.95     267      -70.6
   07/17/2017 21:50      75.8      75.2       41     50.5      0.00      0.00      87.9     0.33      1013.0     1        88         1        56        8.96     267      -72.5
   07/17/2017 21:40      76.2      76.0       41     50.8      0.00      0.00      88.0     0.33      1012.0     2       124         3       107        8.96     267      -74.7
   07/17/2017 21:30      76.3      76.0       46     53.7      0.00      0.00      87.9     0.33      1012.0     2       124         3       123        8.96     267      -74.6
   07/17/2017 21:20      76.7      76.3       49     55.9      0.00      0.00      87.9     0.33      1012.0     2       122         3       162        8.97     267      -74.2
   07/17/2017 21:10      76.9      76.6       50     56.7      0.00      0.00      87.9     0.33      1012.0     3       146         4       139        8.97     268      -74.3
   07/17/2017 21:00      76.9      76.7       54     58.9      0.00      0.00      87.8     0.33      1012.0     2       160         4       112        8.97     267      -73.8
   07/17/2017 20:50      77.6      77.0       53     59.1      0.00      0.00      87.9     0.33      1011.0     3       173         3       157        8.97     268      -73.4
   07/17/2017 20:40      78.1      77.9       52     58.8      0.00      0.00      87.7     0.33      1011.0     3       142         4       160        8.98     267      -74.5
   07/17/2017 20:30      78.5      78.2       51     58.9      0.00      0.00      87.7     0.33      1011.0     3       136         4       127        8.98     267      -75.2
   07/17/2017 20:20      79.2      78.6       51     59.2      0.00      0.00      87.7     0.33      1011.0     2       145         4       135        8.98     267      -75.6
   07/17/2017 20:10      79.6      79.0       51     59.7      0.00      0.00      87.8     0.33      1011.0     2       139         4       123        8.98     267      -74.3
   07/17/2017 20:00      80.2      79.6       50     59.6      0.00      0.00      87.7     0.33      1011.0     4       166         5       161        8.98     267      -71.3
   07/17/2017 19:50      80.8      80.3       49     59.6      0.00      0.00      87.8     0.33      1011.0     3       159         4       190        8.98     267      -66.8
   07/17/2017 19:40      81.6      80.8       47     59.2      0.00      0.00      87.6     0.33      1010.0     4       156         6       151        8.98     267      -57.3
   07/17/2017 19:30      82.2      81.7       46     58.9      0.00      0.00      87.7     0.33      1010.0     4       153         6       165        8.98     267      -47.1
   07/17/2017 19:20      82.6      82.2       45     58.9      0.00      0.00      87.6     0.33      1010.0     3       154         5       164        8.98     267      -33.5
   07/17/2017 19:10      83.2      82.7       44     59.0      0.00      0.00      87.5     0.33      1010.0     5       170         6       176        8.98     267      -17.9
   07/17/2017 19:00      83.4      82.9       44     59.1      0.00      0.00      87.5     0.33      1010.0     4       169         6       176        8.99     267        1.6
   07/17/2017 18:50      84.5      83.4       43     58.9      0.00      0.00      87.5     0.33      1010.0     5       170         7       183        9.00     266       20.7
   07/17/2017 18:40      84.9      84.6       42     58.9      0.00      0.00      87.4     0.33      1010.0     4       180         5       166        9.01     267       41.7
   07/17/2017 18:30      85.8      84.9       41     58.9      0.00      0.00      87.4     0.33      1010.0     4       178         6       187        9.01     267       63.6
   07/17/2017 18:20      85.7      84.9       41     58.7      0.00      0.00      87.4     0.33      1010.0     5       175         7       167        9.02     267       87.1
   07/17/2017 18:10      86.8      85.3       40     58.8      0.00      0.00      87.4     0.33      1010.0     6       172         8       169        9.02     267      109.0
   07/17/2017 18:00      87.5      86.7       39     59.5      0.00      0.00      87.3     0.33      1010.0     4       196         6       212        9.02     267      128.8
   07/17/2017 17:50      88.1      87.7       39     59.5      0.00      0.00      87.2     0.33      1010.0     4       172         5       160        9.03     267      151.1
   07/17/2017 17:40      88.7      88.1       37     58.9      0.00      0.00      87.1     0.33      1010.0     4       167         6       175        9.03     267      170.6
   07/17/2017 17:30      88.9      88.2       36     58.2      0.00      0.00      87.1     0.33      1010.0     4       189         6       166        9.03     267      192.7
   07/17/2017 17:20      89.0      88.1       37     58.7      0.00      0.00      87.1     0.33      1010.0     4       171         6       188        9.04     267      215.0
   07/17/2017 17:10      88.6      87.6       37     58.6      0.00      0.00      86.9     0.33      1010.0     4       186         8       156        9.04     267      237.2
   07/17/2017 17:00      88.6      87.6       37     58.7      0.00      0.00      87.1     0.33      1010.0     6       170         8       172        9.04     267      262.1
   07/17/2017 16:50      89.0      88.4       36     58.7      0.00      0.00      86.8     0.33      1010.0     6       152         7       146        9.05     267      283.7
   07/17/2017 16:40      89.8      88.9       36     59.2      0.00      0.00      86.9     0.33      1010.0     7       147        10       135        9.06     267      304.9
   07/17/2017 16:30      89.8      89.3       36     59.4      0.00      0.00      86.9     0.33      1010.0     6       164        10       168        9.08     267      326.0
   07/17/2017 16:20      90.5      89.3       35     59.0      0.00      0.00      86.8     0.33      1010.0     7       165        11       163        9.09     267      343.0
   07/17/2017 16:10      91.1      90.0       35     58.8      0.00      0.00      86.8     0.33      1010.0     7       174        10       184        9.09     267      355.2
   07/17/2017 16:00      90.7      89.8       34     58.5      0.00      0.00      86.6     0.33      1010.0     6       170         7       182        9.09     267      370.6
   07/17/2017 15:50      91.6      90.9       33     58.1      0.00      0.00      86.7     0.33      1010.0     6       160         8       132        9.10     267      389.9
   07/17/2017 15:40      91.8      91.1       33     57.9      0.00      0.00      86.5     0.32      1010.0     6       199         8       211        9.10     267      403.8
   07/17/2017 15:30      92.5      91.6       32     58.4      0.00      0.00      86.5     0.32      1010.0     6       180         8       190        9.10     267      420.5
   07/17/2017 15:20      94.1      92.6       31     58.0      0.00      0.00      86.4     0.32      1010.0     4       141         7       262        9.10     267      429.7
   07/17/2017 15:10      94.6      93.5       29     56.8      0.00      0.00      86.5     0.32      1010.0     3        60         5       143        9.10     267      441.1
   07/17/2017 15:00      93.7      92.4       29     56.5      0.00      0.00      86.3     0.32      1010.0     4        44         6        75        9.10     267      457.2
   07/17/2017 14:50      91.9      90.7       32     57.1      0.00      0.00      86.3     0.32      1011.0     4        86         8        68        9.10     267      472.6
   07/17/2017 14:40      91.9      90.3       33     58.0      0.00      0.00      86.2     0.32      1011.0     4       125         8       128        9.10     267      484.7
   07/17/2017 14:30      91.3      90.7       33     58.0      0.00      0.00      86.2     0.32      1011.0     3        92         4        67        9.10     267      488.4
   07/17/2017 14:20      91.0      90.0       34     58.0      0.00      0.00      86.0     0.32      1011.0     5       115         7       152        9.10     267      504.5
   07/17/2017 14:10      91.3      90.1       34     58.4      0.00      0.00      86.0     0.32      1011.0     5       115         9       142        9.10     267      514.8
   07/17/2017 14:00      91.0      90.6       34     58.9      0.00      0.00      85.9     0.32      1011.0     4        97         6        80        9.10     267      525.3
   07/17/2017 13:50      91.3      90.1       35     59.5      0.00      0.00      86.0     0.32      1011.0     4       112         7        78        9.10     267      531.9
   07/17/2017 13:40      92.5      91.2       33     58.9      0.00      0.00      85.8     0.32      1011.0     5       111         8       135        9.10     268      530.8
   07/17/2017 13:30      92.9      91.2       33     58.7      0.00      0.00      85.8     0.32      1011.0     4       127         6       154        9.10     268      533.9
   07/17/2017 13:20      91.1      89.7       35     59.1      0.00      0.00      86.0     0.32      1011.0     4       152         8       176        9.10     268      538.2
   07/17/2017 13:10      90.2      89.8       36     59.5      0.00      0.00      85.7     0.32      1011.0     7       157        10       160        9.10     267      546.0
   07/17/2017 13:00      92.1      90.3       35     59.3      0.00      0.00      85.7     0.32      1011.0     5       148         7       146        9.10     267      541.0
   07/17/2017 12:50      92.7      91.6       34     59.3      0.00      0.00      85.8     0.32      1011.0     4       115         6       122        9.10     267      541.1
   07/17/2017 12:40      92.3      91.5       34     59.7      0.00      0.00      85.9     0.32      1011.0     4        20         5       353        9.10     268      537.2
   07/17/2017 12:30      91.3      89.9       36     60.1      0.00      0.00      85.7     0.32      1012.0     5        48         7       100        9.10     268      541.2
   07/17/2017 12:20      91.8      90.3       36     60.6      0.00      0.00      85.9     0.32      1012.0     3        77         6        68        9.10     268      535.8
   07/17/2017 12:10      91.8      90.1       37     61.0      0.00      0.00      85.8     0.32      1012.0     3        27         6         7        9.10     268      532.4
   07/17/2017 12:00      90.4      89.6       38     60.9      0.00      0.00      85.6     0.32      1012.0     3        28         4        23        9.10     269      528.3
   07/17/2017 11:50      89.3      88.5       39     60.6      0.00      0.00      85.9     0.32      1012.0     3        39         7        60        9.10     269      525.5
   07/17/2017 11:40      88.8      88.2       39     60.7      0.00      0.00      85.8     0.32      1012.0     4        22         6        12        9.10     270      517.0
   07/17/2017 11:30      88.4      87.3       40     60.7      0.00      0.00      85.8     0.32      1012.0     4        16         8       355        9.10     270      509.0
   07/17/2017 11:20      87.3      85.8       42     60.5      0.00      0.00      85.9     0.32      1012.0     2         1         4         6        9.10     270      498.7
   07/17/2017 11:10      86.4      85.8       43     60.9      0.00      0.00      85.9     0.32      1012.0     4         6         6         6        9.10     270      489.9
   07/17/2017 11:00      86.7      85.1       44     61.3      0.00      0.00      85.6     0.32      1012.0     3         9         5        27        9.10     270      481.3
   07/17/2017 10:50      85.4      83.9       45     60.9      0.00      0.00      86.1     0.32      1012.0     2        32         4         9        9.10     270      473.0
   07/17/2017 10:40      84.3      83.4       46     60.8      0.00      0.00      85.7     0.32      1012.0     3        16         5       354        9.09     271      460.9
   07/17/2017 10:30      83.7      80.8       47     60.5      0.00      0.00      85.6     0.32      1012.0 "NAN"         0         3        36        9.02     271      448.7
   07/17/2017 10:20      83.3      81.9       48     60.7      0.00      0.00      85.9     0.32      1012.0 "NAN"         0     "NAN"        92        9.02     271      434.9
   07/17/2017 10:10      82.6      81.4       48     60.7      0.00      0.00      85.6     0.32      1012.0 "NAN"         0     "NAN"        92        9.02     271      414.2
   07/17/2017 10:00      81.9      81.4       49     60.5      0.00      0.00      86.2     0.32      1012.0 "NAN"         0         3        92        9.02     271      391.0
   07/17/2017 09:50      81.4      80.2       50     60.5      0.00      0.00      86.0     0.32      1012.0     3        71         5        85        9.02     271      373.0
   07/17/2017 09:40      81.0      79.5       52     60.6      0.00      0.00      85.9     0.32      1012.0     2        39         5        20        9.02     271      351.8
   07/17/2017 09:30      79.5      77.9       53     60.4      0.00      0.00     "NAN"     0.32      1012.0     2        48         4        10        9.02     271      330.0
   07/17/2017 09:20      78.0      77.0       55     60.2      0.00      0.00     "NAN"     0.33      1012.0     3        81         4        87        9.02     271      316.2
   07/17/2017 09:10      77.6      76.3       56     60.0      0.00      0.00      86.4     0.33      1012.0     2        41         3        21        9.02     271      299.1
   07/17/2017 09:00      76.3      75.1       58     60.0      0.00      0.00      86.1     0.33      1012.0     3        76         4        26        9.02     271      293.9
   07/17/2017 08:50      74.9      73.7       60     59.6      0.00      0.00      86.4     0.33      1012.0     2        95         4       108        9.02     271      220.1
   07/17/2017 08:40      73.7      72.8       62     59.7      0.00      0.00      86.4     0.33      1012.0     2       162         3       142        2.13     270       22.1
   07/17/2017 08:30      72.8      -6.6       92     21.4      0.00      0.00      86.0     0.33      1012.0 "NAN"         0         3       138        2.12     266       15.3
   07/17/2017 08:20      -9.2     -35.2       74    -29.5      0.00      0.00      86.2     0.33      1012.0     1        72         2        73        8.98     251       10.3
   07/17/2017 08:10      71.8     -54.6    "NAN"    "NAN"      0.00      0.00     "NAN"     0.33      1026.0 "NAN"         0         2        82        8.87     196      "NAN"
   07/17/2017 08:00      71.8      70.6       70     60.6      0.00      0.00      86.7     0.33      1012.0     1        79         2        72        9.00     271       16.6
   07/17/2017 07:50      70.7      70.3       71     60.8      0.00      0.00      86.4     0.33      1012.0     1        14         2        24        8.96     271        8.9
   07/17/2017 07:40      70.4      69.8       73     61.2      0.00      0.00      86.6     0.33      1012.0     1        56         2        34        8.96     271       -4.7
   07/17/2017 07:30      70.0      69.3       75     61.3      0.00      0.00      86.6     0.33      1012.0     1        91         2        95        7.77     271      -13.7
   07/17/2017 07:20      69.3      68.6       76     61.2      0.00      0.00      86.7     0.33      1012.0     1        97         1       104        7.77     271      -12.1
   07/17/2017 07:10      68.6      67.9       78     61.1      0.00      0.00      86.8     0.33      1012.0     1        85         2        77        7.77     271      -17.1
   07/17/2017 07:00      67.9      67.2       80     61.0      0.00      0.00      86.7     0.33      1012.0     1       152         2       118        7.77     271      -25.5
   07/17/2017 06:50      67.3      66.2       82     61.0      0.00      0.00      86.8     0.33      1012.0     1       131         2       139        7.77     271      -29.6
   07/17/2017 06:40      66.3      65.5       83     60.6      0.00      0.00      87.0     0.33      1012.0     2       155         2       158        7.77     271      -34.4
   07/17/2017 06:30      65.6      65.2       84     60.4      0.00      0.00      86.9     0.33      1011.0     2       167         2       163        7.77     271      -38.5
   07/17/2017 06:20      65.5      65.2       84     60.3      0.00      0.00      86.6     0.33      1011.0     1       152         2       160        7.77     271      -42.4
   07/17/2017 06:10      65.6      65.3       84     60.4      0.00      0.00      86.7     0.33      1011.0     1       144         1       129        7.77     270      -45.4
   07/17/2017 06:00      65.7      65.2       83     60.1      0.00      0.00      86.7     0.33      1011.0     1       128         1       127        7.77     270      -48.8
   07/17/2017 05:50      65.6      65.4       83     60.2      0.00      0.00      86.8     0.33      1011.0     1        88         1       109        7.77     270      -52.4
   07/17/2017 05:40      65.8      65.4       83     60.2      0.00      0.00      87.2     0.33      1011.0     1        73         1        96        7.77     270      -53.0
   07/17/2017 05:30      65.8      65.7       83     60.5      0.00      0.00      86.8     0.33      1011.0     1        21         2        21        7.77     270      -51.5
   07/17/2017 05:20      65.9      65.6       83     60.3      0.00      0.00      87.0     0.33      1011.0     0        81         1        59        7.77     270      -52.9
   07/17/2017 05:10      65.7      65.6       83     60.2      0.00      0.00      87.1     0.33      1011.0     1        67         1        69        7.77     270      -53.3
   07/17/2017 05:00      65.8      65.4       82     59.9      0.00      0.00      87.0     0.33      1011.0     1        80         1        75        7.77     270      -54.2
   07/17/2017 04:50      66.0      65.7       82     60.2      0.00      0.00      87.1     0.33      1011.0     0        73         1        24        7.77     270      -53.0
   07/17/2017 04:40      65.8      65.5       82     60.0      0.00      0.00      87.2     0.33      1011.0     0        88         1       143        7.77     270      -52.5
   07/17/2017 04:30      65.6      65.4       82     60.0      0.00      0.00      87.1     0.33      1011.0     1        95         1        89        7.77     270      -52.4
   07/17/2017 04:20      65.7      65.4       81     59.5      0.00      0.00      87.1     0.33      1011.0     0        16         1       102        7.77     270      -52.6
   07/17/2017 04:10      66.0      65.4       81     59.9      0.00      0.00      86.8     0.33      1011.0     1        90         1        81        7.77     270      -53.9
   07/17/2017 04:00      65.8      65.7       82     60.1      0.00      0.00      87.3     0.33      1011.0     1       136         1       135        7.77     270      -53.2
   07/17/2017 03:50      66.0      65.8       82     60.2      0.00      0.00      87.1     0.33      1011.0     0        55         1        25        7.77     270      -53.7
   07/17/2017 03:40      66.1      65.8       82     60.2      0.00      0.00      87.0     0.33      1011.0     1       130         1       109        7.77     270      -53.8
   07/17/2017 03:30      66.3      66.0       81     60.3      0.00      0.00      87.2     0.33      1011.0     1        98         1        88        7.77     270      -54.3
   07/17/2017 03:20      66.3      66.1       81     60.3      0.00      0.00      87.3     0.33      1011.0     1       113         2       112        7.77     270      -54.8
   07/17/2017 03:10      66.6      66.3       81     60.4      0.00      0.00      87.4     0.33      1011.0     1       102         1       113        7.77     270      -55.5
   07/17/2017 03:00      66.6      66.4       81     60.5      0.00      0.00      87.3     0.33      1011.0     1       142         1       148        7.77     269      -55.7
   07/17/2017 02:50      66.9      66.7       81     60.6      0.00      0.00      87.5     0.33      1011.0     1       127         1       126        7.77     270      -56.1
   07/17/2017 02:40      67.0      66.8       80     60.5      0.00      0.00      87.6     0.33      1011.0     1       101         2       115        7.77     269      -56.7
   07/17/2017 02:30      67.2      66.9       80     60.6      0.00      0.00      87.5     0.33      1011.0     1       127         1       128        7.77     269      -57.9
   07/17/2017 02:20      67.3      67.2       79     60.6      0.00      0.00      87.3     0.33      1011.0     1       143         2       159        7.77     269      -58.4
   07/17/2017 02:10      67.6      67.4       79     60.9      0.00      0.00      87.7     0.33      1011.0     1       135         2       105        7.77     270      -59.0
   07/17/2017 02:00      67.9      67.5       79     61.0      0.00      0.00      87.5     0.33      1011.0     2       114         3       133        7.77     270      -59.9
   07/17/2017 01:50      67.9      67.6       79     61.0      0.00      0.00      87.5     0.33      1011.0     2       111         2       126        7.77     270      -60.4
   07/17/2017 01:40      68.1      67.9       78     60.9      0.00      0.00      87.6     0.33      1011.0     1        97         2       111        7.77     270      -60.9
   07/17/2017 01:30      68.9      68.3       77     60.9      0.00      0.00      87.7     0.33      1012.0     1        79         2        68        7.77     269      -60.9
   07/17/2017 01:20      68.9      68.6       76     61.0      0.00      0.00      87.6     0.33      1012.0     2        42         3         5        7.77     269      -61.5
   07/17/2017 01:10      68.9      68.7       76     61.0      0.00      0.00      87.6     0.33      1012.0     2        30         3         4        7.77     269      -61.5
   07/17/2017 01:00      69.2      68.8       75     60.9      0.00      0.00      87.5     0.33      1012.0     2        54         3        72        7.77     269      -61.7
   07/17/2017 00:50      69.5      69.1       75     60.8      0.00      0.00      87.8     0.33      1012.0     2        75         3        77        7.77     269      -61.6
   07/17/2017 00:40      69.8      69.5       73     60.7      0.00      0.00      87.7     0.33      1012.0     2        38         4        58        7.77     269      -61.6
   07/17/2017 00:30      69.8      69.7       72     60.3      0.00      0.00      87.8     0.33      1012.0     2        55         3        80        7.77     269      -61.8
   07/17/2017 00:20      70.1      69.8       71     60.1      0.00      0.00      87.8     0.33      1012.0     2        75         2        73        7.77     269      -62.1
   07/17/2017 00:10      70.3      70.1       70     60.0      0.00      0.00      87.8     0.33      1012.0     2        66         3        78        7.77     269      -62.0
   07/17/2017 00:00      70.5      70.3       69     60.0      0.00      0.00      87.5     0.33      1012.0     2        76         3        71        7.77     269      -62.8
   07/16/2017 23:50      70.9      70.5       69     60.0      0.00      0.00      87.9     0.33      1012.0     2        60         4        72        7.77     269      -63.4
   07/16/2017 23:40      71.1      70.7       68     59.9      0.00      0.00      87.8     0.33      1012.0     2        68         4        74        7.77     269      -63.8
   07/16/2017 23:30      71.4      71.0       67     59.8      0.00      0.00      87.8     0.33      1012.0     3        51         5        54        7.77     269      -64.6
   07/16/2017 23:20      72.1      71.6       64     59.3      0.00      0.00      87.9     0.33      1012.0     3        63         5        71        7.77     269      -65.2
   07/16/2017 23:10      72.3      72.1       61     58.1      0.00      0.00      87.9     0.33      1012.0     3        72         4       103        7.77     269      -64.8
   07/16/2017 23:00      72.8      72.2       61     58.2      0.00      0.00      87.9     0.33      1012.0     3        80         7        82        7.77     268      -65.6
   07/16/2017 22:50      73.1      72.7       59     58.0      0.00      0.00      87.9     0.33      1012.0     3        74         4        72        7.77     268      -66.1
   07/16/2017 22:40      73.6      73.2       59     58.2      0.00      0.00      87.9     0.33      1012.0     3        63         4        77        7.77     268      -66.5
   07/16/2017 22:30      74.2      73.7       58     58.0      0.00      0.00      87.9     0.33      1012.0     3        61         4        57        7.77     268      -67.5
   07/16/2017 22:20      74.7      74.3       54     56.8      0.00      0.00      87.8     0.33      1012.0     3        63         4        93        7.77     268      -67.7
   07/16/2017 22:10      75.3      74.8       52     56.3      0.00      0.00      87.9     0.33      1012.0     3        64         5        76        7.78     268      -67.9
   07/16/2017 22:00      75.9      75.4       52     56.9      0.00      0.00      88.0     0.33      1011.0     3        66         5        75        7.94     268      -68.3
   07/16/2017 21:50      76.3      75.9       51     56.7      0.00      0.00      87.9     0.33      1011.0     3        59         4        69        7.97     268      -68.6
   07/16/2017 21:40      76.7      76.3       52     57.6      0.00      0.00      87.9     0.33      1011.0     3        73         5        93        7.98     268      -68.7
   07/16/2017 21:30      77.0      76.5       52     58.1      0.00      0.00      87.9     0.33      1011.0     2        48         3        58        7.98     268      -69.1
   07/16/2017 21:20      77.6      77.1       52     58.4      0.00      0.00      87.7     0.33      1011.0     2        60         5        73        7.98     268      -69.6
   07/16/2017 21:10      78.4      77.7       52     58.8      0.00      0.00      87.8     0.33      1011.0     3        53         5        65        7.98     268      -70.2
   07/16/2017 21:00      79.3      78.5       51     59.3      0.00      0.00      87.8     0.33      1011.0     3        50         4        79        7.98     268      -71.7
   07/16/2017 20:50      79.5      79.3       49     58.4      0.00      0.00      88.0     0.33      1011.0     2        61         2        27        7.98     268      -72.3
   07/16/2017 20:40      80.0      79.6       47     58.1      0.00      0.00      87.9     0.33      1010.0     3       114         4       112        7.98     267      -73.7
   07/16/2017 20:30      80.6      80.1       47     58.1      0.00      0.00      87.9     0.33      1010.0     2        93         3       113        7.99     268      -75.0
   07/16/2017 20:20      81.0      80.6       46     58.1      0.00      0.00      87.8     0.33      1010.0     2       111         5       128        7.99     267      -75.5
   07/16/2017 20:10      81.6      81.2       46     58.4      0.00      0.00      87.7     0.33      1010.0     3       125         4       151        7.99     267      -74.5
   07/16/2017 20:00      81.9      81.6       46     59.0      0.00      0.00      87.8     0.33      1010.0     3       117         5       129        7.99     268      -72.2
   07/16/2017 19:50      82.6      82.3       45     59.1      0.00      0.00      87.8     0.33      1010.0     3       122         5       124        7.99     267      -68.7
   07/16/2017 19:40      83.1      82.7       45     59.2      0.00      0.00      87.8     0.33      1010.0     3       115         5       106        7.99     267      -58.9
   07/16/2017 19:30      83.6      83.0       44     59.4      0.00      0.00      87.7     0.33      1010.0     4       133         6       133        7.99     267      -48.1
   07/16/2017 19:20      84.0      83.8       44     59.6      0.00      0.00      87.7     0.33      1010.0     5       116         6       111        7.99     267      -32.8
   07/16/2017 19:10      84.8      84.1       43     59.6      0.00      0.00      87.7     0.33      1010.0     4       116         7       127        7.99     267      -14.9
   07/16/2017 19:00      85.8      84.8       41     59.2      0.00      0.00      87.7     0.33      1009.0     5       161         7       134        7.99     267        4.6
   07/16/2017 18:50      86.4      86.1       39     58.6      0.00      0.00      87.5     0.33      1009.0     5       175         6       165        7.99     267       24.9
   07/16/2017 18:40      87.9      86.6       38     58.3      0.00      0.00      87.6     0.33      1009.0     6       160         7       124        7.99     267       46.3
   07/16/2017 18:30      88.2      87.8       37     58.7      0.00      0.00      87.2     0.33      1009.0     4       106         7        70        7.99     267       68.7
   07/16/2017 18:20      89.4      88.2       37     59.4      0.00      0.00      87.4     0.33      1009.0     4        36         5        13        7.99     267       89.4
   07/16/2017 18:10      89.6      89.1       37     59.6      0.00      0.00      87.4     0.33      1009.0     4        45         7        74        8.00     267      111.9
   07/16/2017 18:00      90.0      89.4       36     59.5      0.00      0.00      87.4     0.33      1009.0     4        46         6        60        8.00     267      134.2
   07/16/2017 17:50      90.1      89.7       36     59.6      0.00      0.00      87.2     0.33      1009.0     4        47         6        66        8.00     267      157.5
   07/16/2017 17:40      90.8      89.7       36     59.9      0.00      0.00      87.4     0.33      1009.0     3        39         5        48        8.00     267      178.7
   07/16/2017 17:30      91.9      90.3       36     60.1      0.00      0.00      87.2     0.33      1009.0     4        41         7        39        8.00     267      201.2
   07/16/2017 17:20      92.0      91.1       34     59.2      0.00      0.00      87.3     0.33      1009.0     4        34         5        26        8.00     267      223.7
   07/16/2017 17:10      92.1      91.6       33     58.9      0.00      0.00      87.2     0.33      1009.0     4        37         5        23        8.00     268      244.7
   07/16/2017 17:00      92.0      91.4       33     58.9      0.00      0.00      87.0     0.33      1009.0     4        41         5        35        8.01     267      265.9
   07/16/2017 16:50      91.9      91.1       34     59.5      0.00      0.00      87.2     0.33      1009.0     5        38         7        65        8.01     267      287.0
   07/16/2017 16:40      91.1      90.7       35     59.4      0.00      0.00      86.9     0.33      1010.0     4        44         6        75        8.01     267      308.7
   07/16/2017 16:30      90.7      90.2       35     58.9      0.00      0.00      86.8     0.33      1010.0     5        34        10        31        8.01     268      329.2
   07/16/2017 16:20      92.0      91.1       34     58.9      0.00      0.00      87.0     0.33      1010.0     5        47         8        66        8.01     268      347.4
   07/16/2017 16:10      92.4      92.0       33     59.1      0.00      0.00      86.8     0.33      1010.0     6        48        10        63        8.01     267      365.3
   07/16/2017 16:00      93.4      92.5       33     59.5      0.00      0.00      86.7     0.33      1010.0     4        47         6        23        8.01     267      382.3
   07/16/2017 15:50      93.4      92.9       33     59.4      0.00      0.00      86.7     0.33      1010.0     4        42         6        61        8.01     267      398.8
   07/16/2017 15:40      93.7      92.9       32     59.2      0.00      0.00      86.6     0.33      1010.0     4        58         7        86        8.01     267      414.7
   07/16/2017 15:30      93.8      92.7       33     59.6      0.00      0.00      86.6     0.33      1010.0   198        28      1944       999        8.01     267      427.2
   07/16/2017 15:20      94.0      93.2       32     59.9      0.00      0.00      86.6     0.32      1010.0     4        45         8        71        8.01     267      440.2
   07/16/2017 15:10      93.7      93.2       33     59.8      0.00      0.00      86.5     0.32      1010.0     5        56         6        68        8.01     267      453.3
   07/16/2017 15:00      94.2      93.6       32     60.0      0.00      0.00      86.5     0.32      1010.0     3        61         5        68        8.01     268      467.5
   07/16/2017 14:50      94.3      92.8       33     60.5      0.00      0.00      86.3     0.32      1011.0     4        41         7        58        8.01     268      481.4
   07/16/2017 14:40      92.8      92.0       35     60.9      0.00      0.00      86.3     0.32      1011.0     4        67         6        72        8.02     268      496.8
   07/16/2017 14:30      92.8      92.0       36     61.4      0.00      0.00      86.2     0.32      1011.0     4        39         5        44        8.02     268      519.9
   07/16/2017 14:20      92.7      91.7       37     62.0      0.00      0.00      86.2     0.32      1011.0     4        54         7       125        8.02     268      381.0
   07/16/2017 14:10      91.9      91.3       38     62.2      0.00      0.00      86.1     0.32      1011.0     4        38         5        27        8.02     268      376.1
   07/16/2017 14:00      92.0      91.2       38     62.4      0.00      0.00      86.1     0.32      1011.0     5        42         7        25        8.02     268      476.9
   07/16/2017 13:50      92.6      91.7       38     62.7      0.00      0.00      86.1     0.32      1011.0     4        44         5        28        8.02     268      499.0
   07/16/2017 13:40      92.5      90.7       37     62.0      0.00      0.00      86.1     0.32      1011.0     5        57         7        68        8.02     268      555.2
   07/16/2017 13:30      92.1      90.9       37     61.5      0.00      0.00      86.0     0.32      1011.0     5       120         9       127        8.02     269      572.7
   07/16/2017 13:20      91.7      91.3       37     61.6      0.00      0.00      85.8     0.32      1011.0     3       130         5       163        8.02     269      570.6
   07/16/2017 13:10      91.2      89.8       38     61.5      0.00      0.00      85.8     0.32      1011.0     5       138         8       128        8.02     268      559.9
   07/16/2017 13:00      91.9      90.0       38     61.4      0.00      0.00      85.9     0.32      1011.0     6       108        10       125        8.02     268      558.9
   07/16/2017 12:50      92.8      91.9       36     61.5      0.00      0.00      85.7     0.32      1011.0     5        68        11        90        8.02     268      563.2
   07/16/2017 12:40      92.8      91.9       37     61.9      0.00      0.00      85.9     0.32      1011.0     6        70        12        75        8.02     268      566.2
   07/16/2017 12:30      92.2      91.3       38     62.5      0.00      0.00      85.9     0.32      1011.0     5        65        10        84        8.02     269      554.1
   07/16/2017 12:20      93.8      91.9       37     62.9      0.00      0.00      85.9     0.32      1011.0     5        61         7        62        8.02     269      465.7
   07/16/2017 12:10      93.5      91.7       37     62.0      0.00      0.00      85.9     0.32      1011.0     2        26         4        14        8.02     269      545.7
   07/16/2017 12:00      92.3      91.3       36     61.1      0.00      0.00      85.7     0.32      1011.0     3        60         4        81        8.02     269      543.9
   07/16/2017 11:50      91.3      89.7       37     60.4      0.00      0.00      86.1     0.32      1011.0     3         8         5       357        8.03     269      437.3
   07/16/2017 11:40      90.4      89.6       37     60.2      0.00      0.00      86.0     0.32      1011.0     3        56         5        71        8.03     270      501.8
   07/16/2017 11:30      89.4      88.3       38     60.1      0.00      0.00      86.0     0.32      1011.0     3        15         4         5        8.03     270      544.7
   07/16/2017 11:20      88.5      87.7       39     60.2      0.00      0.00      86.0     0.32      1012.0     3         6         4       359        8.03     270      533.8
   07/16/2017 11:10      87.8      86.0       40     60.0      0.00      0.00      86.0     0.32      1012.0     2       349         3       343        8.03     270      528.1
   07/16/2017 11:00      85.9      84.6       42     59.8      0.00      0.00      86.0     0.32      1012.0     2       310         4        20        8.03     270      410.8
   07/16/2017 10:50      85.7      84.6       43     60.2      0.00      0.00      86.1     0.32      1012.0     3         1         6        20        8.03     270      467.8
   07/16/2017 10:40      85.0      83.3       44     60.1      0.00      0.00      86.2     0.32      1012.0     2        39         4        14        8.03     270      536.5
   07/16/2017 10:30      83.7      83.1       45     60.0      0.00      0.00      86.1     0.33      1012.0     2        68         3        90        8.03     270      442.4
   07/16/2017 10:20      83.6      81.3       46     60.0      0.00      0.00      86.4     0.33      1012.0     2        63         3        94        8.03     270      483.7
   07/16/2017 10:10      81.4      80.2       48     59.8      0.00      0.00      86.2     0.33      1012.0     3       355         5         5        8.03     270      499.2
   07/16/2017 10:00      80.1      79.6       50     59.5      0.00      0.00      86.0     0.33      1012.0     2        48         3        56        8.03     270      221.1
   07/16/2017 09:50      79.9      79.2       50     59.4      0.00      0.00      86.2     0.33      1012.0     3        32         6        65        8.03     270      153.2
   07/16/2017 09:40      79.9      79.1       50     59.4      0.00      0.00      86.5     0.33      1012.0     2        11         3        21        8.04     270      188.2
   07/16/2017 09:30      79.5      78.5       51     59.3      0.00      0.00      86.2     0.33      1012.0     3        28         4        21        8.04     270      314.2
   07/16/2017 09:20      78.5      76.9       52     59.0      0.00      0.00      86.3     0.33      1013.0     2        40         4        70        8.04     271      254.4
   07/16/2017 09:10      76.9      76.3       54     58.7      0.00      0.00      86.3     0.33      1013.0     2         4         4       358        8.04     270      185.1
   07/16/2017 09:00      76.3      75.6       54     58.3      0.00      0.00      86.3     0.33      1013.0     2        17         3       316        8.05     271      173.8
   07/16/2017 08:50      75.9      75.0       55     58.4      0.00      0.00      86.4     0.33      1013.0     2        67         3        62        8.05     271       79.2
   07/16/2017 08:40      75.0      74.5       57     58.2      0.00      0.00      86.3     0.33      1013.0     2       322         3       345        8.05     271       35.0
   07/16/2017 08:30      74.6      74.2       57     58.1      0.00      0.00      86.1     0.33      1013.0     2         8         3         2        8.05     271       11.2
   07/16/2017 08:20      74.3      73.6       58     58.4      0.00      0.00      86.1     0.33      1013.0     2        35         3        78        8.05     271       15.5
   07/16/2017 08:10      73.7      73.1       60     58.8      0.00      0.00      86.5     0.33      1013.0     2        52         3         0        8.06     270       24.4
   07/16/2017 08:00      73.1      71.8       61     58.2      0.00      0.00      86.4     0.33      1013.0     1        42         3        62        8.06     270       35.9
   07/16/2017 07:50      71.8      70.1       64     58.3      0.00      0.00      86.6     0.33      1012.0     1       112         1       113        8.06     270       27.4
   07/16/2017 07:40      70.2      69.5       68     58.8      0.00      0.00      86.6     0.33      1012.0     1       157         1       141        8.06     270       -9.3
   07/16/2017 07:30      69.6      69.2       68     58.4      0.00      0.00      86.6     0.33      1012.0     0       145         1       136        8.06     270      -27.0
   07/16/2017 07:20      69.5      69.1       68     58.1      0.00      0.00      86.7     0.33      1012.0     1       177         2       171        8.06     270      -31.5
   07/16/2017 07:10      69.4      69.1       68     58.1      0.00      0.00      86.9     0.33      1012.0     1       156         2       166        8.06     270      -33.1
   07/16/2017 07:00      69.3      68.8       68     57.9      0.00      0.00      86.6     0.33      1012.0     1       130         1       125        8.06     270      -33.8
   07/16/2017 06:50      68.8      68.0       70     58.2      0.00      0.00      86.8     0.33      1012.0     2       149         2       157        8.06     270      -34.9
   07/16/2017 06:40      68.3      67.8       71     58.4      0.00      0.00      86.7     0.33      1012.0     2       159         3       152        8.06     270      -37.5
   07/16/2017 06:30      67.8      67.5       72     58.4      0.00      0.00      86.7     0.33      1012.0     1       171         2       199        8.06     270      -44.5
   07/16/2017 06:20      67.7      66.9       73     58.4      0.00      0.00      87.0     0.33      1012.0     2       171         3       184        8.06     270      -45.9
   07/16/2017 06:10      67.0      66.7       73     58.1      0.00      0.00      86.6     0.33      1012.0     2       149         3       141        8.06     270      -50.1
   07/16/2017 06:00      67.3      67.0       72     58.0      0.00      0.00      86.9     0.33      1012.0     2       158         2       140        8.06     269      -53.8
   07/16/2017 05:50      67.5      67.2       72     57.8      0.00      0.00      87.0     0.33      1012.0     1       196         2       206        8.06     269      -54.4
   07/16/2017 05:40      67.8      67.3       71     57.7      0.00      0.00      86.8     0.33      1012.0     1       144         2       140        8.06     269      -55.7
   07/16/2017 05:30      68.1      67.7       70     57.8      0.00      0.00      86.9     0.33      1012.0     1       166         1       167        8.06     269      -55.8
   07/16/2017 05:20      68.6      68.1       69     57.9      0.00      0.00      87.0     0.33      1012.0     1       115         1        92        8.06     269      -58.0
   07/16/2017 05:10      68.7      68.5       68     57.8      0.00      0.00      87.0     0.33      1012.0     1       104         2       109        8.06     269      -59.3
   07/16/2017 05:00      69.2      68.9       67     57.7      0.00      0.00      86.9     0.33      1012.0     1        83         1        91        8.06     269      -59.7
   07/16/2017 04:50      69.3      69.1       67     57.6      0.00      0.00      86.8     0.33      1012.0     1        73         3        73        8.06     269      -60.5
   07/16/2017 04:40      69.3      69.1       66     57.6      0.00      0.00      87.2     0.33      1012.0     2        72         2        75        8.06     269      -60.4
   07/16/2017 04:30      69.7      69.5       66     57.5      0.00      0.00      87.4     0.33      1012.0     1        56         2        70        8.06     269      -60.0
   07/16/2017 04:20      69.9      69.7       64     57.0      0.00      0.00      87.0     0.33      1012.0     1        59         1        79        8.06     269      -56.8
   07/16/2017 04:10      70.6      70.2       62     56.8      0.00      0.00      87.1     0.33      1012.0     1        45         2        76        8.06     269      -54.5
   07/16/2017 04:00      70.9      70.7       61     56.5      0.00      0.00      87.2     0.33      1012.0     1        85         1       194        8.06     269      -55.1
   07/16/2017 03:50      71.2      70.8       61     56.7      0.00      0.00      87.4     0.33      1012.0     1       134         2        91        8.06     269      -52.3
   07/16/2017 03:40      71.5      71.2       59     56.0      0.00      0.00      87.3     0.33      1012.0     1       104         1        77        8.06     269      -47.9
   07/16/2017 03:30      71.8      71.7       57     55.8      0.00      0.00      87.3     0.33      1012.0     0        69         1       137        8.06     269      -46.4
   07/16/2017 03:20      72.3      71.9       57     56.3      0.00      0.00      87.4     0.33      1012.0     1       125         2       132        8.06     269      -45.7
   07/16/2017 03:10      72.5      72.4       59     57.1      0.00      0.00      87.5     0.33      1012.0     1        91         3        84        8.07     269      -46.2
   07/16/2017 03:00      72.6      72.5       59     57.4      0.00      0.00      87.3     0.33      1012.0     2       114         3       139        8.07     269      -45.4
   07/16/2017 02:50      72.7      72.2       60     57.5      0.00      0.00      87.7     0.33      1012.0     2        97         3        96        8.07     269      -43.7
   07/16/2017 02:40      72.5      72.2       60     57.8      0.00      0.00      87.4     0.33      1012.0     1       103         3       112        8.07     269      -42.8
   07/16/2017 02:30      72.5      72.0       61     58.1      0.00      0.00      87.4     0.33      1012.0     1       100         2       107        8.07     269      -44.2
   07/16/2017 02:20      72.3      71.9       62     58.2      0.00      0.00      87.2     0.33      1012.0     1       103         2       119        8.07     269      -45.1
   07/16/2017 02:10      72.3      72.0       61     58.0      0.00      0.00      87.5     0.34      1012.0     2       115         2       121        8.07     269      -43.9
   07/16/2017 02:00      72.5      72.3       60     57.8      0.00      0.00      87.5     0.34      1012.0     1       171         2       145        8.07     269      -42.2
   07/16/2017 01:50      72.6      72.4       60     57.9      0.00      0.00      87.6     0.33      1012.0     1       152         1       169        8.07     269      -42.5
   07/16/2017 01:40      72.7      72.4       59     57.6      0.00      0.00      87.6     0.33      1012.0     0       158         1       127        8.07     269      -42.7
   07/16/2017 01:30      73.0      72.7       59     57.8      0.00      0.00      87.6     0.33      1012.0     1       100         1       109        8.07     269      -44.0
   07/16/2017 01:20      73.3      72.9       58     57.7      0.00      0.00      87.5     0.34      1012.0     1        80         1       107        8.07     269      -44.5
   07/16/2017 01:10      73.5      73.3       58     57.6      0.00      0.00      87.7     0.33      1013.0     1        89         2       352        8.07     269      -44.2
   07/16/2017 01:00      73.7      73.4       57     57.5      0.00      0.00      87.7     0.34      1013.0     1        52         2       357        8.07     269      -43.8
   07/16/2017 00:50      73.8      73.6       57     57.7      0.00      0.00      87.8     0.33      1013.0     1       136         1       112        8.07     269      -44.9
   07/16/2017 00:40      73.8      73.7       57     57.8      0.00      0.00      87.6     0.33      1013.0     1        78         2        49        8.07     269      -45.6
   07/16/2017 00:30      74.0      73.8       58     58.1      0.00      0.00      87.7     0.33      1013.0     1        65         2        60        8.07     269      -45.0
   07/16/2017 00:20      74.1      74.0       58     58.4      0.00      0.00      87.7     0.34      1013.0     2        55         2        75        8.07     269      -44.8
   07/16/2017 00:10      74.2      74.0       58     58.5      0.00      0.00      87.8     0.34      1013.0     2        32         3        27        8.07     269      -47.7
   07/16/2017 00:00      74.0      73.8       58     58.4      0.00      0.00      87.9     0.34      1013.0     1        50         3        58        8.07     269      -50.4
   07/15/2017 23:50      74.1      73.8       58     58.3      0.00      0.00      87.7     0.34      1013.0     1        62         2        39        8.07     269      -52.2
   07/15/2017 23:40      74.3      74.1       58     58.3      0.00      0.00      87.8     0.33      1013.0     1        71         2        55        8.07     269      -53.5
   07/15/2017 23:30      74.4      74.2       58     58.4      0.00      0.00      87.7     0.34      1013.0     2        38         4        34        8.08     269      -56.1
   07/15/2017 23:20      74.4      74.2       57     58.3      0.00      0.00      87.9     0.33      1013.0     1        38         2        36        8.08     269      -60.4
   07/15/2017 23:10      74.7      74.4       57     58.3      0.00      0.00      87.8     0.34      1013.0     2        54         4        82        8.08     269      -64.2
   07/15/2017 23:00      75.0      74.7       57     58.3      0.00      0.00      87.9     0.34      1013.0     2        34         2        50        8.08     269      -65.4
   07/15/2017 22:50      75.3      74.8       56     58.2      0.00      0.00      87.9     0.34      1013.0     2        45         3        22        8.08     269      -67.3
   07/15/2017 22:40      75.5      75.3       55     58.0      0.00      0.00      88.0     0.34      1013.0     2        45         3        51        8.08     268      -67.9
   07/15/2017 22:30      75.8      75.4       55     58.3      0.00      0.00      88.0     0.34      1013.0     2        48         3        36        8.08     268      -68.7
   07/15/2017 22:20      76.1      75.8       54     58.3      0.00      0.00      87.7     0.33      1013.0     2        44         2        57        8.08     268      -69.1
   07/15/2017 22:10      76.3      76.1       54     58.4      0.00      0.00      87.8     0.33      1013.0     1        49         2        35        8.08     268      -69.2
   07/15/2017 22:00      76.4      76.2       54     58.5      0.00      0.00      87.8     0.33      1013.0     2        42         3        38        8.08     268      -69.8
   07/15/2017 21:50      76.5      76.3       53     58.3      0.00      0.00      87.9     0.33      1013.0     2        45         3        49        8.08     268      -69.8
   07/15/2017 21:40      76.8      76.5       53     58.3      0.00      0.00      87.8     0.33      1013.0     1        61         2        59        8.08     268      -70.2
   07/15/2017 21:30      77.4      77.0       52     58.4      0.00      0.00      87.8     0.33      1013.0     1        61         2        34        8.08     268      -70.8
   07/15/2017 21:20      78.0      77.6       52     58.5      0.00      0.00      87.7     0.33      1012.0     2        41         2        33        8.08     268      -71.5
   07/15/2017 21:10      78.3      78.0       51     58.4      0.00      0.00      87.6     0.33      1012.0     2        16         3        17        8.08     268      -72.7
   07/15/2017 21:00      78.5      78.2       50     58.4      0.00      0.00      87.6     0.33      1012.0     2        17         3        18        8.08     267      -73.2
   07/15/2017 20:50      79.1      78.5       49     58.2      0.00      0.00      87.8     0.33      1012.0     1        43         2        41        8.08     268      -74.5
   07/15/2017 20:40      80.0      79.3       48     58.2      0.00      0.00      87.7     0.33      1012.0     2        26         2        31        8.08     267      -75.7
   07/15/2017 20:30      80.8      80.0       47     58.2      0.00      0.00      87.7     0.33      1012.0     2        21         3       359        8.08     267      -76.6
   07/15/2017 20:20      81.3      81.0       46     58.2      0.00      0.00      87.7     0.33      1012.0     2        28         3       348        8.09     267      -77.0
   07/15/2017 20:10      81.5      81.2       45     57.9      0.00      0.00      87.6     0.33      1012.0     2        30         3        32        8.09     267      -76.7
   07/15/2017 20:00      82.5      81.6       44     57.7      0.00      0.00      87.5     0.33      1012.0     2        54         4        77        8.08     267      -74.7
   07/15/2017 19:50      82.7      82.4       43     57.8      0.00      0.00      87.5     0.33      1012.0     2        33         4        39        8.09     267      -70.2
   07/15/2017 19:40      83.6      82.8       43     58.2      0.00      0.00      87.7     0.33      1012.0     3        52         4        66        8.09     267      -64.3
   07/15/2017 19:30      84.3      83.8       42     58.7      0.00      0.00      87.4     0.33      1012.0     2        43         4        59        8.09     267      -54.5
   07/15/2017 19:20      85.4      84.5       42     59.0      0.00      0.00      87.5     0.33      1012.0     4        54         5        74        8.09     267      -41.1
   07/15/2017 19:10      87.0      85.7       40     59.3      0.00      0.00      87.3     0.33      1011.0     3        34         4        13        8.12     267      -25.9
   07/15/2017 19:00      87.3      87.0       39     59.1      0.00      0.00      87.4     0.33      1011.0     3        28         5         6        8.12     267       -9.4
   07/15/2017 18:50      87.3      86.9       39     58.9      0.00      0.00      87.5     0.33      1011.0     2        35         3        61        8.12     267        7.8
   07/15/2017 18:40      88.2      87.4       38     58.8      0.00      0.00      87.4     0.33      1011.0     3        46         4        45        8.12     267       26.4
   07/15/2017 18:30      89.3      88.4       36     58.5      0.00      0.00      87.3     0.33      1011.0     3        52         5        64        8.12     267       44.0
   07/15/2017 18:20      90.7      89.2       35     58.7      0.00      0.00      87.2     0.33      1011.0     4        49         7        81        8.12     267       61.5
   07/15/2017 18:10      91.6      91.2       33     58.7      0.00      0.00      87.1     0.33      1011.0     3        30         5        32        8.12     267       79.6
   07/15/2017 18:00      91.9      91.2       33     58.2      0.00      0.00      87.0     0.33      1011.0     2        34         3        14        8.12     267       96.8
   07/15/2017 17:50      92.2      91.5       33     58.3      0.00      0.00      87.0     0.33      1011.0     3        26         4        12        8.12     267      114.1
   07/15/2017 17:40      92.3      91.7       32     58.3      0.00      0.00      87.1     0.33      1011.0     4       358         4       345        8.12     267      140.5
   07/15/2017 17:30      91.9      91.3       32     58.0      0.00      0.00      87.0     0.33      1011.0     2        20         4        24        8.12     267      142.4
   07/15/2017 17:20      92.3      91.4       32     57.8      0.00      0.00      86.9     0.33      1011.0     4        17         6         1        8.12     267      198.4
   07/15/2017 17:10      93.5      91.8       31     58.1      0.00      0.00      86.9     0.33      1011.0     3        36         4         8        8.12     267      208.8
   07/15/2017 17:00      93.9      92.9       32     58.9      0.00      0.00      86.7     0.33      1011.0     4        13         5        10        8.12     267      256.9
   07/15/2017 16:50      93.9      93.0       32     59.1      0.00      0.00      86.8     0.33      1011.0     3        25         5       355        8.13     267      211.5
   07/15/2017 16:40      94.2      93.7       32     59.3      0.00      0.00      86.5     0.33      1011.0     4        46         5        31        8.13     267      201.3
   07/15/2017 16:30      93.8      93.2       32     59.4      0.00      0.00      86.5     0.33      1011.0     3        76         6        88        8.13     267      243.9
   07/15/2017 16:20      95.3      93.9       32     59.7      0.00      0.00      86.2     0.33      1011.0     4        51         5        97        8.12     267       81.8
   07/15/2017 16:10      96.9      95.4       30     60.0      0.00      0.00      86.5     0.33      1011.0     3        44         4        63        8.13     267      155.3
   07/15/2017 16:00      98.7      97.0       29     60.1      0.00      0.00      86.3     0.33      1011.0     3        54         6        25        8.12     267      382.2
   07/15/2017 15:50      98.0      97.4       29     60.0      0.00      0.00      86.5     0.33      1012.0     4        66         5       127        8.12     267      475.4
   07/15/2017 15:40      98.1      97.6       29     60.6      0.00      0.00      86.3     0.32      1012.0     4        40         6        28        8.12     267      462.4
   07/15/2017 15:30      98.3      96.9       30     60.5      0.00      0.00      86.0     0.32      1012.0     5        64         9        81        8.12     267      436.9
   07/15/2017 15:20      98.8      97.5       29     60.4      0.00      0.00      86.1     0.32      1012.0     6        65         8        75        8.12     267      456.7
   07/15/2017 15:10      98.7      97.8       29     60.3      0.00      0.00      86.0     0.32      1012.0     4        50         7        94        8.12     267      466.6
   07/15/2017 15:00      98.6      98.2       28     60.2      0.00      0.00      86.0     0.32      1012.0     4        65         7        91        8.12     267      474.9
   07/15/2017 14:50      99.2      98.2       28     60.4      0.00      0.00      85.8     0.32      1012.0     4        52         6         3        8.13     267      468.4
   07/15/2017 14:40      99.4      98.8       28     60.5      0.00      0.00      85.6     0.32      1012.0     4        27         6        27        8.12     267      475.9
   07/15/2017 14:30      99.4      98.4       28     60.4      0.00      0.00      85.8     0.32      1012.0     5        16         8         4        8.13     267      492.3
   07/15/2017 14:20      99.0      98.1       29     60.4      0.00      0.00      85.8     0.32      1012.0     5        17         9       354        8.13     267      498.9
   07/15/2017 14:10      99.1      98.3       28     60.3      0.00      0.00      85.6     0.32      1012.0     4        32         6        20        8.13     267      504.6
   07/15/2017 14:00      98.6      98.1       28     60.1      0.00      0.00      85.6     0.32      1013.0     4        34         6        11        8.13     267      512.7
   07/15/2017 13:50      98.0      97.3       29     59.9      0.00      0.00      85.6     0.32      1013.0     3        42         5        34        8.13     267      522.2
   07/15/2017 13:40      97.4      96.1       29     59.6      0.00      0.00      85.5     0.32      1013.0     3        29         5        25        8.14     268      525.5
   07/15/2017 13:30      96.1      94.8       31     59.7      0.00      0.00      85.5     0.32      1013.0     4        28         6        34        8.14     268      537.4
   07/15/2017 13:20      95.1      92.8       32     59.8      0.00      0.00      85.5     0.32      1013.0     4        32         6        18        8.14     268      555.9
   07/15/2017 13:10      93.5      93.0       32     59.4      0.00      0.00      85.5     0.32      1013.0     4        40         6        34        8.14     268      473.0
   07/15/2017 13:00      93.7      93.0       33     60.1      0.00      0.00      85.5     0.32      1013.0     6        32         9        37        8.14     268      608.1
   07/15/2017 12:50      93.9      92.9       34     60.9      0.00      0.00      85.4     0.32      1013.0     4        45         9        69        8.15     268      493.3
   07/15/2017 12:40      94.0      93.5       34     61.3      0.00      0.00      85.3     0.32      1013.0     4        48         6        33        8.15     268      537.9
   07/15/2017 12:30      94.9      93.5       33     60.6      0.00      0.00      85.5     0.32      1013.0     5        53         8        79        8.15     268      554.0
   07/15/2017 12:20      95.4      94.7       31     59.9      0.00      0.00      85.3     0.32      1013.0     4        66         7        74        8.15     268      547.9
   07/15/2017 12:10      95.9      94.6       30     59.2      0.00      0.00      85.3     0.32      1013.0     3        56         5        68        8.15     268      541.2
   07/15/2017 12:00      95.2      94.2       29     57.1      0.00      0.00      85.3     0.32      1013.0     4        44         5        34        8.15     268      533.8
   07/15/2017 11:50      94.4      93.5       28     55.8      0.00      0.00      85.5     0.32      1013.0     4        25         6        65        8.15     268      527.3
   07/15/2017 11:40      93.8      92.4       28     55.0      0.00      0.00      85.3     0.32      1013.0     4        27         7        60        8.15     269      520.7
   07/15/2017 11:30      92.7      92.3       29     55.2      0.00      0.00      85.5     0.32      1013.0     3        17         5        85        8.15     269      515.2
   07/15/2017 11:20      92.5      91.8       29     55.2      0.00      0.00      85.3     0.32      1013.0     3        63         5       357        8.15     269      506.7
   07/15/2017 11:10      91.9      89.7       31     55.8      0.00      0.00      85.3     0.32      1014.0     2       354         4       357        8.16     269      498.9
   07/15/2017 11:00      89.8      88.9       32     55.9      0.00      0.00      85.4     0.32      1014.0     3        17         4         0        8.16     270      487.8
   07/15/2017 10:50      89.2      88.0       34     56.3      0.00      0.00      85.3     0.32      1014.0     3         9         4        36        8.16     270      477.1
   07/15/2017 10:40      88.4      86.6       35     56.3      0.00      0.00      85.5     0.32      1014.0     3       358         3         4        8.16     270      464.5
   07/15/2017 10:30      86.7      85.3       36     56.0      0.00      0.00      85.6     0.32      1014.0     2       353         4         8        8.16     270      453.0
   07/15/2017 10:20      86.2      85.3       36     55.9      0.00      0.00      85.3     0.33      1014.0     3         2         4       340        8.16     270      443.2
   07/15/2017 10:10      86.1      85.3       36     55.6      0.00      0.00      85.4     0.33      1014.0     2       334         3        11        8.16     270      427.0
   07/15/2017 10:00      85.1      83.4       38     55.5      0.00      0.00      85.7     0.33      1014.0     2         3         3       341        8.16     270      409.3
   07/15/2017 09:50      83.1      82.2       39     55.1      0.00      0.00      85.9     0.33      1014.0     2        35         3        55        8.16     270      392.1
   07/15/2017 09:40      82.0      80.8       40     54.6      0.00      0.00      85.7     0.33      1015.0     2        22         3        94        8.16     270      374.8
   07/15/2017 09:30      81.0      80.5       40     54.3      0.00      0.00      85.5     0.33      1015.0     2        29         3        31        8.16     270      358.2
   07/15/2017 09:20      80.7      78.9       41     54.4      0.00      0.00      85.8     0.33      1015.0     3        92         4        87        8.17     270      344.2
   07/15/2017 09:10      79.0      78.3       43     54.5      0.00      0.00      85.9     0.33      1015.0     3        86         6        72        8.17     270      333.8
   07/15/2017 09:00      78.2      76.3       45     54.5      0.00      0.00      85.9     0.33      1015.0     3        58         5        83        8.17     270      334.2
   07/15/2017 08:50      76.4      75.3       50     55.6      0.00      0.00      85.7     0.33      1015.0     2        64         3        76        8.17     270      283.1
   07/15/2017 08:40      75.3      74.8       52     56.1      0.00      0.00      85.6     0.33      1015.0     3        10         4         5        8.17     270       13.4
   07/15/2017 08:30      74.8      74.2       53     56.4      0.00      0.00      86.0     0.33      1015.0     3        56         4        28        8.17     270      -17.7
   07/15/2017 08:20      74.4      74.1       54     56.7      0.00      0.00      85.9     0.33      1015.0     2        46         4        60        8.17     270      -17.5
   07/15/2017 08:10      74.1      73.5       54     56.1      0.00      0.00      86.0     0.33      1015.0     3        73         4        73        8.17     270      -11.9
   07/15/2017 08:00      73.5      72.6       57     56.8      0.00      0.00      86.0     0.33      1015.0     3        54         5        96        8.17     270        8.4
   07/15/2017 07:50      72.8      72.2       59     57.1      0.00      0.00      85.8     0.33      1015.0     3        85         4       104        8.17     270        1.5
   07/15/2017 07:40      72.2      71.6       60     57.1      0.00      0.00      85.7     0.33      1015.0     3        86         5        65        8.17     270      -20.4
   07/15/2017 07:30      71.6      70.9       61     57.0      0.00      0.00      85.9     0.33      1014.0     2       106         3        88        8.17     270      -22.4
   07/15/2017 07:20      70.8      70.0       63     57.0      0.00      0.00      85.9     0.33      1014.0     2       103         2        98        8.17     270      -19.4
   07/15/2017 07:10      69.9      69.1       64     57.0      0.00      0.00      86.2     0.33      1014.0     2       128         3       126        8.17     270      -24.9
   07/15/2017 07:00      69.1      67.7       67     57.1      0.00      0.00      86.2     0.33      1014.0     2       150         3       149        8.17     270      -31.3
   07/15/2017 06:50      67.9      66.3       70     56.8      0.00      0.00      85.8     0.33      1014.0     3       154         3       161        8.17     270      -34.0
   07/15/2017 06:40      66.5      65.9       71     56.4      0.00      0.00      86.1     0.33      1014.0     2       157         3       145        8.17     270      -39.3
   07/15/2017 06:30      66.0      65.6       71     56.2      0.00      0.00      86.3     0.33      1014.0     2       135         3       137        8.17     270      -45.0
   07/15/2017 06:20      65.7      65.1       72     56.0      0.00      0.00      86.5     0.33      1014.0     1       208         2       236        8.17     270      -44.8
   07/15/2017 06:10      65.0      64.4       73     55.8      0.00      0.00      86.0     0.34      1014.0     2       215         3       151        8.17     269      -49.1
   07/15/2017 06:00      64.6      64.4       73     55.7      0.00      0.00      86.3     0.34      1014.0     2       142         2       136        8.18     269      -53.0
   07/15/2017 05:50      65.1      64.8       71     55.2      0.00      0.00      86.1     0.34      1014.0     1       143         2       140        8.17     269      -55.0
   07/15/2017 05:40      65.2      64.8       71     55.5      0.00      0.00      86.4     0.33      1014.0     1       215         1       193        8.18     269      -54.3
   07/15/2017 05:30      65.2      64.9       72     55.9      0.00      0.00      86.3     0.34      1013.0     0        86         1        83        8.18     269      -55.2
   07/15/2017 05:20      65.5      65.2       72     56.0      0.00      0.00      86.5     0.34      1013.0     1       103         1       104        8.18     269      -55.6
   07/15/2017 05:10      65.7      65.3       72     56.3      0.00      0.00      86.4     0.34      1013.0     1       199         2       152        8.18     269      -56.3
   07/15/2017 05:00      65.8      65.5       73     56.7      0.00      0.00      86.4     0.34      1013.0     1       142         2       165        8.18     269      -56.2
   07/15/2017 04:50      65.9      65.7       73     56.8      0.00      0.00      86.5     0.34      1013.0     2       146         2       147        8.18     269      -56.9
   07/15/2017 04:40      65.7      65.1       73     56.6      0.00      0.00      86.5     0.34      1013.0     2       162         3       143        8.18     269      -57.3
   07/15/2017 04:30      66.0      65.4       72     56.4      0.00      0.00      86.7     0.34      1013.0     3       153         3       158        8.18     269      -57.7
   07/15/2017 04:20      66.2      66.0       72     57.0      0.00      0.00      86.5     0.34      1013.0     2       144         3       133        8.18     269      -58.0
   07/15/2017 04:10      66.3      66.0       73     57.1      0.00      0.00      86.8     0.34      1013.0     1       186         1       204        8.18     269      -57.5
   07/15/2017 04:00      66.2      65.7       74     57.5      0.00      0.00      86.8     0.34      1013.0     1       175         1       155        8.18     269      -58.7
   07/15/2017 03:50      65.9      65.7       74     57.3      0.00      0.00      86.9     0.34      1013.0     2       146         3       141        8.18     269      -58.9
   07/15/2017 03:40      66.0      65.8       74     57.5      0.00      0.00      86.6     0.34      1013.0     1       173         3       142        8.18     269      -59.1
   07/15/2017 03:30      66.6      65.9       73     57.4      0.00      0.00      86.8     0.34      1013.0     2       151         2       147        8.18     269      -59.5
   07/15/2017 03:20      66.8      66.6       73     57.6      0.00      0.00      86.8     0.34      1013.0     1       176         2       152        8.18     269      -59.2
   07/15/2017 03:10      66.9      66.7       72     57.6      0.00      0.00      86.8     0.34      1014.0     1       161         1       138        8.18     269      -59.8
   07/15/2017 03:00      67.3      66.7       71     57.2      0.00      0.00      86.9     0.34      1014.0     1       146         2       154        8.18     269      -59.8
   07/15/2017 02:50      67.3      67.0       70     57.3      0.00      0.00      86.9     0.34      1014.0     1       173         1       192        8.18     269      -59.8
   07/15/2017 02:40      67.2      66.8       69     56.6      0.00      0.00      87.0     0.34      1014.0     1       191         1       190        8.18     269      -59.2
   07/15/2017 02:30      67.1      66.8       69     56.3      0.00      0.00      87.0     0.34      1014.0     1       151         1       135        8.18     269      -59.5
   07/15/2017 02:20      67.3      67.0       68     56.2      0.00      0.00      86.9     0.34      1014.0     1       151         2       142        8.18     269      -61.0
   07/15/2017 02:10      67.2      66.8       67     55.7      0.00      0.00      87.1     0.34      1014.0     2       141         2       162        8.18     269      -61.6
   07/15/2017 02:00      68.1      67.3       65     55.6      0.00      0.00      87.2     0.34      1014.0     2       137         2       130        8.18     269      -62.2
   07/15/2017 01:50      68.1      68.1       65     55.9      0.00      0.00      87.1     0.34      1014.0     1       169         1       157        8.18     269      -62.3
   07/15/2017 01:40      68.3      68.1       64     55.6      0.00      0.00      87.3     0.34      1014.0     1       169         1       159        8.18     269      -62.6
   07/15/2017 01:30      68.6      68.3       63     55.5      0.00      0.00      86.8     0.34      1014.0     1       176         1       148        8.18     269      -62.5
   07/15/2017 01:20      68.9      68.6       62     55.3      0.00      0.00      87.3     0.34      1014.0     1       129         1       150        8.18     268      -63.4
   07/15/2017 01:10      69.2      68.5       61     55.0      0.00      0.00      87.3     0.34      1014.0     1       136         2       142        8.18     269      -64.3
   07/15/2017 01:00      69.5      69.2       60     55.1      0.00      0.00      87.3     0.34      1014.0     1        74         1       142        8.25     268      -65.4
   07/15/2017 00:50      70.2      69.6       59     55.0      0.00      0.00      87.2     0.34      1014.0     1       104         2       129        8.25     268      -67.3
   07/15/2017 00:40      70.4      70.2       59     55.1      0.00      0.00      87.3     0.34      1014.0     1        75         2        85        8.25     269      -68.6
   07/15/2017 00:30      70.5      70.3       59     55.5      0.00      0.00      87.2     0.34      1014.0     2        99         3        78        8.25     269      -68.6
   07/15/2017 00:20      71.0      70.7       60     56.3      0.00      0.00      87.1     0.34      1014.0     2       100         2        65        8.26     269      -68.7
   07/15/2017 00:10      71.3      70.9       61     56.8      0.00      0.00      87.0     0.34      1015.0     2       115         3       128        8.26     269      -69.2
   07/15/2017 00:00      71.5      71.3       61     57.2      0.00      0.00      87.3     0.34      1015.0     2        99         2        85        8.26     269      -69.3
   07/14/2017 23:50      71.9      71.7       60     57.3      0.00      0.00      87.3     0.34      1015.0     2        66         3        64        8.26     268      -69.2
   07/14/2017 23:40      72.3      71.9       62     58.1      0.00      0.00      87.2     0.34      1015.0     2        71         3        71        8.26     268      -69.7
   07/14/2017 23:30      72.5      72.1       61     58.2      0.00      0.00      87.2     0.34      1015.0     2        70         3        74        8.26     268      -70.1
   07/14/2017 23:20      72.8      72.5       61     58.3      0.00      0.00      87.4     0.34      1015.0     2        65         3        69        8.26     268      -70.3
   07/14/2017 23:10      73.3      72.8       60     58.1      0.00      0.00      87.2     0.34      1015.0     2        63         5        71        8.26     268      -70.4
   07/14/2017 23:00      73.9      73.5       58     58.1      0.00      0.00      87.4     0.34      1015.0     2        54         3        38        8.26     268      -70.9
   07/14/2017 22:50      74.4      73.9       57     58.1      0.00      0.00      87.5     0.34      1015.0     2        43         3        50        8.26     268      -71.0
   07/14/2017 22:40      74.9      74.6       55     57.8      0.00      0.00      87.3     0.34      1015.0     2        39         3        61        8.26     268      -71.5
   07/14/2017 22:30      75.5      75.0       54     57.7      0.00      0.00      87.3     0.34      1015.0     2        58         3        65        8.27     268      -71.8
   07/14/2017 22:20      75.8      75.6       54     57.9      0.00      0.00      87.2     0.34      1015.0     1        45         2        36        8.27     268      -72.6
   07/14/2017 22:10      76.2      75.9       54     58.0      0.00      0.00      87.3     0.34      1015.0     1        64         3        79        8.28     268      -73.5
   07/14/2017 22:00      76.5      76.1       53     58.0      0.00      0.00      87.3     0.34      1015.0     1        51         2        36        8.28     267      -74.3
   07/14/2017 21:50      77.3      76.6       52     58.0      0.00      0.00      87.5     0.34      1014.0     1        89         1       105        8.28     267      -75.3
   07/14/2017 21:40      77.8      77.4       51     58.1      0.00      0.00      87.3     0.34      1014.0     1        37         2        19        8.28     267      -76.0
   07/14/2017 21:30      78.1      77.7       51     58.1      0.00      0.00      87.4     0.34      1014.0     2        40         2        19        8.28     267      -76.4
   07/14/2017 21:20      78.8      78.2       50     58.0      0.00      0.00      87.4     0.33      1014.0     2        73         3        75        8.28     267      -77.1
   07/14/2017 21:10      79.6      78.9       47     57.1      0.00      0.00      87.5     0.33      1014.0     2        70         4       110        8.28     267      -77.3
   07/14/2017 21:00      80.5      80.0       41     54.6      0.00      0.00      87.4     0.33      1014.0     1       195         2       245        8.28     267      -77.7
   07/14/2017 20:50      81.0      80.6       40     54.5      0.00      0.00      87.5     0.33      1014.0     3       232         4       234        8.28     267      -79.4
   07/14/2017 20:40      81.7      81.0       40     54.8      0.00      0.00      87.2     0.33      1014.0     2       197         3       192        8.28     266      -81.0
   07/14/2017 20:30      82.5      81.8       39     54.4      0.00      0.00      87.2     0.33      1014.0     2       230         4       236        8.28     266      -82.5
   07/14/2017 20:20      83.2      82.6       36     53.5      0.00      0.00      87.2     0.33      1014.0     3       239         3       242        8.28     266      -83.2
   07/14/2017 20:10      84.0      83.2       35     52.9      0.00      0.00      87.2     0.33      1014.0     4       229         5       243        8.29     266      -82.6
   07/14/2017 20:00      84.6      84.0       34     53.3      0.00      0.00      87.1     0.33      1014.0     3       228         5       243        8.29     266      -81.0
   07/14/2017 19:50      85.3      84.6       35     54.0      0.00      0.00      87.1     0.33      1013.0     5       234         7       238        8.29     266      -77.0
   07/14/2017 19:40      86.5      85.3       34     54.3      0.00      0.00      87.1     0.33      1013.0     3       219         5       255        8.29     266      -67.2
   07/14/2017 19:30      87.9      86.5       32     54.0      0.00      0.00      87.1     0.33      1013.0     4       233         6       214        8.29     266      -59.0
   07/14/2017 19:20      88.9      88.3       32     55.3      0.00      0.00      87.1     0.33      1013.0     4       257         5       261        8.29     266      -44.8
   07/14/2017 19:10      89.6      88.9       32     55.6      0.00      0.00      86.9     0.33      1013.0     3       281         4       281        8.30     266      -27.4
   07/14/2017 19:00      90.0      89.5       32     56.0      0.00      0.00      86.8     0.33      1013.0     4       295         7       298        8.38     266       -6.1
   07/14/2017 18:50      90.3      89.9       32     56.4      0.00      0.00      86.9     0.33      1013.0     4       306         6       343        8.39     267       15.6
   07/14/2017 18:40      91.1      90.0       32     56.5      0.00      0.00      87.0     0.33      1013.0     5       306         7       318        8.40     267       39.1
   07/14/2017 18:30      91.1      90.7       32     56.6      0.00      0.00      86.8     0.33      1013.0     5       314         8       327        8.40     267       64.0
   07/14/2017 18:20      91.9      91.1       31     56.5      0.00      0.00      87.0     0.33      1013.0     6       307         8       304        8.40     266       88.6
   07/14/2017 18:10      92.8      91.9       30     56.4      0.00      0.00      86.8     0.33      1013.0     4       310         7       268        8.40     266      113.6
   07/14/2017 18:00      93.6      92.2       29     56.2      0.00      0.00      86.8     0.33      1013.0     5       313         7       320        8.40     267      136.3
   07/14/2017 17:50      94.9      93.7       26     54.4      0.00      0.00      86.8     0.33      1013.0     4       330         6       335        8.40     266      154.2
   07/14/2017 17:40      95.5      94.4       24     52.6      0.00      0.00      86.6     0.33      1013.0     2        25         4       322        8.41     267      173.8
   07/14/2017 17:30      94.9      94.4       24     52.1      0.00      0.00      86.7     0.33      1013.0     4        12         7       347        8.41     267      197.2
   07/14/2017 17:20      95.7      94.7       23     51.6      0.00      0.00      86.7     0.33      1013.0     4        24         5       355        8.41     267      221.1
   07/14/2017 17:10      95.0      94.2       23     51.2      0.00      0.00      86.4     0.33      1013.0     2        20         3        26        8.41     267      243.7
   07/14/2017 17:00      95.1      94.0       23     51.3      0.00      0.00      86.5     0.33      1013.0     3        37         7        67        8.41     267      264.4
   07/14/2017 16:50      95.1      94.2       23     51.4      0.00      0.00      86.3     0.33      1013.0     4        44         7        76        8.42     267      284.5
   07/14/2017 16:40      94.8      93.8       23     51.3      0.00      0.00      86.4     0.33      1013.0     3        30         4        27        8.42     267      307.9
   07/14/2017 16:30      94.4      93.9       23     51.2      0.00      0.00      86.3     0.33      1014.0     3        52         5        78        8.42     267      324.3
   07/14/2017 16:20      94.1      93.4       24     51.1      0.00      0.00      86.2     0.33      1014.0     3        33         5        54        8.42     267      343.8
   07/14/2017 16:10      94.1      93.5       23     50.8      0.00      0.00      86.1     0.33      1014.0     4        39         5        29        8.42     267      361.1
   07/14/2017 16:00      94.4      92.7       24     51.1      0.00      0.00      86.1     0.33      1014.0     5        79         7        75        8.42     267      380.3
   07/14/2017 15:50      94.6      94.1       24     52.0      0.00      0.00      86.1     0.33      1014.0     3        42         5        43        8.42     267      392.6
   07/14/2017 15:40      94.8      93.7       25     52.9      0.00      0.00      86.0     0.33      1014.0     4        73         5        78        8.43     267      415.9
   07/14/2017 15:30      94.7      94.2       25     53.6      0.00      0.00      85.8     0.33      1014.0     4        45         5        69        8.48     267      425.4
   07/14/2017 15:20      94.6      94.2       25     53.3      0.00      0.00      85.8     0.33      1014.0     3        45         5        73        8.50     267      437.5
   07/14/2017 15:10      94.7      94.4       25     53.7      0.00      0.00      85.8     0.33      1014.0     4        62         6        63        8.50     267      452.1
   07/14/2017 15:00      94.9      94.1       25     53.9      0.00      0.00      85.7     0.32      1014.0     4        46         6        85        8.51     267      463.4
   07/14/2017 14:50      94.9      93.3       25     53.4      0.00      0.00      85.6     0.32      1014.0     5        63         6        64        8.51     267      481.5
   07/14/2017 14:40      94.9      94.0       25     53.4      0.00      0.00      85.7     0.32      1014.0     4        36         8        78        8.51     267      477.2
   07/14/2017 14:30      93.9      93.0       25     52.8      0.00      0.00      85.6     0.32      1015.0     4        51         8        79        8.52     267      493.7
   07/14/2017 14:20      93.0      91.6       26     52.9      0.00      0.00      85.6     0.32      1015.0     3        57         5        88        8.52     267      514.4
   07/14/2017 14:10      93.9      92.5       26     53.0      0.00      0.00      85.4     0.32      1015.0     5        58         6        62        8.52     268      519.3
   07/14/2017 14:00      93.3      91.9       27     53.6      0.00      0.00      85.4     0.32      1015.0     3        54         4        50        8.52     268      524.7
   07/14/2017 13:50      93.1      92.3       27     53.6      0.00      0.00      85.4     0.32      1015.0     3        54         6        83        8.52     268      533.4
   07/14/2017 13:40      93.3      92.2       27     54.4      0.00      0.00      85.5     0.32      1015.0     3        52         5        63        8.52     268      538.7
   07/14/2017 13:30      92.2      91.2       28     54.5      0.00      0.00      85.2     0.32      1015.0     3        63         5        80        8.52     268      545.1
   07/14/2017 13:20      91.8      91.0       30     55.3      0.00      0.00      85.4     0.32      1015.0     3        52         6       110        8.52     268      544.9
   07/14/2017 13:10      91.5      90.7       31     56.1      0.00      0.00      85.2     0.32      1015.0     4        47         7        74        8.52     268      546.0
   07/14/2017 13:00      91.1      90.1       31     56.1      0.00      0.00      85.2     0.32      1015.0     3        47         5        82        8.53     268      545.8
   07/14/2017 12:50      90.2      88.9       33     56.4      0.00      0.00      85.0     0.32      1015.0     3        52         7        57        8.53     268      534.9
   07/14/2017 12:40      90.1      89.0       33     56.6      0.00      0.00      85.2     0.32      1015.0     3        29         5        30        8.53     268      545.7
   07/14/2017 12:30      90.7      90.0       32     56.1      0.00      0.00      85.0     0.32      1016.0     3        39         5        72        8.53     268      553.1
   07/14/2017 12:20      90.1      89.7       31     55.5      0.00      0.00      85.1     0.32      1016.0     3        49         4        42        8.55     269      552.0
   07/14/2017 12:10      90.0      87.8       33     56.0      0.00      0.00      85.1     0.32      1016.0     2        19         4        38        8.55     269      549.5
   07/14/2017 12:00      87.9      87.0       35     56.3      0.00      0.00      85.1     0.32      1016.0     3       334         5       328        8.55     269      547.5
   07/14/2017 11:50      87.1      86.5       36     56.8      0.00      0.00      85.1     0.32      1016.0     4       317         6       343        8.56     269      541.4
   07/14/2017 11:40      87.1      86.2       36     56.6      0.00      0.00      85.2     0.32      1016.0     3       344         6       322        8.56     270      534.8
   07/14/2017 11:30      86.3      84.8       39     57.5      0.00      0.00      85.2     0.32      1016.0     3       348         5         2        8.56     270      528.5
   07/14/2017 11:20      85.1      84.5       39     57.6      0.00      0.00      85.4     0.32      1016.0     3        16         5         1        8.57     270      521.5
   07/14/2017 11:10      85.0      83.7       40     57.5      0.00      0.00      85.3     0.32      1016.0     2       302         4        11        8.57     270      513.6
   07/14/2017 11:00      83.9      82.2       42     57.5      0.00      0.00      85.2     0.32      1016.0     2       323         5       337        8.57     270      504.5
   07/14/2017 10:50      83.2      81.8       43     57.5      0.00      0.00      85.3     0.32      1016.0     3       348         4        37        8.57     270      493.8
   07/14/2017 10:40      81.9      81.4       44     57.7      0.00      0.00      85.3     0.33      1016.0     3        14         4        26        8.58     270      482.6
   07/14/2017 10:30      81.6      80.5       45     57.9      0.00      0.00      85.4     0.33      1016.0     3         4         4        29        8.58     -41      470.0
   07/14/2017 10:20      81.2      80.2       46     58.3      0.00      0.00      85.3     0.33      1016.0     3         8         5       351        8.58      33      453.7
   07/14/2017 10:10      79.8      78.9       49     58.4      0.00      0.00      85.2     0.33      1016.0     3        43         6        52        8.58      35      439.9
   07/14/2017 10:00      79.0      78.3       50     58.6      0.00      0.00      85.3     0.33      1016.0     3        19         5        29        8.58     -26      425.0
   07/14/2017 09:50      78.5      78.2       51     58.8      0.00      0.00      85.2     0.33      1016.0     3        28         4        25        8.58     -49      406.0
   07/14/2017 09:40      78.5      77.7       52     58.9      0.00      0.00      85.3     0.33      1016.0     3        11         5        28        8.58     -26      391.2
   07/14/2017 09:30      77.6      77.3       53     59.3      0.00      0.00      85.5     0.33      1016.0     3         7         5       339        8.58     271      371.3
   07/14/2017 09:20      77.7      76.5       55     59.7      0.00      0.00      85.8     0.33      1016.0     3        56         4        57        8.58     271      356.3
   07/14/2017 09:10      76.4      74.9       58     59.8      0.00      0.00      85.3     0.33      1016.0     3        44         5        60        8.58     271      341.0
   07/14/2017 09:00      74.8      73.2       61     59.7      0.00      0.00      85.6     0.33      1016.0     3        10         6        90        8.58     271      338.0
   07/14/2017 08:50      73.2      72.6       63     59.6      0.00      0.00      85.6     0.33      1016.0     2        27         3        40        8.58     271      259.9
   07/14/2017 08:40      72.8      71.5       65     59.5      0.00      0.00      85.9     0.34      1016.0     2        26         3        23        8.58     271       15.8
   07/14/2017 08:30      71.7      71.2       65     59.3      0.00      0.00      85.6     0.34      1016.0     2         6         4       339        8.58     271      -14.5
   07/14/2017 08:20      71.4      70.9       67     59.5      0.00      0.00      85.5     0.34      1016.0     2        41         5        81        8.58     271      -15.2
   07/14/2017 08:10      70.9      70.3       67     59.2      0.00      0.00      85.7     0.34      1016.0     2        45         3        22        8.58     271      -10.2
   07/14/2017 08:00      70.3      69.5       69     59.5      0.00      0.00      85.8     0.34      1016.0     2        35         3        91        8.59     271       14.2
   07/14/2017 07:50      69.5      69.1       71     59.4      0.00      0.00      85.8     0.34      1016.0     2        66         2       358        8.59     271       -2.4
   07/14/2017 07:40      69.2      68.6       72     59.5      0.00      0.00      85.7     0.34      1016.0     2        82         3        82        8.59     271      -19.0
   07/14/2017 07:30      68.6      68.2       73     59.5      0.00      0.00      85.5     0.34      1016.0     1        53         2        72        8.59     271      -20.8
   07/14/2017 07:20      68.2      67.5       74     59.4      0.00      0.00      85.7     0.34      1016.0     1        56         2        69        8.59     271      -18.7
   07/14/2017 07:10      67.6      66.7       75     59.0      0.00      0.00      85.7     0.34      1016.0     1        73         2        58        8.59     270      -23.0
   07/14/2017 07:00      66.8      65.9       77     58.9      0.00      0.00      86.0     0.34      1016.0     1       144         1       141        8.59     270      -29.6
   07/14/2017 06:50      66.0      65.1       78     58.7      0.00      0.00      85.9     0.34      1015.0     1       138         2       149        8.59     270      -32.7
   07/14/2017 06:40      65.3      64.5       80     58.6      0.00      0.00      85.9     0.34      1015.0     1       165         2       139        8.59     270      -38.1
   07/14/2017 06:30      64.6      63.7       82     58.3      0.00      0.00      86.0     0.34      1015.0     1       128         1        78        8.59     270      -43.8
   07/14/2017 06:20      63.8      63.3       82     57.8      0.00      0.00      86.1     0.34      1015.0     1       118         2       120        8.59     270      -43.9
   07/14/2017 06:10      64.2      63.5       80     57.5      0.00      0.00      86.2     0.34      1015.0     1        85         1       100        8.72     270      -48.6
   07/14/2017 06:00      64.3      63.8       81     58.2      0.00      0.00      86.3     0.34      1015.0     1       317         2       319        8.72     270      -51.5
   07/14/2017 05:50      63.9      63.5       83     58.4      0.00      0.00      86.1     0.34      1015.0     2       211         2       174        8.72     270      -53.3
   07/14/2017 05:40      63.5      62.9       84     58.5      0.00      0.00      86.2     0.34      1015.0     2       171         2       162        8.73     270      -55.0
   07/14/2017 05:30      63.2      62.8       84     57.9      0.00      0.00      86.0     0.34      1015.0     2       149         2       153        8.73     270      -56.3
   07/14/2017 05:20      63.4      62.9       83     57.8      0.00      0.00      86.3     0.34      1015.0     1       135         2       124        8.73     270      -56.8
   07/14/2017 05:10      63.7      63.4       83     58.1      0.00      0.00      86.7     0.34      1015.0     1       192         2       195        8.73     270      -56.5
   07/14/2017 05:00      63.9      63.4       83     58.3      0.00      0.00      86.5     0.34      1015.0     1       199         2       196        8.73     270      -56.1
   07/14/2017 04:50      63.8      63.7       83     58.4      0.00      0.00      86.5     0.34      1015.0     1       161         1       164        8.73     269      -57.3
   07/14/2017 04:40      64.0      63.7       82     58.4      0.00      0.00      86.6     0.34      1015.0     1       153         2       149        8.73     269      -58.0
   07/14/2017 04:30      64.3      64.0       82     58.4      0.00      0.00      86.4     0.34      1015.0     1       133         1       147        8.73     269      -58.1
   07/14/2017 04:20      64.5      64.1       81     58.4      0.00      0.00      86.6     0.34      1015.0     0        96         1       133        8.73     269      -59.3
   07/14/2017 04:10      64.8      64.4       80     58.4      0.00      0.00      86.7     0.34      1015.0     0       111         1       349        8.74     269      -60.3
   07/14/2017 04:00      65.3      64.9       79     58.4      0.00      0.00      86.8     0.34      1015.0     1        51         1        72        8.74     269      -61.8
   07/14/2017 03:50      65.4      65.2       79     58.6      0.00      0.00      86.7     0.34      1015.0     2        76         2        75        8.74     270      -63.1
   07/14/2017 03:40      65.5      65.2       79     58.7      0.00      0.00      86.9     0.34      1015.0     2        97         2        98        8.74     269      -63.1
   07/14/2017 03:30      65.6      65.2       79     58.7      0.00      0.00      86.8     0.34      1015.0     2       106         2       102        8.74     269      -62.8
   07/14/2017 03:20      65.5      65.2       78     58.2      0.00      0.00      86.7     0.34      1015.0     2       102         2       106        8.74     269      -62.7
   07/14/2017 03:10      66.0      65.5       77     58.3      0.00      0.00      86.8     0.34      1016.0     1       107         2       100        8.74     269      -63.0
   07/14/2017 03:00      66.3      65.8       76     58.4      0.00      0.00      86.9     0.34      1016.0     1       106         2       115        8.74     269      -63.3
   07/14/2017 02:50      66.8      66.4       75     58.6      0.00      0.00      86.7     0.34      1016.0     1        90         2       120        8.75     269      -64.6
   07/14/2017 02:40      67.2      66.8       74     58.6      0.00      0.00      86.7     0.34      1016.0     2        73         3        69        8.75     269      -65.1
   07/14/2017 02:30      67.4      67.3       74     58.8      0.00      0.00      87.2     0.34      1016.0     2        50         2        62        8.75     269      -65.5
   07/14/2017 02:20      67.8      67.4       74     59.0      0.00      0.00      86.9     0.34      1016.0     2        60         3        75        8.75     269      -65.8
   07/14/2017 02:10      68.3      67.7       73     59.2      0.00      0.00      86.8     0.34      1016.0     2        51         3        57        8.75     269      -66.1
   07/14/2017 02:00      68.4      68.1       73     59.3      0.00      0.00      87.2     0.34      1016.0     2        38         3        32        8.75     269      -65.7
   07/14/2017 01:50      69.0      68.5       73     59.7      0.00      0.00      86.9     0.34      1016.0     3        40         3        46        8.75     269      -66.1
   07/14/2017 01:40      69.3      69.1       73     60.2      0.00      0.00      87.1     0.34      1016.0     2        40         3        31        8.75     269      -65.4
   07/14/2017 01:40      69.3      69.1       73     60.2      0.00      0.00      87.1     0.34      1016.0     2        40         3        31        8.75     269      -65.4
   07/14/2017 01:30      69.2      69.1       73     60.1      0.00      0.00      87.1     0.34      1016.0     2        53         3        51        8.75     269      -64.8
   07/14/2017 01:20      69.3      69.2       72     60.0      0.00      0.00      87.2     0.34      1016.0     2        55         3       100        8.75     269      -64.6
   07/14/2017 01:10      69.3      69.1       72     59.8      0.00      0.00      87.1     0.34      1016.0     1        64         2        60        8.75     269      -63.6
   07/14/2017 01:00      69.7      69.2       71     59.5      0.00      0.00      87.1     0.34      1016.0     1        57         2        67        8.75     268      -64.3
   07/14/2017 00:50      69.9      69.3       70     59.4      0.00      0.00      87.3     0.34      1016.0     1        94         1        77        8.75     268      -64.2
   07/14/2017 00:40      70.2      69.8       69     59.5      0.00      0.00      87.2     0.34      1016.0     1        68         2        41        8.75     268      -63.9
   07/14/2017 00:30      70.3      70.1       70     59.8      0.00      0.00      87.1     0.34      1016.0     1        55         1       353        8.76     268      -62.9
   07/14/2017 00:20      70.3      70.1       68     59.1      0.00      0.00      87.1     0.34      1016.0     1        52         1        62        8.76     268      -63.7
   07/14/2017 00:10      70.9      70.3       65     58.2      0.00      0.00      87.3     0.34      1016.0     1        90         2        79        8.76     268      -64.0
   07/14/2017 00:00      71.3      70.9       64     58.5      0.00      0.00      87.2     0.34      1016.0     1        87         1       105        8.76     268      -63.6
   07/13/2017 23:50      71.5      71.2       63     58.2      0.00      0.00      87.4     0.34      1016.0     1        76         1        73        8.76     268      -65.0
   07/13/2017 23:40      71.5      71.2       59     56.0      0.00      0.00      87.3     0.34      1016.0     1        90         1         7        8.76     267      -65.5
   07/13/2017 23:30      72.0      71.5       56     55.1      0.00      0.00      87.3     0.34      1016.0     1       338         2        68        8.76     267      -65.8
   07/13/2017 23:20      73.3      72.0       53     54.7      0.00      0.00      87.4     0.34      1016.0     1       163         1       142        8.76     268      -67.8
   07/13/2017 23:10      73.3      72.9       53     55.2      0.00      0.00      87.4     0.34      1015.0     1       247         2       273        8.76     267      -68.3
   07/13/2017 23:00      73.3      72.7       54     55.3      0.00      0.00      87.3     0.34      1015.0     2       166         2       215        8.76     267      -69.4
   07/13/2017 22:50      73.9      73.3       52     55.0      0.00      0.00      87.4     0.34      1015.0     1       159         2       126        8.76     267      -70.9
   07/13/2017 22:40      74.7      74.2       50     54.8      0.00      0.00      87.3     0.34      1015.0     1        65         1        91        8.77     267      -72.0
   07/13/2017 22:30      74.7      74.4       50     54.9      0.00      0.00      87.4     0.34      1015.0     2       244         3       225        8.77     267      -72.4
   07/13/2017 22:20      74.5      74.4       51     55.1      0.00      0.00      87.3     0.34      1015.0     2       187         3       165        8.77     267      -72.7
   07/13/2017 22:10      75.3      74.7       50     55.0      0.00      0.00      87.4     0.34      1015.0     3       164         4       166        8.77     267      -72.9
   07/13/2017 22:00      75.8      75.4       48     54.7      0.00      0.00      87.4     0.34      1015.0     3       191         4       199        8.77     267      -74.0
   07/13/2017 21:50      76.0      75.6       48     54.8      0.00      0.00      87.3     0.34      1015.0     4       206         5       200        8.77     267      -75.0
   07/13/2017 21:40      76.4      76.0       47     54.5      0.00      0.00      87.5     0.34      1015.0     4       205         5       217        8.77     267      -75.1
   07/13/2017 21:30      77.1      76.3       46     54.4      0.00      0.00      87.4     0.34      1015.0     3       180         4       205        8.78     266      -75.5
   07/13/2017 21:20      77.9      77.4       43     53.4      0.00      0.00      87.3     0.34      1015.0     2       233         2       202        8.78     266      -75.8
   07/13/2017 21:10      78.0      77.8       42     53.1      0.00      0.00      87.4     0.34      1015.0     2       296         3       285        8.78     266      -76.6
   07/13/2017 21:00      78.2      77.8       42     53.4      0.00      0.00      87.3     0.34      1014.0     3       291         4       319        8.78     266      -77.6
   07/13/2017 20:50      78.6      78.2       42     53.6      0.00      0.00      87.3     0.34      1014.0     3       281         5       268        8.78     266      -79.6
   07/13/2017 20:40      79.4      78.8       41     53.0      0.00      0.00      87.3     0.34      1014.0     4       279         5       282        8.78     266      -80.7
   07/13/2017 20:30      79.7      79.4       40     53.1      0.00      0.00      87.2     0.34      1014.0     4       276         6       268        8.78     266      -82.3
   07/13/2017 20:20      80.4      79.8       40     53.3      0.00      0.00      87.1     0.34      1014.0     4       289         6       293        8.79     266      -83.2
   07/13/2017 20:10      80.9      80.3       39     53.5      0.00      0.00      87.3     0.34      1014.0     3       295         5       304        8.79     266      -83.2
   07/13/2017 20:00      81.6      80.9       38     53.5      0.00      0.00      87.1     0.34      1014.0     4       294         9       266        8.79     266      -81.4
   07/13/2017 19:50      82.6      81.6       36     52.8      0.00      0.00      87.2     0.34      1014.0     4       302         5       293        8.79     266      -77.6
   07/13/2017 19:40      83.8      82.8       34     52.3      0.00      0.00      87.0     0.34      1014.0     4       310         7       301        8.79     266      -67.2
   07/13/2017 19:30      84.8      84.0       33     52.1      0.00      0.00      87.2     0.34      1014.0     4       301         5       297        8.80     266      -57.1
   07/13/2017 19:20      86.0      85.0       32     52.4      0.00      0.00      87.2     0.34      1014.0     4       287         5       314        8.80     266      -43.4
   07/13/2017 19:10      86.2      85.9       32     52.4      0.00      0.00      87.1     0.34      1014.0     3       292         6       276        8.80     266      -25.7
   07/13/2017 19:00      86.6      85.8       31     52.4      0.00      0.00      87.1     0.34      1013.0     4       320         6       312        8.81     266        1.0
   07/13/2017 18:50      87.3      86.5       31     52.1      0.00      0.00      87.0     0.34      1013.0     5       291         7       319        8.81     266       16.2
   07/13/2017 18:40      88.8      87.5       29     52.2      0.00      0.00      87.0     0.34      1013.0     4       286         7       287        8.82     266       39.1
   07/13/2017 18:30      89.1      88.0       29     52.4      0.00      0.00      87.0     0.34      1013.0     5       286         8       303        8.83     266       70.0
   07/13/2017 18:20      89.9      88.8       29     52.7      0.00      0.00      86.9     0.34      1013.0     5       285         7       297        8.84     266       88.0
   07/13/2017 18:10      90.7      89.8       24     48.1      0.00      0.00      86.7     0.34      1013.0     5       276         9       231        8.84     266      109.3
   07/13/2017 18:00      91.1      90.8       23     47.6      0.00      0.00      86.8     0.34      1013.0     7       247         9       249        8.85     266      127.0
   07/13/2017 17:50      90.8      90.1       25     50.2      0.00      0.00      86.7     0.34      1013.0     6       231        10       231        8.85     265      158.7
   07/13/2017 17:40      91.3      90.3       25     50.3      0.00      0.00      86.8     0.34      1013.0     6       211         8       205        8.87     266      164.4
   07/13/2017 17:30      91.3      90.8       27     52.8      0.00      0.00      86.7     0.33      1013.0     6       230         8       246        8.89     266      211.4
   07/13/2017 17:20      93.1      91.7       27     53.9      0.00      0.00      86.7     0.33      1013.0     5       223         8       235        8.90     266      235.0
   07/13/2017 17:10      93.6      92.9       26     53.4      0.00      0.00      86.4     0.33      1013.0     6       275         9       239        8.90     267      255.4
   07/13/2017 17:00      93.8      93.2       27     54.5      0.00      0.00      86.4     0.33      1013.0     5       307         7       286        8.91     267      288.3
   07/13/2017 16:50      94.1      93.4       26     54.0      0.00      0.00      86.5     0.33      1013.0     6       339         9       335        8.91     267      251.8
   07/13/2017 16:40      95.3      94.4       24     52.6      0.00      0.00      86.2     0.33      1013.0     7       315         9       316        8.92     267      326.1
   07/13/2017 16:30      96.0      94.8       24     52.9      0.00      0.00      86.3     0.33      1013.0     7       305         9       295        8.92     267      362.4
   07/13/2017 16:20      96.0      94.2       26     55.1      0.00      0.00      86.1     0.33      1013.0     5        23         8       283        8.93     267      390.0
   07/13/2017 16:10      94.8      94.2       27     55.3      0.00      0.00      86.1     0.33      1013.0     7       338        10       174        8.93     267      410.6
   07/13/2017 16:00      94.4      93.5       29     56.4      0.00      0.00      86.1     0.33      1013.0     4       169         7       158        8.94     267      393.3
   07/13/2017 15:50      94.4      94.1       29     56.7      0.00      0.00      86.0     0.33      1013.0     4       135         7       147        8.95     267      401.8
   07/13/2017 15:40      94.0      93.5       29     56.8      0.00      0.00      86.1     0.33      1013.0     5       133         9       133        8.96     267      443.7
   07/13/2017 15:30      93.9      92.8       29     56.8      0.00      0.00      85.9     0.33      1013.0     5       137         9       116        8.96     267      452.6
   07/13/2017 15:20      93.0      92.0       30     56.2      0.00      0.00      85.9     0.33      1014.0     6       121        12       130        8.97     267      466.8
   07/13/2017 15:10      93.4      92.9       29     56.1      0.00      0.00      85.7     0.33      1014.0     5       155         8       162        8.97     267      465.6
   07/13/2017 15:00      93.5      92.4       30     56.5      0.00      0.00      85.7     0.33      1014.0     5       162         8       143        8.98     267      478.3
   07/13/2017 14:50      92.6      91.9       30     56.5      0.00      0.00      85.7     0.33      1014.0     5       139         8       140        8.99     267      499.1
   07/13/2017 14:40      93.4      91.8       30     56.1      0.00      0.00      85.7     0.33      1014.0     5       138         9       141        8.99     267      512.7
   07/13/2017 14:30      95.1      93.7       27     55.5      0.00      0.00      85.6     0.33      1014.0     4       161         9       140        9.00     267      520.2
   07/13/2017 14:20      93.8      92.4       29     55.6      0.00      0.00      85.5     0.33      1014.0     5        60         9        58        9.02     267      505.0
   07/13/2017 14:10      94.0      92.9       30     57.0      0.00      0.00      85.5     0.33      1014.0     5        78         8        71        9.02     267      532.3
   07/13/2017 14:00      94.2      93.3       30     57.8      0.00      0.00      85.6     0.33      1014.0     4        35         8        78        9.03     268      532.3
   07/13/2017 13:50      95.0      93.9       29     56.8      0.00      0.00      85.6     0.33      1014.0     3        38         5        15        9.03     268      527.4
   07/13/2017 13:40      94.3      92.5       28     55.5      0.00      0.00      85.4     0.33      1014.0     3       356         4       358        9.03     268      543.3
   07/13/2017 13:30      93.9      91.9       29     55.4      0.00      0.00      85.4     0.33      1015.0     3        32         4       355        9.04     268      558.0
   07/13/2017 13:20      92.8      91.9       29     55.3      0.00      0.00      85.3     0.33      1015.0     3       359         5       300        9.05     268      597.1
   07/13/2017 13:10      92.8      89.1       31     55.4      0.00      0.00      85.3     0.33      1015.0     2       156         4       181        9.06     268      603.6
   07/13/2017 13:00      89.8      88.8       31     55.0      0.00      0.00      85.3     0.33      1015.0     3       145         5       157        9.06     268      614.3
   07/13/2017 12:50      90.7      89.2       31     55.4      0.00      0.00      85.2     0.33      1015.0     4       128         5       123        9.07     268      505.5
   07/13/2017 12:40      90.8      90.2       30     55.2      0.00      0.00      85.2     0.33      1015.0     3        21         5         8        9.07     268      491.5
   07/13/2017 12:30      90.6      89.0       31     55.3      0.00      0.00      85.3     0.33      1015.0     3        37         6        60        9.07     268      556.6
   07/13/2017 12:20      89.1      88.5       31     54.3      0.00      0.00      85.3     0.33      1015.0     3        30         5        11        9.07     269      503.5
   07/13/2017 12:10      89.3      88.0       32     54.6      0.00      0.00      85.3     0.33      1015.0     3        42         6         6        9.07     269      397.5
   07/13/2017 12:00      88.7      88.1       31     54.3      0.00      0.00      85.2     0.33      1015.0     3        25         5       352        9.07     269      570.1
   07/13/2017 11:50      88.5      86.7       34     56.0      0.00      0.00      85.4     0.33      1015.0     4        42         6        75        9.07     269      549.5
   07/13/2017 11:40      86.7      86.0       35     55.8      0.00      0.00      85.3     0.33      1016.0     2       348         4        14        9.07     269      468.9
   07/13/2017 11:30      86.6      85.3       37     56.5      0.00      0.00      85.1     0.33      1016.0     3        41         5        56        9.07     270      520.1
   07/13/2017 11:20      85.7      84.8       39     57.2      0.00      0.00      85.3     0.33      1016.0     3       347         4       337        9.08     270      462.6
   07/13/2017 11:10      85.7      85.6       41     59.0      0.00      0.00      85.2     0.33      1016.0     2         6         4       324        9.08     270      420.8
   07/13/2017 11:00      85.9      83.8       42     59.3      0.00      0.00      85.4     0.33      1016.0     2        37         3        32        9.07     270      562.6
   07/13/2017 10:50      83.9      81.9       45     59.1      0.00      0.00      85.5     0.33      1016.0     2        23         3       346        9.08     270      497.9
   07/13/2017 10:40      82.6      81.9       46     59.1      0.00      0.00      85.4     0.33      1016.0     2       120         4       133        9.08     270      371.9
   07/13/2017 10:30      82.3      81.2       46     59.1      0.00      0.00      85.5     0.33      1016.0     2         4         3        48        9.08     270      386.6
   07/13/2017 10:20      81.2      79.4       49     59.6      0.00      0.00      85.6     0.33      1016.0   391       358      1944       999        9.08     270      474.1
   07/13/2017 10:10      79.9      79.3       50     59.4      0.00      0.00      85.5     0.33      1016.0     2       343         3       356        9.08     271      417.4
   07/13/2017 10:00      78.9      78.1       52     59.5      0.00      0.00      85.6     0.33      1016.0     2       348         3         6        9.08     270      414.0
   07/13/2017 09:50      77.7      76.4       55     59.3      0.00      0.00      85.7     0.33      1016.0     2       328         3        21        9.08     270      350.2
   07/13/2017 09:40      76.5      75.3       57     59.3      0.00      0.00      85.3     0.34      1016.0     2         6         3        86        9.08     271      275.5
   07/13/2017 09:30      75.8      75.3       57     59.5      0.00      0.00      85.8     0.34      1016.0     3       359         5       356        9.08     271      180.4
   07/13/2017 09:20      75.3      74.4       59     59.5      0.00      0.00      85.6     0.34      1016.0     2       359         3       331        9.08     271      221.8
   07/13/2017 09:10      74.5      74.3       60     59.4      0.00      0.00      85.6     0.34      1017.0     2        15         3       354        9.08     271      100.5
   07/13/2017 09:00      74.5      73.8       60     59.5      0.00      0.00      85.6     0.34      1017.0     2        26         3        55        9.08     271      121.9
   07/13/2017 08:50      74.3      73.3       61     59.5      0.00      0.00      85.8     0.34      1017.0     2        56         4        11        9.08     271      273.9
   07/13/2017 08:40      73.3      72.5       63     59.4      0.00      0.00      85.8     0.34      1017.0     1        25         2        44        9.08     271       97.0
   07/13/2017 08:30      72.4      71.7       64     59.2      0.00      0.00      85.7     0.34      1017.0     2        67         4        90        9.08     271       42.7
   07/13/2017 08:20      71.5      70.7       66     59.4      0.00      0.00      85.9     0.34      1017.0     2        89         4        87        9.08     271       29.3
   07/13/2017 08:10      70.8      70.1       69     59.6      0.00      0.00      85.7     0.34      1017.0     2        81         4        87        9.08     271       23.8
   07/13/2017 08:00      70.1      69.3       70     59.5      0.00      0.00      86.0     0.34      1017.0     2        42         3        79        9.08     271       40.7
   07/13/2017 07:50      69.6      68.9       71     59.2      0.00      0.00      86.1     0.34      1016.0     2        73         6        83        9.08     271       12.2
   07/13/2017 07:40      68.9      68.0       72     59.1      0.00      0.00      85.9     0.34      1016.0     1        30         2        24        9.08     271       -1.5
   07/13/2017 07:30      68.2      67.5       73     58.9      0.00      0.00      86.0     0.34      1016.0     2        11         2        30        9.08     271      -12.1
   07/13/2017 07:20      67.5      67.1       74     58.7      0.00      0.00      86.1     0.34      1016.0     1       112         2        76        9.08     271      -13.8
   07/13/2017 07:10      67.2      66.3       75     58.7      0.00      0.00      86.0     0.34      1016.0     1       133         2       116        9.08     271      -16.5
   07/13/2017 07:00      66.5      66.1       77     58.8      0.00      0.00      86.2     0.34      1016.0     1       133         2        77        9.08     270      -27.7
   07/13/2017 06:50      66.2      65.7       78     58.7      0.00      0.00      86.1     0.34      1016.0     1        94         1       109        9.14     270      -32.2
   07/13/2017 06:40      65.7      64.8       80     58.8      0.00      0.00      86.1     0.34      1016.0     2       100         2       127        9.15     270      -40.5
   07/13/2017 06:30      65.0      64.3       81     58.5      0.00      0.00      86.5     0.34      1016.0     1       142         2       127        9.15     270      -45.8
   07/13/2017 06:20      64.5      63.8       82     58.5      0.00      0.00      86.5     0.34      1016.0     2       148         3       152        9.15     270      -44.8
   07/13/2017 06:10      63.9      63.6       83     58.4      0.00      0.00      86.3     0.34      1016.0     1       126         2       122        9.15     270      -48.9
   07/13/2017 06:00      63.8      63.4       83     58.3      0.00      0.00      86.3     0.34      1016.0     1       110         2       111        9.15     270      -53.0
   07/13/2017 05:50      63.8      63.4       82     58.2      0.00      0.00      86.4     0.34      1016.0     1       112         2       119        9.15     270      -55.5
   07/13/2017 05:40      63.9      63.5       83     58.3      0.00      0.00      86.5     0.34      1016.0     1        90         2       109        9.15     270      -57.8
   07/13/2017 05:30      63.7      63.5       82     58.1      0.00      0.00      86.4     0.34      1015.0     2       117         2       113        9.16     270      -58.7
   07/13/2017 05:20      64.0      63.5       81     58.0      0.00      0.00      86.5     0.34      1015.0     2       120         2       119        9.16     270      -58.6
   07/13/2017 05:10      64.4      64.2       81     58.4      0.00      0.00      86.5     0.34      1015.0     1       104         2       109        9.16     270      -59.4
   07/13/2017 05:00      64.5      64.3       82     58.6      0.00      0.00      86.7     0.34      1015.0     2       101         2       116        9.16     270      -60.8
   07/13/2017 04:50      64.5      64.3       81     58.5      0.00      0.00      86.6     0.34      1015.0     1       106         2        81        9.16     270      -61.3
   07/13/2017 04:40      64.5      64.3       81     58.5      0.00      0.00      86.9     0.34      1015.0     1       106         2        69        9.16     270      -61.3
   07/13/2017 04:30      64.8      64.5       80     58.4      0.00      0.00      86.6     0.34      1015.0     1       108         1       118        9.16     270      -62.1
   07/13/2017 04:20      64.9      64.8       80     58.5      0.00      0.00      86.8     0.34      1015.0     2       109         2        93        9.16     269      -63.3
   07/13/2017 04:10      65.0      64.8       79     58.2      0.00      0.00      86.9     0.34      1015.0     1       101         2       104        9.16     269      -63.9
   07/13/2017 04:00      65.3      65.0       77     58.0      0.00      0.00      86.9     0.34      1015.0     1        60         1        82        9.16     269      -64.5
   07/13/2017 03:50      65.7      65.5       77     58.2      0.00      0.00      86.5     0.34      1015.0     1        60         2        51        9.16     269      -65.0
   07/13/2017 03:40      66.3      65.8       77     58.5      0.00      0.00      86.8     0.34      1015.0     1        75         2       100        9.17     269      -65.4
   07/13/2017 03:30      66.4      66.1       77     59.0      0.00      0.00      87.1     0.34      1015.0     1        41         2        25        9.17     269      -65.8
   07/13/2017 03:20      66.4      66.2       77     59.0      0.00      0.00      86.9     0.34      1015.0     1        62         2        64        9.17     269      -66.1
   07/13/2017 03:10      66.9      66.5       76     58.9      0.00      0.00      87.3     0.34      1015.0     2        71         3        66        9.17     269      -66.1
   07/13/2017 03:00      67.2      66.9       76     59.1      0.00      0.00      87.3     0.34      1015.0     2        70         3        80        9.17     269      -66.5
   07/13/2017 02:50      67.4      67.2       76     59.3      0.00      0.00      87.4     0.34      1015.0     2        75         2        74        9.17     269      -66.2
   07/13/2017 02:40      67.8      67.4       75     59.4      0.00      0.00      87.1     0.34      1015.0     2        75         4       100        9.17     269      -66.2
   07/13/2017 02:30      68.2      67.7       74     59.3      0.00      0.00      87.2     0.34      1015.0     2        84         3        78        9.17     269      -65.9
   07/13/2017 02:20      68.2      68.0       73     59.1      0.00      0.00      87.5     0.34      1015.0     3        67         4        79        9.17     269      -65.8
   07/13/2017 02:10      68.0      67.5       70     57.6      0.00      0.00      87.3     0.34      1015.0     1        46         3         8        9.17     269      -64.3
   07/13/2017 02:00      67.9      67.7       67     56.6      0.00      0.00      87.3     0.34      1015.0     1        51         1        29        9.17     268      -62.8
   07/13/2017 01:50      68.3      68.0       66     56.3      0.00      0.00      87.5     0.34      1015.0     1        85         2        64        9.18     268      -62.6
   07/13/2017 01:40      68.8      68.3       64     56.0      0.00      0.00      87.5     0.34      1015.0     1       110         2        98        9.18     268      -62.8
   07/13/2017 01:30      68.8      68.6       64     56.0      0.00      0.00      87.3     0.34      1015.0     1       119         1        92        9.18     268      -62.7
   07/13/2017 01:20      68.9      68.7       64     56.1      0.00      0.00      87.5     0.34      1015.0     1       146         1       145        9.18     268      -62.8
   07/13/2017 01:10      69.1      68.6       63     55.8      0.00      0.00      87.4     0.34      1015.0     1       110         1       107        9.18     268      -63.3
   07/13/2017 01:00      69.4      69.3       62     55.8      0.00      0.00      87.1     0.34      1015.0     1       146         2       159        9.18     268      -63.6
   07/13/2017 00:50      69.6      69.2       63     56.3      0.00      0.00      87.2     0.34      1015.0     2       150         2       164        9.18     268      -64.0
   07/13/2017 00:40      69.6      69.3       62     56.1      0.00      0.00      87.4     0.34      1014.0     1       141         2       130        9.18     268      -64.1
   07/13/2017 00:30      70.3      69.8       61     56.0      0.00      0.00      87.5     0.34      1014.0     1       136         2       130        9.18     268      -64.7
   07/13/2017 00:20      70.3      70.1       60     55.9      0.00      0.00      87.4     0.34      1014.0     1       159         2       145        9.18     268      -65.0
   07/13/2017 00:10      70.6      70.1       60     55.8      0.00      0.00      87.6     0.34      1015.0     1       136         2       137        9.18     268      -65.5
   07/13/2017 00:00      70.8      70.2       60     56.0      0.00      0.00      87.6     0.34      1015.0     1       129         1       133        9.18     268      -66.0
   07/12/2017 23:50      70.7      70.3       59     55.6      0.00      0.00      87.6     0.34      1015.0     1       134         2       134        9.18     268      -66.8
   07/12/2017 23:40      71.4      70.6       57     55.0      0.00      0.00      87.7     0.34      1015.0     1       105         1       117        9.18     268      -67.8
   07/12/2017 23:30      72.3      71.7       55     55.1      0.00      0.00      87.7     0.34      1015.0     1       219         1       129        9.18     268      -66.8
   07/12/2017 23:20      72.4      72.0       55     55.4      0.00      0.00      87.6     0.34      1015.0     0       178         1       161        9.18     267      -68.3
   07/12/2017 23:10      72.7      72.5       55     55.3      0.00      0.00      87.9     0.34      1015.0     0        95         1        88        9.19     268      -68.7
   07/12/2017 23:00      72.9      72.7       54     55.2      0.00      0.00      87.7     0.34      1015.0     0        84         1        44        9.18     267      -69.3
   07/12/2017 22:50      73.6      72.8       53     55.2      0.00      0.00      87.9     0.34      1015.0     1       142         1       152        9.19     268      -70.6
   07/12/2017 22:40      73.9      73.7       52     55.3      0.00      0.00      87.7     0.34      1014.0     1        67         1        68        9.19     268      -70.6
   07/12/2017 22:30      74.4      74.0       52     55.3      0.00      0.00      87.8     0.34      1014.0     1        73         1        44        9.19     267      -71.5
   07/12/2017 22:20      74.6      74.4       51     55.5      0.00      0.00      87.7     0.34      1014.0     1        70         2        77        9.19     267      -73.1
   07/12/2017 22:10      75.5      74.7       51     55.6      0.00      0.00      87.7     0.34      1014.0     1        88         2       101        9.19     267      -72.7
   07/12/2017 22:00      75.6      75.2       50     55.7      0.00      0.00      87.7     0.34      1014.0     2        87         2        65        9.19     267      -73.5
   07/12/2017 21:50      75.8      75.2       51     56.1      0.00      0.00      87.6     0.34      1014.0     1       127         1        73        9.19     267      -73.4
   07/12/2017 21:40      76.8      76.0       49     55.9      0.00      0.00      87.7     0.34      1014.0     1       136         1       143        9.19     267      -75.8
   07/12/2017 21:30      77.6      77.2       48     56.1      0.00      0.00      87.7     0.34      1014.0     1       103         2       140        9.19     267      -77.6
   07/12/2017 21:20      78.0      77.6       47     56.3      0.00      0.00      87.7     0.34      1014.0     2       191         4       229        9.19     267      -79.4
   07/12/2017 21:10      78.4      77.9       48     56.7      0.00      0.00      87.7     0.34      1013.0     3       232         5       244        9.19     267      -80.8
   07/12/2017 21:00      78.8      78.3       47     56.8      0.00      0.00      87.7     0.34      1013.0     3       223         4       232        9.19     267      -82.3
   07/12/2017 20:50      79.3      78.9       47     56.9      0.00      0.00      87.6     0.34      1013.0     4       237         5       247        9.19     267      -83.1
   07/12/2017 20:40      79.7      79.4       46     57.0      0.00      0.00      87.8     0.34      1013.0     4       236         5       230        9.19     267      -83.9
   07/12/2017 20:30      80.5      79.9       45     57.0      0.00      0.00      87.6     0.34      1013.0     4       231         5       244        9.19     267      -85.2
   07/12/2017 20:20      81.4      80.7       44     56.9      0.00      0.00      87.7     0.34      1013.0     3       227         5       247        9.19     267      -85.4
   07/12/2017 20:10      81.9      81.4       43     57.0      0.00      0.00      87.6     0.34      1013.0     4       230         5       251        9.19     267      -84.4
   07/12/2017 20:00      82.7      82.2       42     57.1      0.00      0.00      87.6     0.34      1013.0     3       225         5       210        9.19     267      -82.3
   07/12/2017 19:50      83.6      82.8       41     57.2      0.00      0.00      87.6     0.34      1013.0     3       235         5       218        9.19     266      -78.8
   07/12/2017 19:40      85.1      84.0       40     57.6      0.00      0.00      87.5     0.34      1012.0     5       235         7       237        9.19     266      -68.8
   07/12/2017 19:30      86.6      85.3       38     57.3      0.00      0.00      87.7     0.34      1012.0     4       247         8       220        9.19     266      -54.9
   07/12/2017 19:20      87.0      86.5       36     56.8      0.00      0.00      87.5     0.34      1012.0     3       245         4       238        9.20     266      -38.5
   07/12/2017 19:10      87.6      86.8       34     55.2      0.00      0.00      87.5     0.34      1012.0     2       208         5       118        9.20     266      -23.2
   07/12/2017 19:00      87.9      87.1       34     55.5      0.00      0.00      87.5     0.34      1012.0     4       223         8       240        9.20     267       -5.4
   07/12/2017 18:50      88.3      87.9       33     55.8      0.00      0.00      87.4     0.34      1012.0     4       260         7       263        9.20     266       14.0
   07/12/2017 18:40      89.3      88.1       34     56.6      0.00      0.00      87.4     0.34      1012.0     5       251         8       235        9.20     266       38.7
   07/12/2017 18:30      90.0      89.1       32     56.2      0.00      0.00      87.3     0.34      1012.0     3       225         5       235        9.20     267       70.1
   07/12/2017 18:20      90.8      89.4       32     56.4      0.00      0.00      87.3     0.34      1012.0     5       304         7       306        9.20     267       93.0
   07/12/2017 18:10      91.0      90.7       31     56.3      0.00      0.00      87.2     0.34      1012.0     3       277         5       265        9.20     267      116.5
   07/12/2017 18:00      91.2      90.8       31     56.4      0.00      0.00      87.2     0.34      1012.0     5       291         6       328        9.20     267      139.3
   07/12/2017 17:50      92.5      91.3       31     56.5      0.00      0.00      87.0     0.34      1012.0     5       302         8       326        9.20     266      161.9
   07/12/2017 17:40      92.5      91.5       31     56.8      0.00      0.00      87.1     0.34      1012.0     6       301         8       296        9.20     267      184.2
   07/12/2017 17:30      92.5      91.8       30     56.3      0.00      0.00      87.3     0.34      1012.0     4       273         6       293        9.20     267      205.6
   07/12/2017 17:20      92.3      91.3       30     55.5      0.00      0.00      87.0     0.34      1012.0     3       205         4       216        9.20     267      230.0
   07/12/2017 17:10      91.6      91.1       30     55.2      0.00      0.00      87.0     0.34      1012.0     4       192         6       181        9.20     267      254.6
   07/12/2017 17:00      91.8      91.4       29     55.1      0.00      0.00      86.7     0.34      1012.0     4       178         8       230        9.20     267      276.4
   07/12/2017 16:50      91.4      91.1       30     55.2      0.00      0.00      86.8     0.34      1012.0     5       134         7       145        9.20     267      298.7
   07/12/2017 16:40      91.0      90.6       30     55.1      0.00      0.00      86.8     0.34      1012.0     5       162        10       149        9.20     267      320.9
   07/12/2017 16:30      91.2      90.8       29     54.7      0.00      0.00      86.6     0.34      1012.0     5       154         8       131        9.20     267      340.1
   07/12/2017 16:20      91.7      90.5       29     54.6      0.00      0.00      86.5     0.34      1012.0     4       187         9       169        9.20     267      360.1
   07/12/2017 16:10      91.2      90.5       30     54.7      0.00      0.00      86.7     0.34      1012.0     6       155        10       187        9.20     267      378.5
   07/12/2017 16:00      90.3      89.7       30     54.8      0.00      0.00      86.4     0.34      1012.0     5       124        10       156        9.20     267      397.8
   07/12/2017 15:50      90.8      90.2       30     54.8      0.00      0.00      86.5     0.33      1012.0     5       166         9       166        9.20     267      414.1
   07/12/2017 15:40      90.9      90.1       30     54.9      0.00      0.00      86.3     0.33      1013.0     6       199         8       183        9.19     267      430.5
   07/12/2017 15:30      90.0      89.6       30     54.6      0.00      0.00      86.3     0.33      1013.0     6       178         9       157        9.19     267      444.2
   07/12/2017 15:20      90.9      89.7       30     54.3      0.00      0.00      86.3     0.33      1013.0     6       173         9       148        9.19     267      458.2
   07/12/2017 15:10      90.8      89.3       30     54.2      0.00      0.00      86.1     0.33      1013.0     5       178         9       184        9.19     267      471.1
   07/12/2017 15:00      90.5      90.0       30     55.0      0.00      0.00      86.2     0.33      1013.0     5       171         8       174        9.19     267      480.1
   07/12/2017 14:50      90.5      90.1       31     55.2      0.00      0.00      86.0     0.33      1013.0     5       180         6       224        9.19     267      494.4
   07/12/2017 14:40      90.3      89.2       31     55.1      0.00      0.00      86.0     0.33      1013.0     5       199         7       194        9.19     267      505.8
   07/12/2017 14:30      90.6      89.3       30     54.5      0.00      0.00      86.1     0.33      1013.0     6       163         9       171        9.19     267      512.6
   07/12/2017 14:20      90.8      90.2       30     54.5      0.00      0.00      86.0     0.33      1013.0     5       171        10       185        9.19     268      520.5
   07/12/2017 14:10      90.2      89.5       31     54.7      0.00      0.00      85.9     0.33      1013.0     5       156         6       173        9.19     268      529.4
   07/12/2017 14:00      90.5      89.1       32     55.4      0.00      0.00      85.9     0.33      1013.0     5       147         8       139        9.19     268      535.8
   07/12/2017 13:50      90.9      89.8       34     57.7      0.00      0.00      85.8     0.33      1013.0     5       109         7       109        9.19     268      545.7
   07/12/2017 13:40      90.0      89.1       34     57.6      0.00      0.00      85.7     0.33      1013.0     6       154        11       142        9.19     268      552.8
   07/12/2017 13:30      92.3      90.5       34     59.0      0.00      0.00      85.8     0.33      1013.0     4       132         7       133        9.19     268      553.6
   07/12/2017 13:20      92.2      91.3       34     59.6      0.00      0.00      85.8     0.33      1014.0     4        36         6        60        9.19     269      550.8
   07/12/2017 13:10      91.6      89.7       35     59.4      0.00      0.00      85.6     0.33      1014.0     4        52         6        87        9.19     269      552.8
   07/12/2017 13:00      91.1      90.2       36     59.9      0.00      0.00      85.7     0.33      1014.0     5         8         8       102        9.19     268      550.8
   07/12/2017 12:50      91.1      89.1       36     59.8      0.00      0.00      85.6     0.33      1014.0     3        50         6        91        9.19     268      554.0
   07/12/2017 12:40      90.0      88.8       37     60.1      0.00      0.00      85.6     0.33      1014.0     4        47         7       105        9.19     268      554.1
   07/12/2017 12:30      88.8      87.7       38     59.4      0.00      0.00      85.5     0.33      1014.0     4       125         5        92        9.19     269      558.6
   07/12/2017 12:20      88.9      88.0       38     59.5      0.00      0.00      85.4     0.33      1014.0     3        77         5        94        9.19     269      557.5
   07/12/2017 12:10      88.4      87.9       38     59.2      0.00      0.00      85.5     0.33      1014.0     3        48         5        77        9.19     269      547.2
   07/12/2017 12:00      89.0      87.9       37     59.3      0.00      0.00      85.5     0.33      1014.0     2        90         4        21        9.19     269      542.5
   07/12/2017 11:50      87.7      86.7       37     58.0      0.00      0.00      85.5     0.33      1014.0     2       331         4       306        9.19     269      532.7
   07/12/2017 11:40      86.6      85.6       40     58.7      0.00      0.00      85.6     0.33      1014.0     3         7         4        21        9.19     270      529.0
   07/12/2017 11:30      85.7      85.1       40     58.7      0.00      0.00      85.6     0.33      1014.0     3        13         5       356        9.19     270      520.5
   07/12/2017 11:20      85.7      85.1       41     59.1      0.00      0.00      85.8     0.33      1014.0     5         6         6        10        9.19     270      513.1
   07/12/2017 11:10      85.2      83.7       40     57.7      0.00      0.00      85.3     0.33      1014.0     2        25         4        27        9.19     270      502.2
   07/12/2017 11:00      84.5      83.8       40     57.3      0.00      0.00      85.7     0.33      1014.0     2        38         4       359        9.19     270      491.6
   07/12/2017 10:50      83.8      82.7       41     57.2      0.00      0.00      85.7     0.33      1014.0     3        32         4        25        9.19     271      480.2
   07/12/2017 10:40      83.3      81.9       41     56.6      0.00      0.00      85.6     0.33      1014.0     3        15         5         3        9.19     271      466.9
   07/12/2017 10:30      82.3      81.3       42     56.9      0.00      0.00      85.6     0.34      1014.0     2        71         5        65        9.19     271      455.2
   07/12/2017 10:20      81.4      80.7       45     57.6      0.00      0.00      85.9     0.34      1014.0     3        34         5        31        9.19     270      439.9
   07/12/2017 10:10      81.0      79.3       47     57.8      0.00      0.00      85.8     0.34      1015.0     3        66         4       106        9.18     271      423.1
   07/12/2017 09:50      79.4      77.8       51     59.0      0.00      0.00      86.0     0.34      1015.0     2        76         5        76        8.42     271      385.2
   07/12/2017 09:40      78.0      77.5       53     59.4      0.00      0.00      85.8     0.34      1015.0     2       354         4        10        8.43     271      365.3
   07/12/2017 09:30      78.5      76.3       54     59.4      0.00      0.00      85.8     0.34      1015.0     3        69         5        78        8.43     271      351.1
   07/12/2017 09:20      76.4      75.9       56     59.3      0.00      0.00      86.0     0.34      1015.0     3        31         5       349        8.43     271      326.2
   07/12/2017 09:10      76.1      75.0       57     59.1      0.00      0.00      85.8     0.34      1015.0     2       100         4        61        8.44     271      315.7
   07/12/2017 09:00      75.2      73.3       60     59.6      0.00      0.00      85.8     0.34      1015.0     3        46         6        83        8.44     271      308.1
   07/12/2017 08:50      73.2      72.4       64     60.1      0.00      0.00      86.2     0.34      1015.0     2        22         3        27        8.44     271      205.1
   07/12/2017 08:40      72.4      71.8       66     60.1      0.00      0.00      86.6     0.34      1015.0     2       340         3         2        8.44     271       26.7
   07/12/2017 08:40      72.4      71.8       66     60.1      0.00      0.00      86.6     0.34      1015.0     2       340         3         2        8.44     271       26.7
   07/12/2017 08:30      71.9      71.2       68     60.4      0.00      0.00      86.2     0.34      1015.0     2        90         4        96        8.44     271       15.3
   07/12/2017 08:30      71.9      71.2       68     60.4      0.00      0.00      86.2     0.34      1015.0     2        90         4        96        8.44     271       15.3
   07/12/2017 08:20      71.5      70.6       70     60.7      0.00      0.00      86.1     0.34      1015.0     2        77         3       356        8.44     271       14.8
   07/12/2017 08:20      71.5      70.6       70     60.7      0.00      0.00      86.1     0.34      1015.0     2        77         3       356        8.44     271       14.8
   07/12/2017 08:10      70.6      70.1       71     60.4      0.00      0.00      86.2     0.34      1015.0     2        18         3        86        8.45     271       17.1
   07/12/2017 08:10      70.6      70.1       71     60.4      0.00      0.00      86.2     0.34      1015.0     2        18         3        86        8.45     271       17.1
   07/12/2017 08:00      70.4      69.7       72     60.7      0.00      0.00      86.2     0.34      1015.0     2        74         3        74        8.45     271       34.5
   07/12/2017 08:00      70.4      69.7       72     60.7      0.00      0.00      86.2     0.34      1015.0     2        74         3        74        8.45     271       34.5
   07/12/2017 07:50      69.7      69.0       74     60.7      0.00      0.00      86.4     0.34      1015.0     1        53         3        61        8.45     271       14.2
   07/12/2017 07:50      69.7      69.0       74     60.7      0.00      0.00      86.4     0.34      1015.0     1        53         3        61        8.45     271       14.2
   07/12/2017 07:40      69.1      68.4       76     60.6      0.00      0.00      86.1     0.34      1015.0     2       132         3       171        8.45     271        7.5
   07/12/2017 07:40      69.1      68.4       76     60.6      0.00      0.00      86.1     0.34      1015.0     2       132         3       171        8.45     271        7.5
   07/12/2017 07:30      68.4      68.0       76     60.5      0.00      0.00      86.0     0.34      1015.0     2       147         3       156        8.45     271       -2.6
   07/12/2017 07:30      68.4      68.0       76     60.5      0.00      0.00      86.0     0.34      1015.0     2       147         3       156        8.45     271       -2.6
   07/12/2017 07:20      68.2      67.4       78     60.5      0.00      0.00      86.2     0.34      1015.0     2       148         3       159        8.45     271       -8.1
   07/12/2017 07:20      68.2      67.4       78     60.5      0.00      0.00      86.2     0.34      1015.0     2       148         3       159        8.45     271       -8.1
   07/12/2017 07:10      67.4      66.9       79     60.4      0.00      0.00      86.2     0.34      1015.0     2       144         3       122        8.45     271      -11.1
   07/12/2017 07:10      67.4      66.9       79     60.4      0.00      0.00      86.2     0.34      1015.0     2       144         3       122        8.45     271      -11.1
   07/12/2017 07:00      67.1      66.8       79     60.2      0.00      0.00      86.5     0.34      1015.0     2       127         3       134        8.45     271      -23.1
   07/12/2017 07:00      67.1      66.8       79     60.2      0.00      0.00      86.5     0.34      1015.0     2       127         3       134        8.45     271      -23.1
   07/12/2017 06:50      66.9      66.3       80     60.1      0.00      0.00      86.5     0.34      1015.0     2        95         2        94        8.45     271      -28.3
   07/12/2017 06:50      66.9      66.3       80     60.1      0.00      0.00      86.5     0.34      1015.0     2        95         2        94        8.45     271      -28.3
   07/12/2017 06:40      66.4      66.0       81     60.0      0.00      0.00      86.5     0.34      1014.0     1       105         2        94        8.45     271      -36.0
   07/12/2017 06:40      66.4      66.0       81     60.0      0.00      0.00      86.5     0.34      1014.0     1       105         2        94        8.45     271      -36.0
   07/12/2017 06:30      66.1      65.6       81     59.8      0.00      0.00      86.3     0.34      1014.0     1        95         2        75        8.45     271      -41.8
   07/12/2017 06:30      66.1      65.6       81     59.8      0.00      0.00      86.3     0.34      1014.0     1        95         2        75        8.45     271      -41.8
   07/12/2017 06:20      65.7      65.4       82     59.8      0.00      0.00      86.5     0.34      1014.0     1        90         1        94        8.45     271      -44.1
   07/12/2017 06:20      65.7      65.4       82     59.8      0.00      0.00      86.5     0.34      1014.0     1        90         1        94        8.45     271      -44.1
   07/12/2017 06:10      65.6      65.4       82     59.7      0.00      0.00      86.5     0.34      1014.0     1        62         1        98        8.45     271      -50.2
   07/12/2017 06:10      65.6      65.4       82     59.7      0.00      0.00      86.5     0.34      1014.0     1        62         1        98        8.45     271      -50.2
   07/12/2017 06:00      65.6      65.3       82     59.9      0.00      0.00      86.5     0.34      1014.0     1        85         3        80        8.45     271      -54.3
   07/12/2017 06:00      65.6      65.3       82     59.9      0.00      0.00      86.5     0.34      1014.0     1        85         3        80        8.45     271      -54.3
   07/12/2017 05:50      65.6      65.3       82     59.8      0.00      0.00      86.6     0.34      1014.0     1        83         3        82        8.45     271      -57.1
   07/12/2017 05:50      65.6      65.3       82     59.8      0.00      0.00      86.6     0.34      1014.0     1        83         3        82        8.45     271      -57.1
   07/12/2017 05:40      65.8      65.5       82     60.0      0.00      0.00      86.8     0.34      1014.0     1        86         2        71        8.45     271      -58.4
   07/12/2017 05:40      65.8      65.5       82     60.0      0.00      0.00      86.8     0.34      1014.0     1        86         2        71        8.45     271      -58.4
   07/12/2017 05:30      65.8      65.7       81     59.9      0.00      0.00      86.7     0.34      1014.0     1        72         2       100        8.45     271      -58.5
   07/12/2017 05:30      65.8      65.7       81     59.9      0.00      0.00      86.7     0.34      1014.0     1        72         2       100        8.45     271      -58.5
   07/12/2017 05:20      66.2      65.8       81     60.0      0.00      0.00      86.8     0.34      1014.0     1        88         1        93        8.45     271      -59.1
   07/12/2017 05:20      66.2      65.8       81     60.0      0.00      0.00      86.8     0.34      1014.0     1        88         1        93        8.45     271      -59.1
   07/12/2017 05:10      66.3      66.2       81     60.2      0.00      0.00      86.9     0.34      1014.0     1        52         2        64        8.45     271      -59.3
   07/12/2017 05:10      66.3      66.2       81     60.2      0.00      0.00      86.9     0.34      1014.0     1        52         2        64        8.45     271      -59.3
   07/12/2017 05:00      66.3      66.2       81     60.3      0.00      0.00      86.9     0.34      1014.0     1        55         2        85        8.45     271      -59.3
   07/12/2017 05:00      66.3      66.2       81     60.3      0.00      0.00      86.9     0.34      1014.0     1        55         2        85        8.45     271      -59.3
   07/12/2017 04:50      66.5      66.3       81     60.3      0.00      0.00      86.9     0.34      1014.0     1        59         2        96        8.45     271      -59.5
   07/12/2017 04:50      66.5      66.3       81     60.3      0.00      0.00      86.9     0.34      1014.0     1        59         2        96        8.45     271      -59.5
   07/12/2017 04:40      66.6      66.4       80     60.3      0.00      0.00      86.8     0.34      1014.0     1        65         2        55        8.45     271      -59.0
   07/12/2017 04:40      66.6      66.4       80     60.3      0.00      0.00      86.8     0.34      1014.0     1        65         2        55        8.45     271      -59.0
   07/12/2017 04:30      66.7      66.6       80     60.4      0.00      0.00      86.9     0.34      1014.0     1        62         2        77        8.45     271      -59.2
   07/12/2017 04:30      66.7      66.6       80     60.4      0.00      0.00      86.9     0.34      1014.0     1        62         2        77        8.45     271      -59.2
   07/12/2017 04:20      66.8      66.4       81     60.3      0.00      0.00      86.9     0.34      1014.0     2        48         3        84        8.45     271      -59.1
   07/12/2017 04:20      66.8      66.4       81     60.3      0.00      0.00      86.9     0.34      1014.0     2        48         3        84        8.45     271      -59.1
   07/12/2017 04:10      66.7      66.4       80     60.2      0.00      0.00      87.1     0.34      1014.0     1        94         2        87        8.45     271      -59.3
   07/12/2017 04:10      66.7      66.4       80     60.2      0.00      0.00      87.1     0.34      1014.0     1        94         2        87        8.45     271      -59.3
   07/12/2017 04:00      66.8      66.7       79     60.2      0.00      0.00      87.1     0.34      1014.0     2        66         4        69        8.45     271      -59.2
   07/12/2017 04:00      66.8      66.7       79     60.2      0.00      0.00      87.1     0.34      1014.0     2        66         4        69        8.45     271      -59.2
   07/12/2017 03:50      67.0      66.7       79     60.3      0.00      0.00      87.0     0.34      1014.0     2        73         3        82        8.45     271      -59.3
   07/12/2017 03:50      67.0      66.7       79     60.3      0.00      0.00      87.0     0.34      1014.0     2        73         3        82        8.45     271      -59.3
   07/12/2017 03:40      67.2      66.9       79     60.3      0.00      0.00      87.0     0.34      1014.0     1        59         2        71        8.45     270      -59.6
   07/12/2017 03:40      67.2      66.9       79     60.3      0.00      0.00      87.0     0.34      1014.0     1        59         2        71        8.45     270      -59.6
   07/12/2017 03:30      67.2      67.1       78     60.2      0.00      0.00      87.2     0.34      1014.0     2        60         2        65        8.46     270      -59.6
   07/12/2017 03:30      67.2      67.1       78     60.2      0.00      0.00      87.2     0.34      1014.0     2        60         2        65        8.46     270      -59.6
   07/12/2017 03:20      67.4      67.2       78     60.1      0.00      0.00      87.3     0.34      1014.0     2        54         4        63        8.46     270      -59.8
   07/12/2017 03:20      67.4      67.2       78     60.1      0.00      0.00      87.3     0.34      1014.0     2        54         4        63        8.46     270      -59.8
   07/12/2017 03:10      67.5      67.2       77     60.0      0.00      0.00      87.4     0.34      1014.0     2        61         3        83        8.46     270      -59.6
   07/12/2017 03:10      67.5      67.2       77     60.0      0.00      0.00      87.4     0.34      1014.0     2        61         3        83        8.46     270      -59.6
   07/12/2017 03:00      67.7      67.5       76     60.0      0.00      0.00      87.1     0.34      1014.0     1        82         3       114        8.46     270      -59.4
   07/12/2017 03:00      67.7      67.5       76     60.0      0.00      0.00      87.1     0.34      1014.0     1        82         3       114        8.46     270      -59.4
   07/12/2017 02:50      68.0      67.8       75     59.8      0.00      0.00      87.2     0.34      1014.0     2        78         4        80        8.46     270      -59.3
   07/12/2017 02:50      68.0      67.8       75     59.8      0.00      0.00      87.2     0.34      1014.0     2        78         4        80        8.46     270      -59.3
   07/12/2017 02:40      68.3      68.0       74     59.7      0.00      0.00      87.2     0.34      1014.0     3        68         4        76        8.46     270      -59.3
   07/12/2017 02:40      68.3      68.0       74     59.7      0.00      0.00      87.2     0.34      1014.0     3        68         4        76        8.46     270      -59.3
   07/12/2017 02:30      68.5      68.1       74     59.7      0.00      0.00      87.3     0.34      1014.0     2        81         4        88        8.46     270      -59.9
   07/12/2017 02:30      68.5      68.1       74     59.7      0.00      0.00      87.3     0.34      1014.0     2        81         4        88        8.46     270      -59.9
   07/12/2017 02:20      68.7      68.4       74     60.0      0.00      0.00      87.3     0.34      1014.0     2        72         3        87        8.46     270      -60.1
   07/12/2017 02:20      68.7      68.4       74     60.0      0.00      0.00      87.3     0.34      1014.0     2        72         3        87        8.46     270      -60.1
   07/12/2017 02:10      68.9      68.6       74     60.1      0.00      0.00      87.5     0.34      1014.0     3        85         3        97        8.46     270      -60.2
   07/12/2017 02:10      68.9      68.6       74     60.1      0.00      0.00      87.5     0.34      1014.0     3        85         3        97        8.46     270      -60.2
   07/12/2017 02:00      69.0      68.8       73     60.0      0.00      0.00      87.3     0.34      1014.0     2        89         3        76        8.46     270      -60.3
   07/12/2017 02:00      69.0      68.8       73     60.0      0.00      0.00      87.3     0.34      1014.0     2        89         3        76        8.46     270      -60.3
   07/12/2017 01:50      69.3      69.0       72     60.0      0.00      0.00      87.5     0.34      1014.0     2        88         4        78        8.46     270      -60.6
   07/12/2017 01:50      69.3      69.0       72     60.0      0.00      0.00      87.5     0.34      1014.0     2        88         4        78        8.46     270      -60.6
   07/12/2017 01:40      69.6      69.3       72     60.0      0.00      0.00      87.5     0.34      1014.0     2        63         3        67        8.46     270      -61.0
   07/12/2017 01:40      69.6      69.3       72     60.0      0.00      0.00      87.5     0.34      1014.0     2        63         3        67        8.46     270      -61.0
   07/12/2017 01:30      69.8      69.5       72     60.3      0.00      0.00      87.3     0.34      1014.0     1        56         2        81        8.46     269      -61.1
   07/12/2017 01:30      69.8      69.5       72     60.3      0.00      0.00      87.3     0.34      1014.0     1        56         2        81        8.46     269      -61.1
   07/12/2017 01:20      69.9      69.7       72     60.3      0.00      0.00      87.6     0.34      1014.0     1        60         2        84        8.46     269      -61.2
   07/12/2017 01:20      69.9      69.7       72     60.3      0.00      0.00      87.6     0.34      1014.0     1        60         2        84        8.46     269      -61.2
   07/12/2017 01:10      70.3      69.9       72     60.6      0.00      0.00      87.5     0.34      1014.0     2        54         3        66        8.46     269      -60.8
   07/12/2017 01:10      70.3      69.9       72     60.6      0.00      0.00      87.5     0.34      1014.0     2        54         3        66        8.46     269      -60.8
   07/12/2017 01:00      70.3      70.2       72     60.7      0.00      0.00      87.6     0.34      1014.0     1        40         2        36        8.46     269      -61.2
   07/12/2017 01:00      70.3      70.2       72     60.7      0.00      0.00      87.6     0.34      1014.0     1        40         2        36        8.46     269      -61.2
   07/12/2017 00:50      70.6      70.4       71     60.6      0.00      0.00      87.6     0.34      1014.0     2        56         4        81        8.46     269      -61.1
   07/12/2017 00:50      70.6      70.4       71     60.6      0.00      0.00      87.6     0.34      1014.0     2        56         4        81        8.46     269      -61.1
   07/12/2017 00:40      70.9      70.7       70     60.5      0.00      0.00      87.5     0.34      1014.0     2        59         3        62        8.46     269      -61.1
   07/12/2017 00:40      70.9      70.7       70     60.5      0.00      0.00      87.5     0.34      1014.0     2        59         3        62        8.46     269      -61.1
   07/12/2017 00:30      71.4      70.9       69     60.2      0.00      0.00      87.7     0.34      1014.0     2        51         4        62        8.46     269      -61.9
   07/12/2017 00:30      71.4      70.9       69     60.2      0.00      0.00      87.7     0.34      1014.0     2        51         4        62        8.46     269      -61.9
   07/12/2017 00:20      71.5      71.3       68     60.3      0.00      0.00      87.6     0.34      1014.0     2        56         3        75        8.46     269      -61.6
   07/12/2017 00:20      71.5      71.3       68     60.3      0.00      0.00      87.6     0.34      1014.0     2        56         3        75        8.46     269      -61.6
   07/12/2017 00:10      71.9      71.5       67     60.3      0.00      0.00      87.7     0.34      1014.0     2        68         3        74        8.46     269      -61.5
   07/12/2017 00:10      71.9      71.5       67     60.3      0.00      0.00      87.7     0.34      1014.0     2        68         3        74        8.46     269      -61.5
   07/12/2017 00:00      72.2      71.8       66     60.2      0.00      0.00      87.8     0.34      1014.0     3        64         4        70        8.47     269      -62.4
   07/12/2017 00:00      72.2      71.8       66     60.2      0.00      0.00      87.8     0.34      1014.0     3        64         4        70        8.47     269      -62.4
   07/11/2017 23:50      72.9      72.4       65     60.2      0.00      0.00      87.8     0.34      1014.0     3        55         4        68        8.47     269      -63.6
   07/11/2017 23:50      72.9      72.4       65     60.2      0.00      0.00      87.8     0.34      1014.0     3        55         4        68        8.47     269      -63.6
   07/11/2017 23:40      73.3      73.0       64     60.1      0.00      0.00      87.8     0.34      1014.0     2        56         2        54        8.47     269      -63.5
   07/11/2017 23:40      73.3      73.0       64     60.1      0.00      0.00      87.8     0.34      1014.0     2        56         2        54        8.47     269      -63.5
   07/11/2017 23:30      73.8      73.3       63     60.0      0.00      0.00      87.8     0.34      1014.0     2        63         3        93        8.47     269      -63.6
   07/11/2017 23:30      73.8      73.3       63     60.0      0.00      0.00      87.8     0.34      1014.0     2        63         3        93        8.47     269      -63.6
   07/11/2017 23:20      73.9      73.7       61     59.8      0.00      0.00      87.8     0.34      1014.0     2        42         2        49        8.47     268      -63.7
   07/11/2017 23:20      73.9      73.7       61     59.8      0.00      0.00      87.8     0.34      1014.0     2        42         2        49        8.47     268      -63.7
   07/11/2017 23:10      74.3      73.8       61     59.6      0.00      0.00      87.8     0.34      1013.0     2        73         3        91        8.47     268      -63.8
   07/11/2017 23:10      74.3      73.8       61     59.6      0.00      0.00      87.8     0.34      1013.0     2        73         3        91        8.47     268      -63.8
   07/11/2017 23:00      75.0      74.4       59     59.4      0.00      0.00      87.8     0.34      1013.0     2        66         3        65        8.47     268      -64.8
   07/11/2017 23:00      75.0      74.4       59     59.4      0.00      0.00      87.8     0.34      1013.0     2        66         3        65        8.47     268      -64.8
   07/11/2017 22:50      75.8      75.2       57     59.0      0.00      0.00      87.7     0.34      1013.0     2        33         3        14        8.47     268      -65.4
   07/11/2017 22:50      75.8      75.2       57     59.0      0.00      0.00      87.7     0.34      1013.0     2        33         3        14        8.47     268      -65.4
   07/11/2017 22:40      76.2      75.6       55     58.6      0.00      0.00      87.8     0.34      1013.0     1        27         2        22        8.47     268      -65.9
   07/11/2017 22:40      76.2      75.6       55     58.6      0.00      0.00      87.8     0.34      1013.0     1        27         2        22        8.47     268      -65.9
   07/11/2017 22:30      77.1      76.2       54     58.8      0.00      0.00      87.9     0.34      1013.0     2        64         3        60        8.47     268      -66.3
   07/11/2017 22:30      77.1      76.2       54     58.8      0.00      0.00      87.9     0.34      1013.0     2        64         3        60        8.47     268      -66.3
   07/11/2017 22:20      77.8      77.3       51     58.0      0.00      0.00      87.8     0.34      1013.0     1        36         2        11        8.47     267      -65.5
   07/11/2017 22:20      77.8      77.3       51     58.0      0.00      0.00      87.8     0.34      1013.0     1        36         2        11        8.47     267      -65.5
   07/11/2017 22:10      78.4      77.9       43     53.8      0.00      0.00      87.7     0.34      1013.0     1       136         2       178        8.47     267      -64.5
   07/11/2017 22:10      78.4      77.9       43     53.8      0.00      0.00      87.7     0.34      1013.0     1       136         2       178        8.47     267      -64.5
   07/11/2017 22:00      78.5      77.8       43     53.8      0.00      0.00      87.9     0.34      1013.0     2       175         3       187        8.47     267      -65.3
   07/11/2017 22:00      78.5      77.8       43     53.8      0.00      0.00      87.9     0.34      1013.0     2       175         3       187        8.47     267      -65.3
   07/11/2017 21:50      79.0      78.3       42     53.8      0.00      0.00      87.8     0.34      1013.0     1       172         1       137        8.48     267      -65.6
   07/11/2017 21:50      79.0      78.3       42     53.8      0.00      0.00      87.8     0.34      1013.0     1       172         1       137        8.48     267      -65.6
   07/11/2017 21:40      79.4      79.0       42     53.9      0.00      0.00      87.8     0.34      1013.0     1       192         2       183        8.48     267      -67.0
   07/11/2017 21:40      79.4      79.0       42     53.9      0.00      0.00      87.8     0.34      1013.0     1       192         2       183        8.48     267      -67.0
   07/11/2017 21:30      79.9      79.5       40     53.5      0.00      0.00      87.9     0.34      1013.0     2       197         3       219        8.48     267      -68.7
   07/11/2017 21:30      79.9      79.5       40     53.5      0.00      0.00      87.9     0.34      1013.0     2       197         3       219        8.48     267      -68.7
   07/11/2017 21:20      80.2      79.9       39     53.2      0.00      0.00      87.9     0.34      1012.0     3       219         4       225        8.48     267      -70.1
   07/11/2017 21:20      80.2      79.9       39     53.2      0.00      0.00      87.9     0.34      1012.0     3       219         4       225        8.48     267      -70.1
   07/11/2017 21:10      80.7      80.3       38     52.7      0.00      0.00      87.8     0.34      1012.0     3       225         5       215        8.48     267      -71.3
   07/11/2017 21:10      80.7      80.3       38     52.7      0.00      0.00      87.8     0.34      1012.0     3       225         5       215        8.48     267      -71.3
   07/11/2017 21:00      81.1      80.7       38     53.0      0.00      0.00      87.9     0.34      1012.0     3       222         4       228        8.48     267      -72.4
   07/11/2017 21:00      81.1      80.7       38     53.0      0.00      0.00      87.9     0.34      1012.0     3       222         4       228        8.48     267      -72.4
   07/11/2017 20:50      81.4      81.1       38     53.4      0.00      0.00      87.8     0.34      1012.0     3       227         5       223        8.49     267      -73.5
   07/11/2017 20:50      81.4      81.1       38     53.4      0.00      0.00      87.8     0.34      1012.0     3       227         5       223        8.49     267      -73.5
   07/11/2017 20:40      81.7      81.4       40     54.6      0.00      0.00      87.7     0.34      1012.0     2       264         3       278        8.49     267      -74.5
   07/11/2017 20:40      81.7      81.4       40     54.6      0.00      0.00      87.7     0.34      1012.0     2       264         3       278        8.49     267      -74.5
   07/11/2017 20:30      82.0      81.9       39     54.8      0.00      0.00      87.7     0.34      1012.0     3       312         4       295        8.49     267      -75.5
   07/11/2017 20:30      82.0      81.9       39     54.8      0.00      0.00      87.7     0.34      1012.0     3       312         4       295        8.49     267      -75.5
   07/11/2017 20:20      82.2      82.0       39     55.0      0.00      0.00      87.7     0.34      1012.0     3       325         6       323        8.49     267      -76.1
   07/11/2017 20:20      82.2      82.0       39     55.0      0.00      0.00      87.7     0.34      1012.0     3       325         6       323        8.49     267      -76.1
   07/11/2017 20:10      82.9      82.4       39     55.3      0.00      0.00      87.7     0.34      1012.0     4       311         6       313        8.49     267      -74.9
   07/11/2017 20:10      82.9      82.4       39     55.3      0.00      0.00      87.7     0.34      1012.0     4       311         6       313        8.49     267      -74.9
   07/11/2017 20:00      83.8      83.0       39     55.9      0.00      0.00      87.7     0.34      1012.0     4       305         7       316        8.50     267      -72.1
   07/11/2017 20:00      83.8      83.0       39     55.9      0.00      0.00      87.7     0.34      1012.0     4       305         7       316        8.50     267      -72.1
   07/11/2017 19:50      84.4      83.7       39     56.1      0.00      0.00      87.7     0.34      1012.0     4       305         7       286        8.50     267      -68.0
   07/11/2017 19:50      84.4      83.7       39     56.1      0.00      0.00      87.7     0.34      1012.0     4       305         7       286        8.50     267      -68.0
   07/11/2017 19:40      85.7      84.5       38     56.5      0.00      0.00      87.7     0.34      1011.0     5       313         7       324        8.50     267      -59.0
   07/11/2017 19:40      85.7      84.5       38     56.5      0.00      0.00      87.7     0.34      1011.0     5       313         7       324        8.50     267      -59.0
   07/11/2017 19:30      86.6      86.0       37     57.1      0.00      0.00      87.6     0.34      1011.0     5       309         8       311        8.50     267      -45.1
   07/11/2017 19:30      86.6      86.0       37     57.1      0.00      0.00      87.6     0.34      1011.0     5       309         8       311        8.50     267      -45.1
   07/11/2017 19:20      87.4      86.6       37     57.3      0.00      0.00      87.5     0.34      1011.0     5       309         7       260        8.50     267      -28.7
   07/11/2017 19:20      87.4      86.6       37     57.3      0.00      0.00      87.5     0.34      1011.0     5       309         7       260        8.50     267      -28.7
   07/11/2017 19:10      88.2      87.8       36     57.3      0.00      0.00      87.6     0.34      1011.0     3       300         4       318        8.50     267      -11.2
   07/11/2017 19:10      88.2      87.8       36     57.3      0.00      0.00      87.6     0.34      1011.0     3       300         4       318        8.50     267      -11.2
   07/11/2017 19:00      88.5      88.0       36     58.0      0.00      0.00      87.4     0.34      1011.0     4       246         6       207        8.50     267       10.8
   07/11/2017 19:00      88.5      88.0       36     58.0      0.00      0.00      87.4     0.34      1011.0     4       246         6       207        8.50     267       10.8
   07/11/2017 18:50      88.6      88.0       36     58.4      0.00      0.00      87.5     0.34      1011.0     5       229         8       236        8.51     267       33.6
   07/11/2017 18:50      88.6      88.0       36     58.4      0.00      0.00      87.5     0.34      1011.0     5       229         8       236        8.51     267       33.6
   07/11/2017 18:40      88.5      87.9       37     58.5      0.00      0.00      87.5     0.34      1011.0     6       214         8       233        8.51     267       57.3
   07/11/2017 18:40      88.5      87.9       37     58.5      0.00      0.00      87.5     0.34      1011.0     6       214         8       233        8.51     267       57.3
   07/11/2017 18:30      89.2      88.5       35     57.5      0.00      0.00      87.4     0.34      1011.0     6       210         8       183        8.51     267       77.5
   07/11/2017 18:30      89.2      88.5       35     57.5      0.00      0.00      87.4     0.34      1011.0     6       210         8       183        8.51     267       77.5
   07/11/2017 18:20      89.4      89.0       34     57.3      0.00      0.00      87.3     0.34      1011.0     6       159         8       152        8.52     267       96.8
   07/11/2017 18:20      89.4      89.0       34     57.3      0.00      0.00      87.3     0.34      1011.0     6       159         8       152        8.52     267       96.8
   07/11/2017 18:10      89.8      89.2       34     57.7      0.00      0.00      87.2     0.34      1011.0     5       154         6       157        8.52     267      119.1
   07/11/2017 18:10      89.8      89.2       34     57.7      0.00      0.00      87.2     0.34      1011.0     5       154         6       157        8.52     267      119.1
   07/11/2017 18:00      90.2      89.4       34     57.7      0.00      0.00      87.3     0.34      1011.0     6       154        10       175        8.52     267      143.3
   07/11/2017 18:00      90.2      89.4       34     57.7      0.00      0.00      87.3     0.34      1011.0     6       154        10       175        8.52     267      143.3
   07/11/2017 17:50      90.3      89.4       34     57.8      0.00      0.00      87.2     0.34      1011.0     6       180         9       175        8.53     267      168.7
   07/11/2017 17:50      90.3      89.4       34     57.8      0.00      0.00      87.2     0.34      1011.0     6       180         9       175        8.53     267      168.7
   07/11/2017 17:40      90.8      90.2       33     57.9      0.00      0.00      87.3     0.34      1011.0     6       165        10       178        8.53     267      192.1
   07/11/2017 17:40      90.8      90.2       33     57.9      0.00      0.00      87.3     0.34      1011.0     6       165        10       178        8.53     267      192.1
   07/11/2017 17:30      91.3      90.4       33     58.1      0.00      0.00      87.3     0.34      1011.0     6       178         7       177        8.53     267      213.2
   07/11/2017 17:30      91.3      90.4       33     58.1      0.00      0.00      87.3     0.34      1011.0     6       178         7       177        8.53     267      213.2
   07/11/2017 17:20      92.0      90.8       33     58.3      0.00      0.00      87.2     0.34      1011.0     7       152        10       132        8.53     267      235.9
   07/11/2017 17:20      92.0      90.8       33     58.3      0.00      0.00      87.2     0.34      1011.0     7       152        10       132        8.53     267      235.9
   07/11/2017 17:10      92.6      91.5       33     58.8      0.00      0.00      87.0     0.34      1011.0     5       179         6       216        8.54     267      255.7
   07/11/2017 17:10      92.6      91.5       33     58.8      0.00      0.00      87.0     0.34      1011.0     5       179         6       216        8.54     267      255.7
   07/11/2017 17:00      92.6      91.8       33     58.8      0.00      0.00      86.9     0.34      1011.0     4       197         8       195        8.54     267      273.6
   07/11/2017 17:00      92.6      91.8       33     58.8      0.00      0.00      86.9     0.34      1011.0     4       197         8       195        8.54     267      273.6
   07/11/2017 16:50      93.0      92.5       32     58.5      0.00      0.00      87.0     0.34      1011.0     3       257         6       247        8.54     267      294.3
   07/11/2017 16:50      93.0      92.5       32     58.5      0.00      0.00      87.0     0.34      1011.0     3       257         6       247        8.54     267      294.3
   07/11/2017 16:40      94.0      93.0       32     59.1      0.00      0.00      86.8     0.34      1011.0     5       250         8       243        8.55     268      311.1
   07/11/2017 16:40      94.0      93.0       32     59.1      0.00      0.00      86.8     0.34      1011.0     5       250         8       243        8.55     268      311.1
   07/11/2017 16:30      94.1      93.0       32     59.2      0.00      0.00      86.9     0.34      1011.0     4       259         6       231        8.55     268      325.1
   07/11/2017 16:30      94.1      93.0       32     59.2      0.00      0.00      86.9     0.34      1011.0     4       259         6       231        8.55     268      325.1
   07/11/2017 16:20      93.6      93.0       32     59.3      0.00      0.00      86.7     0.34      1011.0     4       239        10       275        8.56     268      344.3
   07/11/2017 16:20      93.6      93.0       32     59.3      0.00      0.00      86.7     0.34      1011.0     4       239        10       275        8.56     268      344.3
   07/11/2017 16:10      93.3      92.9       32     59.3      0.00      0.00      86.6     0.34      1011.0     5       238         7       212        8.57     268      363.8
   07/11/2017 16:10      93.3      92.9       32     59.3      0.00      0.00      86.6     0.34      1011.0     5       238         7       212        8.57     268      363.8
   07/11/2017 16:00      92.9      92.2       33     59.5      0.00      0.00      86.6     0.34      1011.0     5       229         7       228        8.57     267      384.1
   07/11/2017 16:00      92.9      92.2       33     59.5      0.00      0.00      86.6     0.34      1011.0     5       229         7       228        8.57     267      384.1
   07/11/2017 15:50      93.4      91.9       33     59.6      0.00      0.00      86.6     0.34      1011.0     6       224        10       232        8.57     267      402.8
   07/11/2017 15:50      93.4      91.9       33     59.6      0.00      0.00      86.6     0.34      1011.0     6       224        10       232        8.57     267      402.8
   07/11/2017 15:40      91.9      91.7       34     59.2      0.00      0.00      86.5     0.34      1012.0     7       198        10       192        8.58     267      416.5
   07/11/2017 15:40      91.9      91.7       34     59.2      0.00      0.00      86.5     0.34      1012.0     7       198        10       192        8.58     267      416.5
   07/11/2017 15:30      92.3      91.3       33     58.7      0.00      0.00      86.5     0.34      1012.0     7       180         9       225        8.58     267      426.9
   07/11/2017 15:30      92.3      91.3       33     58.7      0.00      0.00      86.5     0.34      1012.0     7       180         9       225        8.58     267      426.9
   07/11/2017 15:20      91.5      91.0       33     58.3      0.00      0.00      86.5     0.34      1012.0     7       142         9       127        8.58     267      430.5
   07/11/2017 15:20      91.5      91.0       33     58.3      0.00      0.00      86.5     0.34      1012.0     7       142         9       127        8.58     267      430.5
   07/11/2017 15:10      91.8      90.8       33     57.9      0.00      0.00      86.4     0.34      1012.0     6       164         9       143        8.61     268      447.7
   07/11/2017 15:10      91.8      90.8       33     57.9      0.00      0.00      86.4     0.34      1012.0     6       164         9       143        8.61     268      447.7
   07/11/2017 15:00      91.9      90.6       32     57.7      0.00      0.00      86.3     0.34      1012.0     6       178         7       208        8.61     267      443.2
   07/11/2017 15:00      91.9      90.6       32     57.7      0.00      0.00      86.3     0.34      1012.0     6       178         7       208        8.61     267      443.2
   07/11/2017 14:50      92.4      91.9       31     57.4      0.00      0.00      86.1     0.33      1012.0     6       181        10       161        8.61     267      469.7
   07/11/2017 14:50      92.4      91.9       31     57.4      0.00      0.00      86.1     0.33      1012.0     6       181        10       161        8.61     267      469.7
   07/11/2017 14:40      92.4      91.8       31     57.4      0.00      0.00      86.2     0.33      1012.0     5       156         9       141        8.61     268      484.8
   07/11/2017 14:40      92.4      91.8       31     57.4      0.00      0.00      86.2     0.33      1012.0     5       156         9       141        8.61     268      484.8
   07/11/2017 14:30      92.3      90.9       32     57.2      0.00      0.00      86.2     0.33      1012.0     6       202         9       162        8.62     268      501.6
   07/11/2017 14:30      92.3      90.9       32     57.2      0.00      0.00      86.2     0.33      1012.0     6       202         9       162        8.62     268      501.6
   07/11/2017 14:20      91.6      91.2       31     56.6      0.00      0.00      86.1     0.33      1012.0     6       176         9       165        8.70     268      514.3
   07/11/2017 14:20      91.6      91.2       31     56.6      0.00      0.00      86.1     0.33      1012.0     6       176         9       165        8.70     268      514.3
   07/11/2017 14:10      91.8      90.9       31     56.2      0.00      0.00      85.9     0.33      1013.0     6       185         9       215        8.72     268      523.3
   07/11/2017 14:10      91.8      90.9       31     56.2      0.00      0.00      85.9     0.33      1013.0     6       185         9       215        8.72     268      523.3
   07/11/2017 14:00      92.0      90.6       31     56.2      0.00      0.00      86.1     0.33      1013.0     5       183         9       150        8.73     268      536.1
   07/11/2017 14:00      92.0      90.6       31     56.2      0.00      0.00      86.1     0.33      1013.0     5       183         9       150        8.73     268      536.1
   07/11/2017 13:50      91.1      90.7       32     56.7      0.00      0.00      86.0     0.33      1013.0     6       165         9       218        8.73     268      542.6
   07/11/2017 13:50      91.1      90.7       32     56.7      0.00      0.00      86.0     0.33      1013.0     6       165         9       218        8.73     268      542.6
   07/11/2017 13:40      91.7      90.6       32     56.8      0.00      0.00      86.0     0.33      1013.0     5       183         8       225        8.74     268      543.7
   07/11/2017 13:40      91.7      90.6       32     56.8      0.00      0.00      86.0     0.33      1013.0     5       183         8       225        8.74     268      543.7
   07/11/2017 13:30      91.9      90.8       31     56.3      0.00      0.00      85.8     0.33      1013.0     7       167        10       126        8.74     268      550.1
   07/11/2017 13:30      91.9      90.8       31     56.3      0.00      0.00      85.8     0.33      1013.0     7       167        10       126        8.74     268      550.1
   07/11/2017 13:20      91.4      90.9       31     56.8      0.00      0.00      85.8     0.33      1013.0     7       172         9       160        8.75     268      554.8
   07/11/2017 13:20      91.4      90.9       31     56.8      0.00      0.00      85.8     0.33      1013.0     7       172         9       160        8.75     268      554.8
   07/11/2017 13:10      91.5      90.6       32     57.4      0.00      0.00      85.9     0.33      1013.0     6       159        10       134        8.75     268      555.7
   07/11/2017 13:10      91.5      90.6       32     57.4      0.00      0.00      85.9     0.33      1013.0     6       159        10       134        8.75     268      555.7
   07/11/2017 13:00      91.6      90.3       33     57.7      0.00      0.00      85.7     0.33      1013.0     5       189         9       204        8.75     268      551.1
   07/11/2017 13:00      91.6      90.3       33     57.7      0.00      0.00      85.7     0.33      1013.0     5       189         9       204        8.75     268      551.1
   07/11/2017 12:50      90.8      89.7       34     58.0      0.00      0.00      85.8     0.33      1013.0     5       167         9       136        8.75     268      552.3
   07/11/2017 12:50      90.8      89.7       34     58.0      0.00      0.00      85.8     0.33      1013.0     5       167         9       136        8.75     268      552.3
   07/11/2017 12:40      90.9      89.6       33     57.6      0.00      0.00      85.9     0.33      1013.0     7       139        11       122        8.75     268      555.1
   07/11/2017 12:40      90.9      89.6       33     57.6      0.00      0.00      85.9     0.33      1013.0     7       139        11       122        8.75     268      555.1
   07/11/2017 12:30      93.0      91.2       33     58.8      0.00      0.00      85.8     0.33      1013.0     5        93        10        94        8.75     269      545.6
   07/11/2017 12:30      93.0      91.2       33     58.8      0.00      0.00      85.8     0.33      1013.0     5        93        10        94        8.75     269      545.6
   07/11/2017 12:20      91.4      90.3       36     60.0      0.00      0.00      85.5     0.33      1013.0     7         0        11       342        8.75     269      539.6
   07/11/2017 12:20      91.4      90.3       36     60.0      0.00      0.00      85.5     0.33      1013.0     7         0        11       342        8.75     269      539.6
   07/11/2017 12:10      91.0      89.8       36     60.3      0.00      0.00      85.7     0.33      1013.0     4        13         6       352        8.75     270      532.1
   07/11/2017 12:10      91.0      89.8       36     60.3      0.00      0.00      85.7     0.33      1013.0     4        13         6       352        8.75     270      532.1
   07/11/2017 12:00      90.8      89.4       37     60.7      0.00      0.00      85.8     0.33      1013.0     3        41         6       351        8.75     270      524.3
   07/11/2017 12:00      90.8      89.4       37     60.7      0.00      0.00      85.8     0.33      1013.0     3        41         6       351        8.75     270      524.3
   07/11/2017 11:50      89.6      88.8       39     60.8      0.00      0.00      85.9     0.33      1013.0     4        26         7         1        8.75     270      517.6
   07/11/2017 11:50      89.6      88.8       39     60.8      0.00      0.00      85.9     0.33      1013.0     4        26         7         1        8.75     270      517.6
   07/11/2017 11:40      89.5      87.9       39     60.6      0.00      0.00      85.7     0.33      1013.0     3        22         4        29        8.76     270      500.2
   07/11/2017 11:40      89.5      87.9       39     60.6      0.00      0.00      85.7     0.33      1013.0     3        22         4        29        8.76     270      500.2
   07/11/2017 11:30      88.4      87.8       40     60.9      0.00      0.00      86.0     0.33      1013.0     4        12         6        73        8.76     270      499.7
   07/11/2017 11:30      88.4      87.8       40     60.9      0.00      0.00      86.0     0.33      1013.0     4        12         6        73        8.76     270      499.7
   07/11/2017 11:20      87.9      87.3       42     61.7      0.00      0.00      85.7     0.34      1013.0     4       348         8         3        8.76     270      489.7
   07/11/2017 11:20      87.9      87.3       42     61.7      0.00      0.00      85.7     0.34      1013.0     4       348         8         3        8.76     270      489.7
   07/11/2017 11:10      87.7      86.5       42     61.5      0.00      0.00      85.9     0.34      1013.0     3        32         5        25        8.76     270      478.3
   07/11/2017 11:10      87.7      86.5       42     61.5      0.00      0.00      85.9     0.34      1013.0     3        32         5        25        8.76     270      478.3
   07/11/2017 11:00      86.2      85.6       44     61.3      0.00      0.00      86.0     0.34      1013.0     2        19         5        27        8.76     271      469.4
   07/11/2017 11:00      86.2      85.6       44     61.3      0.00      0.00      86.0     0.34      1013.0     2        19         5        27        8.76     271      469.4
   07/11/2017 10:50      85.7      85.3       44     61.1      0.00      0.00      85.9     0.34      1013.0     3        17         5       338        8.76     271      465.8
   07/11/2017 10:50      85.7      85.3       44     61.1      0.00      0.00      85.9     0.34      1013.0     3        17         5       338        8.76     271      465.8
   07/11/2017 10:40      85.1      84.4       45     61.2      0.00      0.00      86.1     0.34      1013.0     4        19         5       328        8.76     271      450.0
   07/11/2017 10:40      85.1      84.4       45     61.2      0.00      0.00      86.1     0.34      1013.0     4        19         5       328        8.76     271      450.0
   07/11/2017 10:30      84.6      83.8       45     60.8      0.00      0.00      85.7     0.34      1013.0     2        38         5        73        8.76     271      437.7
   07/11/2017 10:30      84.6      83.8       45     60.8      0.00      0.00      85.7     0.34      1013.0     2        38         5        73        8.76     271      437.7
   07/11/2017 10:20      84.1      83.3       47     61.1      0.00      0.00      85.8     0.34      1014.0     3        26         6         1        8.77     271      408.6
   07/11/2017 10:20      84.1      83.3       47     61.1      0.00      0.00      85.8     0.34      1014.0     3        26         6         1        8.77     271      408.6
   07/11/2017 10:10      83.5      82.3       48     60.6      0.00      0.00      86.1     0.34      1014.0     2         3         4        58        8.77     271      391.7
   07/11/2017 10:10      83.5      82.3       48     60.6      0.00      0.00      86.1     0.34      1014.0     2         3         4        58        8.77     271      391.7
   07/11/2017 10:00      82.4      81.8       49     60.9      0.00      0.00      85.8     0.34      1014.0     2        66         3        86        8.77     271      385.8
   07/11/2017 10:00      82.4      81.8       49     60.9      0.00      0.00      85.8     0.34      1014.0     2        66         3        86        8.77     271      385.8
   07/11/2017 09:50      81.7      80.5       50     60.9      0.00      0.00      85.8     0.34      1014.0     2         3         3        24        8.77     271      363.9
   07/11/2017 09:50      81.7      80.5       50     60.9      0.00      0.00      85.8     0.34      1014.0     2         3         3        24        8.77     271      363.9
   07/11/2017 09:40      80.8      79.6       52     60.9      0.00      0.00      86.2     0.34      1014.0     3         3         4        20        8.77     271      348.2
   07/11/2017 09:40      80.8      79.6       52     60.9      0.00      0.00      86.2     0.34      1014.0     3         3         4        20        8.77     271      348.2
   07/11/2017 09:30      80.2      79.3       53     61.2      0.00      0.00      86.0     0.34      1014.0     2        26         4       326        8.77     271      333.5
   07/11/2017 09:30      80.2      79.3       53     61.2      0.00      0.00      86.0     0.34      1014.0     2        26         4       326        8.77     271      333.5
   07/11/2017 09:20      79.3      78.3       55     61.4      0.00      0.00      86.2     0.34      1014.0     3         6         5       352        8.77     271      322.4
   07/11/2017 09:20      79.3      78.3       55     61.4      0.00      0.00      86.2     0.34      1014.0     3         6         5       352        8.77     271      322.4
   07/11/2017 09:10      78.6      78.3       56     61.3      0.00      0.00      86.0     0.34      1014.0     2       352         3       338        8.77     271      309.3
   07/11/2017 09:10      78.6      78.3       56     61.3      0.00      0.00      86.0     0.34      1014.0     2       352         3       338        8.77     271      309.3
   07/11/2017 09:00      78.6      76.7       57     61.3      0.00      0.00      86.0     0.34      1014.0     2        56         4        30        8.78     271      305.9
   07/11/2017 09:00      78.6      76.7       57     61.3      0.00      0.00      86.0     0.34      1014.0     2        56         4        30        8.78     271      305.9
   07/11/2017 08:50      76.5      75.6       60     61.4      0.00      0.00      86.3     0.34      1014.0     2        20         3        30        8.78     271      207.6
   07/11/2017 08:50      76.5      75.6       60     61.4      0.00      0.00      86.3     0.34      1014.0     2        20         3        30        8.78     271      207.6
   07/11/2017 08:40      75.5      74.7       62     61.2      0.00      0.00      86.1     0.34      1014.0     2        93         3       131        8.78     271       30.1
   07/11/2017 08:40      75.5      74.7       62     61.2      0.00      0.00      86.1     0.34      1014.0     2        93         3       131        8.78     271       30.1
   07/11/2017 08:30      74.9      74.3       63     61.1      0.00      0.00      86.4     0.34      1014.0     2       134         3       107        8.78     271       17.5
   07/11/2017 08:30      74.9      74.3       63     61.1      0.00      0.00      86.4     0.34      1014.0     2       134         3       107        8.78     271       17.5
   07/11/2017 08:20      74.4      73.8       64     61.3      0.00      0.00      86.2     0.34      1014.0     2        75         4       103        8.78     271       13.8
   07/11/2017 08:20      74.4      73.8       64     61.3      0.00      0.00      86.2     0.34      1014.0     2        75         4       103        8.78     271       13.8
   07/11/2017 08:10      73.8      73.2       65     61.0      0.00      0.00      86.2     0.34      1014.0     1       125         3       156        8.78     271       15.3
   07/11/2017 08:10      73.8      73.2       65     61.0      0.00      0.00      86.2     0.34      1014.0     1       125         3       156        8.78     271       15.3
   07/11/2017 08:00      73.3      72.6       66     60.8      0.00      0.00      86.7     0.34      1014.0     1        86         3        73        8.78     271       36.0
   07/11/2017 08:00      73.3      72.6       66     60.8      0.00      0.00      86.7     0.34      1014.0     1        86         3        73        8.78     271       36.0
   07/11/2017 07:50      72.8      72.2       67     60.9      0.00      0.00      86.5     0.34      1014.0     1       339         3         5        8.78     271       12.1
   07/11/2017 07:50      72.8      72.2       67     60.9      0.00      0.00      86.5     0.34      1014.0     1       339         3         5        8.78     271       12.1
   07/11/2017 07:40      72.5      72.0       67     60.8      0.00      0.00      86.5     0.34      1014.0     1       357         2         3        8.78     271        8.3
   07/11/2017 07:40      72.5      72.0       67     60.8      0.00      0.00      86.5     0.34      1014.0     1       357         2         3        8.78     271        8.3
   07/11/2017 07:30      72.2      71.4       68     60.6      0.00      0.00      86.7     0.34      1014.0     1        45         3        39        8.78     271        0.3
   07/11/2017 07:30      72.2      71.4       68     60.6      0.00      0.00      86.7     0.34      1014.0     1        45         3        39        8.78     271        0.3
   07/11/2017 07:20      71.4      70.9       71     61.1      0.00      0.00      86.7     0.34      1014.0     1        77         3        78        8.78     271       -6.1
   07/11/2017 07:20      71.4      70.9       71     61.1      0.00      0.00      86.7     0.34      1014.0     1        77         3        78        8.78     271       -6.1
   07/11/2017 07:10      70.9      70.3       72     61.2      0.00      0.00      86.7     0.34      1014.0     1        75         2        59        8.79     271       -6.8
   07/11/2017 07:10      70.9      70.3       72     61.2      0.00      0.00      86.7     0.34      1014.0     1        75         2        59        8.79     271       -6.8
   07/11/2017 07:00      70.5      70.0       73     61.1      0.00      0.00      86.6     0.34      1014.0     1       123         2        95        8.79     271      -19.1
   07/11/2017 07:00      70.5      70.0       73     61.1      0.00      0.00      86.6     0.34      1014.0     1       123         2        95        8.79     271      -19.1
   07/11/2017 06:50      70.1      69.4       74     60.9      0.00      0.00      86.8     0.35      1014.0     1        97         3       110        8.79     271      -22.0
   07/11/2017 06:50      70.1      69.4       74     60.9      0.00      0.00      86.8     0.35      1014.0     1        97         3       110        8.79     271      -22.0
   07/11/2017 06:40      69.4      68.6       74     60.5      0.00      0.00      86.8     0.35      1014.0     1       132         1       144        8.79     271      -29.0
   07/11/2017 06:40      69.4      68.6       74     60.5      0.00      0.00      86.8     0.35      1014.0     1       132         1       144        8.79     271      -29.0
   07/11/2017 06:30      68.8      68.3       73     59.4      0.00      0.00      86.7     0.35      1014.0     1       109         1       111        8.79     271      -34.6
   07/11/2017 06:30      68.8      68.3       73     59.4      0.00      0.00      86.7     0.35      1014.0     1       109         1       111        8.79     271      -34.6
   07/11/2017 06:20      68.2      67.5       73     59.0      0.00      0.00      86.8     0.35      1014.0     0       118         0       241        8.79     271      -36.4
   07/11/2017 06:20      68.2      67.5       73     59.0      0.00      0.00      86.8     0.35      1014.0     0       118         0       241        8.79     271      -36.4
   07/11/2017 06:10      67.7      67.2       74     58.6      0.00      0.00      86.8     0.35      1014.0     1       160         2       137        8.79     271      -43.5
   07/11/2017 06:10      67.7      67.2       74     58.6      0.00      0.00      86.8     0.35      1014.0     1       160         2       137        8.79     271      -43.5
   07/11/2017 06:00      67.7      67.4       73     58.7      0.00      0.00      87.0     0.35      1014.0     1       140         2       139        8.79     271      -47.8
   07/11/2017 06:00      67.7      67.4       73     58.7      0.00      0.00      87.0     0.35      1014.0     1       140         2       139        8.79     271      -47.8
   07/11/2017 05:50      67.8      67.5       73     58.8      0.00      0.00      87.0     0.35      1013.0     1       156         1       165        8.79     270      -50.5
   07/11/2017 05:50      67.8      67.5       73     58.8      0.00      0.00      87.0     0.35      1013.0     1       156         1       165        8.79     270      -50.5
   07/11/2017 05:40      68.0      67.6       74     59.3      0.00      0.00      86.9     0.35      1013.0     0       142         1       167        8.79     270      -52.4
   07/11/2017 05:40      68.0      67.6       74     59.3      0.00      0.00      86.9     0.35      1013.0     0       142         1       167        8.79     270      -52.4
   07/11/2017 05:30      68.4      68.1       75     59.9      0.00      0.00      86.9     0.35      1013.0     1       116         1       168        8.79     270      -52.9
   07/11/2017 05:30      68.4      68.1       75     59.9      0.00      0.00      86.9     0.35      1013.0     1       116         1       168        8.79     270      -52.9
   07/11/2017 05:20      68.9      68.4       75     60.5      0.00      0.00      87.0     0.35      1013.0     1       102         1        57        8.79     270      -53.9
   07/11/2017 05:20      68.9      68.4       75     60.5      0.00      0.00      87.0     0.35      1013.0     1       102         1        57        8.79     270      -53.9
   07/11/2017 05:10      68.9      68.4       76     60.7      0.00      0.00      86.9     0.35      1013.0     1        86         2       117        8.79     270      -55.0
   07/11/2017 05:10      68.9      68.4       76     60.7      0.00      0.00      86.9     0.35      1013.0     1        86         2       117        8.79     270      -55.0
   07/11/2017 05:00      68.5      68.1       75     60.0      0.00      0.00      87.3     0.35      1013.0     1       109         2       123        8.79     270      -54.2
   07/11/2017 05:00      68.5      68.1       75     60.0      0.00      0.00      87.3     0.35      1013.0     1       109         2       123        8.79     270      -54.2
   07/11/2017 04:50      68.6      68.4       74     59.8      0.00      0.00      87.1     0.35      1013.0     1        84         2        78        8.79     270      -54.6
   07/11/2017 04:50      68.6      68.4       74     59.8      0.00      0.00      87.1     0.35      1013.0     1        84         2        78        8.79     270      -54.6
   07/11/2017 04:40      68.7      68.5       73     59.5      0.00      0.00      87.4     0.35      1013.0     1        86         2        81        8.79     270      -55.0
   07/11/2017 04:40      68.7      68.5       73     59.5      0.00      0.00      87.4     0.35      1013.0     1        86         2        81        8.79     270      -55.0
   07/11/2017 04:30      68.8      68.6       73     59.6      0.00      0.00      87.2     0.35      1013.0     1        92         2        70        8.79     270      -54.4
   07/11/2017 04:30      68.8      68.6       73     59.6      0.00      0.00      87.2     0.35      1013.0     1        92         2        70        8.79     270      -54.4
   07/11/2017 04:20      68.7      68.4       72     59.1      0.00      0.00      87.1     0.35      1013.0     1       107         1        97        8.79     270      -53.8
   07/11/2017 04:20      68.7      68.4       72     59.1      0.00      0.00      87.1     0.35      1013.0     1       107         1        97        8.79     270      -53.8
   07/11/2017 04:10      69.1      68.6       70     58.8      0.00      0.00      87.5     0.35      1013.0     1        95         2       102        8.80     270      -54.9
   07/11/2017 04:10      69.1      68.6       70     58.8      0.00      0.00      87.5     0.35      1013.0     1        95         2       102        8.80     270      -54.9
   07/11/2017 04:00      69.6      69.1       69     58.9      0.00      0.00      87.4     0.35      1013.0     1       147         1       107        8.80     270      -55.0
   07/11/2017 04:00      69.6      69.1       69     58.9      0.00      0.00      87.4     0.35      1013.0     1       147         1       107        8.80     270      -55.0
   07/11/2017 03:50      69.9      69.6       68     58.9      0.00      0.00      87.4     0.35      1013.0     0        89         1       106        8.80     270      -56.1
   07/11/2017 03:50      69.9      69.6       68     58.9      0.00      0.00      87.4     0.35      1013.0     0        89         1       106        8.80     270      -56.1
   07/11/2017 03:40      70.2      69.8       67     58.8      0.00      0.00      87.3     0.35      1013.0     1        99         1       128        8.80     270      -57.2
   07/11/2017 03:40      70.2      69.8       67     58.8      0.00      0.00      87.3     0.35      1013.0     1        99         1       128        8.80     270      -57.2
   07/11/2017 03:30      70.3      70.1       66     58.6      0.00      0.00      87.5     0.35      1013.0     1        59         2        81        8.80     270      -57.4
   07/11/2017 03:30      70.3      70.1       66     58.6      0.00      0.00      87.5     0.35      1013.0     1        59         2        81        8.80     270      -57.4
   07/11/2017 03:20      70.6      70.2       65     58.1      0.00      0.00      87.5     0.35      1013.0     1        35         1        37        8.80     270      -57.7
   07/11/2017 03:20      70.6      70.2       65     58.1      0.00      0.00      87.5     0.35      1013.0     1        35         1        37        8.80     270      -57.7
   07/11/2017 03:10      70.9      70.4       64     57.8      0.00      0.00      87.7     0.35      1013.0     1        77         2       111        8.80     270      -58.0
   07/11/2017 03:10      70.9      70.4       64     57.8      0.00      0.00      87.7     0.35      1013.0     1        77         2       111        8.80     270      -58.0
   07/11/2017 03:00      71.0      70.9       63     57.6      0.00      0.00      87.4     0.35      1013.0     1        52         2        35        8.80     269      -58.4
   07/11/2017 03:00      71.0      70.9       63     57.6      0.00      0.00      87.4     0.35      1013.0     1        52         2        35        8.80     269      -58.4
   07/11/2017 02:50      71.3      71.0       62     57.5      0.00      0.00      87.7     0.35      1013.0     1        83         2        70        8.80     270      -58.5
   07/11/2017 02:50      71.3      71.0       62     57.5      0.00      0.00      87.7     0.35      1013.0     1        83         2        70        8.80     270      -58.5
   07/11/2017 02:40      71.5      71.3       61     57.2      0.00      0.00      87.5     0.35      1013.0     2        70         3        80        8.80     269      -58.8
   07/11/2017 02:40      71.5      71.3       61     57.2      0.00      0.00      87.5     0.35      1013.0     2        70         3        80        8.80     269      -58.8
   07/11/2017 02:30      71.8      71.5       61     57.3      0.00      0.00      87.9     0.35      1013.0     2        61         3        77        8.80     269      -58.7
   07/11/2017 02:30      71.8      71.5       61     57.3      0.00      0.00      87.9     0.35      1013.0     2        61         3        77        8.80     269      -58.7
   07/11/2017 02:20      72.0      71.8       60     57.3      0.00      0.00      87.7     0.35      1013.0     2        70         3        92        8.80     269      -58.4
   07/11/2017 02:20      72.0      71.8       60     57.3      0.00      0.00      87.7     0.35      1013.0     2        70         3        92        8.80     269      -58.4
   07/11/2017 02:10      72.3      72.0       59     57.3      0.00      0.00      87.6     0.35      1013.0     2        63         3        65        8.80     269      -58.0
   07/11/2017 02:10      72.3      72.0       59     57.3      0.00      0.00      87.6     0.35      1013.0     2        63         3        65        8.80     269      -58.0
   07/11/2017 02:00      72.6      72.3       59     57.3      0.00      0.00      87.7     0.35      1013.0     1        54         3        65        8.80     269      -58.5
   07/11/2017 02:00      72.6      72.3       59     57.3      0.00      0.00      87.7     0.35      1013.0     1        54         3        65        8.80     269      -58.5
   07/11/2017 01:50      72.8      72.4       58     57.0      0.00      0.00      87.8     0.35      1013.0     1        39         2        40        8.80     269      -58.6
   07/11/2017 01:50      72.8      72.4       58     57.0      0.00      0.00      87.8     0.35      1013.0     1        39         2        40        8.80     269      -58.6
   07/11/2017 01:40      72.6      71.8       57     56.1      0.00      0.00      87.8     0.35      1013.0     2        52         3        56        8.80     269      -58.2
   07/11/2017 01:40      72.6      71.8       57     56.1      0.00      0.00      87.8     0.35      1013.0     2        52         3        56        8.80     269      -58.2
   07/11/2017 01:30      72.0      71.5       55     54.8      0.00      0.00      87.9     0.35      1013.0     1        84         2        90        8.80     269      -57.3
   07/11/2017 01:30      72.0      71.5       55     54.8      0.00      0.00      87.9     0.35      1013.0     1        84         2        90        8.80     269      -57.3
   07/11/2017 01:20      72.2      71.8       54     54.6      0.00      0.00      88.0     0.35      1013.0     1        85         1        85        8.80     269      -57.2
   07/11/2017 01:20      72.2      71.8       54     54.6      0.00      0.00      88.0     0.35      1013.0     1        85         1        85        8.80     269      -57.2
   07/11/2017 01:10      72.3      72.2       54     54.7      0.00      0.00      88.0     0.35      1013.0     1       149         1       139        8.80     269      -57.3
   07/11/2017 01:10      72.3      72.2       54     54.7      0.00      0.00      88.0     0.35      1013.0     1       149         1       139        8.80     269      -57.3
   07/11/2017 01:00      73.3      72.4       53     54.5      0.00      0.00      88.2     0.35      1013.0     1       176         1       126        8.81     269      -57.2
   07/11/2017 01:00      73.3      72.4       53     54.5      0.00      0.00      88.2     0.35      1013.0     1       176         1       126        8.81     269      -57.2
   07/11/2017 00:50      73.3      73.2       53     54.9      0.00      0.00      88.1     0.35      1013.0     1       226         1       228        8.81     269      -57.1
   07/11/2017 00:50      73.3      73.2       53     54.9      0.00      0.00      88.1     0.35      1013.0     1       226         1       228        8.81     269      -57.1
   07/11/2017 00:40      73.8      73.2       52     55.0      0.00      0.00      88.2     0.35      1013.0     1       152         1        99        8.81     269      -58.8
   07/11/2017 00:40      73.8      73.2       52     55.0      0.00      0.00      88.2     0.35      1013.0     1       152         1        99        8.81     269      -58.8
   07/11/2017 00:30      74.1      73.8       52     55.1      0.00      0.00      88.2     0.35      1013.0     1        96         2       122        8.81     269      -60.9
   07/11/2017 00:30      74.1      73.8       52     55.1      0.00      0.00      88.2     0.35      1013.0     1        96         2       122        8.81     269      -60.9
   07/11/2017 00:20      74.4      74.2       51     54.9      0.00      0.00      88.1     0.35      1013.0     2        99         3        81        8.81     269      -61.7
   07/11/2017 00:20      74.4      74.2       51     54.9      0.00      0.00      88.1     0.35      1013.0     2        99         3        81        8.81     269      -61.7
   07/11/2017 00:10      75.0      74.5       50     55.1      0.00      0.00      88.3     0.35      1013.0     1        90         2        69        8.81     269      -61.9
   07/11/2017 00:10      75.0      74.5       50     55.1      0.00      0.00      88.3     0.35      1013.0     1        90         2        69        8.81     269      -61.9
   07/11/2017 00:00      75.3      75.0       50     55.5      0.00      0.00      88.1     0.35      1013.0     1        55         2        82        8.81     269      -62.1
   07/11/2017 00:00      75.3      75.0       50     55.5      0.00      0.00      88.1     0.35      1013.0     1        55         2        82        8.81     269      -62.1
   07/10/2017 23:50      75.7      75.4       51     56.0      0.00      0.00      88.3     0.35      1013.0     1        53         2        43        8.81     269      -62.5
   07/10/2017 23:50      75.7      75.4       51     56.0      0.00      0.00      88.3     0.35      1013.0     1        53         2        43        8.81     269      -62.5
   07/10/2017 23:40      76.3      75.7       52     57.2      0.00      0.00      88.1     0.35      1013.0     2        58         4        57        8.81     269      -62.6
   07/10/2017 23:40      76.3      75.7       52     57.2      0.00      0.00      88.1     0.35      1013.0     2        58         4        57        8.81     269      -62.6
   07/10/2017 23:30      76.7      76.3       52     57.8      0.00      0.00      88.4     0.35      1013.0     1        72         2        50        8.81     268      -61.5
   07/10/2017 23:30      76.7      76.3       52     57.8      0.00      0.00      88.4     0.35      1013.0     1        72         2        50        8.81     268      -61.5
   07/10/2017 23:20      77.0      76.7       51     57.6      0.00      0.00      88.2     0.35      1013.0     1        82         2        79        8.81     269      -62.2
   07/10/2017 23:20      77.0      76.7       51     57.6      0.00      0.00      88.2     0.35      1013.0     1        82         2        79        8.81     269      -62.2
   07/10/2017 23:10      77.7      77.1       49     57.0      0.00      0.00      88.5     0.35      1013.0     1        63         1        99        8.81     269      -63.0
   07/10/2017 23:10      77.7      77.1       49     57.0      0.00      0.00      88.5     0.35      1013.0     1        63         1        99        8.81     269      -63.0
   07/10/2017 23:00      77.9      77.6       48     56.5      0.00      0.00      88.4     0.35      1013.0     1        65         1        66        8.81     268      -63.0
   07/10/2017 23:00      77.9      77.6       48     56.5      0.00      0.00      88.4     0.35      1013.0     1        65         1        66        8.81     268      -63.0
   07/10/2017 22:50      78.4      77.9       46     56.0      0.00      0.00      88.2     0.35      1013.0     1        80         2        71        8.81     268      -62.7
   07/10/2017 22:50      78.4      77.9       46     56.0      0.00      0.00      88.2     0.35      1013.0     1        80         2        71        8.81     268      -62.7
   07/10/2017 22:40      78.8      78.5       45     55.8      0.00      0.00      88.3     0.35      1013.0     1        53         2        57        8.81     268      -62.5
   07/10/2017 22:40      78.8      78.5       45     55.8      0.00      0.00      88.3     0.35      1013.0     1        53         2        57        8.81     268      -62.5
   07/10/2017 22:30      79.3      78.8       45     55.9      0.00      0.00      88.4     0.35      1013.0     2       104         2        70        8.82     268      -63.7
   07/10/2017 22:30      79.3      78.8       45     55.9      0.00      0.00      88.4     0.35      1013.0     2       104         2        70        8.82     268      -63.7
   07/10/2017 22:20      79.4      79.1       44     55.9      0.00      0.00      88.4     0.35      1013.0     2        95         2        81        8.82     268      -63.8
   07/10/2017 22:20      79.4      79.1       44     55.9      0.00      0.00      88.4     0.35      1013.0     2        95         2        81        8.82     268      -63.8
   07/10/2017 22:10      79.6      79.4       44     55.7      0.00      0.00      88.5     0.35      1012.0     2        99         2        96        8.82     268      -64.6
   07/10/2017 22:10      79.6      79.4       44     55.7      0.00      0.00      88.5     0.35      1012.0     2        99         2        96        8.82     268      -64.6
   07/10/2017 22:00      79.9      79.7       43     55.2      0.00      0.00      88.2     0.35      1012.0     1        92         2       111        8.82     268      -64.9
   07/10/2017 22:00      79.9      79.7       43     55.2      0.00      0.00      88.2     0.35      1012.0     1        92         2       111        8.82     268      -64.9
   07/10/2017 21:50      80.5      80.0       42     55.0      0.00      0.00      88.4     0.35      1012.0     1        69         1        44        8.82     268      -65.0
   07/10/2017 21:50      80.5      80.0       42     55.0      0.00      0.00      88.4     0.35      1012.0     1        69         1        44        8.82     268      -65.0
   07/10/2017 21:40      80.9      80.7       42     55.4      0.00      0.00      88.4     0.35      1012.0     1        88         2        70        8.82     268      -65.5
   07/10/2017 21:40      80.9      80.7       42     55.4      0.00      0.00      88.4     0.35      1012.0     1        88         2        70        8.82     268      -65.5
   07/10/2017 21:30      80.8      80.5       41     54.7      0.00      0.00      88.3     0.35      1012.0     2        95         2        79        8.82     267      -65.9
   07/10/2017 21:30      80.8      80.5       41     54.7      0.00      0.00      88.3     0.35      1012.0     2        95         2        79        8.82     267      -65.9
   07/10/2017 21:20      81.3      80.8       37     52.4      0.00      0.00      88.4     0.35      1012.0     1       107         1       110        8.82     267      -66.0
   07/10/2017 21:20      81.3      80.8       37     52.4      0.00      0.00      88.4     0.35      1012.0     1       107         1       110        8.82     267      -66.0
   07/10/2017 21:10      81.9      81.2       36     52.4      0.00      0.00      88.3     0.35      1012.0     1       104         1       111        8.82     267      -67.2
   07/10/2017 21:10      81.9      81.2       36     52.4      0.00      0.00      88.3     0.35      1012.0     1       104         1       111        8.82     267      -67.2
   07/10/2017 21:00      82.5      82.2       35     52.4      0.00      0.00      88.3     0.35      1012.0     1        82         1        81        8.83     267      -69.7
   07/10/2017 21:00      82.5      82.2       35     52.4      0.00      0.00      88.3     0.35      1012.0     1        82         1        81        8.83     267      -69.7
   07/10/2017 20:50      83.3      82.6       36     53.1      0.00      0.00      88.2     0.35      1012.0     1        66         2        73        8.83     267      -72.3
   07/10/2017 20:50      83.3      82.6       36     53.1      0.00      0.00      88.2     0.35      1012.0     1        66         2        73        8.83     267      -72.3
   07/10/2017 20:40      83.5      83.2       35     53.0      0.00      0.00      88.4     0.35      1012.0     2       132         3       140        8.83     267      -73.2
   07/10/2017 20:40      83.5      83.2       35     53.0      0.00      0.00      88.4     0.35      1012.0     2       132         3       140        8.83     267      -73.2
   07/10/2017 20:30      84.3      83.6       35     53.3      0.00      0.00      88.4     0.35      1012.0     3       172         5       151        8.83     267      -74.0
   07/10/2017 20:30      84.3      83.6       35     53.3      0.00      0.00      88.4     0.35      1012.0     3       172         5       151        8.83     267      -74.0
   07/10/2017 20:20      85.2      84.6       35     53.8      0.00      0.00      88.5     0.35      1011.0     3       160         5       164        8.84     267      -74.8
   07/10/2017 20:20      85.2      84.6       35     53.8      0.00      0.00      88.5     0.35      1011.0     3       160         5       164        8.84     267      -74.8
   07/10/2017 20:10      86.7      85.3       33     53.9      0.00      0.00      88.4     0.35      1011.0     3       173         4       165        8.84     267      -74.5
   07/10/2017 20:10      86.7      85.3       33     53.9      0.00      0.00      88.4     0.35      1011.0     3       173         4       165        8.84     267      -74.5
   07/10/2017 20:00      87.9      86.8       32     54.1      0.00      0.00      88.4     0.35      1011.0     2       207         4       157        8.85     267      -72.2
   07/10/2017 20:00      87.9      86.8       32     54.1      0.00      0.00      88.4     0.35      1011.0     2       207         4       157        8.85     267      -72.2
   07/10/2017 19:50      89.3      88.0       31     54.3      0.00      0.00      88.1     0.35      1011.0     1       108         2       117        8.85     267      -67.3
   07/10/2017 19:50      89.3      88.0       31     54.3      0.00      0.00      88.1     0.35      1011.0     1       108         2       117        8.85     267      -67.3
   07/10/2017 19:40      90.2      89.5       30     54.7      0.00      0.00      88.2     0.35      1011.0     2       193         3       205        8.85     267      -58.8
   07/10/2017 19:40      90.2      89.5       30     54.7      0.00      0.00      88.2     0.35      1011.0     2       193         3       205        8.85     267      -58.8
   07/10/2017 19:30      90.7      90.1       30     55.3      0.00      0.00      88.2     0.35      1011.0     2       176         4       298        8.85     267      -46.1
   07/10/2017 19:30      90.7      90.1       30     55.3      0.00      0.00      88.2     0.35      1011.0     2       176         4       298        8.85     267      -46.1
   07/10/2017 19:20      91.0      90.2       30     55.0      0.00      0.00      88.4     0.35      1011.0     4       252         6       231        8.85     267      -31.0
   07/10/2017 19:20      91.0      90.2       30     55.0      0.00      0.00      88.4     0.35      1011.0     4       252         6       231        8.85     267      -31.0
   07/10/2017 19:10      91.4      91.2       30     55.2      0.00      0.00      88.3     0.35      1011.0     3       281         6       285        8.85     267      -16.1
   07/10/2017 19:10      91.4      91.2       30     55.2      0.00      0.00      88.3     0.35      1011.0     3       281         6       285        8.85     267      -16.1
   07/10/2017 19:00      92.2      91.6       29     55.6      0.00      0.00      88.3     0.35      1011.0     3       298         6       302        8.86     267       -0.7
   07/10/2017 19:00      92.2      91.6       29     55.6      0.00      0.00      88.3     0.35      1011.0     3       298         6       302        8.86     267       -0.7
   07/10/2017 18:50      92.2      91.6       30     55.8      0.00      0.00      88.3     0.35      1011.0     4       262         7       214        8.88     267       15.9
   07/10/2017 18:50      92.2      91.6       30     55.8      0.00      0.00      88.3     0.35      1011.0     4       262         7       214        8.88     267       15.9
   07/10/2017 18:40      93.2      92.0       29     56.1      0.00      0.00      88.2     0.35      1010.0     4       256         6       240        8.89     267       35.8
   07/10/2017 18:40      93.2      92.0       29     56.1      0.00      0.00      88.2     0.35      1010.0     4       256         6       240        8.89     267       35.8
   07/10/2017 18:30      93.1      92.8       30     56.5      0.00      0.00      88.3     0.35      1010.0     4       281         9       260        8.90     267       59.8
   07/10/2017 18:30      93.1      92.8       30     56.5      0.00      0.00      88.3     0.35      1010.0     4       281         9       260        8.90     267       59.8
   07/10/2017 18:20      94.3      93.0       28     56.1      0.00      0.00      88.2     0.35      1010.0     4       253         6       251        8.90     267       82.1
   07/10/2017 18:20      94.3      93.0       28     56.1      0.00      0.00      88.2     0.35      1010.0     4       253         6       251        8.90     267       82.1
   07/10/2017 18:10      94.7      93.9       28     56.4      0.00      0.00      88.0     0.35      1010.0     5       254         7       282        8.92     267      103.0
   07/10/2017 18:10      94.7      93.9       28     56.4      0.00      0.00      88.0     0.35      1010.0     5       254         7       282        8.92     267      103.0
   07/10/2017 18:00      94.7      93.9       28     55.8      0.00      0.00      88.0     0.34      1010.0     4       258         6       291        8.94     267      128.3
   07/10/2017 18:00      94.7      93.9       28     55.8      0.00      0.00      88.0     0.34      1010.0     4       258         6       291        8.94     267      128.3
   07/10/2017 17:50      94.2      93.7       27     54.9      0.00      0.00      88.1     0.34      1010.0     4       218         7       229        8.95     266      153.2
   07/10/2017 17:50      94.2      93.7       27     54.9      0.00      0.00      88.1     0.34      1010.0     4       218         7       229        8.95     266      153.2
   07/10/2017 17:40      94.8      93.8       26     54.4      0.00      0.00      88.0     0.34      1010.0     5       247         7       320        8.96     267      177.5
   07/10/2017 17:40      94.8      93.8       26     54.4      0.00      0.00      88.0     0.34      1010.0     5       247         7       320        8.96     267      177.5
   07/10/2017 17:30      94.2      93.5       27     55.1      0.00      0.00      88.0     0.34      1010.0     5       212         7       194        8.96     267      183.3
   07/10/2017 17:30      94.2      93.5       27     55.1      0.00      0.00      88.0     0.34      1010.0     5       212         7       194        8.96     267      183.3
   07/10/2017 17:20      95.1      94.4       25     53.9      0.00      0.00      87.9     0.34      1011.0     5       221         6       204        8.96     267      214.5
   07/10/2017 17:20      95.1      94.4       25     53.9      0.00      0.00      87.9     0.34      1011.0     5       221         6       204        8.96     267      214.5
   07/10/2017 17:10      94.4      94.1       25     53.3      0.00      0.00      87.9     0.34      1011.0     5       219         9       235        8.96     267      243.6
   07/10/2017 17:10      94.4      94.1       25     53.3      0.00      0.00      87.9     0.34      1011.0     5       219         9       235        8.96     267      243.6
   07/10/2017 17:00      94.8      94.1       26     54.6      0.00      0.00      87.9     0.34      1011.0     5       211         9       199        8.97     267      268.5
   07/10/2017 17:00      94.8      94.1       26     54.6      0.00      0.00      87.9     0.34      1011.0     5       211         9       199        8.97     267      268.5
   07/10/2017 16:50      96.6      95.2       25     54.7      0.00      0.00      87.8     0.34      1011.0     5       248         8       249        8.97     267      285.9
   07/10/2017 16:50      96.6      95.2       25     54.7      0.00      0.00      87.8     0.34      1011.0     5       248         8       249        8.97     267      285.9
   07/10/2017 16:40      96.2      94.5       26     54.9      0.00      0.00      87.8     0.34      1011.0     3       193         7       185        8.97     268      306.9
   07/10/2017 16:40      96.2      94.5       26     54.9      0.00      0.00      87.8     0.34      1011.0     3       193         7       185        8.97     268      306.9
   07/10/2017 16:30      94.9      93.9       26     54.4      0.00      0.00      87.8     0.34      1011.0     5       184         8       160        8.97     268      328.7
   07/10/2017 16:30      94.9      93.9       26     54.4      0.00      0.00      87.8     0.34      1011.0     5       184         8       160        8.97     268      328.7
   07/10/2017 16:20      94.2      93.7       26     53.8      0.00      0.00      87.7     0.34      1011.0     6       162         8       190        8.97     268      347.7
   07/10/2017 16:20      94.2      93.7       26     53.8      0.00      0.00      87.7     0.34      1011.0     6       162         8       190        8.97     268      347.7
   07/10/2017 16:10      94.2      93.5       25     53.3      0.00      0.00      87.6     0.34      1011.0     6       164        11       177        8.98     268      366.4
   07/10/2017 16:10      94.2      93.5       25     53.3      0.00      0.00      87.6     0.34      1011.0     6       164        11       177        8.98     268      366.4
   07/10/2017 16:00      93.9      93.4       25     52.7      0.00      0.00      87.6     0.34      1011.0     7       161         9       170        8.98     267      381.9
   07/10/2017 16:00      93.9      93.4       25     52.7      0.00      0.00      87.6     0.34      1011.0     7       161         9       170        8.98     267      381.9
   07/10/2017 15:50      94.1      93.4       25     52.2      0.00      0.00      87.5     0.34      1011.0     6       151         9       161        8.98     268      400.2
   07/10/2017 15:50      94.1      93.4       25     52.2      0.00      0.00      87.5     0.34      1011.0     6       151         9       161        8.98     268      400.2
   07/10/2017 15:40      94.6      93.7       24     52.2      0.00      0.00      87.5     0.34      1011.0     7       139        11       150        8.99     268      415.6
   07/10/2017 15:40      94.6      93.7       24     52.2      0.00      0.00      87.5     0.34      1011.0     7       139        11       150        8.99     268      415.6
   07/10/2017 15:30      93.7      92.9       24     51.4      0.00      0.00      87.4     0.34      1012.0     7       156        10       156        8.99     268      433.5
   07/10/2017 15:30      93.7      92.9       24     51.4      0.00      0.00      87.4     0.34      1012.0     7       156        10       156        8.99     268      433.5
   07/10/2017 15:20      94.1      93.3       24     51.7      0.00      0.00      87.4     0.34      1012.0     7       172         9       128        9.00     268      444.6
   07/10/2017 15:20      94.1      93.3       24     51.7      0.00      0.00      87.4     0.34      1012.0     7       172         9       128        9.00     268      444.6
   07/10/2017 15:10      94.3      93.1       24     52.0      0.00      0.00      87.3     0.34      1012.0     6       186        10       204        9.00     268      459.9
   07/10/2017 15:10      94.3      93.1       24     52.0      0.00      0.00      87.3     0.34      1012.0     6       186        10       204        9.00     268      459.9
   07/10/2017 15:00      93.7      92.9       25     51.8      0.00      0.00      87.2     0.34      1012.0     7       167        10       155        9.01     268      474.6
   07/10/2017 15:00      93.7      92.9       25     51.8      0.00      0.00      87.2     0.34      1012.0     7       167        10       155        9.01     268      474.6
   07/10/2017 14:50      93.4      92.7       26     52.8      0.00      0.00      87.3     0.34      1012.0     9       148        13       145        9.01     268      488.0
   07/10/2017 14:50      93.4      92.7       26     52.8      0.00      0.00      87.3     0.34      1012.0     9       148        13       145        9.01     268      488.0
   07/10/2017 14:40      93.3      92.7       25     52.5      0.00      0.00      87.1     0.34      1012.0     9       146        14       161        9.02     268      495.8
   07/10/2017 14:40      93.3      92.7       25     52.5      0.00      0.00      87.1     0.34      1012.0     9       146        14       161        9.02     268      495.8
   07/10/2017 14:30      94.3      93.5       24     52.2      0.00      0.00      87.1     0.34      1012.0     9       154        14       171        9.02     268      505.2
   07/10/2017 14:30      94.3      93.5       24     52.2      0.00      0.00      87.1     0.34      1012.0     9       154        14       171        9.02     268      505.2
   07/10/2017 14:20      96.0      95.1       24     52.3      0.00      0.00      86.9     0.34      1012.0     9       157        12       164        9.03     269      507.7
   07/10/2017 14:20      96.0      95.1       24     52.3      0.00      0.00      86.9     0.34      1012.0     9       157        12       164        9.03     269      507.7
   07/10/2017 14:10      96.5      95.0       23     51.5      0.00      0.00      87.0     0.34      1012.0     6       147         9       145        9.03     270      510.0
   07/10/2017 14:10      96.5      95.0       23     51.5      0.00      0.00      87.0     0.34      1012.0     6       147         9       145        9.03     270      510.0
   07/10/2017 14:00      95.9      94.6       22     50.6      0.00      0.00      87.1     0.34      1012.0     6       195         9       165        9.04     270      516.7
   07/10/2017 14:00      95.9      94.6       22     50.6      0.00      0.00      87.1     0.34      1012.0     6       195         9       165        9.04     270      516.7
   07/10/2017 13:50      96.1      95.1       22     50.1      0.00      0.00      86.8     0.34      1012.0     6       168         9       146        9.05     271      523.7
   07/10/2017 13:50      96.1      95.1       22     50.1      0.00      0.00      86.8     0.34      1012.0     6       168         9       146        9.05     271      523.7
   07/10/2017 13:40      96.6      95.4       22     50.4      0.00      0.00      86.8     0.34      1012.0     5       182         8       153        9.05     272      526.2
   07/10/2017 13:40      96.6      95.4       22     50.4      0.00      0.00      86.8     0.34      1012.0     5       182         8       153        9.05     272      526.2
   07/10/2017 13:30      96.4      94.7       22     51.0      0.00      0.00      86.9     0.34      1012.0     4       242         9       164        9.06     273      527.9
   07/10/2017 13:30      96.4      94.7       22     51.0      0.00      0.00      86.9     0.34      1012.0     4       242         9       164        9.06     273      527.9
   07/10/2017 13:20      95.0      94.7       23     50.9      0.00      0.00      86.9     0.34      1012.0     4       201         6       171        9.06     273      536.9
   07/10/2017 13:20      95.0      94.7       23     50.9      0.00      0.00      86.9     0.34      1012.0     4       201         6       171        9.06     273      536.9
   07/10/2017 13:10      94.8      93.7       24     51.8      0.00      0.00      86.8     0.34      1012.0     5       191         7       194        9.07     274      541.7
   07/10/2017 13:10      94.8      93.7       24     51.8      0.00      0.00      86.8     0.34      1012.0     5       191         7       194        9.07     274      541.7
   07/10/2017 13:00      95.1      94.2       24     52.4      0.00      0.00      86.8     0.34      1013.0     6       190        10       158        9.07     275      545.5
   07/10/2017 13:00      95.1      94.2       24     52.4      0.00      0.00      86.8     0.34      1013.0     6       190        10       158        9.07     275      545.5
   07/10/2017 12:50      95.0      93.6       24     52.5      0.00      0.00      86.7     0.34      1013.0     5       180         8       163        9.07     276      547.2
   07/10/2017 12:50      95.0      93.6       24     52.5      0.00      0.00      86.7     0.34      1013.0     5       180         8       163        9.07     276      547.2
   07/10/2017 12:40      94.5      93.6       25     52.4      0.00      0.00      86.7     0.34      1013.0     6       190         8       217        9.08     277      549.4
   07/10/2017 12:40      94.5      93.6       25     52.4      0.00      0.00      86.7     0.34      1013.0     6       190         8       217        9.08     277      549.4
   07/10/2017 12:30      94.0      92.9       26     52.9      0.00      0.00      86.8     0.34      1013.0     5       183         7       178        9.08     279      550.6
   07/10/2017 12:30      94.0      92.9       26     52.9      0.00      0.00      86.8     0.34      1013.0     5       183         7       178        9.08     279      550.6
   07/10/2017 12:20      92.8      91.9       27     53.8      0.00      0.00      86.7     0.34      1013.0     7       187         9       174        9.08     280      550.6
   07/10/2017 12:20      92.8      91.9       27     53.8      0.00      0.00      86.7     0.34      1013.0     7       187         9       174        9.08     280      550.6
   07/10/2017 12:10      93.0      92.4       27     54.1      0.00      0.00      86.7     0.34      1013.0     7       174         9       161        9.09     282      547.0
   07/10/2017 12:10      93.0      92.4       27     54.1      0.00      0.00      86.7     0.34      1013.0     7       174         9       161        9.09     282      547.0
   07/10/2017 12:00      94.0      92.9       27     54.3      0.00      0.00      86.7     0.34      1013.0     6       192         8       185        9.09     285      544.1
   07/10/2017 12:00      94.0      92.9       27     54.3      0.00      0.00      86.7     0.34      1013.0     6       192         8       185        9.09     285      544.1
   07/10/2017 11:50      94.0      93.4       26     54.0      0.00      0.00      86.7     0.34      1013.0     6       143         9       142        9.09     293      533.0
   07/10/2017 11:50      94.0      93.4       26     54.0      0.00      0.00      86.7     0.34      1013.0     6       143         9       142        9.09     293      533.0
   07/10/2017 11:40      93.8      92.1       25     52.2      0.00      0.00      86.6     0.34      1013.0     3       124         5       116        9.09     301      527.7
   07/10/2017 11:40      93.8      92.1       25     52.2      0.00      0.00      86.6     0.34      1013.0     3       124         5       116        9.09     301      527.7
   07/10/2017 11:30      92.7      92.3       25     51.7      0.00      0.00      86.7     0.34      1013.0     4       130         7       136        9.09     313      519.0
   07/10/2017 11:30      92.7      92.3       25     51.7      0.00      0.00      86.7     0.34      1013.0     4       130         7       136        9.09     313      519.0
   07/10/2017 11:20      92.9      92.3       27     53.5      0.00      0.00      86.7     0.34      1013.0     5       106         8       123        9.09     337      511.7
   07/10/2017 11:20      92.9      92.3       27     53.5      0.00      0.00      86.7     0.34      1013.0     5       106         8       123        9.09     337      511.7
   07/10/2017 11:10      94.2      93.0       27     54.4      0.00      0.00      86.7     0.34      1013.0     4        62         7       127        9.09     371      494.8
   07/10/2017 11:10      94.2      93.0       27     54.4      0.00      0.00      86.7     0.34      1013.0     4        62         7       127        9.09     371      494.8
   07/10/2017 11:00      94.5      92.7       27     54.4      0.00      0.00      86.6     0.34      1013.0     2        34         5         5        9.09     405      486.3
   07/10/2017 11:00      94.5      92.7       27     54.4      0.00      0.00      86.6     0.34      1013.0     2        34         5         5        9.09     405      486.3
   07/10/2017 10:50      92.5      91.1       29     54.8      0.00      0.00      87.2     0.34      1013.0     2       352         4       106        9.09     437      477.4
   07/10/2017 10:50      92.5      91.1       29     54.8      0.00      0.00      87.2     0.34      1013.0     2       352         4       106        9.09     437      477.4
   07/10/2017 10:40      91.1      90.4       30     55.5      0.00      0.00      86.6     0.34      1013.0     4        85         6        76        9.09     482      463.8
   07/10/2017 10:40      91.1      90.4       30     55.5      0.00      0.00      86.6     0.34      1013.0     4        85         6        76        9.09     482      463.8
   07/10/2017 10:30      90.7      89.9       33     57.3      0.00      0.00      86.7     0.34      1013.0     3        41         6        14        9.09     523      450.8
   07/10/2017 10:30      90.7      89.9       33     57.3      0.00      0.00      86.7     0.34      1013.0     3        41         6        14        9.09     523      450.8
   07/10/2017 10:20      90.8      89.9       34     57.9      0.00      0.00      86.6     0.34      1013.0     3       120         4        91        9.09     553      431.0
   07/10/2017 10:20      90.8      89.9       34     57.9      0.00      0.00      86.6     0.34      1013.0     3       120         4        91        9.09     553      431.0
   07/10/2017 10:10      89.9      89.1       35     58.3      0.00      0.00      87.6     0.34      1013.0     3        80         6       125        9.09     578      414.9
   07/10/2017 10:10      89.9      89.1       35     58.3      0.00      0.00      87.6     0.34      1013.0     3        80         6       125        9.09     578      414.9
   07/10/2017 10:00      88.8      87.8       37     58.5      0.00      0.00      87.4     0.35      1013.0     3        70         6       138        9.09     588      391.8
   07/10/2017 10:00      88.8      87.8       37     58.5      0.00      0.00      87.4     0.35      1013.0     3        70         6       138        9.09     588      391.8
   07/10/2017 09:50      88.3      87.5       37     58.1      0.00      0.00      87.1     0.35      1013.0   196        26      1944       999        9.09     597      390.5
   07/10/2017 09:50      88.3      87.5       37     58.1      0.00      0.00      87.1     0.35      1013.0   196        26      1944       999        9.09     597      390.5
   07/10/2017 09:40      87.9      87.1       38     58.5      0.00      0.00      86.7     0.34      1013.0   197        80      1944       999        9.09     605      380.9
   07/10/2017 09:40      87.9      87.1       38     58.5      0.00      0.00      86.7     0.34      1013.0   197        80      1944       999        9.09     605      380.9
   07/10/2017 09:30      87.4      86.8       38     58.6      0.00      0.00      86.7     0.34      1013.0     3        44         5        97        9.09     609      368.7
   07/10/2017 09:30      87.4      86.8       38     58.6      0.00      0.00      86.7     0.34      1013.0     3        44         5        97        9.09     609      368.7
   07/10/2017 09:20      86.8      85.9       40     59.0      0.00      0.00      86.5     0.34      1013.0     3        40         4        69        9.09     561      349.5
   07/10/2017 09:20      86.8      85.9       40     59.0      0.00      0.00      86.5     0.34      1013.0     3        40         4        69        9.09     561      349.5
   07/10/2017 09:10      85.8      85.1       40     58.2      0.00      0.00      87.1     0.34      1013.0     3        55         6        90        9.09     269      314.5
   07/10/2017 09:10      85.8      85.1       40     58.2      0.00      0.00      87.1     0.34      1013.0     3        55         6        90        9.09     269      314.5
   07/10/2017 09:00      85.2      83.5       44     59.7      0.00      0.00      87.0     0.34      1013.0     2        59         3        73        9.07     269      312.9
   07/10/2017 09:00      85.2      83.5       44     59.7      0.00      0.00      87.0     0.34      1013.0     2        59         3        73        9.07     269      312.9
   07/10/2017 08:50      83.4      82.5       47     60.6      0.00      0.00      87.1     0.34      1013.0     2        36         3        34        9.07     269      261.4
   07/10/2017 08:50      83.4      82.5       47     60.6      0.00      0.00      87.1     0.34      1013.0     2        36         3        34        9.07     269      261.4
   07/10/2017 08:30      81.9      81.3       49     60.6      0.00      0.00      87.1     0.34      1013.0   391        67      1944       999        9.07     270       10.1
   07/10/2017 08:20      81.5      80.6       50     60.7      0.00      0.00      87.2     0.34      1013.0   196        38      1944       999        9.04     270        8.0
   07/10/2017 08:10      80.8      80.5       51     60.8      0.00      0.00      87.1     0.34      1013.0     2        24         3        20        8.03     270       11.6
   07/10/2017 08:00      80.7      80.4       50     60.4      0.00      0.00      87.3     0.34      1013.0     2       106         3       139        8.03     270       33.4
   07/10/2017 07:50      80.4      79.9       51     60.5      0.00      0.00      87.5     0.34      1013.0     2        52         3        67        8.03     270        9.7
   07/10/2017 07:40      80.0      79.4       52     60.3      0.00      0.00      87.3     0.34      1013.0     2        27         3        85        8.03     269       13.3
   07/10/2017 07:30      79.6      79.3       52     60.1      0.00      0.00      87.3     0.34      1013.0     2        23         2        34        8.03     270       12.4
   07/10/2017 07:20      79.5      79.0       51     59.5      0.00      0.00      87.5     0.34      1013.0     1        16         2       334        8.03     270       10.2
   07/10/2017 07:10      79.2      78.6       51     59.4      0.00      0.00      87.4     0.34      1013.0     1        64         1        88        8.03     270        6.7
   07/10/2017 07:00      78.6      78.0       52     59.5      0.00      0.00      87.4     0.34      1013.0     1        30         2        85        8.03     270       -1.0
   07/10/2017 06:50      78.0      77.2       53     59.3      0.00      0.00      87.3     0.34      1013.0     1       133         2       188        8.03     270        6.6
   07/10/2017 06:40      77.2      76.4       55     59.3      0.00      0.00      87.4     0.34      1013.0     1       157         2       145        8.03     270        9.1
   07/10/2017 06:30      76.5      75.4       55     58.7      0.00      0.00      87.2     0.34      1013.0     2       165         2       185        8.03     270        3.9
   07/10/2017 06:20      75.4      74.4       58     58.9      0.00      0.00      87.7     0.34      1013.0     2       159         2       166        8.03     269       -5.5
   07/10/2017 06:10      74.5      74.2       59     59.0      0.00      0.00      87.4     0.34      1013.0     2       152         2       154        8.03     269      -16.2
   07/10/2017 06:00      74.4      74.2       59     59.0      0.00      0.00      87.6     0.34      1013.0     2       143         2       159        8.03     270      -24.0
   07/10/2017 05:50      74.5      74.2       59     59.0      0.00      0.00      87.5     0.34      1013.0     1       136         2       141        8.03     269      -26.2
   07/10/2017 05:40      74.5      74.4       58     58.8      0.00      0.00      87.6     0.34      1012.0     0        42         1       141        8.03     269      -26.4
   07/10/2017 05:30      74.5      74.4       59     59.1      0.00      0.00      87.4     0.34      1013.0     1       171         1       143        8.03     269      -28.1
   07/10/2017 05:20      74.5      74.2       59     59.2      0.00      0.00      87.8     0.34      1012.0     1       168         1       162        8.03     269      -31.9
   07/10/2017 05:10      74.4      74.1       61     60.0      0.00      0.00      87.6     0.34      1012.0     1       136         2       137        8.03     269      -31.4
   07/10/2017 05:00      74.5      74.3       61     60.0      0.00      0.00      87.6     0.34      1012.0     2       139         2       144        8.04     269      -29.1
   07/10/2017 04:50      74.7      74.3       59     59.3      0.00      0.00      87.8     0.34      1012.0     1       171         2       130        8.04     269      -27.6
   07/10/2017 04:40      74.8      74.4       59     59.5      0.00      0.00      87.5     0.34      1012.0     1       231         1       229        8.04     269      -27.9
   07/10/2017 04:30      75.0      74.8       56     58.3      0.00      0.00      87.7     0.34      1012.0     2       192         3       188        8.04     269      -30.6
   07/10/2017 04:20      75.4      75.1       54     57.7      0.00      0.00      87.9     0.34      1012.0     1       115         3       161        8.04     269      -31.2
   07/10/2017 04:10      75.9      75.4       53     57.3      0.00      0.00      87.7     0.34      1012.0     1       166         1       190        8.04     269      -32.6
   07/10/2017 04:00      75.6      75.0       53     57.3      0.00      0.00      88.0     0.34      1012.0     2       178         3       181        8.04     269      -32.5
   07/10/2017 03:50      75.3      74.9       54     57.5      0.00      0.00      88.0     0.34      1012.0     1       135         2       148        8.04     269      -33.8
   07/10/2017 03:40      75.3      74.8       54     57.4      0.00      0.00      88.0     0.34      1012.0     1       144         1       143        8.04     269      -34.0
   07/10/2017 03:30      75.1      74.8       54     57.4      0.00      0.00      88.1     0.34      1012.0     1       102         1        72        8.04     269      -33.8
   07/10/2017 03:20      75.5      75.2       54     57.6      0.00      0.00      88.0     0.34      1012.0     1        99         1       111        8.04     269      -35.5
   07/10/2017 03:10      75.7      75.5       53     57.6      0.00      0.00      88.1     0.34      1012.0     0        41         1        27        8.04     269      -40.0
   07/10/2017 03:00      76.0      75.8       53     57.4      0.00      0.00      88.0     0.34      1012.0     1       101         1        59        8.04     269      -39.5
   07/10/2017 02:50      76.1      75.9       52     57.3      0.00      0.00      88.1     0.34      1012.0     1       151         1       150        8.04     269      -37.9
   07/10/2017 02:40      76.1      75.8       53     57.6      0.00      0.00      88.1     0.34      1012.0     1       152         2       163        8.04     269      -37.8
   07/10/2017 02:30      76.1      75.8       55     58.9      0.00      0.00      88.3     0.34      1013.0     2       141         2       147        8.04     269      -40.2
   07/10/2017 02:20      76.4      76.1       55     59.0      0.00      0.00      88.1     0.34      1013.0     1       137         1       147        8.04     269      -38.4
   07/10/2017 02:10      76.5      76.3       55     58.8      0.00      0.00      88.2     0.34      1013.0     1        53         1        92        8.04     269      -39.9
   07/10/2017 02:00      76.6      76.4       54     58.8      0.00      0.00      88.3     0.34      1013.0     1       108         2        96        8.04     269      -41.9
   07/10/2017 01:50      76.5      76.3       54     58.5      0.00      0.00      88.2     0.34      1013.0     1       122         2       128        8.04     269      -40.6
   07/10/2017 01:40      76.7      76.4       53     58.4      0.00      0.00      88.3     0.34      1013.0     1       113         1       123        8.04     269      -37.5
   07/10/2017 01:30      76.8      76.5       54     58.7      0.00      0.00      88.2     0.34      1013.0     1        86         1        99        8.04     269      -35.3
   07/10/2017 01:20      76.7      76.4       55     59.3      0.00      0.00      88.4     0.34      1013.0     1        68         1        94        8.04     268      -36.3
   07/10/2017 01:10      76.7      76.6       56     59.6      0.00      0.00      88.3     0.34      1013.0     1        56         1        94        8.04     268      -37.1
   07/10/2017 01:00      76.9      76.7       57     60.4      0.00      0.00      88.5     0.34      1013.0     0        70         1       147        8.04     269      -37.7
   07/10/2017 00:50      76.9      76.7       58     61.0      0.00      0.00      88.3     0.34      1013.0     1       155         3       159        8.04     268      -39.0
   07/10/2017 00:40      77.0      76.8       59     61.4      0.00      0.00      88.6     0.34      1013.0     2       157         3       146        8.04     268      -44.0
   07/10/2017 00:30      77.4      77.0       58     61.1      0.00      0.00      88.4     0.34      1013.0     1       139         2       144        8.04     268      -50.0
   07/10/2017 00:20      77.7      77.5       57     61.2      0.00      0.00      88.5     0.34      1013.0     1       108         2        86        8.05     268      -54.2
   07/10/2017 00:10      78.1      77.6       56     61.1      0.00      0.00      88.6     0.34      1013.0     1        78         2        91        8.05     268      -54.5
   07/10/2017 00:00      78.3      78.0       56     61.1      0.00      0.00      88.5     0.34      1013.0     1        78         2        97        8.05     268      -52.5
   07/09/2017 23:50      78.7      78.3       55     60.9      0.00      0.00      88.5     0.34      1013.0     1        90         1        62        8.05     268      -52.0
   07/09/2017 23:40      79.0      78.6       54     60.9      0.00      0.00      88.4     0.34      1014.0     1        46         1        52        8.05     268      -52.5
   07/09/2017 23:30      79.2      78.9       54     61.0      0.00      0.00      88.5     0.34      1014.0     1        65         3        91        8.05     268      -50.9
   07/09/2017 23:20      79.4      79.2       54     61.0      0.00      0.00      88.6     0.34      1014.0     2        65         2        65        8.05     268      -48.7
   07/09/2017 23:10      79.5      79.3       53     61.0      0.00      0.00      88.7     0.34      1014.0     2        50         2        39        8.05     268      -47.8
   07/09/2017 23:00      79.5      79.2       53     60.8      0.00      0.00      88.4     0.34      1013.0     1        52         2        52        8.05     268      -46.4
   07/09/2017 22:50      79.4      78.9       51     59.5      0.00      0.00      88.5     0.34      1013.0     1        47         2        52        8.05     267      -45.7
   07/09/2017 22:40      79.0      78.6       46     56.5      0.00      0.00      88.7     0.34      1014.0     1        68         3        69        8.05     267      -45.3
   07/09/2017 22:30      79.0      78.6       45     55.7      0.00      0.00      88.4     0.34      1014.0     1        62         2        67        8.05     267      -46.2
   07/09/2017 22:20      79.3      78.8       44     55.5      0.00      0.00      88.6     0.34      1014.0     1        85         1       111        8.05     267      -47.7
   07/09/2017 22:10      79.5      79.3       44     55.4      0.00      0.00      88.5     0.34      1013.0     1        94         1        48        8.05     267      -53.6
   07/09/2017 22:00      79.9      79.4       43     55.4      0.00      0.00      88.5     0.34      1013.0     2        92         2       120        8.05     267      -59.6
   07/09/2017 21:50      80.0      79.8       43     55.2      0.00      0.00      88.6     0.34      1013.0     2        90         2        88        8.05     267      -65.1
   07/09/2017 21:40      80.1      80.0       42     54.9      0.00      0.00      88.5     0.34      1013.0     3       107         4       136        8.05     267      -67.9
   07/09/2017 21:30      80.3      80.1       42     55.2      0.00      0.00      88.5     0.34      1013.0     3       103         5       112        8.05     267      -69.7
   07/09/2017 21:20      80.3      80.1       44     56.3      0.00      0.00      88.5     0.34      1013.0     3       109         5       113        8.05     267      -70.3
   07/09/2017 21:10      80.3      80.2       45     57.0      0.00      0.00      88.5     0.34      1013.0     2        92         3       103        8.06     267      -68.3
   07/09/2017 21:00      80.6      80.3       45     57.2      0.00      0.00      88.5     0.34      1013.0     3        91         4        98        8.06     267      -66.5
   07/09/2017 20:50      81.3      80.8       45     57.6      0.00      0.00      88.7     0.34      1013.0     3        60         6        89        8.06     267      -70.5
   07/09/2017 20:40      81.8      81.4       45     58.2      0.00      0.00      88.4     0.34      1013.0     3        55         5        64        8.06     267      -73.8
   07/09/2017 20:30      82.3      81.9       46     59.2      0.00      0.00      88.6     0.34      1013.0     3        73         4        69        8.06     267      -73.2
   07/09/2017 20:20      83.2      82.4       46     59.6      0.00      0.00      88.3     0.34      1012.0     3        41         4        29        8.06     267      -69.3
   07/09/2017 20:10      83.7      83.1       44     59.4      0.00      0.00      88.5     0.34      1012.0     3        39         3        34        8.06     267      -66.1
   07/09/2017 20:00      84.6      83.8       43     59.5      0.00      0.00      88.3     0.34      1012.0     3        36         4        67        8.06     266      -65.0
   07/09/2017 19:50      86.1      84.7       40     58.5      0.00      0.00      88.3     0.34      1012.0     2        45         3        23        8.06     266      -57.6
   07/09/2017 19:40      86.7      86.2       38     57.9      0.00      0.00      88.4     0.34      1012.0     2        61         3        75        8.06     266      -47.7
   07/09/2017 19:30      87.1      86.7       37     57.2      0.00      0.00      88.4     0.34      1012.0     3        84         5        63        8.06     266      -35.5
   07/09/2017 19:20      87.7      86.9       37     57.7      0.00      0.00      88.3     0.34      1012.0     3       108         5       130        8.07     266      -20.0
   07/09/2017 19:10      89.3      88.0       36     58.0      0.00      0.00      88.3     0.34      1012.0     3        90         6        88        8.07     266       -8.1
   07/09/2017 19:00      89.4      88.7       33     56.1      0.00      0.00      88.2     0.34      1011.0     4       132         8       161        8.07     266        9.4
   07/09/2017 18:50      90.2      89.8       31     55.7      0.00      0.00      88.3     0.34      1011.0     5       139         6       140        8.11     266       33.0
   07/09/2017 18:40      90.6      89.9       30     54.9      0.00      0.00      88.0     0.34      1011.0     4       121         7       128        8.12     266       56.9
   07/09/2017 18:30      92.7      90.7       28     54.3      0.00      0.00      88.2     0.34      1011.0     7       132        10       136        8.13     266       77.4
   07/09/2017 18:20      93.0      92.5       28     55.0      0.00      0.00      88.1     0.34      1011.0     5       149         8       127        8.13     266       98.9
   07/09/2017 18:10      93.4      92.3       29     56.0      0.00      0.00      88.0     0.34      1011.0     7       165         9       183        8.14     266      120.4
   07/09/2017 18:00      94.0      93.1       30     57.2      0.00      0.00      87.8     0.34      1011.0     8       149        11       159        8.14     266      133.3
   07/09/2017 17:50      94.3      94.1       29     57.3      0.00      0.00      87.8     0.34      1011.0     8       144        10       118        8.14     266      155.2
   07/09/2017 17:40      95.9      94.7       28     57.5      0.00      0.00      87.8     0.34      1011.0     7       150        11       140        8.15     266      166.1
   07/09/2017 17:30      95.6      95.1       28     57.2      0.00      0.00      88.0     0.34      1011.0     6       149         9       155        8.15     266      202.9
   07/09/2017 17:20      96.0      95.5       28     57.2      0.00      0.00      87.7     0.33      1011.0     6       153         8       156        8.15     267      233.1
   07/09/2017 17:10      96.0      95.7       28     57.1      0.00      0.00      87.8     0.33      1011.0     6       152         8       121        8.16     266      256.2
   07/09/2017 17:00      96.9      96.1       27     57.0      0.00      0.00      87.8     0.33      1011.0     5       166         7       175        8.16     267      275.6
   07/09/2017 16:50      97.4      96.4       26     56.8      0.00      0.00      87.6     0.33      1012.0     5       170         8       175        8.16     266      299.0
   07/09/2017 16:40      96.6      95.9       26     56.2      0.00      0.00      87.7     0.33      1012.0     7       191        10       173        8.17     267      318.6
   07/09/2017 16:30      96.5      95.6       26     56.1      0.00      0.00      87.7     0.33      1012.0     5       193         7       193        8.17     267      344.1
   07/09/2017 16:20      95.8      95.2       27     55.9      0.00      0.00      87.5     0.33      1012.0     6       184         9       204        8.17     266      371.2
   07/09/2017 16:10      95.2      94.3       27     55.4      0.00      0.00      87.6     0.33      1012.0     7       171        10       157        8.18     267      391.2
   07/09/2017 16:00      95.3      94.6       25     53.9      0.00      0.00      87.4     0.33      1012.0     6       163        10       174        8.18     266      207.4
   07/09/2017 15:50      95.9      95.1       25     53.6      0.00      0.00      87.3     0.33      1012.0     8       180        11       162        8.18     266      342.3
   07/09/2017 15:40      96.3      95.8       25     54.4      0.00      0.00      87.2     0.33      1012.0     7       198        10       200        8.19     267      465.7
   07/09/2017 15:30      96.2      95.7       26     55.3      0.00      0.00      87.0     0.33      1012.0     7       178        11       146        8.19     266      466.6
   07/09/2017 15:20      96.6      96.2       25     55.3      0.00      0.00      87.2     0.33      1012.0     8       150        12       119        8.19     267      435.6
   07/09/2017 15:10      98.0      96.9       24     55.1      0.00      0.00      87.2     0.33      1012.0     6       157         9       170        8.19     266      289.6
   07/09/2017 15:00      98.6      96.8       24     54.6      0.00      0.00      87.0     0.33      1012.0     6       165         9       179        8.19     267      521.3
   07/09/2017 14:50      98.8      96.5       24     54.2      0.00      0.00      86.9     0.33      1013.0     6       157        10       139        8.19     267      492.5
   07/09/2017 14:40      96.4      96.1       24     53.5      0.00      0.00      86.8     0.33      1013.0     7       192         9       218        8.25     267      397.2
   07/09/2017 14:30      97.6      96.5       23     53.2      0.00      0.00      87.0     0.33      1013.0     7       175        11       186        8.26     267      344.4
   07/09/2017 14:20      98.3      97.5       23     53.5      0.00      0.00      86.9     0.33      1013.0     6       162        10       157        8.26     267      403.8
   07/09/2017 14:10      98.6      97.6       23     54.2      0.00      0.00      87.0     0.33      1013.0     5       153        10       147        8.28     267      528.4
   07/09/2017 14:00      97.7      96.5       24     54.2      0.00      0.00      86.8     0.33      1013.0     5       134         7       146        8.29     267      352.1
   07/09/2017 13:50      97.1      96.0       24     53.6      0.00      0.00      86.8     0.33      1013.0     7       141        10       154        8.29     267      374.9
   07/09/2017 13:40      97.0      95.7       24     53.9      0.00      0.00      86.7     0.33      1013.0     7       159        11       154        8.29     267      544.4
   07/09/2017 13:30      97.6      95.7       25     54.5      0.00      0.00      86.5     0.33      1013.0     8       129         9       112        8.30     267      252.9
   07/09/2017 13:20      98.9      97.4       24     55.7      0.00      0.00      86.6     0.33      1013.0     9       138        12       156        8.30     267      380.2
   07/09/2017 13:10      98.5      96.6       27     57.6      0.00      0.00      86.7     0.33      1013.0     6       143         9       164        8.30     267      596.9
   07/09/2017 13:00      96.8      95.8       28     58.0      0.00      0.00      86.7     0.33      1013.0     6       136        11       128        8.31     267      591.0
   07/09/2017 12:50      97.6      96.3       30     60.2      0.00      0.00      86.7     0.33      1013.0     5       103        10       129        8.31     267      586.9
   07/09/2017 12:40      96.3      94.4       32     60.5      0.00      0.00      86.4     0.33      1014.0     4       129         6       137        8.31     267      547.0
   07/09/2017 12:30      95.5      94.3       32     60.4      0.00      0.00      86.6     0.33      1014.0     4       125         7       137        8.31     268      471.1
   07/09/2017 12:20      94.3      93.0       33     59.9      0.00      0.00      86.5     0.33      1014.0     5       157         8       184        8.31     268      552.2
   07/09/2017 12:10      95.5      93.2       33     60.2      0.00      0.00      86.4     0.33      1014.0     7       133        11       140        8.32     268      542.8
   07/09/2017 12:00      96.6      94.9       31     60.8      0.00      0.00      86.5     0.33      1014.0     4        59         8       103        8.32     268      529.8
   07/09/2017 11:50      95.7      93.8       32     60.5      0.00      0.00      86.5     0.33      1014.0     3        59         6       102        8.32     269      522.7
   07/09/2017 11:40      94.5      93.5       33     60.5      0.00      0.00      86.5     0.33      1014.0     4        51         7       110        8.32     268      544.0
   07/09/2017 11:30      93.8      92.6       34     60.4      0.00      0.00      86.4     0.33      1014.0     5        79         7        68        8.32     269      614.1
   07/09/2017 11:20      92.8      92.1       35     61.0      0.00      0.00      86.6     0.33      1014.0     4        50         8       134        8.33     269      569.1
   07/09/2017 11:10      92.5      91.4       36     60.9      0.00      0.00      86.6     0.33      1014.0     2        49         5        72        8.33     269      515.5
   07/09/2017 11:00      91.4      89.8       37     61.0      0.00      0.00      86.7     0.33      1014.0     3        38         5       344        8.33     270      508.6
   07/09/2017 10:50      89.7      87.6       39     60.6      0.00      0.00      86.8     0.33      1014.0     3        20         5       348        8.34     270      500.6
   07/09/2017 10:40      87.3      86.1       41     60.1      0.00      0.00      86.8     0.33      1014.0     4        14         6         2        8.35     270      499.9
   07/09/2017 10:30      86.1      84.8       42     60.1      0.00      0.00      86.7     0.33      1014.0     3        26         4        33        8.38     269      394.0
   07/09/2017 10:20      84.8      84.5       43     59.7      0.00      0.00      86.6     0.34      1014.0     3        48         6        58        8.39     269      249.2
   07/09/2017 10:10      84.5      83.7       43     59.1      0.00      0.00      86.6     0.34      1014.0     3        41         5        57        8.40     269      242.5
   07/09/2017 10:00      85.4      84.6       41     58.9      0.00      0.00      86.6     0.33      1014.0     3        58         7        74        8.40     269      141.9
   07/09/2017 09:50      84.9      82.5       43     58.7      0.00      0.00      86.9     0.33      1014.0     3        46         5        63        8.41     269      411.3
   07/09/2017 09:40      83.6      82.4       43     58.4      0.00      0.00      87.1     0.34      1014.0     4        32         5        27        8.41     269      276.4
   07/09/2017 09:30      83.7      83.1       43     58.7      0.00      0.00      87.2     0.34      1014.0     4        54         8        77        8.42     269      360.6
   07/09/2017 09:20      83.0      81.7       46     59.6      0.00      0.00      87.1     0.34      1014.0     3        37         5        28        8.42     270      340.0
   07/09/2017 09:10      81.8      79.9       50     60.3      0.00      0.00      86.8     0.34      1014.0     2        45         5        64        8.42     269      315.4
   07/09/2017 09:00      79.9      78.7       52     60.0      0.00      0.00      86.9     0.34      1014.0     3        28         4         4        8.42     270      312.4
   07/09/2017 08:50      78.7      78.5       52     59.7      0.00      0.00      87.2     0.34      1014.0     3        14         4        29        8.43     269      204.6
   07/09/2017 08:40      78.7      77.8       51     58.7      0.00      0.00      87.0     0.34      1014.0     3        48         4        33        8.43     270       57.4
   07/09/2017 08:30      78.0      77.0       52     58.3      0.00      0.00      87.3     0.34      1014.0     2        83         4        96        8.43     270      101.2
   07/09/2017 08:20      76.9      76.3       53     58.2      0.00      0.00      87.0     0.34      1014.0     2        69         3        60        8.43     270       87.9
   07/09/2017 08:10      76.4      75.5       54     58.1      0.00      0.00      87.1     0.34      1013.0     1        57         2        79        8.43     270       50.5
   07/09/2017 08:00      75.7      75.4       54     57.9      0.00      0.00      87.1     0.34      1013.0     1        83         3        80        8.43     270        5.5
   07/09/2017 07:50      75.7      75.4       54     57.6      0.00      0.00      87.1     0.34      1013.0     1        47         2        90        8.44     269       -9.1
   07/09/2017 07:40      75.4      74.7       54     57.4      0.00      0.00      87.1     0.34      1013.0   390        38      1944       999        8.44     269        7.8
   07/09/2017 07:30      74.7      74.0       55     57.0      0.00      0.00      87.2     0.34      1013.0     1       142         3       167        8.44     269       -1.1
   07/09/2017 07:20      74.0      73.2       56     56.9      0.00      0.00      87.4     0.34      1013.0     1       158         2       121        8.44     269      -12.4
   07/09/2017 07:10      73.5      72.5       59     57.5      0.00      0.00      87.4     0.34      1013.0     1       146         1       129        8.44     269      -13.5
   07/09/2017 07:00      72.5      71.7       61     57.8      0.00      0.00      87.5     0.34      1013.0     1       143         1       127        8.44     269      -22.1
   07/09/2017 06:50      71.7      70.8       63     57.9      0.00      0.00      87.4     0.34      1013.0     1       150         1       188        8.44     269      -22.5
   07/09/2017 06:40      70.8      69.8       65     57.9      0.00      0.00      87.5     0.34      1013.0     2       164         2       159        8.44     269      -28.1
   07/09/2017 06:30      70.0      69.3       66     57.8      0.00      0.00      87.7     0.34      1013.0     2       156         2       167        8.44     269      -34.0
   07/09/2017 06:20      69.5      69.1       66     57.5      0.00      0.00      87.3     0.34      1013.0     1       137         3       161        8.44     269      -40.7
   07/09/2017 06:10      69.5      69.3       66     57.5      0.00      0.00      87.6     0.34      1012.0     1       127         1       140        8.44     269      -47.3
   07/09/2017 06:00      69.4      69.0       66     57.6      0.00      0.00      87.5     0.34      1012.0     2       132         3       135        8.44     269      -51.6
   07/09/2017 05:50      69.5      69.0       66     57.6      0.00      0.00      87.6     0.34      1012.0     2       138         3       145        8.45     269      -51.1
   07/09/2017 05:40      69.3      69.1       66     57.3      0.00      0.00      87.6     0.34      1012.0     2       180         3       172        8.45     269      -49.5
   07/09/2017 05:30      69.6      69.3       65     57.3      0.00      0.00      87.6     0.34      1012.0     1       149         2       162        8.45     269      -50.6
   07/09/2017 05:20      70.2      69.8       64     57.1      0.00      0.00      87.7     0.34      1012.0     1       117         1       186        8.45     269      -54.8
   07/09/2017 05:10      70.3      70.1       63     57.2      0.00      0.00      87.7     0.34      1012.0     1       212         2       211        8.45     269      -56.4
   07/09/2017 05:00      71.1      70.4       62     57.2      0.00      0.00      87.7     0.34      1012.0     1        81         1        88        8.45     269      -58.5
   07/09/2017 04:50      71.4      71.2       62     57.5      0.00      0.00      87.6     0.34      1012.0     2       186         3       151        8.45     269      -58.1
   07/09/2017 04:40      71.5      71.3       62     57.6      0.00      0.00      87.6     0.34      1012.0     2       173         3       171        8.45     269      -58.2
   07/09/2017 04:30      71.5      71.2       62     57.6      0.00      0.00      87.7     0.34      1012.0     2       152         4       157        8.45     269      -55.9
   07/09/2017 04:20      71.9      71.5       60     57.1      0.00      0.00      87.6     0.34      1013.0     2       110         2       124        8.45     269      -55.6
   07/09/2017 04:10      72.0      71.8       59     57.0      0.00      0.00      87.7     0.34      1012.0     1       181         1       162        8.45     269      -47.8
   07/09/2017 04:00      71.9      71.7       60     57.0      0.00      0.00      87.8     0.34      1013.0     1        78         2        92        8.45     269      -37.7
   07/09/2017 03:50      71.9      71.7       59     56.9      0.00      0.00      87.9     0.34      1013.0     2        86         2        93        8.45     269      -46.8
   07/09/2017 03:40      72.1      71.8       59     56.9      0.00      0.00      87.7     0.34      1012.0     2        78         4        88        8.45     269      -58.6
   07/09/2017 03:30      72.6      72.1       59     57.3      0.00      0.00      88.1     0.34      1012.0     2        91         3        67        8.45     269      -62.9
   07/09/2017 03:20      72.8      72.5       59     57.7      0.00      0.00      87.9     0.34      1012.0     1        40         2        20        8.45     269      -59.9
   07/09/2017 03:10      72.7      72.5       60     58.2      0.00      0.00      88.0     0.34      1013.0     2        49         5        69        8.45     269      -60.5
   07/09/2017 03:00      73.0      72.8       60     58.4      0.00      0.00      88.1     0.34      1013.0     2        49         4        33        8.45     269      -65.3
   07/09/2017 02:50      73.1      72.8       60     58.3      0.00      0.00      88.1     0.34      1012.0     2        49         4        72        8.45     269      -58.6
   07/09/2017 02:40      73.1      73.0       61     58.8      0.00      0.00      88.0     0.34      1012.0     2        64         4        68        8.45     269      -48.8
   07/09/2017 02:30      73.3      73.0       63     60.0      0.00      0.00      88.1     0.34      1012.0     2        54         4        78        8.46     269      -50.8
   07/09/2017 02:20      73.5      73.2       64     60.3      0.00      0.00      88.2     0.34      1012.0     2        71         6        78        8.46     269      -55.9
   07/09/2017 02:10      73.6      73.3       64     60.5      0.00      0.00      88.2     0.34      1012.0     2        34         2        47        8.46     269      -65.9
   07/09/2017 02:00      74.0      73.6       64     60.7      0.00      0.00      88.1     0.34      1012.0     3        52         5        43        8.46     268      -69.0
   07/09/2017 01:50      74.5      74.1       63     60.8      0.00      0.00      88.0     0.34      1012.0     2        59         3        69        8.46     269      -69.5
   07/09/2017 01:40      74.9      74.5       62     61.0      0.00      0.00      88.3     0.34      1012.0     3        33         5        27        8.48     268      -69.8
   07/09/2017 01:30      75.4      75.0       61     60.9      0.00      0.00      88.2     0.34      1012.0     3        38         4        50        8.49     268      -70.3
   07/09/2017 01:20      75.6      75.4       60     60.5      0.00      0.00      88.2     0.34      1012.0     2        58         4        73        8.49     268      -70.1
   07/09/2017 01:10      76.2      75.8       58     60.2      0.00      0.00      88.1     0.34      1012.0     3        49         6        72        8.49     268      -69.1
   07/09/2017 01:00      76.9      76.3       57     60.1      0.00      0.00      88.2     0.34      1012.0     3        40         3        21        8.50     268      -64.9
   07/09/2017 00:50      77.8      77.0       55     59.8      0.00      0.00      88.4     0.34      1012.0     3        53         4        63        8.50     268      -54.6
   07/09/2017 00:40      78.3      77.8       52     58.9      0.00      0.00      88.4     0.34      1012.0     3        38         3        18        8.50     268      -45.3
   07/09/2017 00:30      78.6      78.3       50     58.3      0.00      0.00      88.4     0.34      1012.0     2        33         3        34        8.50     268      -43.0
   07/09/2017 00:20      79.2      78.6       49     58.3      0.00      0.00      88.3     0.34      1012.0     3        46         3        53        8.50     267      -42.3
   07/09/2017 00:10      80.0      79.4       49     58.7      0.00      0.00      88.3     0.34      1012.0     3        44         4        44        8.50     268      -43.1
   07/09/2017 00:00      81.0      80.2       47     58.7      0.00      0.00      88.5     0.34      1012.0     3        43         4        72        8.50     267      -45.5
   07/08/2017 23:50      81.6      81.0       46     58.9      0.00      0.00      88.3     0.34      1011.0     2        31         3        44        8.50     267      -45.0
   07/08/2017 23:40      82.0      81.5       46     59.0      0.00      0.00      88.4     0.34      1011.0     3        39         3        29        8.50     267      -43.0
   07/08/2017 23:30      82.2      82.0       45     58.8      0.00      0.00      88.3     0.34      1011.0     2        42         3        29        8.51     267      -40.6
   07/08/2017 23:20      83.0      82.3       44     58.6      0.00      0.00      88.5     0.34      1011.0     2        87         4       100        8.51     267      -40.1
   07/08/2017 23:10      83.9      83.0       42     58.0      0.00      0.00      88.4     0.34      1011.0     2        54         4        64        8.51     267      -41.3
   07/08/2017 23:00      84.7      84.1       40     57.4      0.00      0.00      88.5     0.34      1011.0     2        34         3        17        8.51     267      -41.4
   07/08/2017 22:50      85.1      84.7       39     57.2      0.00      0.00      88.3     0.34      1011.0     1        85         3        64        8.51     267      -42.1
   07/08/2017 22:40      85.3      85.0       39     57.3      0.00      0.00      88.3     0.34      1011.0     2        55         4        88        8.51     267      -42.9
   07/08/2017 22:30      85.0      84.6       39     57.2      0.00      0.00      88.3     0.34      1011.0     1        56         3       111        8.51     267      -42.5
   07/08/2017 22:20      85.0      84.5       38     56.6      0.00      0.00      88.6     0.34      1011.0     1        64         2        69        8.51     267      -42.8
   07/08/2017 22:10      85.7      85.2       37     56.6      0.00      0.00      88.5     0.34      1011.0     1        81         2       122        8.51     267      -43.8
   07/08/2017 22:00      85.7      85.3       37     56.0      0.00      0.00      88.3     0.34      1011.0     2       101         3       156        8.52     267      -45.1
   07/08/2017 21:50      85.5      84.6       38     56.3      0.00      0.00      88.4     0.34      1011.0     3       185         3       186        8.52     267      -49.3
   07/08/2017 21:40      84.7      84.2       39     56.9      0.00      0.00      88.3     0.34      1011.0     4       161         6       170        8.52     267      -60.3
   07/08/2017 21:30      84.5      83.8       40     57.1      0.00      0.00      88.3     0.34      1010.0     4       168         6       157        8.52     267      -67.5
   07/08/2017 21:20      84.7      83.8       39     56.7      0.00      0.00     "NAN"     0.34      1002.0     3       157         5       138        8.52     267      -70.8
   07/08/2017 21:00      84.8      84.4       37     55.4      0.00      0.00      88.3     0.34      1010.0     2       207         2       208        8.53     266      -75.6
   07/08/2017 20:50      84.7      84.4       37     55.2      0.00      0.00      88.4     0.34      1010.0     2       200         3       200        8.53     266      -76.4
   07/08/2017 20:40      84.6      84.4       37     55.2      0.00      0.00      88.5     0.34      1010.0     2       217         2       220        8.53     266      -77.7
   07/08/2017 20:30      86.4      84.8       35     55.1      0.00      0.00      88.3     0.34      1010.0     1       215         1       308        8.54     266      -81.6
   07/08/2017 20:20      86.9      86.6       34     55.3      0.00      0.00      88.3     0.34      1010.0     1       331         2       333        8.54     266      -82.8
   07/08/2017 20:10      87.1      86.8       34     55.3      0.00      0.00      88.4     0.34      1010.0     2       314         3       308        8.54     266      -78.1
   07/08/2017 20:00      87.7      87.1       34     55.4      0.00      0.00      88.2     0.34      1010.0     1        27         2        13        8.54     266      -72.0
   07/08/2017 19:50      88.4      87.7       33     55.7      0.00      0.00      88.4     0.34      1010.0     3        13         4         3        8.55     266      -70.9
   07/08/2017 19:40      89.2      88.5       33     56.2      0.00      0.00      88.2     0.34      1010.0     3         7         4         6        8.55     266      -65.9
   07/08/2017 19:30      89.7      89.1       33     56.3      0.00      0.00      88.4     0.34      1010.0     4       355         4       352        8.56     266      -52.6
   07/08/2017 19:20      89.7      89.0       33     56.5      0.00      0.00      88.2     0.34      1010.0     2       265         4       244        8.56     266      -37.2
   07/08/2017 19:10      88.9      88.6       34     56.9      0.00      0.00      88.1     0.34      1010.0     2       219         3       236        8.56     266      -19.5
   07/08/2017 19:00      89.8      88.8       33     56.5      0.00      0.00      88.0     0.34      1010.0     4       173         7       155        8.57     265        0.7
   07/08/2017 18:50      91.5      89.7       32     56.9      0.00      0.00      88.1     0.34      1010.0     4       164         6       168        8.57     265       20.5
   07/08/2017 18:40      92.3      91.8       31     57.5      0.00      0.00      87.9     0.34      1010.0     3       211         6       171        8.58     265       39.7
   07/08/2017 18:30      92.0      91.5       32     58.0      0.00      0.00      88.0     0.34      1009.0     4       297         5       321        8.58     266       59.4
   07/08/2017 18:20      93.7      91.5       32     58.0      0.00      0.00      87.8     0.34      1009.0     3       353         4        13        8.58     265       -9.0
   07/08/2017 18:10      94.6      94.0       30     58.3      0.00      0.00      87.7     0.34      1009.0     3        21         5        25        8.62     265       69.5
   07/08/2017 18:00      95.4      94.7       29     58.1      0.00      0.00      88.0     0.34      1009.0     3        37         4        34        8.62     265      123.8
   07/08/2017 17:50      95.9      95.2       29     58.2      0.00      0.00      87.4     0.33      1009.0     4        45         5        34        8.62     265      137.1
   07/08/2017 17:40      98.1      95.8       28     58.6      0.00      0.00      87.6     0.33      1009.0     4        32         5        11        8.63     265      170.5
   07/08/2017 17:30     100.3      98.1       27     59.2      0.00      0.00      87.5     0.33      1008.0     4        43         6        40        8.64     265      141.1
   07/08/2017 17:20     102.2     100.6       25     59.3      0.00      0.00      87.3     0.33      1008.0     4        48         6        38        8.64     266      175.5
   07/08/2017 17:10     106.2     102.9       23     59.1      0.00      0.00      87.3     0.33      1008.0     4        40         5        33        8.64     266      229.2
   07/08/2017 17:00     108.6     106.4       21     58.6      0.00      0.00      87.4     0.33      1008.0     3        32         6        36        8.64     266      236.9
   07/08/2017 16:50     109.0     108.0       15     50.2      0.00      0.00      87.0     0.33      1008.0     4       332         7       322        8.69     266      266.6
   07/08/2017 16:40     108.3     107.9       15     51.1      0.00      0.00      87.3     0.33      1008.0     7       303        12       293        8.70     266      295.9
   07/08/2017 16:30     109.7     108.2       15     51.6      0.00      0.00      86.8     0.33      1008.0     6       301         7       269        8.71     266      289.6
   07/08/2017 16:20     110.2     108.2       16     53.3      0.00      0.00      86.8     0.33      1008.0     5       327         8       307        8.71     266      305.1
   07/08/2017 16:10     109.3     108.4       17     53.7      0.00      0.00      87.0     0.33      1008.0     7       326        12       316        8.72     266      346.1
   07/08/2017 16:00     110.2     109.5       16     54.3      0.00      0.00      86.8     0.33      1008.0     6       317         9       301        8.75     266      363.8
   07/08/2017 15:50     111.1     109.7       17     55.1      0.00      0.00      86.5     0.33      1008.0     4       288         6       305        8.75     266      378.8
   07/08/2017 15:40     111.6     110.2       17     56.9      0.00      0.00      86.7     0.33      1008.0     3       360         7       322        8.76     266      392.0
   07/08/2017 15:30     110.5     109.8       19     58.6      0.00      0.00      86.7     0.33      1008.0     4        26         5         7        8.77     266      409.2
   07/08/2017 15:20     110.7     109.7       18     57.2      0.00      0.00      86.6     0.33      1008.0     5       353         6       351        8.78     266      424.3
   07/08/2017 15:10     111.4     109.7       18     57.3      0.00      0.00      86.5     0.33      1008.0     5       314         8       344        8.79     266      429.0
   07/08/2017 15:00     111.9     111.1       17     56.1      0.00      0.00      86.4     0.33      1008.0     4       277         8       114        8.80     266      448.3
   07/08/2017 14:50     112.1     111.2       18     58.5      0.00      0.00      86.3     0.33      1009.0     2        89         4       176        8.80     266      468.1
   07/08/2017 14:40     111.2     110.7       18     57.1      0.00      0.00      86.4     0.32      1009.0     3       113         7       142        8.81     267      483.9
   07/08/2017 14:30     111.0     109.7       17     55.8      0.00      0.00      86.2     0.33      1009.0     2        71         4       130        8.81     266      403.1
   07/08/2017 14:20     110.5     109.8       17     55.7      0.00      0.00      86.0     0.32      1009.0     3        15         4       107        8.82     266      412.7
   07/08/2017 14:10     110.7     108.7       17     55.4      0.00      0.00      86.2     0.32      1009.0     3        74         4       122        8.82     266      504.6
   07/08/2017 14:00     108.6     108.3       17     54.7      0.00      0.00      86.1     0.32      1009.0     3       295         5       306        8.82     266      400.4
   07/08/2017 13:50     109.0     107.9       17     54.9      0.00      0.00      85.8     0.32      1009.0     2       351         4        68        8.83     267      528.2
   07/08/2017 13:40     107.8     106.7       19     55.5      0.00      0.00      85.9     0.32      1009.0     2       309         5       316        8.83     267      542.5
   07/08/2017 13:30     107.0     106.2       19     56.2      0.00      0.00      85.9     0.32      1010.0     3       334         4       338        8.83     267      536.1
   07/08/2017 13:20     107.2     106.4       19     56.3      0.00      0.00      85.7     0.32      1010.0     2         8         3        48        8.84     267      537.2
   07/08/2017 13:10     107.3     106.4       19     55.9      0.00      0.00      85.8     0.32      1010.0     2        68         4        64        8.84     267      536.3
   07/08/2017 13:00     106.7     105.8       19     55.8      0.00      0.00      85.6     0.32      1010.0     3        18         4         7        8.84     267      535.4
   07/08/2017 12:50     106.3     105.2       19     55.9      0.00      0.00      85.7     0.32      1010.0     2       357         4        23        8.84     267      536.6
   07/08/2017 12:40     105.5     103.9       20     55.3      0.00      0.00      85.7     0.32      1010.0     3        22         4       139        8.85     267      538.3
   07/08/2017 12:30     103.9     103.5       20     54.9      0.00      0.00      85.8     0.32      1010.0     2        36         3        68        8.85     267      538.2
   07/08/2017 12:20     103.6     102.5       21     55.8      0.00      0.00      85.7     0.32      1010.0     3        40         4         4        8.85     267      534.4
   07/08/2017 12:10     102.9     102.4       22     56.8      0.00      0.00      85.7     0.32      1011.0     3        12         4        25        8.85     267      530.0
   07/08/2017 12:00     101.9     100.2       23     56.9      0.00      0.00      85.6     0.32      1011.0     2        45         4        33        8.85     268      529.6
   07/08/2017 11:50     100.7     100.4       24     57.4      0.00      0.00      85.6     0.33      1011.0     2       335         3       316        8.86     268      523.2
   07/08/2017 11:40     100.8      98.9       25     58.1      0.00      0.00      85.7     0.33      1011.0     3        17         4        36        8.86     268      517.3
   07/08/2017 11:30      99.1      98.1       25     57.3      0.00      0.00      85.6     0.33      1011.0     2        52         3        80        8.86     268      509.9
   07/08/2017 11:20      98.3      96.9       25     56.6      0.00      0.00      85.8     0.33      1011.0     2        20         4        28        8.86     268      502.7
   07/08/2017 11:10      97.4      96.6       27     57.4      0.00      0.00      85.6     0.33      1011.0     3       355         5       343        8.87     268      494.1
   07/08/2017 11:00      96.1      95.0       29     57.9      0.00      0.00      85.6     0.33      1011.0     3        28         6       350        8.87     268      487.0
   07/08/2017 10:50      95.2      94.6       29     58.1      0.00      0.00      85.7     0.33      1011.0     4        23         5        15        8.87     269      476.0
   07/08/2017 10:40      95.1      93.5       31     58.8      0.00      0.00      85.8     0.33      1011.0     3        17         4         7        8.87     269      466.5
   07/08/2017 10:30      94.1      92.8       31     58.2      0.00      0.00      85.8     0.33      1011.0     3        44         4        79        8.87     269      445.5
   07/08/2017 10:20      93.0      92.0       31     57.8      0.00      0.00      85.7     0.33      1011.0     4        46         7        67        8.87     269      419.8
   07/08/2017 10:10      93.1      91.2       32     58.0      0.00      0.00      85.8     0.33      1011.0     4        53         7        82        8.87     269      418.7
   07/08/2017 10:00      92.8      91.5       32     58.2      0.00      0.00      86.0     0.33      1011.0     4        29         6        37        8.87     269      407.0
   07/08/2017 09:50      93.2      92.6       31     57.9      0.00      0.00      85.9     0.33      1011.0     4        44         5        30        8.88     269      390.1
   07/08/2017 09:40      93.0      92.3       33     59.4      0.00      0.00      86.0     0.33      1011.0     3        19         4        31        8.88     269      375.9
   07/08/2017 09:30      92.6      91.6       35     60.5      0.00      0.00      86.1     0.33      1011.0     3        29         4        34        8.88     269      360.6
   07/08/2017 09:20      91.5      90.9       35     59.4      0.00      0.00      86.0     0.33      1011.0     3        33         4        21        8.88     269      347.3
   07/08/2017 09:10      91.0      89.7       34     58.2      0.00      0.00      85.9     0.33      1011.0     3        74         4        89        8.88     269      336.4
   07/08/2017 09:00      89.7      87.3       38     59.6      0.00      0.00      85.9     0.34      1011.0     3        59         4        84        8.89     269      337.2
   07/08/2017 08:50      87.0      85.5       42     60.3      0.00      0.00      85.9     0.34      1011.0     3        68         5        95        8.91     269      208.9
   07/08/2017 08:40      85.6      84.0       42     59.2      0.00      0.00      85.9     0.34      1011.0     2        61         4        83        8.92     269       -5.5
   07/08/2017 08:30      84.0      82.8       43     58.8      0.00      0.00      86.3     0.34      1010.0     1         0         2       316        8.92     269       -9.8
   07/08/2017 08:20      82.9      81.8       45     58.7      0.00      0.00      86.0     0.34      1010.0     1       355         2       332        8.93     269      -11.9
   07/08/2017 08:10      81.8      80.7       47     59.1      0.00      0.00      86.3     0.34      1010.0     2        16         2       358        8.93     269       -1.7
   07/08/2017 08:00      80.5      79.7       48     58.9      0.00      0.00      86.4     0.34      1010.0     1         1         2       356        8.93     269        9.8
   07/08/2017 07:50      79.7      78.7       50     58.7      0.00      0.00      86.3     0.34      1010.0     1        60         1        61        8.93     269       -4.3
   07/08/2017 07:40      78.7      77.9       51     58.6      0.00      0.00      86.4     0.34      1010.0     1       356         2       354        8.94     269        5.3
   07/08/2017 07:30      78.0      77.1       52     58.4      0.00      0.00      86.2     0.34      1010.0     1       336         2       296        8.94     269       -8.2
   07/08/2017 07:20      77.3      76.0       53     58.4      0.00      0.00      86.2     0.34      1010.0     1       311         2       307        8.94     269      -21.2
   07/08/2017 07:10      75.9      74.7       56     58.6      0.00      0.00      86.3     0.34      1010.0     1       310         1       339        8.94     269      -19.2
   07/08/2017 07:00      74.7      73.4       59     59.0      0.00      0.00      86.4     0.34      1010.0     1        83         1        77        8.94     269      -29.4
   07/08/2017 06:50      73.4      72.3       62     59.0      0.00      0.00      86.4     0.34      1010.0     1       156         2       171        8.94     269      -28.2
   07/08/2017 06:40      72.2      71.3       63     58.4      0.00      0.00      86.4     0.34      1010.0     1       142         2       141        8.95     269      -36.8
   07/08/2017 06:30      71.3      70.4       63     57.8      0.00      0.00      86.7     0.34      1010.0     1       227         2       255        8.95     269      -41.3
   07/08/2017 06:20      70.6      70.0       64     57.7      0.00      0.00      86.6     0.34      1010.0     1       146         2       148        8.95     268      -41.9
   07/08/2017 06:10      70.1      69.3       64     57.0      0.00      0.00      86.6     0.34      1010.0     1       210         1       203        8.96     268      -46.6
   07/08/2017 06:00      69.8      69.3       65     57.2      0.00      0.00      86.6     0.34      1010.0     1       145         2       139        8.96     268      -52.1
   07/08/2017 05:50      70.1      69.7       64     57.3      0.00      0.00      86.6     0.34      1010.0     1       186         2       127        8.96     268      -54.2
   07/08/2017 05:40      70.4      69.7       63     56.9      0.00      0.00      86.7     0.34      1010.0     1       170         2       131        8.96     268      -54.4
   07/08/2017 05:30      70.1      69.8       64     57.2      0.00      0.00      86.9     0.34      1010.0     2       142         2       143        8.96     268      -56.0
   07/08/2017 05:20      70.3      69.9       63     57.0      0.00      0.00      86.9     0.34      1010.0     1       118         1       145        8.97     268      -56.4
   07/08/2017 05:10      71.2      70.3       61     56.5      0.00      0.00      86.8     0.34      1010.0     1       132         2       127        8.97     268      -57.3
   07/08/2017 05:00      71.2      70.6       61     56.9      0.00      0.00      86.9     0.34      1010.0     1       249         2       239        8.98     268      -56.6
   07/08/2017 04:50      71.4      70.8       60     56.5      0.00      0.00      87.0     0.34      1010.0     1       196         2       116        8.98     268      -56.4
   07/08/2017 04:40      71.3      70.8       61     57.0      0.00      0.00      86.8     0.34      1010.0     1       126         1       101        8.99     268      -56.9
   07/08/2017 04:30      71.6      71.4       60     57.0      0.00      0.00      86.9     0.34      1010.0     1       111         2        78        8.99     268      -57.2
   07/08/2017 04:20      71.8      71.5       59     56.4      0.00      0.00      87.0     0.34      1010.0     1        81         1       127        9.00     268      -57.0
   07/08/2017 04:10      71.8      71.4       60     56.9      0.00      0.00      87.0     0.34      1010.0     1       164         2       150        9.00     268      -57.2
   07/08/2017 04:00      72.1      71.7       59     57.0      0.00      0.00      87.0     0.34      1010.0     1       150         2       155        9.00     268      -57.6
   07/08/2017 03:50      72.3      72.0       59     57.0      0.00      0.00      87.1     0.34      1010.0     1       148         1       137        9.01     268      -57.6
   07/08/2017 03:40      72.8      72.3       57     56.6      0.00      0.00      87.1     0.34      1010.0     1       142         2       139        9.01     268      -58.0
   07/08/2017 03:30      72.4      71.8       59     56.7      0.00      0.00      87.2     0.34      1010.0     1       219         2       174        9.01     268      -58.3
   07/08/2017 03:20      72.9      72.0       57     56.5      0.00      0.00      87.3     0.34      1010.0     2       139         3       132        9.01     268      -60.0
   07/08/2017 03:10      73.0      72.6       57     56.9      0.00      0.00      87.1     0.34      1010.0     1       164         2       137        9.01     268      -60.2
   07/08/2017 03:00      73.2      72.9       57     56.8      0.00      0.00      87.3     0.34      1010.0     2       146         2       136        9.01     268      -60.6
   07/08/2017 02:50      73.3      72.6       55     56.0      0.00      0.00      87.4     0.34      1010.0     2       222         3       249        9.01     268      -59.7
   07/08/2017 02:40      73.1      72.4       57     56.4      0.00      0.00      87.3     0.34      1010.0     2       203         2       159        9.01     267      -60.8
   07/08/2017 02:30      73.8      73.4       56     57.0      0.00      0.00      87.5     0.34      1010.0     2       164         3       157        9.01     267      -61.1
   07/08/2017 02:20      74.2      73.8       56     57.2      0.00      0.00      87.3     0.34      1010.0     2       133         3       141        9.01     267      -61.6
   07/08/2017 02:10      74.2      73.7       55     56.8      0.00      0.00      87.3     0.34      1010.0     1       168         2       124        9.01     267      -60.7
   07/08/2017 02:00      74.2      74.1       54     56.7      0.00      0.00      87.4     0.34      1010.0     1       168         2       154        9.01     267      -61.1
   07/08/2017 01:50      74.3      74.0       54     56.6      0.00      0.00      87.4     0.34      1010.0     2       146         2       151        9.01     267      -61.9
   07/08/2017 01:40      74.4      74.2       54     56.5      0.00      0.00      87.5     0.34      1010.0     2       140         2       140        9.01     267      -62.5
   07/08/2017 01:30      74.9      74.4       52     56.2      0.00      0.00      87.4     0.34      1010.0     1       156         2       144        9.02     267      -62.3
   07/08/2017 01:20      75.9      75.2       51     56.1      0.00      0.00      87.4     0.34      1010.0     2       141         3       139        9.02     267      -62.6
   07/08/2017 01:10      76.7      76.3       48     55.4      0.00      0.00      87.4     0.34      1010.0     1       148         2       136        9.02     267      -62.1
   07/08/2017 01:00      77.0      76.5       48     55.5      0.00      0.00      87.4     0.34      1011.0     1       147         1       124        9.02     267      -62.1
   07/08/2017 00:50      76.5      76.1       49     55.6      0.00      0.00      87.3     0.34      1011.0     1       136         1       178        9.02     267      -62.3
   07/08/2017 00:40      76.9      76.1       48     55.5      0.00      0.00      87.5     0.34      1011.0     1       119         1       116        9.02     266      -64.1
   07/08/2017 00:30      77.6      77.1       46     55.1      0.00      0.00      87.6     0.34      1011.0     0        84         1        94        9.02     266      -64.2
   07/08/2017 00:20      77.7      77.5       46     55.2      0.00      0.00      87.6     0.34      1011.0     0       110         1       123        9.02     266      -64.2
   07/08/2017 00:10      77.8      77.3       46     55.2      0.00      0.00      87.7     0.34      1011.0     1       131         1       137        9.02     267      -65.2
   07/08/2017 00:00      78.0      77.4       47     55.6      0.00      0.00      87.7     0.34      1011.0     1       113         2       107        9.02     266      -66.5
   07/07/2017 23:50      78.1      77.5       46     55.5      0.00      0.00      87.5     0.34      1011.0     2       142         3       136        9.02     266      -66.9
   07/07/2017 23:40      78.7      78.2       44     54.8      0.00      0.00      87.5     0.34      1011.0     2       146         2       133        9.02     266      -66.5
   07/07/2017 23:30      78.7      78.4       44     54.9      0.00      0.00      87.4     0.34      1011.0     1       122         1       145        9.02     266      -66.5
   07/07/2017 23:20      78.9      78.6       43     54.5      0.00      0.00      87.6     0.34      1011.0     0       107         1        31        9.02     266      -67.0
   07/07/2017 23:10      79.5      78.8       42     54.1      0.00      0.00      87.7     0.34      1011.0     1       162         1       176        9.03     266      -68.1
   07/07/2017 23:00      80.5      79.7       41     54.4      0.00      0.00      87.5     0.34      1011.0     0       252         1       291        9.03     266      -67.4
   07/07/2017 22:50      81.4      80.5       41     54.8      0.00      0.00      87.5     0.34      1011.0     1        83         1        95        9.03     266      -69.8
   07/07/2017 22:40      81.7      81.3       40     54.9      0.00      0.00      87.6     0.34      1011.0     1       101         2        91        9.03     266      -72.0
   07/07/2017 22:30      81.6      81.3       41     55.5      0.00      0.00      87.4     0.34      1011.0     2        91         3        91        9.03     266      -73.3
   07/07/2017 22:20      82.2      81.7       41     55.5      0.00      0.00      87.5     0.34      1011.0     1        97         2        78        9.04     266      -74.4
   07/07/2017 22:10      83.3      82.5       39     55.5      0.00      0.00      87.5     0.34      1011.0     1        86         2        83        9.04     266      -76.3
   07/07/2017 22:00      84.2      83.5       38     55.6      0.00      0.00      87.5     0.34      1011.0     1        74         2        55        9.04     266      -77.5
   07/07/2017 21:50      84.9      84.3       37     55.6      0.00      0.00      87.4     0.34      1010.0     1        52         2        35        9.04     266      -78.2
   07/07/2017 21:40      85.6      84.9       37     55.9      0.00      0.00      87.4     0.34      1010.0     1        46         2        67        9.04     266      -79.1
   07/07/2017 21:30      86.1      85.6       36     55.8      0.00      0.00      87.4     0.34      1010.0     2        79         3        67        9.04     266      -79.0
   07/07/2017 21:20      86.5      86.1       35     55.6      0.00      0.00      87.5     0.34      1010.0     2       106         3        64        9.04     266      -78.2
   07/07/2017 21:10      87.1      86.4       36     56.3      0.00      0.00      87.3     0.34      1010.0     2        77         3        66        9.05     266      -77.6
   07/07/2017 21:00      87.7      87.1       35     56.3      0.00      0.00      87.3     0.34      1010.0     1        85         2        63        9.05     266      -78.3
   07/07/2017 20:50      88.1      87.7       34     56.1      0.00      0.00      87.3     0.34      1010.0     2        76         3        55        9.05     266      -80.5
   07/07/2017 20:40      88.8      88.1       34     56.6      0.00      0.00      87.3     0.34      1010.0     2        75         3        66        9.06     266      -80.9
   07/07/2017 20:30      89.6      88.8       33     56.4      0.00      0.00      87.3     0.34      1010.0     2        90         3        75        9.06     266      -82.1
   07/07/2017 20:20      90.3      89.7       32     56.1      0.00      0.00      87.2     0.34      1010.0     2        71         3        88        9.06     266      -82.8
   07/07/2017 20:10      90.8      90.2       31     56.1      0.00      0.00      86.9     0.34      1010.0     2        58         4        61        9.07     266      -78.1
   07/07/2017 20:00      91.7      91.1       31     56.5      0.00      0.00      87.2     0.34      1010.0     3        49         4        67        9.07     266      -70.0
   07/07/2017 19:50      93.1      91.9       31     57.2      0.00      0.00      87.3     0.34      1010.0     3        77         6        68        9.08     266      -67.0
   07/07/2017 19:40      94.5      93.4       30     57.5      0.00      0.00      87.1     0.34      1009.0     3        83         4        72        9.08     266      -59.0
   07/07/2017 19:30      95.1      94.6       29     57.2      0.00      0.00      87.0     0.34      1009.0     3        76         5        78        9.09     266      -47.2
   07/07/2017 19:20      95.7      95.1       28     57.5      0.00      0.00      87.1     0.34      1009.0     3        70         5        71        9.09     265      -33.0
   07/07/2017 19:10      96.1      95.4       29     58.0      0.00      0.00      87.0     0.34      1009.0     2        94         3        89        9.10     265      -15.0
   07/07/2017 19:00      98.6      96.3       27     58.1      0.00      0.00      87.1     0.33      1009.0     4        83         6        78        9.10     266        4.9
   07/07/2017 18:50      99.5      98.8       26     58.3      0.00      0.00      86.8     0.33      1009.0     3        79         6        72        9.11     265       24.8
   07/07/2017 18:40     101.9      99.9       25     58.9      0.00      0.00      86.9     0.33      1009.0     4        44         6        61        9.11     266       45.9
   07/07/2017 18:30     102.2     101.9       25     59.1      0.00      0.00      86.7     0.33      1009.0     3        12         7         3        9.12     266       66.1
   07/07/2017 18:20     103.4     102.7       20     54.4      0.00      0.00      86.7     0.33      1009.0     5       339         8       322        9.12     265       87.7
   07/07/2017 18:10     103.5     103.0       19     52.8      0.00      0.00      86.3     0.33      1009.0     5       300         7       306        9.12     265      109.5
   07/07/2017 18:00     104.9     103.3       19     53.1      0.00      0.00      86.7     0.33      1009.0     5       293         7       300        9.13     266      132.1
   07/07/2017 17:50     105.2     104.5       18     53.4      0.00      0.00      86.6     0.33      1009.0     5       300         7       305        9.13     265      155.6
   07/07/2017 17:40     104.7     104.5       18     53.1      0.00      0.00      86.2     0.33      1009.0     6       305         9       327        9.13     266      173.7
   07/07/2017 17:30     106.1     104.6       18     52.7      0.00      0.00      86.2     0.33      1009.0     7       316         9       293        9.14     266      139.1
   07/07/2017 17:20     106.3     106.0       18     53.3      0.00      0.00      86.4     0.33      1009.0     7       319         9       313        9.14     266      226.3
   07/07/2017 17:10     107.2     106.4       17     53.2      0.00      0.00      86.3     0.33      1009.0     6       310        11       321        9.14     266      252.7
   07/07/2017 17:00     107.3     106.4       17     53.1      0.00      0.00      86.1     0.33      1009.0     6       297         9       292        9.14     266      273.3
   07/07/2017 16:50     107.3     106.8       17     53.4      0.00      0.00      85.9     0.33      1009.0     5       315         8       325        9.14     266      292.3
   07/07/2017 16:40     108.0     107.3       17     53.8      0.00      0.00      85.9     0.33      1009.0     5       310         7       313        9.14     266      306.0
   07/07/2017 16:30     108.1     107.2       20     58.4      0.00      0.00      86.0     0.33      1009.0     4       338         6       342        9.14     266      333.8
   07/07/2017 16:20     108.1     107.2       20     58.2      0.00      0.00      85.9     0.33      1009.0     5         7         6       347        9.14     266      348.9
   07/07/2017 16:10     109.5     108.7       18     56.2      0.00      0.00      85.9     0.33      1009.0     7       328        12       257        9.14     266      362.1
   07/07/2017 16:00     109.2     108.3       19     57.5      0.00      0.00      85.7     0.33      1009.0     5       351         7       327        9.14     266      377.7
   07/07/2017 15:50     109.3     108.0       20     58.9      0.00      0.00      85.5     0.33      1009.0     4        28         8        27        9.14     266      390.8
   07/07/2017 15:40     108.6     107.5       20     58.1      0.00      0.00      85.4     0.33      1009.0     5        76         8        90        9.14     266      404.1
   07/07/2017 15:30     109.3     108.1       19     57.7      0.00      0.00      85.2     0.33      1010.0     4        67         7        92        9.14     266      418.4
   07/07/2017 15:20     109.1     108.9       19     57.3      0.00      0.00      85.3     0.33      1010.0     3        47         5        58        9.14     266      427.8
   07/07/2017 15:10     108.9     107.3       19     56.8      0.00      0.00      85.4     0.33      1010.0     3        90         5        66        9.14     267      443.5
   07/07/2017 15:00     108.7     107.0       19     56.9      0.00      0.00      85.2     0.33      1010.0     4       114         6       138        9.14     266      457.3
   07/07/2017 14:50     109.1     107.0       19     57.2      0.00      0.00      85.3     0.33      1010.0     3        50         5       348        9.14     267      469.2
   07/07/2017 14:40     108.1     107.0       19     57.0      0.00      0.00      84.8     0.32      1010.0     4        64         7        79        9.14     267      478.1
   07/07/2017 14:30     107.2     106.2       20     57.4      0.00      0.00      84.9     0.32      1010.0     3        33         4       350        9.14     267      487.5
   07/07/2017 14:20     106.6     105.7       20     57.4      0.00      0.00      84.9     0.32      1010.0     3        98         5       132        9.14     267      497.2
   07/07/2017 14:10     106.8     105.5       21     57.7      0.00      0.00      84.6     0.32      1010.0     4        88         6        87        9.14     267      505.9
   07/07/2017 14:00     106.7     106.3       21     58.2      0.00      0.00      84.7     0.32      1010.0     3        52         5        65        9.14     267      510.6
   07/07/2017 13:50     106.4     105.8       21     58.5      0.00      0.00      84.7     0.32      1010.0     3        14         4        19        9.14     267      515.6
   07/07/2017 13:40     106.2     105.6       22     58.7      0.00      0.00      84.7     0.32      1010.0     3        35         4        33        9.14     267      522.6
   07/07/2017 13:30     106.2     104.6       22     59.1      0.00      0.00      84.5     0.32      1011.0     3        42         4        31        9.14     267      528.0
   07/07/2017 13:20     104.6     103.5       23     58.8      0.00      0.00      84.5     0.32      1011.0     3        69         6       117        9.14     267      535.2
   07/07/2017 13:10     104.1     103.5       23     58.7      0.00      0.00      84.5     0.32      1011.0     3        57         5        98        9.14     267      536.2
   07/07/2017 13:00     103.5     102.6       23     58.7      0.00      0.00      84.5     0.32      1011.0     3        50         4        73        9.14     267      539.6
   07/07/2017 12:50     103.2     102.2       24     59.3      0.00      0.00      84.6     0.32      1011.0     3        35         5        25        9.14     267      539.3
   07/07/2017 12:40     102.4     102.1       24     58.6      0.00      0.00      84.4     0.32      1011.0     3        62         6        69        9.14     267      538.7
   07/07/2017 12:30     102.4     101.6       25     59.4      0.00      0.00      84.5     0.32      1011.0     3        44         6        35        9.14     267      538.0
   07/07/2017 12:20     102.7     101.9       25     59.6      0.00      0.00      84.3     0.32      1011.0     4        55         7        76        9.14     267      535.2
   07/07/2017 12:10     102.3     101.3       24     58.5      0.00      0.00      84.4     0.32      1011.0     3        34         5        29        9.14     268      531.2
   07/07/2017 12:00     101.4     100.9       24     57.1      0.00      0.00      84.5     0.32      1011.0     3        28         5       353        9.14     268      525.8
   07/07/2017 11:50     101.7     100.4       24     57.5      0.00      0.00      84.3     0.32      1011.0     3        49         5        70        9.14     268      521.9
   07/07/2017 11:40     100.3      99.0       25     57.5      0.00      0.00      84.4     0.32      1012.0     3        39         5        24        9.14     268      517.7
   07/07/2017 11:30      99.2      97.8       26     57.6      0.00      0.00      84.4     0.32      1012.0     3        24         4        36        9.14     268      511.7
   07/07/2017 11:20      98.0      96.7       26     57.3      0.00      0.00      84.4     0.33      1012.0     3        27         5        11        9.14     268      506.6
   07/07/2017 11:10      97.5      96.1       27     57.0      0.00      0.00      84.5     0.33      1012.0     3        30         5         6        9.14     268      497.3
   07/07/2017 11:00      96.1      95.2       27     56.6      0.00      0.00      84.5     0.33      1012.0     3        59         4        88        9.14     269      489.9
   07/07/2017 10:50      95.5      94.4       28     56.8      0.00      0.00      84.4     0.33      1012.0     3        62         6        88        9.14     269      477.1
   07/07/2017 10:40      95.1      94.5       28     56.9      0.00      0.00      84.4     0.33      1012.0     3         8         4       355        9.14     270      467.2
   07/07/2017 10:30      94.3      91.7       30     56.9      0.00      0.00      84.5     0.33      1012.0     1       348         3        84        9.14     269      455.5
   07/07/2017 10:20      92.6      91.7       31     57.4      0.00      0.00      84.5     0.33      1012.0     2         4         3       356        9.14     269      441.5
   07/07/2017 10:10      91.3      89.5       32     56.9      0.00      0.00      84.6     0.33      1012.0     2        78         2        73        9.14     270      429.4
   07/07/2017 10:00      89.5      88.6       34     57.2      0.00      0.00      84.6     0.33      1012.0     2        11         3       352        9.14     269      414.0
   07/07/2017 09:50      88.9      87.4       36     57.7      0.00      0.00      84.7     0.33      1012.0     1       331         2         0        9.13     269      396.8
   07/07/2017 09:40      87.6      87.0       36     57.4      0.00      0.00      84.7     0.33      1012.0     2       358         3       356        9.13     269      384.1
   07/07/2017 09:30      87.0      85.9       38     57.5      0.00      0.00      84.6     0.33      1013.0     2       343         3       346        9.13     269      370.6
   07/07/2017 09:20      86.1      84.7       39     57.5      0.00      0.00      84.9     0.33      1013.0     2        42         2       354        9.13     270      350.0
   07/07/2017 09:10      84.7      82.7       40     57.0      0.00      0.00      84.7     0.34      1013.0     2        78         3       113        9.13     269      337.3
   07/07/2017 09:00      82.6      81.2       42     56.8      0.00      0.00      84.7     0.35      1013.0     2       342         3       326        9.13     269      337.2
   07/07/2017 08:50      81.1      80.3       45     57.1      0.00      0.00      84.7     0.35      1013.0     2       358         3         3        9.12     270      205.8
   07/07/2017 08:40      80.2      79.4       45     56.8      0.00      0.00      85.0     0.35      1013.0     2         7         2       337        9.12     270       -1.9
   07/07/2017 08:30      79.5      78.3       47     56.8      0.00      0.00      84.9     0.35      1013.0     2        23         3       339        9.12     270       -9.0
   07/07/2017 08:20      78.5      77.8       47     56.5      0.00      0.00      85.0     0.35      1013.0     1       354         2       306        9.12     270      -11.2
   07/07/2017 08:10      78.0      77.2       48     56.1      0.00      0.00      84.9     0.35      1013.0     1       339         2       341        9.10     270       -3.6
   07/07/2017 08:00      77.3      76.5       49     56.1      0.00      0.00      85.1     0.35      1013.0     1        12         2       357        8.32     269       -4.7
   07/07/2017 07:50      76.5      75.4       49     55.6      0.00      0.00      85.1     0.35      1013.0     1       267         2       269        8.32     270       -3.4
   07/07/2017 07:40      75.4      74.6       52     56.5      0.00      0.00      85.0     0.35      1013.0     1       290         2       287        8.32     270        8.6
   07/07/2017 07:30      74.7      73.8       56     57.7      0.00      0.00      84.9     0.35      1013.0     1       300         2       290        8.32     270       -5.3
   07/07/2017 07:20      73.9      73.2       58     58.0      0.00      0.00      84.9     0.35      1013.0     0       297         1       223        8.32     270      -18.4
   07/07/2017 07:10      73.2      72.3       60     58.1      0.00      0.00      85.1     0.35      1013.0     0       301         1         1        8.32     269      -18.0
   07/07/2017 07:00      72.2      71.3       63     58.4      0.00      0.00      85.2     0.35      1013.0     1       274         1         8        8.32     269      -26.1
   07/07/2017 06:50      71.4      70.2       66     58.6      0.00      0.00      85.4     0.35      1013.0   195       342      1944       999        8.32     269      -26.1
   07/07/2017 06:40      70.3      69.5       68     58.8      0.00      0.00      85.1     0.35      1013.0     0        34         1       131        8.32     269      -33.0
   07/07/2017 06:30      69.5      68.9       69     58.6      0.00      0.00      85.2     0.35      1012.0     0        42         1        49        8.32     269      -38.0
   07/07/2017 06:20      68.8      68.1       69     58.1      0.00      0.00      85.3     0.35      1012.0     0       150         1       185        8.32     269      -38.0
   07/07/2017 06:10      68.3      68.0       70     58.1      0.00      0.00      85.3     0.35      1012.0     1       224         2       135        8.32     269      -43.4
   07/07/2017 06:00      68.2      67.8       70     57.7      0.00      0.00      85.2     0.35      1012.0     1       207         2       206        8.32     269      -47.2
   07/07/2017 05:50      68.1      67.7       70     57.9      0.00      0.00      85.5     0.35      1012.0     0        83         1        21        8.33     269      -50.8
   07/07/2017 05:40      68.3      68.0       70     58.0      0.00      0.00      85.5     0.35      1012.0     1       128         2       123        8.33     269      -52.3
   07/07/2017 05:30      68.8      68.3       69     58.0      0.00      0.00      85.2     0.35      1012.0     1       146         1       142        8.33     269      -52.6
   07/07/2017 05:20      68.9      68.7       68     57.8      0.00      0.00      85.7     0.35      1012.0     1       116         3       136        8.33     269      -54.0
   07/07/2017 05:10      69.0      68.6       67     57.5      0.00      0.00      85.5     0.35      1012.0     1       206         2       127        8.33     268      -53.4
   07/07/2017 05:00      68.8      68.6       68     57.9      0.00      0.00      85.5     0.35      1012.0     2       165         2       159        8.38     269      -54.4
   07/07/2017 04:50      68.9      68.4       68     57.8      0.00      0.00      85.6     0.35      1012.0     2       161         3       131        8.39     269      -54.3
   07/07/2017 04:40      68.9      68.6       68     57.7      0.00      0.00      85.4     0.35      1012.0     2       149         2       135        8.39     268      -55.1
   07/07/2017 04:30      69.2      68.8       66     57.3      0.00      0.00      85.5     0.35      1012.0     1       188         2       223        8.39     268      -55.0
   07/07/2017 04:20      69.4      69.0       66     57.4      0.00      0.00      85.9     0.35      1012.0     2       170         2       140        8.39     268      -55.5
   07/07/2017 04:10      69.6      68.9       66     57.4      0.00      0.00      85.6     0.35      1012.0     1       212         2       210        8.39     268      -55.1
   07/07/2017 04:00      69.4      69.1       66     57.4      0.00      0.00      85.9     0.35      1012.0     1        83         2       127        8.39     268      -56.9
   07/07/2017 03:50      69.2      68.9       67     57.5      0.00      0.00      85.7     0.35      1012.0     2       133         2       131        8.40     268      -56.7
   07/07/2017 03:40      69.5      69.2       66     57.4      0.00      0.00      85.6     0.35      1012.0     1       159         2       138        8.40     268      -56.8
   07/07/2017 03:30      69.6      69.3       65     57.2      0.00      0.00      85.9     0.35      1012.0     1       164         2       134        8.40     268      -57.4
   07/07/2017 03:20      69.8      69.6       65     57.6      0.00      0.00      85.9     0.35      1012.0     1       167         1       158        8.41     268      -57.9
   07/07/2017 03:10      69.8      69.5       64     57.0      0.00      0.00      85.8     0.35      1012.0     1       178         2       142        8.41     268      -58.6
   07/07/2017 03:00      70.2      69.3       64     57.2      0.00      0.00      86.0     0.35      1012.0     2       166         3       136        8.42     268      -59.3
   07/07/2017 02:50      70.4      70.1       63     57.0      0.00      0.00      85.9     0.36      1012.0     1       177         2       147        8.42     268      -59.0
   07/07/2017 02:40      71.2      70.4       61     56.6      0.00      0.00      85.8     0.35      1012.0     2       171         3       194        8.42     268      -59.1
   07/07/2017 02:30      71.8      71.1       60     56.8      0.00      0.00      86.0     0.36      1012.0     1       131         1       192        8.43     268      -59.1
   07/07/2017 02:20      72.0      71.8       59     57.0      0.00      0.00      86.1     0.35      1012.0     1       106         1       227        8.43     268      -58.6
   07/07/2017 02:10      72.2      71.8       60     57.2      0.00      0.00      85.8     0.36      1013.0     0        42         1       295        8.43     268      -59.6
   07/07/2017 02:00      72.3      71.9       60     57.5      0.00      0.00      85.8     0.35      1013.0     1       181         1        63        8.43     268      -60.3
   07/07/2017 01:50      72.0      71.7       61     57.7      0.00      0.00      85.9     0.35      1013.0     0       241         1       205        8.44     267      -60.0
   07/07/2017 01:40      72.1      71.7       61     57.5      0.00      0.00      86.2     0.35      1013.0     1        84         1        79        8.44     267      -60.4
   07/07/2017 01:30      72.1      71.8       60     57.4      0.00      0.00      86.1     0.35      1013.0     1       122         1       142        8.44     267      -60.9
   07/07/2017 01:20      72.9      72.1       58     57.1      0.00      0.00      86.1     0.35      1013.0     1       119         1       129        8.44     267      -61.7
   07/07/2017 01:10      73.5      73.2       58     57.4      0.00      0.00      86.2     0.36      1013.0     1       146         1       143        8.44     267      -61.6
   07/07/2017 01:00      73.8      73.4       57     57.2      0.00      0.00      85.9     0.35      1013.0     1       233         2       203        8.45     267      -62.2
   07/07/2017 00:50      74.5      73.8       56     57.4      0.00      0.00      86.1     0.35      1013.0     1       154         1        93        8.45     267      -63.1
   07/07/2017 00:40      74.9      74.5       56     58.0      0.00      0.00      86.4     0.35      1013.0     1       140         2       170        8.45     267      -63.4
   07/07/2017 00:30      75.2      74.8       56     58.3      0.00      0.00      86.1     0.35      1013.0     2       101         2        94        8.45     267      -62.6
   07/07/2017 00:20      75.5      75.3       55     58.4      0.00      0.00      86.2     0.35      1013.0     2        97         3        87        8.45     267      -61.9
   07/07/2017 00:10      76.1      75.6       55     58.3      0.00      0.00      86.2     0.35      1013.0     2        63         2        73        8.45     267      -63.6
   07/07/2017 00:00      76.8      76.3       54     58.6      0.00      0.00      86.2     0.35      1013.0     2        60         4        69        8.46     267      -64.8
   07/06/2017 23:50      77.0      76.8       53     58.6      0.00      0.00      86.1     0.35      1013.0     2        22         2        30        8.48     266      -66.1
   07/06/2017 23:40      77.1      76.3       53     57.9      0.00      0.00      86.3     0.35      1013.0     2        32         3        70        8.49     266      -63.8
   07/06/2017 23:30      77.6      76.6       51     57.4      0.00      0.00      86.2     0.35      1013.0     1        67         1        54        8.49     266      -62.6
   07/06/2017 23:20      77.8      77.6       50     57.8      0.00      0.00      86.1     0.35      1013.0     1        66         1        62        8.49     266      -61.2
   07/06/2017 23:10      78.1      77.8       49     57.2      0.00      0.00      86.2     0.35      1013.0     1        96         2       115        8.50     266      -62.3
   07/06/2017 23:00      78.2      77.9       45     55.0      0.00      0.00      86.3     0.35      1013.0     0        40         1       124        8.50     266      -61.8
   07/06/2017 22:50      78.5      77.8       41     52.2      0.00      0.00      86.1     0.35      1013.0     1        65         2        95        8.50     266      -63.8
   07/06/2017 22:40      79.4      78.7       39     51.7      0.00      0.00      86.1     0.35      1013.0     1       132         1        51        8.50     266      -65.5
   07/06/2017 22:30      79.9      79.5       36     50.8      0.00      0.00      86.2     0.35      1013.0     1       227         2       240        8.51     266      -65.3
   07/06/2017 22:20      80.5      79.9       37     51.5      0.00      0.00      86.2     0.35      1013.0     1       260         2       327        8.51     266      -67.3
   07/06/2017 22:10      80.5      80.0       37     51.8      0.00      0.00      86.1     0.35      1013.0     2       189         2       195        8.51     266      -67.6
   07/06/2017 22:00      80.9      80.2       37     51.8      0.00      0.00      86.1     0.35      1013.0     2       180         3       201        8.51     266      -68.6
   07/06/2017 21:50      81.3      81.0       37     52.3      0.00      0.00      86.1     0.35      1013.0     1       189         2       159        8.52     266      -68.9
   07/06/2017 21:40      82.2      81.2       36     52.3      0.00      0.00      86.1     0.35      1013.0     1       121         1        76        8.52     266      -70.3
   07/06/2017 21:30      83.5      82.3       35     52.3      0.00      0.00      86.1     0.35      1013.0     1        35         1        34        8.52     266      -72.4
   07/06/2017 21:20      84.0      83.4       34     52.4      0.00      0.00      86.1     0.35      1013.0     1       104         3       195        8.53     266      -76.3
   07/06/2017 21:10      84.4      84.0       33     52.2      0.00      0.00      85.9     0.35      1013.0     2       177         4       200        8.53     266      -78.4
   07/06/2017 21:00      84.8      84.4       33     52.4      0.00      0.00      86.0     0.35      1013.0     2       194         3       198        8.54     266      -79.5
   07/06/2017 20:50      85.3      84.9       33     52.8      0.00      0.00      86.0     0.35      1013.0     4       201         6       213        8.54     266      -81.3
   07/06/2017 20:40      86.0      85.5       33     53.0      0.00      0.00      86.0     0.35      1013.0     4       203         6       179        8.54     266      -83.4
   07/06/2017 20:30      86.7      86.0       32     53.0      0.00      0.00      86.0     0.35      1012.0     5       209         8       203        8.55     266      -84.2
   07/06/2017 20:20      87.6      86.8       31     52.9      0.00      0.00      85.9     0.35      1012.0     3       214         4       218        8.55     265      -85.1
   07/06/2017 20:10      88.7      87.7       28     51.3      0.00      0.00      85.8     0.35      1012.0     4       218         5       239        8.55     265      -83.9
   07/06/2017 20:00      89.7      88.9       27     51.0      0.00      0.00      85.6     0.35      1012.0     3       238         5       251        8.56     266      -81.8
   07/06/2017 19:50      90.5      89.7       27     51.3      0.00      0.00      85.7     0.35      1012.0     3       281         5       312        8.56     265      -77.7
   07/06/2017 19:40      91.0      90.6       26     51.2      0.00      0.00      85.6     0.35      1012.0     3       275         7       284        8.57     266      -69.0
   07/06/2017 19:30      91.8      91.1       25     51.1      0.00      0.00      85.6     0.35      1012.0     4       288         6       293        8.57     265      -55.2
   07/06/2017 19:20      92.8      91.9       24     50.3      0.00      0.00      85.7     0.35      1012.0     6       270         8       276        8.58     265      -40.6
   07/06/2017 19:10      93.7      93.1       23     50.6      0.00      0.00      85.6     0.35      1012.0     4       291         6       279        8.58     265      -25.2
   07/06/2017 19:00      94.1      93.8       23     50.9      0.00      0.00      85.5     0.35      1012.0     4       306         6       296        8.59     265       -5.7
   07/06/2017 18:50      94.8      94.2       24     51.7      0.00      0.00      85.5     0.35      1012.0     5       302         9       306        8.62     265       13.9
   07/06/2017 18:40      95.4      95.0       23     52.0      0.00      0.00      85.4     0.35      1012.0     4       298         8       318        8.62     265       34.1
   07/06/2017 18:30      95.5      95.3       23     52.1      0.00      0.00      85.5     0.35      1012.0     4       305         6       298        8.63     266       56.9
   07/06/2017 18:20      96.0      95.2       23     52.5      0.00      0.00      85.3     0.35      1012.0     5       324         7       312        8.63     266       80.2
   07/06/2017 18:10      96.7      95.5       24     52.9      0.00      0.00      85.5     0.35      1012.0     7       329        10       326        8.63     266      100.0
   07/06/2017 18:00      97.7      96.9       23     53.2      0.00      0.00      85.2     0.35      1012.0     7       321        10       332        8.64     265      123.6
   07/06/2017 17:50      98.4      97.8       23     53.6      0.00      0.00      85.3     0.35      1012.0     6       298         8       309        8.64     265      154.3
   07/06/2017 17:40      99.1      98.4       22     53.6      0.00      0.00      85.3     0.35      1012.0     5       298         6       286        8.64     266      196.4
   07/06/2017 17:30      99.4      98.8       22     53.1      0.00      0.00      85.1     0.35      1012.0     6       296        10       298        8.64     266      220.0
   07/06/2017 17:20      99.6      99.4       21     52.4      0.00      0.00      84.8     0.34      1012.0     4       305         6       295        8.65     266      152.0
   07/06/2017 17:10     100.8      99.9       20     52.0      0.00      0.00      85.0     0.34      1012.0     7       304         9       294        8.65     266      319.6
   07/06/2017 17:00     101.6     100.7       19     52.0      0.00      0.00      84.9     0.34      1012.0     6       299         9       292        8.65     266      313.0
   07/06/2017 16:50     102.6     101.1       19     52.4      0.00      0.00      84.8     0.34      1012.0     5       324        10       292        8.66     266      254.2
   07/06/2017 16:40     102.5     101.2       19     52.2      0.00      0.00      84.7     0.34      1012.0     5       314         8       298        8.66     266      342.8
   07/06/2017 16:30     101.6     101.0       19     51.9      0.00      0.00      84.5     0.34      1012.0     6       317         9       310        8.67     266      339.1
   07/06/2017 16:20     102.5     101.5       19     52.0      0.00      0.00      84.3     0.34      1012.0     6       316         9       321        8.67     266      353.5
   07/06/2017 16:10     101.9     101.6       19     51.8      0.00      0.00      84.6     0.34      1012.0     6       326        10       329        8.68     266      375.5
   07/06/2017 16:00     102.4     101.7       19     51.9      0.00      0.00      84.6     0.34      1012.0     7       310         9       352        8.68     266      377.3
   07/06/2017 15:50     102.9     101.6       19     52.4      0.00      0.00      84.1     0.34      1012.0     7       318        10       297        8.69     266      423.7
   07/06/2017 15:40     104.5     102.8       19     53.2      0.00      0.00      84.3     0.34      1013.0     7       317        10       358        8.69     266      422.1
   07/06/2017 15:30     104.6     103.5       21     55.9      0.00      0.00      84.2     0.34      1013.0     3        11         5       354        8.69     266      436.2
   07/06/2017 15:20     104.3     103.8       21     56.0      0.00      0.00      84.0     0.34      1013.0     3        32         4        19        8.69     266      440.9
   07/06/2017 15:10     103.8     101.8       22     56.0      0.00      0.00      84.1     0.34      1013.0     3         5         5        34        8.76     267      445.7
   07/06/2017 15:00     102.9     102.2       21     55.8      0.00      0.00      83.9     0.34      1013.0     4        42         7        77        8.77     266      453.2
   07/06/2017 14:50     102.5     101.6       22     55.9      0.00      0.00      83.8     0.34      1013.0     2        55         5        71        8.78     266      464.8
   07/06/2017 14:40     102.8     101.9       22     56.3      0.00      0.00      83.8     0.34      1013.0     3        70         5        87        8.78     267      473.5
   07/06/2017 14:30     102.1     101.5       22     56.1      0.00      0.00      83.6     0.34      1013.0     3        29         6        28        8.79     267      481.8
   07/06/2017 14:20     102.6     101.4       22     56.0      0.00      0.00      83.5     0.34      1013.0     4        45         6        64        8.79     266      488.6
   07/06/2017 14:10     102.0     101.2       22     56.2      0.00      0.00      83.6     0.34      1013.0     3        29         6        17        8.79     267      495.3
   07/06/2017 14:00     102.1     100.3       23     56.0      0.00      0.00      83.4     0.34      1013.0     3        38         5       348        8.80     267      505.8
   07/06/2017 13:50     101.4     100.6       23     56.4      0.00      0.00      83.5     0.34      1014.0     4        39         5        61        8.80     267      514.4
   07/06/2017 13:40     101.3      98.8       23     56.0      0.00      0.00      83.4     0.34      1014.0     2        50         4       122        8.80     267      521.2
   07/06/2017 13:30      99.3      98.6       24     55.5      0.00      0.00      83.4     0.34      1014.0     2        77         5        70        8.80     267      526.6
   07/06/2017 13:20      99.3      97.8       25     56.7      0.00      0.00      83.5     0.34      1014.0     3        23         4       340        8.80     267      528.3
   07/06/2017 13:10      98.1      96.3       26     56.8      0.00      0.00      83.2     0.34      1014.0     3        22         6        19        8.80     267      533.5
   07/06/2017 13:00      96.9      96.0       27     56.5      0.00      0.00      83.2     0.34      1014.0     3       120         4        47        8.80     267      537.2
   07/06/2017 12:50      96.6      96.1       27     56.5      0.00      0.00      83.2     0.34      1014.0     3        20         4       346        8.81     267      536.5
   07/06/2017 12:40      97.4      95.5       27     56.7      0.00      0.00      83.2     0.34      1015.0     3        48         5        28        8.81     267      537.0
   07/06/2017 12:30      96.6      95.7       26     56.1      0.00      0.00      83.2     0.34      1015.0   197        48      1944       999        8.81     267      536.1
   07/06/2017 12:20      95.7      94.3       27     55.9      0.00      0.00      83.2     0.34      1015.0     3        44         5        62        8.81     267      534.5
   07/06/2017 12:10      95.4      93.9       27     55.3      0.00      0.00      83.4     0.34      1015.0     4        29         7        15        8.81     268      532.4
   07/06/2017 12:00      94.6      93.8       26     54.6      0.00      0.00      83.2     0.34      1015.0     3        56         4         6        8.81     267      530.2
   07/06/2017 11:50      94.0      93.0       26     53.6      0.00      0.00      83.1     0.34      1015.0     3        37         6       339        8.81     267      525.8
   07/06/2017 11:40      93.5      92.1       26     52.5      0.00      0.00      83.2     0.34      1015.0     2        22         5        78        8.81     267      517.6
   07/06/2017 11:30      92.7      91.2       26     52.6      0.00      0.00      83.3     0.34      1015.0     3        24         4       354        8.81     267      511.8
   07/06/2017 11:20      91.3      90.5       26     51.6      0.00      0.00      83.3     0.34      1015.0     3       344         4       323        8.82     268      504.9
   07/06/2017 11:10      90.9      89.6       27     51.9      0.00      0.00      83.3     0.34      1015.0     3        16         4        16        8.82     268      498.3
   07/06/2017 11:00      89.8      88.6       27     50.8      0.00      0.00      83.2     0.34      1016.0     2        19         3        49        8.82     268      489.2
   07/06/2017 10:50      88.2      87.7       27     49.5      0.00      0.00      83.3     0.34      1016.0     3        62         4        89        8.82     268      478.5
   07/06/2017 10:40      87.6      86.5       27     48.7      0.00      0.00      83.1     0.34      1016.0     2        57         4        76        8.82     269      466.7
   07/06/2017 10:30      86.5      85.6       28     48.8      0.00      0.00      83.2     0.34      1016.0     3       352         4        27        8.82     268      455.3
   07/06/2017 10:20      86.0      85.4       29     49.9      0.00      0.00      83.2     0.34      1016.0     3       343         4       343        8.82     269      443.2
   07/06/2017 10:10      86.0      83.5       30     50.0      0.00      0.00      83.3     0.34      1016.0     2       300         4       253        8.82     269      428.3
   07/06/2017 10:00      83.3      82.6       32     49.8      0.00      0.00      83.2     0.34      1016.0     2       293         3       251        8.82     269      411.2
   07/06/2017 09:50      83.5      82.7       32     50.3      0.00      0.00      83.5     0.34      1016.0     2         3         3         2        8.82     269      395.3
   07/06/2017 09:40      83.0      82.1       32     50.2      0.00      0.00      83.4     0.34      1016.0     2        72         4       305        8.82     268      379.5
   07/06/2017 09:30      81.7      80.4       33     49.4      0.00      0.00      83.6     0.34      1016.0     2        65         4       107        8.83     268      361.9
   07/06/2017 09:20      80.4      78.7       36     50.3      0.00      0.00      83.4     0.34      1016.0     2        51         3        39        8.83     269      346.9
   07/06/2017 09:10      78.5      78.1       39     51.0      0.00      0.00      83.5     0.35      1016.0     2        27         4       359        8.83     269      334.2
   07/06/2017 09:00      78.1      76.2       41     51.6      0.00      0.00      83.4     0.35      1017.0     2        39         3        96        8.83     269      333.6
   07/06/2017 08:50      76.2      75.2       42     51.0      0.00      0.00      83.5     0.35      1017.0     2        48         3        50        8.84     269      210.3
   07/06/2017 08:40      75.3      74.3       46     52.4      0.00      0.00      83.7     0.35      1017.0   391         8      1944       999        8.84     269        0.0
   07/06/2017 08:30      74.2      73.5       48     52.9      0.00      0.00      83.6     0.35      1017.0   196        41      1944       999        8.84     269       -8.6
   07/06/2017 08:20      73.4      72.5       52     54.5      0.00      0.00      83.7     0.35      1016.0     1        27         3        40        8.84     269      -11.1
   07/06/2017 08:10      72.6      71.9       54     55.0      0.00      0.00      83.6     0.35      1016.0     1        90         2        75        8.84     269       -7.3
   07/06/2017 08:00      71.8      71.1       58     55.7      0.00      0.00      83.6     0.35      1016.0     2        44         3       109        8.84     269      -13.2
   07/06/2017 07:50      71.1      70.3       59     55.8      0.00      0.00      83.9     0.35      1016.0     2       349         2       350        8.84     269       -3.9
   07/06/2017 07:40      70.5      69.6       60     55.6      0.00      0.00      83.8     0.35      1016.0     2        28         2        10        8.84     269        8.2
   07/06/2017 07:30      69.8      69.1       63     56.2      0.00      0.00      83.9     0.35      1016.0     1        29         2       353        8.85     269       -5.2
   07/06/2017 07:20      69.3      68.4       64     56.3      0.00      0.00      83.8     0.35      1016.0     1       104         1       133        8.85     269      -20.3
   07/06/2017 07:10      68.4      67.6       66     56.1      0.00      0.00      83.7     0.35      1016.0     1       113         1       134        8.85     269      -21.9
   07/06/2017 07:00      67.7      67.0       67     55.9      0.00      0.00      84.1     0.35      1016.0     0       101         1       148        8.85     269      -28.6
   07/06/2017 06:50      67.2      66.0       68     55.8      0.00      0.00      84.1     0.35      1016.0     1        60         1       359        8.85     269      -29.3
   07/06/2017 06:40      65.9      64.8       72     55.8      0.00      0.00      84.1     0.35      1016.0     1       346         1        10        8.85     269      -35.2
   07/06/2017 06:30      64.8      63.9       73     55.6      0.00      0.00      84.1     0.35      1016.0     0       114         1        72        8.85     269      -41.4
   07/06/2017 06:20      64.0      63.5       73     55.1      0.00      0.00      83.9     0.35      1015.0     1       179         2       146        8.85     269      -42.1
   07/06/2017 06:10      63.8      63.4       74     54.9      0.00      0.00      84.3     0.35      1015.0     1       149         2       142        8.86     268      -48.1
   07/06/2017 06:00      63.7      63.4       73     54.8      0.00      0.00      84.1     0.35      1015.0     1       172         2       174        8.86     268      -52.6
   07/06/2017 05:50      63.8      63.5       73     54.9      0.00      0.00      84.4     0.35      1015.0     2       154         2       143        8.86     268      -55.3
   07/06/2017 05:40      63.8      63.5       72     54.6      0.00      0.00      84.5     0.35      1015.0     2       150         2       168        8.86     268      -56.7
   07/06/2017 05:30      64.5      64.0       71     54.6      0.00      0.00      84.3     0.35      1015.0     2       162         2       178        8.86     268      -56.9
   07/06/2017 05:20      64.4      64.1       72     54.9      0.00      0.00      84.3     0.35      1015.0     2       166         2       159        8.86     268      -57.0
   07/06/2017 05:10      64.6      64.3       71     55.0      0.00      0.00      84.3     0.35      1015.0     2       156         3       161        8.86     268      -57.5
   07/06/2017 05:00      64.6      64.3       71     54.9      0.00      0.00      84.4     0.35      1015.0     1       157         2       156        8.86     268      -57.1
   07/06/2017 04:50      64.4      64.1       71     54.6      0.00      0.00      84.6     0.35      1015.0     1       145         2       159        8.87     268      -57.4
   07/06/2017 04:40      64.8      64.5       70     54.5      0.00      0.00      84.3     0.35      1015.0     1       159         2       138        8.87     268      -57.5
   07/06/2017 04:30      65.2      64.8       69     54.7      0.00      0.00      84.7     0.35      1015.0     1       136         1       143        8.88     267      -58.0
   07/06/2017 04:20      65.2      65.1       69     54.7      0.00      0.00      84.5     0.35      1015.0     0       135         1        39        8.88     268      -57.9
   07/06/2017 04:10      65.2      65.0       69     54.6      0.00      0.00      84.5     0.35      1015.0     0       113         1        36        8.88     268      -58.8
   07/06/2017 04:00      65.4      65.1       69     54.7      0.00      0.00      84.6     0.35      1015.0     1        39         1         3        8.89     267      -59.1
   07/06/2017 03:50      65.3      65.1       68     54.3      0.00      0.00      84.5     0.35      1015.0     0        91         1        89        8.89     267      -59.5
   07/06/2017 03:40      65.8      65.3       66     54.0      0.00      0.00      84.6     0.35      1015.0     1        76         2        84        8.89     267      -61.1
   07/06/2017 03:30      66.2      65.8       65     54.0      0.00      0.00      84.6     0.35      1015.0     1        85         1        95        8.89     267      -61.1
   07/06/2017 03:20      66.5      66.1       65     54.3      0.00      0.00      84.7     0.35      1015.0     1        93         3        92        8.90     267      -61.7
   07/06/2017 03:10      66.3      66.1       65     54.2      0.00      0.00      84.8     0.35      1015.0     1        97         2       102        8.90     267      -62.1
   07/06/2017 03:00      66.3      65.7       64     53.5      0.00      0.00      84.8     0.35      1015.0     1       112         2        94        8.90     267      -61.2
   07/06/2017 02:50      66.4      66.2       62     53.1      0.00      0.00      84.7     0.35      1015.0     1        80         2        75        8.90     267      -61.0
   07/06/2017 02:40      66.9      66.4       61     52.8      0.00      0.00      84.7     0.35      1015.0     1        90         2        85        8.90     267      -61.3
   07/06/2017 02:30      67.0      66.7       60     52.5      0.00      0.00      84.7     0.35      1015.0     1       109         2        93        8.90     267      -62.3
   07/06/2017 02:20      68.1      67.2       57     51.8      0.00      0.00      85.0     0.35      1015.0     1       115         2       111        8.90     267      -63.7
   07/06/2017 02:10      68.4      68.3       57     52.3      0.00      0.00      84.9     0.35      1015.0     1       103         2       101        8.90     267      -66.2
   07/06/2017 02:00      68.9      68.5       56     52.1      0.00      0.00      84.9     0.35      1015.0     2        86         3       104        8.90     267      -67.2
   07/06/2017 01:50      69.2      68.7       54     51.7      0.00      0.00      85.0     0.35      1015.0     1        95         3        71        8.90     267      -67.8
   07/06/2017 01:40      69.7      69.3       52     51.3      0.00      0.00      84.8     0.35      1015.0     2        67         4        77        8.90     267      -68.1
   07/06/2017 01:30      70.0      69.7       50     50.4      0.00      0.00      84.9     0.35      1015.0     2        83         3       100        8.90     267      -67.3
   07/06/2017 01:20      70.2      69.9       48     49.8      0.00      0.00      85.0     0.35      1015.0     2        94         3        84        8.90     267      -67.2
   07/06/2017 01:10      70.8      70.1       47     49.4      0.00      0.00      84.9     0.35      1015.0     2       115         3       126        8.91     267      -67.2
   07/06/2017 01:00      71.0      70.7       47     50.0      0.00      0.00      85.0     0.35      1015.0     2       113         2       102        8.90     267      -67.6
   07/06/2017 00:50      71.4      71.2       48     50.8      0.00      0.00      85.0     0.35      1015.0     2        88         2       100        8.91     267      -68.6
   07/06/2017 00:40      71.5      71.4       52     53.0      0.00      0.00      85.0     0.35      1015.0     2        86         3        87        8.91     267      -68.0
   07/06/2017 00:30      71.4      71.2       52     52.6      0.00      0.00      85.0     0.35      1015.0     1        91         2       103        8.91     267      -66.8
   07/06/2017 00:20      72.5      71.7       49     52.1      0.00      0.00      85.1     0.35      1015.0     1       115         2       121        8.91     267      -67.5
   07/06/2017 00:10      73.0      72.6       49     52.4      0.00      0.00      85.2     0.35      1015.0     1       114         1       126        8.91     267      -69.1
   07/06/2017 00:00      73.6      73.2       49     52.8      0.00      0.00      85.1     0.35      1015.0     2        70         3        74        8.91     267      -70.5
   07/05/2017 23:50      74.1      73.7       48     52.9      0.00      0.00      85.2     0.35      1015.0     2        53         3        59        8.91     267      -70.3
   07/05/2017 23:40      74.3      74.1       46     51.9      0.00      0.00      85.2     0.35      1015.0     2        65         3        66        8.91     266      -70.0
   07/05/2017 23:30      74.5      74.2       44     50.9      0.00      0.00      85.1     0.35      1015.0     2        64         4        72        8.91     266      -69.1
   07/05/2017 23:20      74.5      74.3       41     49.4      0.00      0.00      85.1     0.35      1015.0     2        57         2        70        8.91     266      -67.8
   07/05/2017 23:10      74.9      74.4       40     49.0      0.00      0.00      85.1     0.35      1015.0     2        95         3        73        8.91     266      -66.5
   07/05/2017 23:00      75.2      74.7       39     48.3      0.00      0.00      85.2     0.35      1015.0     1        95         2        96        8.92     266      -66.8
   07/05/2017 22:50      76.2      75.3       37     47.3      0.00      0.00      85.2     0.35      1015.0     1        82         2        68        8.92     266      -67.5
   07/05/2017 22:40      76.3      75.9       35     46.8      0.00      0.00      85.1     0.35      1015.0     1        91         3        74        8.92     266      -67.4
   07/05/2017 22:30      76.4      75.9       34     46.0      0.00      0.00      85.2     0.35      1015.0     1       105         2        86        8.92     266      -68.3
   07/05/2017 22:20      77.2      76.4       32     45.0      0.00      0.00      85.2     0.35      1014.0     1       132         2       137        8.92     265      -69.2
   07/05/2017 22:10      77.4      77.0       31     44.5      0.00      0.00      85.1     0.35      1014.0     1       164         1       170        8.92     266      -69.6
   07/05/2017 22:00      78.2      77.3       31     44.4      0.00      0.00      85.1     0.35      1014.0     1       144         2       136        8.92     265      -70.8
   07/05/2017 21:50      79.4      78.3       28     43.3      0.00      0.00      85.0     0.35      1014.0     2       151         2       139        8.92     266      -71.4
   07/05/2017 21:40      79.9      79.4       27     42.6      0.00      0.00      85.1     0.35      1014.0     1       204         2       220        8.93     265      -70.2
   07/05/2017 21:30      80.3      79.9       26     42.5      0.00      0.00      85.2     0.35      1014.0     1       187         2       214        8.93     265      -71.9
   07/05/2017 21:20      81.0      80.1       26     42.5      0.00      0.00      85.0     0.35      1014.0     1       166         1       181        8.93     265      -74.8
   07/05/2017 21:10      82.3      81.1       24     41.9      0.00      0.00      84.9     0.35      1014.0     1       147         2       120        8.93     266      -77.5
   07/05/2017 21:00      83.1      82.4       23     41.5      0.00      0.00      85.0     0.35      1014.0     1        93         2       103        8.94     266      -79.7
   07/05/2017 20:50      83.6      83.2       23     41.4      0.00      0.00      85.0     0.35      1014.0     2        79         4        76        8.94     266      -81.4
   07/05/2017 20:40      84.6      83.7       23     42.6      0.00      0.00      85.0     0.35      1014.0     2       118         3        72        8.94     266      -82.3
   07/05/2017 20:30      85.4      84.7       23     42.9      0.00      0.00      84.9     0.35      1014.0     1        87         2       120        8.94     266      -83.5
   07/05/2017 20:20      86.1      85.4       24     44.6      0.00      0.00      84.9     0.35      1013.0     2       146         2       111        8.95     266      -84.1
   07/05/2017 20:10      87.0      86.3       31     52.2      0.00      0.00      84.8     0.35      1013.0     1       193         3       136        8.95     266      -82.8
   07/05/2017 20:00      88.2      87.0       30     52.4      0.00      0.00      84.8     0.35      1013.0     3       212         5       203        8.96     266      -79.5
   07/05/2017 19:50      89.8      88.3       29     53.0      0.00      0.00      84.7     0.35      1013.0     2       199         4       226        8.96     266      -74.4
   07/05/2017 19:40      90.9      90.2       29     54.4      0.00      0.00      84.8     0.35      1013.0     2       257         4       228        8.97     266      -62.2
   07/05/2017 19:30      91.1      90.8       29     54.5      0.00      0.00      84.8     0.35      1013.0     3       303         5       302        8.97     266      -45.4
   07/05/2017 19:20      91.9      91.2       29     54.5      0.00      0.00      84.7     0.35      1013.0     4       298         5       293        8.97     266      -25.7
   07/05/2017 19:10      92.5      91.9       28     54.1      0.00      0.00      84.9     0.35      1013.0   197       264      1944       999        8.98     266        6.7
   07/05/2017 19:00      92.5      91.7       28     54.0      0.00      0.00      84.6     0.35      1013.0     4       226         6       216        8.98     266       36.3
   07/05/2017 18:50      93.0      92.8       27     54.3      0.00      0.00      84.5     0.35      1013.0   197       247      1944       999        8.99     266       63.9
   07/05/2017 18:40      93.0      92.8       28     54.6      0.00      0.00      84.6     0.35      1013.0     3       235         5       239        9.00     266       85.4
   07/05/2017 18:30      93.1      92.8       27     54.5      0.00      0.00      84.6     0.35      1013.0     4       229         6       221        9.00     266      101.7
   07/05/2017 18:20      92.9      92.3       27     54.0      0.00      0.00      84.5     0.35      1012.0     3       146         5       134        9.00     266      125.0
   07/05/2017 18:10      92.7      92.0       26     52.9      0.00      0.00      84.6     0.35      1012.0     4       160         6       143        9.01     266      153.2
   07/05/2017 18:00      92.2      91.6       26     51.8      0.00      0.00      84.4     0.35      1012.0     4       167         6       164        9.01     266      126.2
   07/05/2017 17:50      92.3      91.8       26     52.8      0.00      0.00      84.3     0.35      1012.0     4       166         6       175        9.01     266       67.4
   07/05/2017 17:40      92.2      91.8       26     52.0      0.00      0.00      84.2     0.35      1013.0     3       170         4       183        9.02     266       95.8
   07/05/2017 17:30      92.6      92.2       25     51.3      0.00      0.00      84.2     0.35      1012.0     4       174         6       161        9.02     266      217.9
   07/05/2017 17:20      92.7      91.6       25     51.3      0.00      0.00      84.1     0.35      1013.0     3       166         6       159        9.02     266      170.5
   07/05/2017 17:10      92.4      91.1       25     50.8      0.00      0.00      83.9     0.35      1013.0     5       175         6       172        9.02     266      132.9
   07/05/2017 17:00      94.1      92.6       23     50.0      0.00      0.00      84.0     0.35      1013.0     4        88         7        75        9.02     266      140.5
   07/05/2017 16:50      95.1      94.3       22     49.8      0.00      0.00      83.9     0.35      1013.0     3        37         5         9        9.02     265      101.4
   07/05/2017 16:40      95.6      95.0       22     50.3      0.00      0.00      83.9     0.34      1013.0     3        27         5        27        9.02     266      197.3
   07/05/2017 16:30      95.7      94.8       22     50.3      0.00      0.00      83.8     0.34      1013.0     3        38         6        89        9.02     266      323.2
   07/05/2017 16:20      95.5      94.7       22     50.6      0.00      0.00      83.6     0.34      1013.0     4        37         5        53        9.02     266      334.8
   07/05/2017 16:10      95.2      94.7       23     51.3      0.00      0.00      83.6     0.34      1013.0     4        47         6        67        9.02     266      351.8
   07/05/2017 16:00      95.2      94.7       23     51.7      0.00      0.00      83.7     0.34      1013.0     3        52         6        80        9.02     266      371.9
   07/05/2017 15:50      95.1      94.5       24     52.1      0.00      0.00      83.6     0.34      1013.0     4        54         7        91        9.02     266      389.2
   07/05/2017 15:40      95.3      94.3       24     52.4      0.00      0.00      83.4     0.34      1013.0     3        72         6        74        9.02     266      407.8
   07/05/2017 15:30      95.1      94.7       24     52.7      0.00      0.00      83.3     0.34      1013.0     4        72         7        81        9.02     266      423.2
   07/05/2017 15:20      95.3      94.2       24     52.7      0.00      0.00      83.2     0.34      1013.0     4        43         5        35        9.02     266      435.5
   07/05/2017 15:10      94.7      94.4       24     52.3      0.00      0.00      83.3     0.34      1013.0     4        44         5        39        9.02     266      446.1
   07/05/2017 15:00      94.7      94.3       24     52.1      0.00      0.00      83.1     0.34      1013.0     4        36         6        68        9.02     266      456.5
   07/05/2017 14:50      94.0      93.6       24     51.5      0.00      0.00      83.0     0.34      1013.0     5        41         8        69        9.02     266      467.0
   07/05/2017 14:40      94.1      93.2       25     52.4      0.00      0.00      83.2     0.34      1013.0     5        55         7        70        9.02     266      479.4
   07/05/2017 14:30      94.6      93.2       25     52.9      0.00      0.00      82.9     0.34      1013.0     4        50         8        66        9.02     266      489.3
   07/05/2017 14:20      94.9      93.5       27     55.1      0.00      0.00      83.1     0.34      1014.0     4        49         8        77        9.02     266      497.0
   07/05/2017 14:10      94.4      93.8       27     54.9      0.00      0.00      82.8     0.34      1014.0     5        49         6        71        9.02     266      503.5
   07/05/2017 14:00      94.7      93.8       28     56.2      0.00      0.00      82.9     0.34      1014.0     5        47         8        63        9.02     266      510.4
   07/05/2017 13:50      95.1      93.9       29     57.5      0.00      0.00      82.7     0.34      1014.0     4        44         5        30        9.02     267      517.8
   07/05/2017 13:40      94.4      93.0       29     56.6      0.00      0.00      82.8     0.34      1014.0     4        49         5        22        9.02     267      522.1
   07/05/2017 13:30      93.2      92.7       29     56.3      0.00      0.00      82.8     0.34      1014.0     3        51         5        39        9.02     267      527.0
   07/05/2017 13:20      93.7      92.5       30     56.4      0.00      0.00      82.6     0.34      1014.0     5        76         7        81        9.02     267      530.8
   07/05/2017 13:10      95.1      93.5       26     54.6      0.00      0.00      82.7     0.34      1014.0     4        75         9       101        9.02     267      528.7
   07/05/2017 13:00      94.9      93.5       24     51.3      0.00      0.00      82.6     0.34      1014.0     3        10         5        53        9.02     266      530.4
   07/05/2017 12:50      93.5      92.8       23     50.3      0.00      0.00      82.5     0.34      1014.0     3        38         5        19        9.03     267      529.0
   07/05/2017 12:40      92.8      91.5       25     51.5      0.00      0.00      82.4     0.34      1014.0     3        51         5        79        9.02     267      530.5
   07/05/2017 12:30      93.3      91.9       25     52.3      0.00      0.00      82.3     0.34      1014.0     3        40         4        44        9.02     267      528.2
   07/05/2017 12:20      92.2      91.4       25     50.9      0.00      0.00      82.4     0.34      1014.0     3        15         5       341        9.02     267      528.7
   07/05/2017 12:10      91.1      90.0       26     51.0      0.00      0.00      82.5     0.34      1014.0     2        12         4        11        9.02     268      525.5
   07/05/2017 12:00      90.6      89.6       27     51.2      0.00      0.00      82.4     0.34      1014.0     3        20         5         2        9.02     268      517.9
   07/05/2017 11:50      89.8      88.1       27     50.6      0.00      0.00      82.4     0.34      1015.0     2       349         4       329        9.02     268      517.1
   07/05/2017 11:40      88.3      87.2       28     50.7      0.00      0.00      82.5     0.34      1015.0     3       106         5        94        9.02     267      509.1
   07/05/2017 11:30      89.1      87.1       28     50.9      0.00      0.00      82.4     0.34      1015.0     3       352         6       114        9.02     268      507.0
   07/05/2017 11:20      87.4      87.1       29     50.8      0.00      0.00      82.5     0.34      1015.0     2       350         3       318        9.02     268      492.2
   07/05/2017 11:10      87.2      85.5       30     51.1      0.00      0.00      82.3     0.34      1015.0     3       319         5       291        9.02     268      491.0
   07/05/2017 11:00      85.4      84.6       31     51.2      0.00      0.00      82.5     0.34      1015.0     3        30         5        21        9.02     268      481.5
   07/05/2017 10:50      85.5      83.4       33     51.7      0.00      0.00      82.5     0.34      1015.0     2        13         5        27        9.02     268      476.2
   07/05/2017 10:40      84.3      83.1       34     52.1      0.00      0.00      82.4     0.34      1015.0     3        13         4       346        9.02     268      462.0
   07/05/2017 10:30      84.2      82.7       33     51.8      0.00      0.00      82.5     0.34      1015.0     2        23         6        65        9.02     268      450.1
   07/05/2017 10:20      82.6      80.9       34     51.0      0.00      0.00      82.6     0.34      1015.0     3        10         4        21        9.02     268      437.4
   07/05/2017 10:10      81.5      80.0       35     50.5      0.00      0.00      82.6     0.34      1015.0     2        49         4        75        9.02     268      424.8
   07/05/2017 10:00      80.3      79.4       35     50.2      0.00      0.00      82.7     0.34      1015.0     2        52         5        81        9.02     268      408.4
   07/05/2017 09:50      79.2      78.8       38     50.9      0.00      0.00      82.6     0.34      1015.0     2        17         4        22        9.02     268      385.7
   07/05/2017 09:40      79.1      77.8       40     52.2      0.00      0.00      82.8     0.34      1015.0     2       350         3       349        9.02     268      368.0
   07/05/2017 09:30      77.7      76.4       42     52.3      0.00      0.00      82.8     0.34      1015.0     2        52         6        79        9.02     268      355.4
   07/05/2017 09:20      76.1      75.4       45     52.8      0.00      0.00      82.7     0.34      1016.0     2        21         4        15        9.02     269      339.3
   07/05/2017 09:10      76.2      75.3       45     53.2      0.00      0.00      82.8     0.35      1016.0     3        71         5        74        9.02     268      292.2
   07/05/2017 09:00      75.4      74.0       48     53.5      0.00      0.00      82.6     0.35      1016.0     3        46         5       357        9.02     269      322.8
   07/05/2017 08:50      74.1      73.2       49     53.4      0.00      0.00      83.0     0.35      1016.0     3        34         4        16        9.02     268      211.8
   07/05/2017 08:40      73.1      72.3       51     53.4      0.00      0.00      82.9     0.35      1016.0     3        39         4        80        9.02     268       19.5
   07/05/2017 08:30      72.5      72.0       50     52.7      0.00      0.00      83.0     0.35      1016.0     2        23         4         5        9.02     268        9.3
   07/05/2017 08:20      72.3      71.4       52     53.0      0.00      0.00      83.0     0.35      1015.0     2        56         5        77        8.15     268        9.9
   07/05/2017 08:10      71.5      71.3       53     53.2      0.00      0.00      82.9     0.35      1015.0     2        20         3        15        8.15     268        6.9
   07/05/2017 08:00      71.3      70.5       53     53.0      0.00      0.00      82.9     0.35      1015.0     2        21         3       357        8.15     268       13.6
   07/05/2017 07:50      70.7      70.2       52     52.1      0.00      0.00      83.1     0.35      1015.0     2        58         3        73        8.15     268       17.4
   07/05/2017 07:40      70.1      69.3       53     51.5      0.00      0.00      83.0     0.35      1015.0     2        74         3        99        8.15     268       18.3
   07/05/2017 07:30      69.3      68.4       54     51.7      0.00      0.00      83.2     0.35      1015.0     1        74         2        60        8.15     268        4.0
   07/05/2017 07:20      68.5      67.9       56     52.0      0.00      0.00      83.4     0.35      1015.0     2        61         3        79        8.15     268      -12.6
   07/05/2017 07:10      68.0      67.4       58     52.3      0.00      0.00      83.0     0.35      1015.0     1        86         2       100        8.15     268      -18.3
   07/05/2017 07:00      67.5      67.0       58     51.9      0.00      0.00      83.2     0.35      1015.0     1        95         2        69        8.15     267      -23.4
   07/05/2017 06:50      66.7      65.4       61     52.3      0.00      0.00      83.1     0.35      1015.0     0        25         1         8        8.16     267      -26.8
   07/05/2017 06:40      65.4      64.5       63     52.1      0.00      0.00      83.3     0.35      1014.0     1       124         1       130        8.16     267      -33.4
   07/05/2017 06:30      64.5      63.7       64     51.5      0.00      0.00      83.4     0.35      1014.0     1       211         1       240        8.16     267      -38.9
   07/05/2017 06:20      63.8      63.5       64     51.1      0.00      0.00      83.3     0.35      1014.0     1       145         2       140        8.16     267      -40.3
   07/05/2017 06:10      63.5      63.2       64     50.8      0.00      0.00      83.4     0.35      1014.0     1       166         1       159        8.16     267      -45.4
   07/05/2017 06:00      63.4      63.1       64     50.8      0.00      0.00      83.5     0.35      1014.0     1       141         1       139        8.16     267      -50.8
   07/05/2017 05:50      63.5      63.3       63     50.6      0.00      0.00      83.4     0.35      1014.0     1       155         1       138        8.16     267      -54.3
   07/05/2017 05:40      63.4      63.2       64     50.9      0.00      0.00      83.4     0.35      1014.0     2       154         2       148        8.16     267      -56.3
   07/05/2017 05:30      63.5      63.3       64     50.9      0.00      0.00      83.5     0.35      1014.0     2       149         3       154        8.16     267      -57.3
   07/05/2017 05:20      63.9      63.3       61     50.1      0.00      0.00      83.6     0.35      1014.0     2       138         2       141        8.16     267      -57.3
   07/05/2017 05:10      64.2      63.8       59     49.5      0.00      0.00      83.6     0.35      1014.0     1       183         2       126        8.16     267      -56.4
   07/05/2017 05:00      64.2      63.8       59     49.2      0.00      0.00      83.7     0.35      1014.0     1       158         2       226        8.16     266      -57.1
   07/05/2017 04:50      64.3      63.9       58     49.0      0.00      0.00      83.7     0.35      1014.0     1       143         2       140        8.16     267      -57.3
   07/05/2017 04:40      64.3      63.8       56     48.1      0.00      0.00      83.8     0.35      1014.0     1       167         1       125        8.16     266      -56.9
   07/05/2017 04:30      64.5      64.1       55     47.6      0.00      0.00      83.6     0.35      1014.0     1       133         2       135        8.17     266      -58.2
   07/05/2017 04:20      65.2      64.8       52     46.7      0.00      0.00      83.7     0.35      1014.0     1       158         2       140        8.17     266      -58.0
   07/05/2017 04:10      65.5      65.2       51     46.6      0.00      0.00      83.8     0.35      1013.0     1       171         2       135        8.17     266      -57.9
   07/05/2017 04:00      65.6      65.3       50     46.1      0.00      0.00      83.8     0.35      1013.0     1       167         1       186        8.17     266      -57.9
   07/05/2017 03:50      65.4      65.2       51     46.5      0.00      0.00      83.9     0.35      1014.0     2       152         2       144        8.17     266      -58.1
   07/05/2017 03:40      65.4      65.1       51     46.7      0.00      0.00      84.0     0.35      1014.0     2       137         2       136        8.17     266      -58.5
   07/05/2017 03:30      65.7      65.4       50     46.6      0.00      0.00      84.0     0.35      1014.0     1       144         2       141        8.17     266      -59.0
   07/05/2017 03:20      65.7      65.4       49     46.1      0.00      0.00      84.1     0.35      1013.0     2       135         2       129        8.18     266      -59.2
   07/05/2017 03:10      65.9      65.4       48     45.2      0.00      0.00      83.9     0.35      1013.0     1       145         2       139        8.18     266      -59.9
   07/05/2017 03:00      65.9      65.6       46     44.3      0.00      0.00      84.1     0.35      1014.0     2       144         2       138        8.18     266      -60.6
   07/05/2017 02:50      65.9      65.7       44     43.5      0.00      0.00      84.1     0.35      1014.0     1       144         2       128        8.18     266      -61.2
   07/05/2017 02:40      66.7      66.1       42     43.0      0.00      0.00      84.2     0.35      1013.0     2       136         2       142        8.18     266      -61.4
   07/05/2017 02:30      67.0      66.7       40     41.9      0.00      0.00      84.1     0.35      1013.0     1       171         1       158        8.18     266      -61.3
   07/05/2017 02:20      66.9      66.6       40     42.0      0.00      0.00      84.2     0.35      1013.0     1       171         2       140        8.19     265      -61.2
   07/05/2017 02:10      67.0      66.7       39     41.1      0.00      0.00      84.2     0.35      1013.0     1       185         1       202        8.19     265      -61.3
   07/05/2017 02:00      67.2      66.7       40     41.6      0.00      0.00      84.1     0.35      1013.0     1       138         1       140        8.19     265      -61.5
   07/05/2017 01:50      67.2      66.7       39     41.3      0.00      0.00      84.2     0.35      1013.0     1       137         2       138        8.20     265      -62.4
   07/05/2017 01:40      67.7      67.0       38     41.0      0.00      0.00      84.3     0.35      1013.0     1       119         2       128        8.20     265      -63.0
   07/05/2017 01:30      67.8      67.3       37     40.6      0.00      0.00      84.2     0.35      1013.0     2       155         3       139        8.21     265      -63.8
   07/05/2017 01:20      68.4      68.2       37     40.7      0.00      0.00      84.4     0.35      1014.0     2       140         2       132        8.21     265      -64.6
   07/05/2017 01:10      69.2      68.7       36     41.2      0.00      0.00      84.3     0.35      1013.0     1       139         2       129        8.22     265      -64.2
   07/05/2017 01:00      69.4      69.1       34     39.7      0.00      0.00      84.4     0.35      1013.0     1       144         2       134        8.22     265      -64.2
   07/05/2017 00:50      69.3      69.0       34     39.3      0.00      0.00      84.4     0.35      1013.0     1       136         2       107        8.22     265      -65.1
   07/05/2017 00:40      70.3      69.5       30     37.6      0.00      0.00      84.4     0.35      1013.0     1       141         2       127        8.23     265      -65.7
   07/05/2017 00:30      70.4      70.3       30     37.3      0.00      0.00      84.5     0.35      1013.0     0       174         1       174        8.23     265      -64.7
   07/05/2017 00:20      71.0      70.4       30     38.2      0.00      0.00      84.4     0.35      1013.0     1       116         1        91        8.23     265      -66.4
   07/05/2017 00:10      71.8      71.2       29     37.6      0.00      0.00      84.6     0.35      1013.0     2       175         3       191        8.24     265      -65.9
   07/05/2017 00:00      71.4      71.1       28     36.7      0.00      0.00      84.4     0.35      1013.0     1       188         1       199        8.24     265      -65.9
   07/04/2017 23:50      71.5      71.2       29     37.8      0.00      0.00      84.5     0.35      1013.0     1       206         2       133        8.24     265      -66.3
   07/04/2017 23:40      72.2      71.5       29     37.6      0.00      0.00      84.6     0.35      1013.0     1       165         3       127        8.24     265      -66.2
   07/04/2017 23:30      72.8      72.1       28     37.4      0.00      0.00      84.4     0.35      1013.0     2       170         2       203        8.25     265      -67.0
   07/04/2017 23:20      73.3      72.6       28     38.1      0.00      0.00      84.6     0.35      1013.0     1       144         2       174        8.25     265      -68.2
   07/04/2017 23:10      73.5      73.2       26     36.7      0.00      0.00      84.5     0.35      1013.0     2       171         3       177        8.25     265      -68.5
   07/04/2017 23:00      74.2      73.5       26     36.6      0.00      0.00      84.4     0.35      1013.0     1       185         2       142        8.25     265      -68.9
   07/04/2017 22:50      74.8      73.8       26     36.9      0.00      0.00      84.4     0.35      1013.0     1        79         2        69        8.25     264      -70.7
   07/04/2017 22:40      75.8      74.8       25     36.5      0.00      0.00      84.5     0.35      1013.0     2        33         3        17        8.25     264      -70.4
   07/04/2017 22:30      76.5      75.9       23     35.9      0.00      0.00      84.6     0.35      1013.0     1       125         1       169        8.26     264      -72.8
   07/04/2017 22:20      76.5      75.1       23     35.9      0.00      0.00      84.4     0.35      1013.0     3       210         4       223        8.26     264      -71.5
   07/04/2017 22:10      75.3      75.0       24     36.3      0.00      0.00      84.5     0.35      1013.0     1       277         1       201        8.26     264      -74.2
   07/04/2017 22:00      75.9      75.0       24     36.7      0.00      0.00      84.4     0.35      1013.0     1        44         2        44        8.26     264      -75.7
   07/04/2017 21:50      77.1      76.1       24     36.6      0.00      0.00      84.4     0.35      1013.0     1        49         2        41        8.26     264      -78.4
   07/04/2017 21:40      77.3      77.1       23     36.7      0.00      0.00      84.5     0.35      1013.0     1       150         3       237        8.26     264      -81.6
   07/04/2017 21:30      77.5      77.2       24     37.3      0.00      0.00      84.5     0.35      1013.0     3       196         8       184        8.26     264      -83.3
   07/04/2017 21:20      77.6      77.5       23     36.7      0.00      0.00      84.4     0.35      1013.0     4       205         5       214        8.27     264      -84.2
   07/04/2017 21:10      77.9      77.7       23     36.6      0.00      0.00      84.4     0.35      1013.0     5       209         8       207        8.27     264      -85.3
   07/04/2017 21:00      78.3      77.8       22     36.4      0.00      0.00      84.4     0.35      1013.0     4       196         7       208        8.27     264      -86.6
   07/04/2017 20:50      78.8      78.3       20     34.5      0.00      0.00      84.4     0.35      1013.0     5       200         8       176        8.28     264      -87.6
   07/04/2017 20:40      79.5      78.9       18     32.6      0.00      0.00      84.5     0.35      1013.0     4       211         6       238        8.28     264      -88.4
   07/04/2017 20:30      79.9      79.3       17     31.6      0.00      0.00      84.4     0.35      1013.0     3       208         5       203        8.29     264      -89.0
   07/04/2017 20:20      80.3      79.8       17     30.8      0.00      0.00      84.4     0.35      1013.0     4       205         6       203        8.29     264      -89.4
   07/04/2017 20:10      81.0      80.4       18     33.0      0.00      0.00      84.2     0.35      1012.0     3       208         6       245        8.30     264      -89.1
   07/04/2017 20:00      81.9      81.3       19     35.5      0.00      0.00      84.3     0.35      1012.0     4       213         6       202        8.30     264      -87.0
   07/04/2017 19:50      83.8      82.4       19     37.2      0.00      0.00      84.1     0.35      1012.0     4       223         8       245        8.31     264      -83.3
   07/04/2017 19:40      84.6      84.0       18     36.8      0.00      0.00      84.3     0.35      1012.0     4       266         6       253        8.32     264      -72.9
   07/04/2017 19:30      85.2      84.6       18     36.8      0.00      0.00      84.2     0.35      1012.0     5       271         7       256        8.33     264      -56.5
   07/04/2017 19:20      85.3      85.0       18     37.2      0.00      0.00      84.1     0.35      1012.0     5       283         8       307        8.33     264      -39.6
   07/04/2017 19:10      85.6      85.1       19     38.3      0.00      0.00      84.1     0.35      1012.0     4       300         7       278        8.34     264      -20.2
   07/04/2017 19:00      86.0      85.3       18     37.9      0.00      0.00      84.1     0.35      1012.0     6       305         9       308        8.35     264        2.1
   07/04/2017 18:50      86.7      86.2       18     38.1      0.00      0.00      84.0     0.35      1012.0     6       293         9       298        8.36     264       24.3
   07/04/2017 18:40      87.0      86.4       18     38.1      0.00      0.00      84.0     0.35      1012.0     6       304         9       312        8.38     265       47.7
   07/04/2017 18:30      87.4      87.1       17     37.3      0.00      0.00      83.9     0.35      1012.0     6       313         8       305        8.39     265       68.9
   07/04/2017 18:20      87.7      87.3       17     37.5      0.00      0.00      83.9     0.35      1012.0     6       309        10       304        8.40     265       90.9
   07/04/2017 18:10      88.9      87.4       18     39.2      0.00      0.00      83.7     0.35      1012.0     8       308        12       297        8.41     265      109.9
   07/04/2017 18:00      89.8      88.9       20     43.0      0.00      0.00      83.7     0.35      1012.0     7       292        10       307        8.42     265      127.5
   07/04/2017 17:50      91.5      89.8       23     47.9      0.00      0.00      83.8     0.35      1012.0     7       286        10       289        8.42     265      142.9
   07/04/2017 17:40      92.7      91.7       21     47.1      0.00      0.00      83.6     0.34      1011.0     7       291        13       326        8.43     265      165.2
   07/04/2017 17:30      94.0      92.7       19     44.5      0.00      0.00      83.5     0.34      1011.0     7       312         9       320        8.43     265      187.5
   07/04/2017 17:20      96.0      94.4       17     43.0      0.00      0.00      83.4     0.34      1011.0     7       304        10       301        8.46     265      207.3
   07/04/2017 17:10      97.5      95.5       15     41.0      0.00      0.00      83.4     0.34      1011.0     5       300         8       305        8.50     265      241.9
   07/04/2017 17:00      97.8      96.8       17     44.7      0.00      0.00      83.2     0.34      1011.0     6       277         9       263        8.51     265      268.0
   07/04/2017 16:50      97.1      96.3       20     48.6      0.00      0.00      83.4     0.34      1011.0     5       215         8       162        8.51     265      292.8
   07/04/2017 16:40      96.2      95.8       19     47.1      0.00      0.00      83.1     0.34      1011.0     7       152        10       142        8.52     265      312.5
   07/04/2017 16:30      96.2      95.3       18     45.1      0.00      0.00      83.1     0.34      1011.0     7       161        11       156        8.52     265      330.1
   07/04/2017 16:20      97.8      95.7       17     44.6      0.00      0.00      82.9     0.34      1011.0     7       151        10       148        8.53     265      348.0
   07/04/2017 16:10      99.5      98.1       16     44.8      0.00      0.00      82.7     0.34      1011.0     7       165        10       160        8.54     265      362.3
   07/04/2017 16:00      99.9      98.2       17     46.1      0.00      0.00      82.8     0.34      1011.0     5       132         9       133        8.54     265      378.5
   07/04/2017 15:50     100.8      99.9       18     49.0      0.00      0.00      82.6     0.34      1011.0     4       140         8       162        8.55     265      393.6
   07/04/2017 15:40     100.8     100.1       19     50.8      0.00      0.00      82.7     0.34      1012.0     5        60         7       103        8.55     265      410.5
   07/04/2017 15:30     100.1      99.5       19     50.7      0.00      0.00      82.7     0.34      1012.0     4       100         7        89        8.56     266      425.0
   07/04/2017 15:20     100.4      99.4       18     49.1      0.00      0.00      82.4     0.34      1012.0     4        95         6       109        8.56     266      437.5
   07/04/2017 15:10     100.2      98.7       19     49.5      0.00      0.00      82.4     0.34      1012.0     4       129         7        91        8.57     266      452.0
   07/04/2017 15:00     101.0      99.0       17     46.8      0.00      0.00      82.2     0.34      1012.0     3        98         7       121        8.57     265      463.2
   07/04/2017 14:50     100.3      99.5       17     46.8      0.00      0.00      82.2     0.34      1012.0     4       120         7       106        8.57     265      475.2
   07/04/2017 14:40     100.8      99.5       16     46.5      0.00      0.00      82.1     0.34      1013.0     3        88         6        87        8.58     266      483.9
   07/04/2017 14:30     100.7      99.7       16     45.8      0.00      0.00      82.1     0.34      1013.0     3         6         4        16        8.58     266      492.0
   07/04/2017 14:20     100.6      98.7       15     44.7      0.00      0.00      82.2     0.34      1013.0     4        24         6       336        8.58     266      500.3
   07/04/2017 14:10      99.8      98.6       14     41.9      0.00      0.00      82.1     0.34      1013.0     4        67         5        61        8.58     265      513.0
   07/04/2017 14:00      99.0      98.1       14     41.4      0.00      0.00      82.0     0.34      1013.0     4       124         5       133        8.58     266      521.7
   07/04/2017 13:50      98.9      97.3       14     41.2      0.00      0.00      81.8     0.33      1013.0     3       149         6       152        8.59     266      527.4
   07/04/2017 13:40      99.3      97.9       14     41.5      0.00      0.00      81.9     0.33      1013.0     3       287         6       151        8.59     266      527.9
   07/04/2017 13:30      99.1      98.3       14     41.6      0.00      0.00      81.8     0.33      1013.0     3         5         5       358        8.59     266      531.8
   07/04/2017 13:20      98.8      96.5       14     41.4      0.00      0.00      81.7     0.33      1014.0     2       348         5       340        8.60     266      538.8
   07/04/2017 13:10      97.4      95.7       15     41.0      0.00      0.00      81.7     0.33      1014.0     2       355         5       338        8.60     266      539.9
   07/04/2017 13:00      97.7      95.4       15     40.7      0.00      0.00      81.6     0.33      1014.0     3        15         6       351        8.60     266      543.7
   07/04/2017 12:50      97.8      95.8       15     41.0      0.00      0.00      81.7     0.33      1014.0     2        46         6       352        8.60     266      544.7
   07/04/2017 12:40      96.1      94.9       15     40.4      0.00      0.00      81.7     0.33      1014.0     2        17         3        79        8.60     266      544.5
   07/04/2017 12:30      95.1      93.5       15     40.1      0.00      0.00      81.5     0.33      1014.0     2        19         5         4        8.60     267      545.7
   07/04/2017 12:20      93.9      92.5       15     39.2      0.00      0.00      81.5     0.33      1015.0     3       296         5       323        8.61     266      545.8
   07/04/2017 12:10      92.9      92.0       16     40.3      0.00      0.00      81.5     0.34      1015.0     2       357         4        23        8.61     267      542.8
   07/04/2017 12:00      92.4      91.2       17     41.3      0.00      0.00      81.5     0.34      1015.0     2        11         4        16        8.61     267      539.9
   07/04/2017 11:50      92.3      91.3       18     42.5      0.00      0.00      81.5     0.34      1015.0     3         1         4        11        8.61     268      534.8
   07/04/2017 11:40      91.3      89.8       19     42.7      0.00      0.00      81.5     0.34      1015.0     2         7         4        46        8.62     268      530.1
   07/04/2017 11:30      89.9      89.1       21     44.1      0.00      0.00      81.7     0.34      1015.0     3         1         5       355        8.62     268      524.0
   07/04/2017 11:20      89.1      87.7       22     44.3      0.00      0.00      81.6     0.34      1015.0     3       355         4        29        8.63     268      517.8
   07/04/2017 11:10      87.7      87.1       23     45.0      0.00      0.00      81.7     0.34      1015.0   197         9      1944       999        8.63     268      510.5
   07/04/2017 11:00      87.7      87.0       24     46.0      0.00      0.00      81.7     0.34      1015.0     2        37         4        88        8.63     268      502.3
   07/04/2017 10:50      87.1      85.4       25     46.4      0.00      0.00      81.7     0.34      1015.0     2        14         4         4        8.63     269      491.6
   07/04/2017 10:40      85.6      85.0       26     46.4      0.00      0.00      81.6     0.34      1015.0     2       360         4        28        8.63     269      480.7
   07/04/2017 10:30      85.0      83.7       27     46.8      0.00      0.00      81.7     0.34      1016.0     3         7         4         2        8.64     269      468.0
   07/04/2017 10:20      83.6      82.5       29     47.3      0.00      0.00      81.8     0.34      1016.0     3       337         5       328        8.64     270      455.8
   07/04/2017 10:10      82.9      82.0       29     46.7      0.00      0.00      81.6     0.34      1016.0     2        30         4        78        8.64     269      441.7
   07/04/2017 10:00      82.0      79.8       31     47.7      0.00      0.00      81.9     0.34      1016.0     2        40         3       341        8.64     269      426.2
   07/04/2017 09:50      80.0      79.3       34     48.6      0.00      0.00      81.8     0.34      1016.0     2       357         3        26        8.64     269      410.2
   07/04/2017 09:40      79.3      78.7       34     48.1      0.00      0.00      81.8     0.34      1016.0     3         2         3       359        8.64     270      393.7
   07/04/2017 09:30      79.2      78.6       36     49.6      0.00      0.00      81.9     0.34      1016.0     2        27         4        26        8.65     270      378.9
   07/04/2017 09:20      78.9      77.3       39     51.1      0.00      0.00      81.9     0.34      1016.0     2        30         2       100        8.65     270      363.8
   07/04/2017 09:10      76.9      75.5       42     51.4      0.00      0.00      81.8     0.34      1016.0     2       357         2       337        8.65     270      352.3
   07/04/2017 09:00      75.4      73.9       44     51.4      0.00      0.00      81.9     0.35      1016.0     2       352         3        26        8.65     270      352.1
   07/04/2017 08:50      73.6      72.5       48     52.0      0.00      0.00      81.9     0.35      1016.0   196       350      1944       999        8.65     270      230.7
   07/04/2017 08:40      72.6      71.8       53     54.0      0.00      0.00      81.9     0.35      1016.0     2         5         4       358        8.77     270      -20.5
   07/04/2017 08:30      71.8      71.0       54     53.7      0.00      0.00      81.9     0.35      1016.0     2        18         3       338        8.78     270      -29.4
   07/04/2017 08:20      71.0      70.3       56     54.4      0.00      0.00      82.0     0.35      1016.0   196        39      1944       999        8.78     270      -31.9
   07/04/2017 08:10      70.5      69.6       58     54.6      0.00      0.00      82.0     0.35      1016.0     2         5         3         5        8.78     270      -28.9
   07/04/2017 08:00      69.6      68.7       60     54.6      0.00      0.00      82.2     0.35      1016.0     1        25         2        57        8.78     270      -31.6
   07/04/2017 07:50      68.7      67.9       61     54.4      0.00      0.00      82.2     0.35      1016.0     1        69         2         2        8.79     270      -19.4
   07/04/2017 07:40      67.9      67.0       62     54.0      0.00      0.00      82.4     0.35      1016.0     1        75         2        91        8.79     270       -6.8
   07/04/2017 07:30      67.0      66.1       63     53.7      0.00      0.00      82.3     0.35      1016.0     1       122         2        76        8.79     269      -12.7
   07/04/2017 07:20      66.1      65.2       64     53.2      0.00      0.00      82.0     0.35      1016.0     1       129         1       152        8.79     269      -32.2
   07/04/2017 07:10      65.3      64.4       66     53.1      0.00      0.00      82.5     0.35      1016.0     0       153         1       146        8.79     269      -37.1
   07/04/2017 07:00      64.4      63.5       68     53.3      0.00      0.00      82.4     0.35      1016.0     0        24         1         6        8.79     269      -40.3
   07/04/2017 06:50      63.5      62.2       71     53.3      0.00      0.00      82.5     0.35      1016.0     0        40         1       114        8.79     269      -40.9
   07/04/2017 06:40      62.2      61.1       73     53.1      0.00      0.00      82.3     0.35      1015.0     1       118         1       125        8.79     269      -45.1
   07/04/2017 06:30      61.2      60.5       75     52.8      0.00      0.00      82.4     0.35      1015.0     1       130         2       129        8.80     269      -51.5
   07/04/2017 06:20      60.6      59.8       75     52.4      0.00      0.00      82.7     0.35      1015.0     1       153         2       128        8.80     269      -46.6
   07/04/2017 06:10      59.9      59.7       75     51.9      0.00      0.00      82.7     0.35      1015.0     1       141         2       135        8.80     269      -52.2
   07/04/2017 06:00      60.1      60.0       73     51.6      0.00      0.00      82.7     0.35      1015.0     1       167         2       142        8.80     269      -55.9
   07/04/2017 05:50      60.1      59.5       73     51.3      0.00      0.00      82.7     0.35      1015.0     0        52         1       333        8.80     269      -58.4
   07/04/2017 05:40      59.8      59.5       74     51.2      0.00      0.00      82.5     0.35      1015.0     1       317         2       324        8.80     268      -60.2
   07/04/2017 05:30      59.7      59.4       75     51.8      0.00      0.00      82.7     0.35      1015.0     1       152         2       141        8.80     268      -62.5
   07/04/2017 05:20      59.9      59.4       75     51.8      0.00      0.00      82.7     0.35      1015.0     1       143         2       135        8.80     269      -63.3
   07/04/2017 05:10      59.9      59.7       75     51.9      0.00      0.00      82.8     0.35      1015.0     1       159         2       143        8.80     269      -62.4
   07/04/2017 05:00      60.0      59.5       76     52.4      0.00      0.00      83.0     0.35      1015.0     1       167         1       127        8.80     268      -62.4
   07/04/2017 04:50      60.0      59.2       73     51.0      0.00      0.00      82.9     0.35      1015.0     2       137         2       142        8.80     268      -63.6
   07/04/2017 04:40      60.6      60.3       74     52.2      0.00      0.00      82.8     0.35      1015.0     1       138         2       134        8.80     268      -64.4
   07/04/2017 04:30      60.9      60.4       75     52.5      0.00      0.00      83.1     0.35      1015.0     1       149         2       142        8.80     268      -63.3
   07/04/2017 04:20      60.5      60.1       73     51.7      0.00      0.00      82.7     0.35      1015.0     2       139         2       144        8.80     268      -64.6
   07/04/2017 04:10      60.9      60.4       72     51.7      0.00      0.00      83.1     0.35      1015.0     2       135         2       136        8.80     268      -64.5
   07/04/2017 04:00      61.3      60.9       71     51.6      0.00      0.00      83.0     0.35      1015.0     1       141         2       141        8.80     268      -64.8
   07/04/2017 03:50      61.7      61.3       70     51.7      0.00      0.00      83.0     0.35      1015.0     1       144         2       140        8.80     268      -65.0
   07/04/2017 03:40      61.6      61.4       70     51.6      0.00      0.00      83.2     0.35      1015.0     1       141         2       131        8.80     268      -65.4
   07/04/2017 03:30      61.5      61.3       70     51.6      0.00      0.00      83.1     0.35      1015.0     1       144         1       138        8.80     268      -65.9
   07/04/2017 03:20      62.3      61.5       69     51.6      0.00      0.00      83.1     0.35      1015.0     2       130         2       138        8.80     268      -67.4
   07/04/2017 03:10      63.1      62.3       66     51.0      0.00      0.00      83.2     0.35      1015.0     2       155         2       143        8.80     268      -66.6
   07/04/2017 03:00      63.3      63.1       65     51.1      0.00      0.00      83.3     0.35      1015.0     1       144         1       153        8.80     268      -65.8
   07/04/2017 02:50      63.5      63.3       64     51.0      0.00      0.00      83.0     0.35      1015.0     1       128         1       138        8.80     268      -66.3
   07/04/2017 02:40      63.7      62.8       64     51.0      0.00      0.00      83.2     0.35      1015.0     1       187         1       128        8.80     268      -67.0
   07/04/2017 02:30      63.4      62.8       65     51.0      0.00      0.00      83.1     0.35      1015.0     1       133         2       138        8.80     268      -68.1
   07/04/2017 02:20      64.3      63.5       64     51.4      0.00      0.00      83.4     0.35      1015.0     2       130         3       136        8.80     268      -69.2
   07/04/2017 02:10      64.5      64.3       63     51.7      0.00      0.00      83.4     0.35      1015.0     2       161         2       155        8.80     268      -69.3
   07/04/2017 02:00      64.7      64.3       64     52.1      0.00      0.00      83.4     0.35      1015.0     2       152         3       158        8.80     268      -70.2
   07/04/2017 01:50      65.5      64.9       63     52.2      0.00      0.00      83.4     0.35      1015.0     2       138         3       140        8.80     268      -70.5
   07/04/2017 01:40      66.1      65.7       60     51.6      0.00      0.00      83.5     0.35      1015.0     2       149         2       159        8.80     268      -70.0
   07/04/2017 01:30      66.3      66.2       60     51.8      0.00      0.00      83.5     0.35      1015.0     2       148         2       140        8.80     268      -70.1
   07/04/2017 01:20      66.5      66.3       60     52.2      0.00      0.00      83.4     0.35      1015.0     1       133         2       140        8.80     268      -70.4
   07/04/2017 01:10      66.5      66.0       62     52.9      0.00      0.00      83.5     0.35      1015.0     1       168         1       213        8.80     268      -69.9
   07/04/2017 01:00      66.2      65.9       65     54.0      0.00      0.00      83.6     0.35      1015.0     1       165         1        73        8.80     267      -69.3
   07/04/2017 00:50      66.7      66.3       66     54.6      0.00      0.00      83.4     0.35      1015.0     1       130         1       124        8.80     267      -70.0
   07/04/2017 00:40      66.9      66.3       64     54.1      0.00      0.00      83.5     0.35      1015.0     1       135         2       144        8.80     267      -70.9
   07/04/2017 00:30      67.3      66.8       63     54.1      0.00      0.00      83.7     0.35      1015.0     1       175         2       185        8.80     267      -70.8
   07/04/2017 00:20      67.7      67.3       63     54.4      0.00      0.00      83.6     0.35      1015.0     1       145         2       153        8.80     267      -71.0
   07/04/2017 00:10      67.9      67.6       63     54.6      0.00      0.00      83.6     0.35      1015.0     0       314         1       116        8.80     267      -70.9
   07/04/2017 00:00      68.1      67.4       62     54.4      0.00      0.00      83.7     0.35      1015.0     1       139         2       140        8.80     267      -73.0
   07/03/2017 23:50      68.8      68.3       61     54.8      0.00      0.00      83.7     0.35      1015.0     2       159         3       150        8.80     267      -73.3
   07/03/2017 23:40      69.1      68.8       61     55.2      0.00      0.00      83.7     0.35      1015.0     1       144         2       190        8.80     267      -74.6
   07/03/2017 23:30      69.3      68.6       61     54.9      0.00      0.00      83.7     0.35      1015.0     2       144         3       152        8.80     267      -75.4
   07/03/2017 23:20      69.6      69.3       60     55.0      0.00      0.00      83.5     0.35      1015.0     1       191         2       200        8.80     267      -77.0
   07/03/2017 23:10      70.8      69.8       58     54.9      0.00      0.00      83.7     0.35      1015.0     1       197         1       212        8.81     267      -77.3
   07/03/2017 23:00      71.3      70.8       57     54.9      0.00      0.00      83.7     0.35      1015.0     1       203         2       217        8.81     267      -77.6
   07/03/2017 22:50      72.3      71.5       55     55.0      0.00      0.00      83.7     0.35      1015.0     1       191         2       264        8.81     267      -81.2
   07/03/2017 22:40      73.3      72.5       54     55.1      0.00      0.00      83.7     0.35      1015.0     1       291         2       273        8.81     267      -82.1
   07/03/2017 22:30      73.9      73.4       53     55.5      0.00      0.00      83.6     0.35      1015.0     2       255         4       256        8.81     266      -84.3
   07/03/2017 22:20      75.0      74.1       52     55.6      0.00      0.00      83.7     0.35      1014.0     3       232         5       222        8.81     266      -86.2
   07/03/2017 22:10      75.5      75.3       51     55.8      0.00      0.00      83.7     0.35      1015.0     2       274         3       253        8.81     266      -87.1
   07/03/2017 22:00      75.8      75.3       50     55.4      0.00      0.00      83.6     0.35      1014.0     2       238         4       239        8.81     266      -86.7
   07/03/2017 21:50      76.3      75.7       49     55.4      0.00      0.00      83.7     0.35      1014.0     1       248         3       262        8.81     266      -86.4
   07/03/2017 21:40      76.8      76.6       48     55.5      0.00      0.00      83.6     0.35      1014.0     2       214         4       228        8.81     266      -89.3
   07/03/2017 21:30      77.4      77.0       48     55.8      0.00      0.00      83.6     0.35      1014.0     2       221         4       230        8.81     266      -90.1
   07/03/2017 21:20      77.7      77.3       48     56.1      0.00      0.00      83.6     0.35      1014.0     2       228         3       233        8.81     266      -91.1
   07/03/2017 21:10      78.3      77.8       47     56.2      0.00      0.00      83.4     0.35      1014.0     3       208         5       196        8.81     266      -92.2
   07/03/2017 21:00      79.0      78.5       46     56.3      0.00      0.00      83.4     0.35      1014.0     4       218         5       234        8.81     266      -93.8
   07/03/2017 20:50      79.7      79.3       45     56.3      0.00      0.00      83.5     0.35      1014.0     5       239         8       242        8.81     266      -95.7
   07/03/2017 20:40      81.0      79.8       43     55.9      0.00      0.00      83.6     0.35      1014.0     5       242         6       233        8.81     265      -97.9
   07/03/2017 20:30      81.8      81.2       40     55.1      0.00      0.00      83.6     0.35      1014.0     4       237         7       243        8.81     265      -99.2
   07/03/2017 20:20      83.0      82.0       34     51.5      0.00      0.00      83.4     0.35      1013.0     4       226         8       234        8.81     265      -98.8
   07/03/2017 20:10      84.2      83.2       16     33.0      0.00      0.00      83.5     0.35      1013.0     2       202         3       163        8.81     264      -97.4
   07/03/2017 20:00      85.4      84.5       13     29.4      0.00      0.00      83.5     0.35      1013.0     3       182         4       156        8.82     264      -96.9
   07/03/2017 19:50      86.5      85.6       12     28.2      0.00      0.00      83.5     0.35      1013.0     3       207         6       220        8.82     264      -95.7
   07/03/2017 19:40      87.7      86.8       12     29.2      0.00      0.00      83.3     0.35      1013.0     3       191         5       198        8.82     264      -84.7
   07/03/2017 19:30      88.8      87.8       14     32.2      0.00      0.00      83.4     0.35      1013.0     4       173         6       189        8.82     264      -68.0
   07/03/2017 19:20      91.6      89.1       14     34.8      0.00      0.00      83.3     0.35      1013.0     4       169         8       161        8.82     264      -52.4
   07/03/2017 19:10      93.7      91.9       12     33.7      0.00      0.00      83.3     0.35      1013.0     3       161         5       225        8.83     264      -32.9
   07/03/2017 19:00      93.7      92.8       12     32.4      0.00      0.00      83.4     0.35      1013.0     2        58         6        65        8.83     265      -10.6
   07/03/2017 18:50      93.8      93.5       11     31.2      0.00      0.00      83.2     0.35      1013.0     3        22         4        29        8.83     264       11.7
   07/03/2017 18:40      94.1      93.8       11     30.6      0.00      0.00      83.3     0.35      1013.0     3        48         5        29        8.84     264       35.5
   07/03/2017 18:30      94.9      94.0       10     29.5      0.00      0.00      83.1     0.35      1013.0     3        36         4        24        8.84     265       57.6
   07/03/2017 18:20      95.2      95.0       10     28.8      0.00      0.00      83.3     0.35      1013.0     3        46         5        71        8.85     265       80.0
   07/03/2017 18:10      95.5      94.9       10     29.3      0.00      0.00      83.0     0.35      1013.0     2        46         4       343        8.85     265      102.6
   07/03/2017 18:00      95.9      95.2       10     29.4      0.00      0.00      82.9     0.35      1013.0     2         6         4       316        8.86     265      125.8
   07/03/2017 17:50      95.8      94.3       10     29.4      0.00      0.00      83.1     0.34      1013.0     3        43         4        62        8.86     265      149.6
   07/03/2017 17:40      94.0      93.4       10     29.5      0.00      0.00      82.9     0.34      1013.0     2       138         4       169        8.87     265      176.5
   07/03/2017 17:30      94.4      92.5       10     29.4      0.00      0.00      82.9     0.34      1013.0     3       105         5        63        8.88     265      199.7
   07/03/2017 17:20      94.1      92.6       10     28.5      0.00      0.00      82.8     0.34      1013.0     4       128         7       128        8.88     265      224.2
   07/03/2017 17:10      94.5      93.6       10     28.6      0.00      0.00      83.0     0.34      1013.0     3       137         4        73        8.89     265      244.3
   07/03/2017 17:00      93.7      93.2       10     28.9      0.00      0.00      82.6     0.34      1014.0     3       110         6        72        8.89     265      268.0
   07/03/2017 16:50      94.0      92.9       10     29.4      0.00      0.00      82.7     0.34      1014.0     4       130         6       172        8.90     265      290.5
   07/03/2017 16:40      93.4      92.4       11     29.5      0.00      0.00      82.5     0.34      1014.0     5        96         6        75        8.90     265      313.2
   07/03/2017 16:30      92.9      92.6       11     30.8      0.00      0.00      82.4     0.34      1014.0     5       137         9       121        8.90     266      333.6
   07/03/2017 16:20      93.9      92.5       11     31.3      0.00      0.00      82.4     0.34      1014.0     5       137         8       154        8.91     265      350.8
   07/03/2017 16:10      94.5      93.3       11     31.2      0.00      0.00      82.2     0.34      1014.0     4       109         8       135        8.91     266      370.2
   07/03/2017 16:00      93.8      92.7       11     31.8      0.00      0.00      82.3     0.34      1014.0     4        98         7        76        8.91     266      390.4
   07/03/2017 15:50      93.5      92.7       11     31.7      0.00      0.00      82.0     0.34      1014.0     4       108         7       123        8.91     266      407.6
   07/03/2017 15:40      92.9      91.8       13     33.6      0.00      0.00      81.9     0.34      1015.0     5       110         6       101        8.91     266      424.2
   07/03/2017 15:30      92.3      91.5       14     35.7      0.00      0.00      82.0     0.34      1015.0     6       143         9       159        8.91     266      439.7
   07/03/2017 15:20      94.2      92.1       15     38.0      0.00      0.00      82.0     0.34      1015.0     6       139        10       131        8.91     267      452.2
   07/03/2017 15:10      95.1      94.0       16     41.3      0.00      0.00      81.9     0.34      1015.0     4        89         5       109        8.91     267      462.2
   07/03/2017 15:00      94.2      92.9       17     42.2      0.00      0.00      82.0     0.34      1015.0     4        34         6        57        8.91     267      473.6
   07/03/2017 14:50      94.5      93.3       16     41.2      0.00      0.00      81.8     0.34      1015.0     3        22         5         9        8.91     268      486.9
   07/03/2017 14:40      93.3      92.0       16     40.1      0.00      0.00      81.7     0.34      1015.0     4       334         8       357        8.91     269      498.5
   07/03/2017 14:30      92.6      91.8       16     39.8      0.00      0.00      81.7     0.34      1015.0     3        80         5        61        8.91     269      512.7
   07/03/2017 14:20      93.0      91.5       18     43.0      0.00      0.00      81.6     0.34      1015.0     3        37         5        69        8.91     269      519.3
   07/03/2017 14:10      92.8      91.1       18     42.5      0.00      0.00      81.5     0.34      1016.0     3        20         4        34        8.91     270      529.1
   07/03/2017 14:00      91.5      90.7       18     41.8      0.00      0.00      81.4     0.34      1016.0     3        29         5       355        8.91     270      538.2
   07/03/2017 13:50      91.3      89.3       20     43.9      0.00      0.00      81.4     0.34      1016.0     2        35         5         8        8.91     271      549.0
   07/03/2017 13:40      89.6      89.1       20     43.3      0.00      0.00      81.5     0.34      1016.0     4        44         6        89        8.91     271      555.8
   07/03/2017 13:30      89.9      88.2       21     44.2      0.00      0.00      81.4     0.34      1016.0     3        40         5        13        8.91     272      561.8
   07/03/2017 13:20      88.8      88.4       20     42.6      0.00      0.00      81.4     0.34      1017.0     4        71         6        81        8.91     274      570.0
   07/03/2017 13:10      89.0      87.3       19     41.0      0.00      0.00      81.2     0.34      1017.0   391        68      1944       999        8.91     275      571.8
   07/03/2017 13:00      88.2      86.1       25     47.0      0.00      0.00      81.3     0.34      1017.0     4        47         6        15        8.91     276      572.8
   07/03/2017 12:50      86.2      85.4       29     50.0      0.00      0.00      81.3     0.34      1017.0     3        38         5        44        8.91     278      575.8
   07/03/2017 12:40      85.7      84.8       29     49.2      0.00      0.00      81.3     0.34      1017.0     3        30         6       339        8.91     279      573.4
   07/03/2017 12:30      85.3      84.1       31     50.7      0.00      0.00      81.2     0.34      1017.0     3        42         5        76        8.91     280      573.7
   07/03/2017 12:20      84.1      83.1       32     51.0      0.00      0.00      81.1     0.34      1017.0     2        31         4        48        8.92     282      572.3
   07/03/2017 12:10      83.8      82.4       34     51.7      0.00      0.00      81.1     0.34      1018.0     3        68         6        77        8.92     289      571.8
   07/03/2017 12:00      82.5      81.2       36     51.9      0.00      0.00      81.2     0.34      1018.0     3        47         7        65        8.92     299      568.4
   07/03/2017 11:50      81.2      79.9       39     53.1      0.00      0.00      81.5     0.34      1018.0     3        20         6        63        8.92     319      562.9
   07/03/2017 11:40      80.2      79.5       40     53.7      0.00      0.00      81.1     0.34      1018.0     3        47         4       107        8.92     354      557.0
   07/03/2017 11:30      79.8      78.4       42     54.2      0.00      0.00      81.3     0.34      1018.0     3        34         5        41        8.91     384      552.3
   07/03/2017 11:20      78.5      77.1       44     53.9      0.00      0.00      80.9     0.34      1018.0     2        50         4        35        8.91     411      545.7
   07/03/2017 11:10      77.4      75.9       44     53.6      0.00      0.00      81.5     0.34      1018.0     3        51         5        61        8.91     437      539.6
   07/03/2017 11:00      75.9      75.1       50     55.7      0.00      0.00      81.2     0.34      1018.0   197         9      1944       999        8.91     465      530.7
   07/03/2017 10:50      75.4      74.3       52     56.3      0.00      0.00      81.1     0.34      1018.0     3         7         4         5        8.91     500      518.1
   07/03/2017 10:40      74.5      73.4       54     56.2      0.00      0.00      81.4     0.34      1018.0     3        19         4        32        8.92     531      507.4
   07/03/2017 10:30      73.5      72.6       56     56.4      0.00      0.00      81.4     0.34      1018.0     3        20         4       323        8.92     543      493.3
   07/03/2017 10:20      72.9      72.2       57     56.4      0.00      0.00      81.2     0.34      1018.0     3        13         4         1        8.92     568      482.3
   07/03/2017 10:10      73.0      71.2       57     56.0      0.00      0.00      81.4     0.34      1018.0     3        64         4        85        8.91     565      470.0
   07/03/2017 10:00      71.6      69.8       60     56.1      0.00      0.00      81.6     0.34      1018.0     2         5         4       349        8.91     539      450.1
   07/03/2017 09:50      70.0      69.2       63     56.5      0.00      0.00      81.6     0.34      1018.0     3        41         4         2        7.95     271      422.2
   07/03/2017 09:40      69.1      67.6       66     56.5      0.00      0.00      81.4     0.34      1018.0     2        39         4         9        7.95     271      404.3
   07/03/2017 09:30      68.0      67.1       68     56.7      0.00      0.00      81.6     0.34      1018.0     3        39         5       359        7.95     271      382.2
   07/03/2017 09:20      67.0      66.2       72     57.0      0.00      0.00      81.8     0.35      1018.0     2        46         5         8        7.95     271      365.0
   07/03/2017 09:10      66.2      64.9       75     57.4      0.00      0.00      81.7     0.35      1018.0     2        46         4        27        7.95     271      348.3
   07/03/2017 09:00      65.2      64.6       76     57.2      0.00      0.00      81.6     0.35      1018.0     3        44         5        71        7.95     271      339.4
   07/03/2017 08:50      64.5      63.8       77     56.9      0.00      0.00      81.6     0.35      1018.0     3        33         3        18        7.95     270      234.0
   07/03/2017 08:40      64.3      63.6       78     56.9      0.00      0.00      81.6     0.35      1018.0     3        39         5        70        7.96     271        5.3
   07/03/2017 08:30      63.6      63.2       79     56.7      0.00      0.00      81.8     0.35      1018.0     2        44         4        69        7.96     271       -2.0
   07/03/2017 08:20      63.7      63.4       79     56.8      0.00      0.00      81.9     0.35      1018.0     3        43         4        55        7.96     270       -1.1
   07/03/2017 08:10      63.7      63.4       79     56.8      0.00      0.00      81.8     0.35      1018.0     4        80         6        79        7.96     270       23.6
   07/03/2017 08:00      63.7      62.8       79     56.8      0.00      0.00      81.8     0.35      1018.0     3        78         5        91        7.96     270       26.8
   07/03/2017 07:50      62.9      62.6       80     56.6      0.00      0.00      81.9     0.35      1018.0     3        74         4        64        7.96     270       40.8
   07/03/2017 07:40      62.9      62.4       81     56.5      0.00      0.00      82.1     0.35      1017.0     2        66         3        64        7.96     270       47.3
   07/03/2017 07:30      62.5      61.6       81     56.0      0.00      0.00      82.2     0.35      1017.0     2        55         4        78        7.96     270       43.2
   07/03/2017 07:20      61.5      60.5       81     55.3      0.00      0.00      82.0     0.35      1017.0     2        66         4        65        7.96     270       26.3
   07/03/2017 07:10      60.5      59.3       84     55.0      0.00      0.00      81.9     0.35      1017.0     1        88         2        92        7.96     270       21.2
   07/03/2017 07:00      59.4      58.3       88     55.1      0.00      0.00      81.5     0.35      1017.0     1        80         2        72        7.96     270       12.8
   07/03/2017 06:50      58.2      57.5       90     55.0      0.00      0.00      82.3     0.35      1017.0   195       100      1944       999        7.96     270        7.2
   07/03/2017 06:40      57.6      56.5       91     54.6      0.00      0.00      82.2     0.35      1017.0     0       214         0       314        7.96     269        1.4
   07/03/2017 06:30      56.5      56.1       91     54.0      0.00      0.00      82.1     0.35      1016.0     0        61         1       104        7.96     269       -5.6
   07/03/2017 06:20      56.1      55.4       91     53.2      0.00      0.00      82.2     0.35      1016.0     0       112         1       141        7.96     269       -7.0
   07/03/2017 06:10      55.7      55.1       91     52.8      0.00      0.00      82.4     0.35      1016.0     1       134         1       135        7.97     269      -12.7
   07/03/2017 06:00      56.0      55.8       91     53.3      0.00      0.00      82.5     0.35      1016.0     1       141         2       141        7.97     269      -17.1
   07/03/2017 05:50      56.3      56.0       91     53.5      0.00      0.00      82.5     0.35      1016.0     1       145         1       142        7.97     268      -20.5
   07/03/2017 05:40      56.6      56.0       91     53.6      0.00      0.00      82.5     0.35      1016.0     1       132         1       126        7.97     268      -23.9
   07/03/2017 05:30      56.6      56.3       91     53.8      0.00      0.00      82.4     0.35      1016.0     1       202         1       181        7.97     269      -25.4
   07/03/2017 05:20      56.6      55.6       90     53.0      0.00      0.00      82.5     0.35      1016.0     2       154         3       153        7.97     269      -27.6
   07/03/2017 05:10      56.8      56.5       90     53.8      0.00      0.00      82.7     0.35      1016.0     1       155         1       144        7.97     268      -27.3
   07/03/2017 05:00      56.9      56.3       90     53.6      0.00      0.00      82.6     0.35      1016.0     1       174         1       126        7.97     269      -29.4
   07/03/2017 04:50      57.0      56.5       90     53.8      0.00      0.00      82.6     0.35      1016.0     1       172         1       172        7.97     268      -31.1
   07/03/2017 04:40      57.3      56.6       89     53.6      0.00      0.00      82.5     0.35      1016.0     1       144         2       141        7.97     268      -32.8
   07/03/2017 04:30      57.4      57.0       89     54.0      0.00      0.00      82.7     0.35      1015.0     0       321         1       121        7.97     268      -34.6
   07/03/2017 04:20      57.2      57.0       89     53.8      0.00      0.00      82.8     0.35      1015.0     1       170         2       164        7.97     268      -37.9
   07/03/2017 04:10      57.3      56.0       88     53.4      0.00      0.00      82.7     0.35      1016.0     1       142         2       139        7.97     268      -42.4
   07/03/2017 04:00      57.4      56.1       87     53.0      0.00      0.00      83.1     0.35      1016.0     2       140         2       134        7.97     268      -45.6
   07/03/2017 03:50      57.6      57.4       88     54.0      0.00      0.00      83.0     0.35      1016.0     1       181         2       147        7.97     268      -44.9
   07/03/2017 03:40      57.7      57.5       87     53.7      0.00      0.00      82.9     0.35      1016.0     2       149         2       141        7.97     268      -49.7
   07/03/2017 03:30      58.2      57.6       86     53.8      0.00      0.00      82.9     0.35      1016.0     2       145         2       154        7.97     268      -52.6
   07/03/2017 03:20      58.6      58.3       86     54.4      0.00      0.00      82.8     0.35      1016.0     1       222         1       129        7.97     268      -53.9
   07/03/2017 03:10      58.6      58.2       86     54.1      0.00      0.00      83.1     0.35      1016.0     1       144         2       128        7.97     268      -57.3
   07/03/2017 03:00      58.9      58.3       84     53.8      0.00      0.00      83.3     0.35      1016.0     1       149         2       154        7.97     268      -63.4
   07/03/2017 02:50      59.9      59.2       84     54.6      0.00      0.00      83.2     0.35      1016.0     2       156         2       163        7.97     268      -63.6
   07/03/2017 02:40      60.1      59.7       82     54.5      0.00      0.00      83.1     0.35      1016.0     1       173         2       161        7.97     268      -62.4
   07/03/2017 02:30      60.4      60.2       82     55.0      0.00      0.00      83.5     0.35      1016.0     1       163         1       164        7.97     268      -60.7
   07/03/2017 02:20      60.5      60.3       81     54.5      0.00      0.00      83.1     0.35      1016.0     1       156         1       176        7.97     268      -64.4
   07/03/2017 02:10      60.6      60.2       80     54.2      0.00      0.00      83.4     0.35      1016.0     0        67         1       151        7.97     267      -66.9
   07/03/2017 02:00      60.4      59.9       80     53.9      0.00      0.00      83.2     0.35      1016.0     0       204         1       187        7.97     267      -68.2
   07/03/2017 01:50      60.3      59.9       80     53.8      0.00      0.00      83.5     0.35      1016.0     1       160         2       163        7.97     267      -69.2
   07/03/2017 01:40      60.5      60.3       78     53.5      0.00      0.00      83.6     0.35      1016.0     1       161         2       148        7.97     267      -69.2
   07/03/2017 01:30      60.9      60.5       77     53.4      0.00      0.00      83.6     0.35      1016.0     1       173         1       181        7.97     267      -67.9
   07/03/2017 01:20      60.9      60.4       75     52.6      0.00      0.00      83.7     0.35      1016.0     1       149         1       159        7.97     267      -68.3
   07/03/2017 01:10      60.5      60.2       72     51.3      0.00      0.00      83.6     0.35      1016.0     1       171         2       140        7.98     267      -70.0
   07/03/2017 01:00      60.6      60.4       70     50.7      0.00      0.00      83.3     0.35      1016.0     1       145         2       133        7.98     267      -69.7
   07/03/2017 00:50      60.8      60.5       67     49.5      0.00      0.00      83.6     0.35      1016.0     1       154         2       176        7.98     267      -70.7
   07/03/2017 00:40      61.3      60.8       66     49.6      0.00      0.00      83.8     0.35      1016.0     2       156         3       155        7.98     267      -71.7
   07/03/2017 00:30      61.6      61.1       64     49.0      0.00      0.00      83.7     0.35      1016.0     1       154         2       140        7.98     267      -72.0
   07/03/2017 00:20      62.0      61.6       62     48.5      0.00      0.00      83.8     0.35      1016.0     1       233         1       255        7.98     267      -71.9
   07/03/2017 00:10      62.2      62.1       59     47.9      0.00      0.00      83.8     0.35      1016.0     0         2         1       195        7.98     267      -72.4
   07/03/2017 00:00      62.2      61.9       55     46.0      0.00      0.00      83.8     0.35      1016.0     1       276         1       267        7.98     266      -72.5
   07/02/2017 23:50      62.4      61.6       53     44.8      0.00      0.00      83.8     0.35      1016.0     1       132         1       148        7.98     266      -73.5
   07/02/2017 23:40      62.0      61.7       52     44.0      0.00      0.00      83.9     0.35      1016.0     2       152         2       163        7.98     267      -74.7
   07/02/2017 23:30      61.9      61.4       52     44.0      0.00      0.00      83.8     0.35      1016.0     2       149         3       146        7.98     266      -75.3
   07/02/2017 23:20      62.4      61.6       50     42.9      0.00      0.00      84.0     0.35      1016.0     2       149         2       147        7.98     266      -76.3
   07/02/2017 23:10      62.7      62.1       49     42.7      0.00      0.00      84.0     0.35      1016.0     1       184         2       174        7.98     266      -79.2
   07/02/2017 23:00      62.5      61.9       50     43.4      0.00      0.00      84.1     0.35      1016.0     1        97         1       167        7.99     266      -82.8
   07/02/2017 22:50      62.8      62.4       51     44.0      0.00      0.00      83.9     0.35      1016.0     1        76         1       123        7.99     266      -85.6
   07/02/2017 22:40      63.2      62.6       50     44.1      0.00      0.00      84.0     0.35      1016.0     1       116         2       118        7.99     266      -87.3
   07/02/2017 22:30      63.5      63.3       49     44.1      0.00      0.00      83.7     0.35      1016.0     2       149         3       154        7.99     266      -88.5
   07/02/2017 22:20      64.3      63.3       49     44.2      0.00      0.00      83.9     0.35      1016.0     2       143         3       157        7.99     266      -89.4
   07/02/2017 22:10      65.2      64.6       48     44.6      0.00      0.00      83.9     0.35      1015.0     2       154         3       135        7.99     266      -89.2
   07/02/2017 22:00      65.7      64.7       47     44.5      0.00      0.00      83.9     0.35      1015.0     1       151         2       136        7.99     266      -88.4
   07/02/2017 21:50      66.1      65.8       47     45.3      0.00      0.00      83.9     0.35      1015.0     1       155         1       142        7.99     266      -89.6
   07/02/2017 21:40      66.4      66.1       47     45.6      0.00      0.00      84.0     0.35      1015.0     1       122         1       150        7.99     266      -92.0
   07/02/2017 21:30      67.4      66.7       45     44.9      0.00      0.00      84.0     0.35      1015.0     1       211         2       228        7.99     266      -93.2
   07/02/2017 21:20      68.0      67.5       45     45.5      0.00      0.00      84.1     0.35      1015.0     1       223         2       218        7.99     266      -94.8
   07/02/2017 21:10      68.2      67.8       46     46.3      0.00      0.00      84.0     0.35      1015.0     1       199         2       192        8.00     266      -94.7
   07/02/2017 21:00      70.0      68.5       45     46.7      0.00      0.00      84.0     0.35      1015.0     1       115         1        75        8.00     266      -97.1
   07/02/2017 20:50      71.2      70.3       42     46.9      0.00      0.00      84.0     0.35      1015.0     0        38         1        34        8.00     265      -98.6
   07/02/2017 20:40      71.7      71.1       41     46.8      0.00      0.00      84.0     0.35      1014.0     1       157         2       159        8.00     265     -103.1
   07/02/2017 20:30      72.9      72.0       40     46.5      0.00      0.00      83.8     0.35      1014.0     3       156         4       170        8.00     265     -105.7
   07/02/2017 20:20      74.1      73.2       35     44.5      0.00      0.00      83.9     0.35      1014.0     3       175         4       183        8.01     265     -104.7
   07/02/2017 20:10      75.2      74.2       32     43.3      0.00      0.00      83.8     0.35      1014.0     2       191         3       184        8.01     265     -103.6
   07/02/2017 20:00      76.4      75.3       32     43.6      0.00      0.00      83.9     0.35      1014.0     3       181         4       159        8.01     265     -105.0
   07/02/2017 19:50      78.9      76.9       27     40.9      0.00      0.00      83.8     0.35      1014.0     3       142         4       136        8.02     265     -104.1
   07/02/2017 19:40      79.5      79.0       20     35.0      0.00      0.00      83.8     0.35      1014.0     3       120         4       139        8.02     265      -91.9
   07/02/2017 19:30      80.2      79.4       20     34.9      0.00      0.00      83.7     0.35      1014.0     5       122         7       123        8.02     265      -70.8
   07/02/2017 19:20      80.8      80.2       19     34.6      0.00      0.00      83.6     0.35      1014.0     4       132         6       123        8.03     265      -51.9
   07/02/2017 19:10      82.2      80.8       21     37.4      0.00      0.00      83.7     0.35      1014.0     5       140         6       130        8.04     265      -30.7
   07/02/2017 19:00      82.7      82.4       22     39.9      0.00      0.00      83.8     0.35      1014.0     3       111         4       128        8.06     265       -7.6
   07/02/2017 18:50      83.1      82.5       21     39.3      0.00      0.00      83.6     0.35      1014.0     3       115         5       131        8.06     266       16.5
   07/02/2017 18:40      82.8      82.5       22     40.0      0.00      0.00      83.7     0.35      1014.0     4       131         6       137        8.07     266       42.1
   07/02/2017 18:30      83.8      83.1       23     41.5      0.00      0.00      83.6     0.35      1014.0     4       106         5       133        8.07     266       66.3
   07/02/2017 18:20      84.1      83.0       22     41.1      0.00      0.00      83.6     0.35      1014.0     3       154         5       152        8.07     266       90.2
   07/02/2017 18:10      84.1      83.4       23     41.7      0.00      0.00      83.6     0.35      1014.0     4       147         6       129        8.08     266      115.4
   07/02/2017 18:00      85.5      84.8       21     41.1      0.00      0.00      83.6     0.35      1014.0     3        84         6       126        8.08     266      138.0
   07/02/2017 17:50      85.2      83.8       20     39.3      0.00      0.00      83.3     0.35      1014.0     3       147         5       174        8.08     266      161.7
   07/02/2017 17:40      84.0      83.6       21     39.7      0.00      0.00      83.4     0.35      1014.0     4       141         7       129        8.08     266      186.3
   07/02/2017 17:30      85.0      83.8       21     39.6      0.00      0.00      83.5     0.35      1014.0     5       140         8       125        8.09     266      210.8
   07/02/2017 17:20      84.0      83.5       20     39.0      0.00      0.00      83.3     0.35      1014.0     6       142        11       157        8.09     266      236.9
   07/02/2017 17:10      85.0      83.9       19     37.1      0.00      0.00      83.2     0.35      1014.0     7       147         9       179        8.09     266      259.0
   07/02/2017 17:00      85.6      84.9       18     36.6      0.00      0.00      83.1     0.35      1014.0     6       141         9       144        8.10     266      279.9
   07/02/2017 16:50      85.2      84.6       16     34.1      0.00      0.00      83.1     0.35      1014.0     7       137         9       146        8.11     266      303.2
   07/02/2017 16:40      85.7      84.8       17     36.1      0.00      0.00      82.9     0.35      1014.0     7       135        10       127        8.12     266      324.4
   07/02/2017 16:30      86.2      85.6       18     37.6      0.00      0.00      83.0     0.35      1014.0     6       135         9       178        8.12     266      341.0
   07/02/2017 16:20      86.2      85.5       20     40.4      0.00      0.00      83.0     0.35      1014.0     6       134         9       153        8.13     266      363.3
   07/02/2017 16:10      86.8      85.9       18     38.0      0.00      0.00      82.9     0.35      1014.0     6       155         8       181        8.14     266      381.4
   07/02/2017 16:00      87.6      86.8       18     39.2      0.00      0.00      82.7     0.35      1014.0     6       160         9       161        8.14     266      394.8
   07/02/2017 15:50      88.3      87.3       18     38.4      0.00      0.00      82.8     0.34      1014.0     5       120         8       155        8.15     266      411.8
   07/02/2017 15:40      88.0      87.2       18     38.5      0.00      0.00      82.7     0.34      1014.0     4       145         7       168        8.17     267      428.0
   07/02/2017 15:30      89.0      87.7       21     43.5      0.00      0.00      82.5     0.34      1014.0     3       127         6       150        8.18     267      442.7
   07/02/2017 15:20      89.0      88.0       22     45.4      0.00      0.00      82.5     0.34      1014.0     3        89         6        67        8.18     267      457.0
   07/02/2017 15:10      88.5      87.9       23     46.1      0.00      0.00      82.6     0.34      1014.0     4        69         7        65        8.19     267      469.4
   07/02/2017 15:00      88.4      87.0       24     46.3      0.00      0.00      82.5     0.34      1014.0     3        50         7        58        8.19     267      484.6
   07/02/2017 14:50      87.4      86.8       27     48.7      0.00      0.00      82.5     0.34      1014.0     5        70         8        74        8.20     267      498.3
   07/02/2017 14:40      86.9      85.4       31     51.8      0.00      0.00      82.3     0.34      1015.0     4        38         5        40        8.22     268      511.0
   07/02/2017 14:30      86.0      85.1       33     52.8      0.00      0.00      82.3     0.34      1015.0     4        48         6        63        8.23     268      520.8
   07/02/2017 14:20      85.9      84.8       34     53.5      0.00      0.00      82.2     0.34      1015.0   392        25      1944       999        8.24     268      527.1
   07/02/2017 14:10      84.9      84.1       35     53.5      0.00      0.00      82.2     0.34      1015.0     5        42         8        87        8.24     268      537.1
   07/02/2017 14:00      84.6      83.5       36     53.9      0.00      0.00      82.1     0.34      1015.0     4        35         6        74        8.24     268      543.8
   07/02/2017 13:50      83.6      82.6       36     53.4      0.00      0.00      82.2     0.34      1015.0     3        44         7        11        8.24     268      553.6
   07/02/2017 13:40      83.8      82.7       36     53.7      0.00      0.00      81.9     0.34      1015.0     4        31         7         4        8.24     268      558.0
   07/02/2017 13:30      82.7      81.6       38     53.9      0.00      0.00      82.1     0.34      1015.0     4        27         5        15        8.24     268      562.7
   07/02/2017 13:20      82.1      81.4       38     54.0      0.00      0.00      81.9     0.34      1015.0     4        31         6       348        8.25     268      569.5
   07/02/2017 13:10      81.9      80.4       40     54.5      0.00      0.00      81.8     0.34      1015.0     4        47         6        72        8.25     269      572.0
   07/02/2017 13:00      80.4      79.0       41     54.3      0.00      0.00      82.0     0.34      1015.0     4        21         6       345        8.25     269      572.9
   07/02/2017 12:50      79.2      78.5       44     55.0      0.00      0.00      82.0     0.34      1015.0     6        55         8        76        8.25     269      575.9
   07/02/2017 12:40      79.2      77.6       44     55.2      0.00      0.00      81.9     0.34      1016.0     5        32         6        33        8.25     269      574.1
   07/02/2017 12:30      77.8      76.6       48     55.7      0.00      0.00      81.9     0.34      1016.0     3        85         7       118        8.25     269      576.3
   07/02/2017 12:20      78.4      77.6       46     55.5      0.00      0.00      82.0     0.34      1016.0     4        44         6        31        8.25     269      567.3
   07/02/2017 12:10      78.7      77.0       47     55.8      0.00      0.00      82.0     0.34      1016.0     4        25         8       359        8.25     270      564.0
   07/02/2017 12:00      77.5      76.0       48     55.8      0.00      0.00      81.8     0.34      1016.0     4        11         6         1        8.25     270      559.1
   07/02/2017 11:50      76.3      75.7       50     55.9      0.00      0.00      81.8     0.34      1016.0     3        44         6        92        8.25     270      555.4
   07/02/2017 11:40      75.8      74.2       53     56.5      0.00      0.00      82.1     0.34      1016.0     4        39         5        37        8.25     270      549.3
   07/02/2017 11:30      75.7      74.2       53     56.8      0.00      0.00      81.9     0.34      1016.0     5        83         8        81        8.25     270      545.4
   07/02/2017 11:20      75.5      74.6       54     57.1      0.00      0.00      82.0     0.34      1016.0     3        21         5        21        8.25     270      535.5
   07/02/2017 11:10      74.8      73.6       55     57.2      0.00      0.00      82.0     0.34      1016.0     4        37         6        68        8.25     270      530.0
   07/02/2017 11:00      74.0      73.3       56     57.0      0.00      0.00      82.0     0.34      1016.0     4        30         5        36        8.25     270      514.9
   07/02/2017 10:50      73.5      72.8       57     57.1      0.00      0.00      82.1     0.34      1016.0     3        36         6        49        8.25     271      503.9
   07/02/2017 10:40      73.3      72.3       57     57.1      0.00      0.00      82.0     0.34      1016.0     3        75         4         1        8.29     271      488.9
   07/02/2017 10:30      73.3      71.5       59     57.1      0.00      0.00      82.2     0.34      1016.0     3        53         5       134        8.29     270      477.1
   07/02/2017 10:20      71.7      70.8       61     56.8      0.00      0.00      82.1     0.34      1016.0     3       348         5         8        8.29     271      454.0
   07/02/2017 10:10      70.8      69.4       62     56.7      0.00      0.00      82.0     0.35      1016.0     4        91         5        21        8.29     271      453.7
   07/02/2017 10:00      70.4      67.7       65     56.8      0.00      0.00      82.6     0.35      1016.0     2       118         5       115        8.29     271      457.7
   07/02/2017 09:50      67.4      66.9       69     56.4      0.00      0.00      82.1     0.35      1015.0     2       176         4       165        8.29     271      217.5
   07/02/2017 09:40      67.0      66.5       69     56.2      0.00      0.00      82.1     0.35      1015.0     2       112         3        77        8.29     271      114.2
   07/02/2017 09:30      67.8      66.8       68     56.5      0.00      0.00      82.0     0.35      1015.0     2        57         4       144        8.29     271      217.4
   07/02/2017 09:20      67.2      66.4       70     56.6      0.00      0.00      82.1     0.35      1015.0     3        53         5        72        8.30     271      231.6
   07/02/2017 09:10      66.4      65.8       72     56.7      0.00      0.00      82.1     0.35      1015.0   196       134      1944       999        8.30     271      239.0
   07/02/2017 09:00      66.0      65.0       73     56.7      0.00      0.00      82.2     0.35      1015.0   196        66      1944       999        8.30     271      134.5
   07/02/2017 08:50      65.0      64.5       75     56.5      0.00      0.00      82.5     0.35      1015.0     1       210         3       187        8.30     271      126.8
   07/02/2017 08:40      64.6      64.4       75     56.5      0.00      0.00      82.4     0.35      1015.0     2        99         3       103        8.30     271      104.2
   07/02/2017 08:30      65.2      64.4       74     56.4      0.00      0.00      82.4     0.35      1015.0     2        52         3        80        8.30     271       89.9
   07/02/2017 08:20      65.0      64.5       74     56.5      0.00      0.00      82.3     0.35      1015.0     1        27         2        26        8.30     271       75.5
   07/02/2017 08:10      64.7      63.8       76     56.4      0.00      0.00      82.5     0.35      1015.0     2        57         3        38        8.30     271       71.6
   07/02/2017 08:00      63.8      63.4       77     56.1      0.00      0.00      82.3     0.35      1015.0     2        38         3       132        8.30     271       61.5
   07/02/2017 07:50      63.8      63.5       76     56.0      0.00      0.00      82.9     0.35      1015.0     2        33         4        25        8.30     271       55.6
   07/02/2017 07:40      63.6      63.2       77     56.0      0.00      0.00      82.5     0.35      1015.0     2         9         3        33        8.30     271       47.4
   07/02/2017 07:30      63.0      62.2       78     55.9      0.00      0.00      82.5     0.35      1015.0     1        45         3        51        8.30     271       36.1
   07/02/2017 07:20      62.3      62.1       79     55.6      0.00      0.00      82.7     0.35      1015.0     2       138         3       148        8.30     271       29.3
   07/02/2017 07:10      62.2      61.8       79     55.5      0.00      0.00      82.6     0.35      1014.0     2       163         3       167        8.31     271       24.3
   07/02/2017 07:00      62.1      61.8       79     55.4      0.00      0.00      82.5     0.35      1014.0     2       135         4       163        8.31     271       13.6
   07/02/2017 06:50      61.8      61.6       80     55.4      0.00      0.00      82.7     0.35      1014.0     3       143         4       138        8.31     271        6.0
   07/02/2017 06:40      61.7      61.4       80     55.3      0.00      0.00      82.9     0.35      1014.0     3       154         5       145        8.31     271       -0.6
   07/02/2017 06:30      61.6      61.3       80     55.2      0.00      0.00      82.5     0.35      1014.0     3       141         4       164        8.31     271       -3.6
   07/02/2017 06:20      61.6      61.4       81     55.4      0.00      0.00      82.9     0.35      1014.0     3       133         5       142        8.31     271       -7.0
   07/02/2017 06:10      61.6      61.3       80     55.4      0.00      0.00      82.6     0.35      1014.0     3       130         5       124        8.31     271      -10.2
   07/02/2017 06:00      61.6      61.3       80     55.3      0.00      0.00      82.9     0.35      1014.0     3       126         4       152        8.31     271      -12.7
   07/02/2017 05:50      61.5      61.2       80     55.3      0.00      0.00      82.7     0.35      1014.0     3       142         4       156        8.32     271      -13.9
   07/02/2017 05:40      61.5      61.2       81     55.4      0.00      0.00      82.6     0.35      1014.0     4       151         6       143        8.32     271      -14.6
   07/02/2017 05:30      61.5      61.2       81     55.4      0.00      0.00      82.5     0.35      1013.0     4       131         5       136        8.32     271      -14.7
   07/02/2017 05:20      61.4      61.3       81     55.4      0.00      0.00      82.9     0.35      1013.0     3       113         4       125        8.32     271      -17.2
   07/02/2017 05:10      61.5      61.3       81     55.5      0.00      0.00      82.6     0.35      1013.0     3       101         5       110        8.32     271      -22.8
   07/02/2017 05:00      61.8      61.3       81     55.6      0.00      0.00      83.2     0.35      1013.0     3       114         5        82        8.32     271      -22.6
   07/02/2017 04:50      62.0      61.7       81     55.8      0.00      0.00      82.9     0.35      1013.0     3       113         5       104        8.32     271      -26.6
   07/02/2017 04:40      62.1      61.9       81     56.0      0.00      0.00      82.9     0.35      1013.0     3        93         6       148        8.32     271      -24.6
   07/02/2017 04:30      62.2      62.0       81     56.2      0.00      0.00      83.1     0.35      1013.0     3       113         5       107        8.32     271      -33.8
   07/02/2017 04:20      62.4      62.2       81     56.4      0.00      0.00      83.1     0.35      1013.0     2        82         3        98        8.32     271      -49.6
   07/02/2017 04:10      62.4      62.2       81     56.3      0.00      0.00      82.7     0.35      1013.0     3        94         4        93        8.32     271      -39.6
   07/02/2017 04:00      62.5      62.3       81     56.4      0.00      0.00      83.1     0.35      1012.0     3       114         4       104        8.32     271      -47.8
   07/02/2017 03:50      62.7      62.3       80     56.4      0.00      0.00      83.4     0.35      1012.0     3       127         4       138        8.32     271      -52.9
   07/02/2017 03:40      63.2      62.7       79     56.5      0.00      0.00      82.9     0.35      1012.0     3        78         4        65        8.32     271      -55.1
   07/02/2017 03:30      63.4      63.1       79     56.8      0.00      0.00      83.1     0.35      1012.0     2        75         3        81        8.33     271      -33.7
   07/02/2017 03:20      63.4      63.0       79     56.7      0.00      0.00      83.2     0.35      1012.0     1       144         2       179        8.33     271      -28.9
   07/02/2017 03:10      63.5      63.3       79     56.9      0.00      0.00      83.0     0.35      1012.0     2        60         3        71        8.33     271      -31.0
   07/02/2017 03:00      63.6      63.3       80     57.2      0.00      0.00      83.2     0.35      1012.0     2        38         3        11        8.33     271      -26.8
   07/02/2017 02:50      63.6      63.4       80     57.3      0.00      0.00      83.3     0.35      1013.0     2        50         2        43        8.33     271      -20.4
   07/02/2017 02:40      63.6      63.3       81     57.4      0.00      0.00      83.1     0.35      1013.0     2        64         4        73        8.33     271      -20.2
   07/02/2017 02:30      63.5      63.1       82     57.6      0.00      0.00      83.4     0.35      1013.0     2        61         2        69        8.33     271      -22.0
   07/02/2017 02:20      63.3      63.0       82     57.6      0.00      0.00      83.2     0.35      1013.0     2        95         3       101        8.33     271      -19.6
   07/02/2017 02:10      63.4      63.2       82     57.7      0.00      0.00      83.6     0.35      1013.0     3        95         4        94        8.33     270      -17.3
   07/02/2017 02:00      63.5      63.2       82     57.7      0.00      0.00      83.2     0.35      1013.0     3        96         4        76        8.33     270      -16.9
   07/02/2017 01:50      63.5      63.2       82     57.8      0.00      0.00      83.3     0.35      1013.0     2        99         3       108        8.33     270      -17.1
   07/02/2017 01:40      63.7      63.4       82     57.8      0.00      0.00      83.6     0.35      1013.0     2        96         5        67        8.33     270      -17.1
   07/02/2017 01:30      63.6      63.3       82     57.8      0.00      0.00      83.4     0.35      1013.0     4       122         7       135        8.33     270      -16.9
   07/02/2017 01:20      63.8      63.5       82     57.9      0.00      0.00      83.7     0.35      1013.0     3       113         6       140        8.34     270      -17.1
   07/02/2017 01:10      64.3      63.6       81     57.9      0.00      0.00      83.6     0.35      1013.0     3       106         6        91        8.34     270      -17.5
   07/02/2017 01:00      64.4      63.9       81     58.0      0.00      0.00      83.5     0.35      1013.0     2        48         3        24        8.34     270      -18.1
   07/02/2017 00:50      64.3      64.1       80     58.0      0.00      0.00      83.5     0.35      1013.0     3        27         3        41        8.34     270      -17.9
   07/02/2017 00:40      64.2      63.9       81     58.0      0.00      0.00      83.9     0.35      1013.0     2        28         3        10        8.34     270      -18.0
   07/02/2017 00:30      64.0      63.7       81     57.9      0.00      0.00      83.5     0.35      1013.0     2        43         4        53        8.35     270      -18.0
   07/02/2017 00:20      64.0      63.6       81     57.9      0.00      0.00      83.2     0.35      1013.0     2        47         4        74        8.35     270      -18.1
   07/02/2017 00:10      63.9      63.8       81     57.9      0.00      0.00      83.6     0.35      1013.0     2        45         3        76        8.35     270      -18.1
   07/02/2017 00:00      63.9      63.4       82     57.9      0.00      0.00      84.0     0.35      1013.0     1        53         2        47        8.35     270      -17.8
   07/01/2017 23:50      63.5      63.2       82     57.8      0.00      0.00      83.7     0.35      1013.0     2        91         3        68        8.36     270      -17.5
   07/01/2017 23:40      63.8      63.3       81     57.7      0.00      0.00      83.8     0.35      1013.0     2        95         4       100        8.36     269      -17.7
   07/01/2017 23:30      64.0      63.7       81     57.8      0.00      0.00      83.9     0.35      1013.0     2        58         3        73        8.36     269      -18.0
   07/01/2017 23:20      64.0      63.5       81     57.8      0.00      0.00      84.0     0.35      1013.0     3        32         3        26        8.36     269      -18.5
   07/01/2017 23:10      63.4      62.8       80     57.0      0.00      0.00      84.1     0.35      1013.0     2        74         4       116        8.36     269      -19.6
   07/01/2017 23:00      63.0      62.3       81     56.6      0.00      0.00      83.9     0.35      1013.0     1       115         2       129        8.36     269      -20.8
   07/01/2017 22:50      62.6      61.9       81     56.2      0.00      0.00      83.9     0.35      1013.0     1       114         2       110        8.36     269      -40.8
   07/01/2017 22:40      62.2      61.9       81     56.2      0.00      0.00      83.8     0.35      1013.0     2       166         3       170        8.36     269      -72.5
   07/01/2017 22:30      62.4      62.2       80     56.0      0.00      0.00      84.1     0.35      1013.0     3       153         4       159        8.37     269      -74.1
   07/01/2017 22:20      62.5      62.2       80     56.0      0.00      0.00      83.6     0.35      1013.0     3       158         4       168        8.37     269      -74.5
   07/01/2017 22:10      62.6      62.4       79     55.9      0.00      0.00      83.6     0.35      1013.0     3       169         3       184        8.37     269      -75.3
   07/01/2017 22:00      63.3      62.8       78     55.9      0.00      0.00      83.8     0.35      1013.0     4       162         5       164        8.37     269      -76.5
   07/01/2017 21:50      63.5      63.3       77     55.9      0.00      0.00      83.8     0.35      1013.0     3       152         4       146        8.37     269      -77.0
   07/01/2017 21:40      64.8      63.6       74     55.8      0.00      0.00      84.0     0.35      1013.0     3       163         4       157        8.37     269      -77.2
   07/01/2017 21:30      65.0      64.7       72     55.7      0.00      0.00      83.7     0.35      1013.0     2       138         4       137        8.37     269      -78.0
   07/01/2017 21:20      65.0      64.8       72     55.8      0.00      0.00      83.6     0.35      1013.0     1       115         2       142        8.37     269      -77.9
   07/01/2017 21:10      65.1      64.8       72     55.9      0.00      0.00      83.9     0.35      1012.0     1       131         2        96        8.37     268      -79.1
   07/01/2017 21:00      65.3      65.1       72     56.1      0.00      0.00      83.6     0.35      1012.0     2       139         3       150        8.37     268      -80.5
   07/01/2017 20:50      65.9      65.3       72     56.3      0.00      0.00      83.7     0.35      1012.0     3       163         4       148        8.37     268      -81.4
   07/01/2017 20:40      66.5      66.0       70     56.5      0.00      0.00      83.7     0.35      1012.0     2       162         4       200        8.37     268      -82.5
   07/01/2017 20:30      67.4      66.7       69     56.7      0.00      0.00      83.7     0.35      1012.0     3       156         4       144        8.37     268      -82.6
   07/01/2017 20:20      67.8      67.5       68     56.8      0.00      0.00      83.6     0.35      1012.0     3       169         4       145        8.37     268      -81.5
   07/01/2017 20:10      68.5      68.0       67     56.9      0.00      0.00      83.7     0.35      1011.0     3       180         4       170        8.37     268      -79.3
   07/01/2017 20:00      70.0      68.6       65     57.0      0.00      0.00      83.7     0.35      1011.0     4       169         5       174        8.37     268      -76.3
   07/01/2017 19:50      71.2      70.3       62     57.2      0.00      0.00      83.6     0.35      1011.0     4       135         5       130        8.38     268      -71.7
   07/01/2017 19:40      71.8      71.3       60     57.2      0.00      0.00      83.3     0.35      1011.0     3       127         5       142        8.38     268      -61.5
   07/01/2017 19:30      71.8      71.6       60     57.3      0.00      0.00      83.7     0.35      1011.0     3       152         5       160        8.49     268      -46.7
   07/01/2017 19:20      72.0      71.6       60     57.1      0.00      0.00      83.6     0.35      1011.0     4       154         5       148        8.50     268      -30.4
   07/01/2017 19:10      73.2      72.0       58     57.1      0.00      0.00      83.5     0.35      1011.0     5       154         6       151        8.51     268      -12.2
   07/01/2017 19:00      73.8      73.3       56     57.0      0.00      0.00      83.7     0.35      1011.0     5       162         6       179        8.51     268        7.8
   07/01/2017 18:50      74.2      73.8       56     57.5      0.00      0.00      83.4     0.35      1010.0     5       175         7       160        8.51     268       29.2
   07/01/2017 18:40      75.2      74.4       56     57.7      0.00      0.00      83.5     0.35      1010.0     4       167         5       147        8.51     268       51.3
   07/01/2017 18:30      75.9      75.4       54     57.8      0.00      0.00      83.5     0.35      1010.0     5       178         6       185        8.52     268       74.5
   07/01/2017 18:20      78.8      76.2       51     58.2      0.00      0.00      83.5     0.35      1010.0     3       193         6       200        8.52     268       95.8
   07/01/2017 18:10      79.0      77.1       52     58.6      0.00      0.00      83.4     0.35      1010.0     2        74         4        77        8.52     268      118.8
   07/01/2017 18:00      77.4      76.6       53     58.5      0.00      0.00      83.3     0.35      1010.0     3       157         4       178        8.52     268      144.8
   07/01/2017 17:50      77.0      76.5       53     58.4      0.00      0.00      83.2     0.35      1010.0     5       195         7       198        8.52     268      168.9
   07/01/2017 17:40      78.9      77.0       51     58.6      0.00      0.00      83.2     0.35      1010.0     5       183         8       199        8.52     268      190.4
   07/01/2017 17:30      80.9      79.6       48     59.0      0.00      0.00      83.1     0.35      1010.0     5        84         6        80        8.53     268      208.9
   07/01/2017 17:20      81.6      80.8       47     59.0      0.00      0.00      83.1     0.35      1010.0     4        61         6        89        8.53     268      231.4
   07/01/2017 17:10      81.9      81.2       47     59.1      0.00      0.00      83.2     0.35      1010.0     4        71         6        56        8.53     268      256.6
   07/01/2017 17:00      82.9      80.7       46     58.8      0.00      0.00      83.0     0.35      1009.0     6        74         9        71        8.53     268      280.2
   07/01/2017 16:50      83.1      82.5       44     58.6      0.00      0.00      82.9     0.35      1009.0     4        54         7        57        8.53     268      299.4
   07/01/2017 16:40      83.5      82.5       44     58.7      0.00      0.00      82.9     0.35      1009.0     5        64         9        70        8.53     268      320.1
   07/01/2017 16:30      83.8      83.0       43     58.8      0.00      0.00      82.9     0.35      1010.0     4        37         6        51        8.54     268      337.9
   07/01/2017 16:20      84.3      83.4       42     58.6      0.00      0.00      82.7     0.35      1009.0     4        63         7        75        8.54     268      358.0
   07/01/2017 16:10      85.0      83.5       42     58.5      0.00      0.00      82.6     0.35      1009.0     4        66         6       104        8.54     268      378.3
   07/01/2017 16:00      84.9      84.2       42     59.2      0.00      0.00      82.7     0.35      1010.0     4        40         6        43        8.54     268      393.7
   07/01/2017 15:50      85.5      84.8       42     59.2      0.00      0.00      82.6     0.35      1010.0     4        48         8        82        8.54     268      413.2
   07/01/2017 15:40      85.6      84.6       42     59.4      0.00      0.00      82.6     0.35      1010.0     3        55         5        88        8.54     268      426.5
   07/01/2017 15:30      84.5      83.5       43     59.1      0.00      0.00      82.5     0.34      1010.0     4       358         5       345        8.54     268      438.8
   07/01/2017 15:20      85.0      84.3       42     59.3      0.00      0.00      82.3     0.34      1010.0     5        44         7        34        8.54     268      456.5
   07/01/2017 15:10      85.1      83.8       43     59.4      0.00      0.00      82.2     0.34      1010.0     3        15         6         8        8.54     268      469.1
   07/01/2017 15:00      84.0      82.9       44     59.5      0.00      0.00      82.3     0.34      1010.0     4        30         5        10        8.55     268      487.4
   07/01/2017 14:50      84.8      83.5       44     59.7      0.00      0.00      82.3     0.34      1010.0     5        13         8       357        8.55     268      499.4
   07/01/2017 14:40      84.6      83.1       44     59.6      0.00      0.00      82.2     0.34      1010.0     4        19         5         6        8.55     268      512.1
   07/01/2017 14:30      83.6      82.8       45     59.7      0.00      0.00      82.2     0.34      1010.0     4        36         6        15        8.55     268      522.8
   07/01/2017 14:20      83.6      82.2       46     60.0      0.00      0.00      82.0     0.34      1011.0     4        49         6         6        8.55     268      532.1
   07/01/2017 14:10      81.8      80.2       49     59.8      0.00      0.00      82.0     0.34      1011.0     5        89         9        87        8.55     268      548.0
   07/01/2017 14:00      81.9      81.2       48     59.7      0.00      0.00      81.9     0.34      1011.0     4        62         7       105        8.55     268      549.1
   07/01/2017 13:50      82.2      81.2       47     59.6      0.00      0.00      82.0     0.34      1011.0     5        51         7        61        8.56     268      555.1
   07/01/2017 13:40      82.9      81.6       46     59.6      0.00      0.00      81.7     0.34      1011.0     4        62         5        54        8.56     269      558.5
   07/01/2017 13:30      83.0      81.9       46     59.5      0.00      0.00      81.8     0.34      1011.0     5        42         9        85        8.56     269      561.5
   07/01/2017 13:20      82.3      81.5       46     59.1      0.00      0.00      81.9     0.34      1011.0     3        39         5        61        8.56     269      567.9
   07/01/2017 13:10      81.6      79.3       48     59.0      0.00      0.00      81.8     0.34      1011.0     4        84         5        85        8.56     269      569.5
   07/01/2017 13:00      81.8      80.8       47     59.0      0.00      0.00      81.9     0.34      1011.0     4        59         5        32        8.56     269      568.7
   07/01/2017 12:50      81.1      80.4       47     58.8      0.00      0.00      81.8     0.34      1011.0     4        50         5        43        8.56     269      570.5
   07/01/2017 12:40      81.0      80.1       48     58.9      0.00      0.00      81.8     0.34      1011.0     3        44         5        78        8.56     269      572.5
   07/01/2017 12:30      80.1      79.0       49     58.7      0.00      0.00      81.8     0.34      1011.0     3        24         4        25        8.56     269      570.2
   07/01/2017 12:20      80.5      78.8       49     58.8      0.00      0.00      81.9     0.34      1011.0     5        39         8        94        8.56     269      567.0
   07/01/2017 12:10      80.2      78.8       49     58.6      0.00      0.00      81.7     0.34      1011.0     3        43         5        23        8.56     270      561.6
   07/01/2017 12:00      79.6      78.6       49     58.6      0.00      0.00      82.0     0.34      1011.0     4        30         7         9        8.56     270      555.5
   07/01/2017 11:50      79.2      78.0       51     58.9      0.00      0.00      82.0     0.34      1011.0     3        51         5         8        8.56     270      548.2
   07/01/2017 11:40      78.1      77.0       53     58.9      0.00      0.00      81.9     0.34      1011.0     3        20         6         1        8.56     270      546.9
   07/01/2017 11:30      77.0      75.3       54     58.5      0.00      0.00      81.9     0.34      1011.0     4        47         7       345        8.56     270      537.8
   07/01/2017 11:20      75.7      75.2       55     58.1      0.00      0.00      81.9     0.34      1011.0     3         4         5       339        8.56     270      529.3
   07/01/2017 11:10      75.8      74.4       55     58.1      0.00      0.00      81.9     0.34      1011.0     3        29         5        27        8.56     270      523.6
   07/01/2017 11:00      75.0      73.3       57     58.1      0.00      0.00      81.8     0.34      1011.0     3       350         5       342        8.56     270      509.6
   07/01/2017 10:50      74.9      72.2       58     58.2      0.00      0.00      82.0     0.34      1011.0     2       138         3        13        8.57     271      501.2
   07/01/2017 10:40      71.8      69.9       63     57.8      0.00      0.00      82.0     0.34      1011.0     2       344         4       336        8.56     271      492.5
   07/01/2017 10:30      70.1      69.2       66     57.6      0.00      0.00      81.8     0.35      1011.0     2       282         3       293        8.57     270      470.7
   07/01/2017 10:20      69.4      68.2       67     57.5      0.00      0.00      82.1     0.35      1012.0     2       349         3       329        8.57     271      453.8
   07/01/2017 10:10      68.3      67.7       69     57.3      0.00      0.00      81.7     0.35      1012.0     3       347         4        24        8.57     271      441.4
   07/01/2017 10:00      68.1      66.8       70     57.4      0.00      0.00      82.0     0.35      1012.0     2       360         2        23        8.57     271      427.0
   07/01/2017 09:50      66.9      65.7       73     57.2      0.00      0.00      82.0     0.35      1012.0     2       255         3       246        8.57     271      410.5
   07/01/2017 09:40      66.0      64.8       75     57.3      0.00      0.00      82.0     0.35      1012.0     2       311         3       261        8.57     271      368.9
   07/01/2017 09:30      64.7      63.4       79     57.2      0.00      0.00      81.9     0.35      1012.0     1       229         3        46        8.57     271      209.1
   07/01/2017 09:20      63.5      62.6       81     57.1      0.00      0.00      82.3     0.35      1012.0     2         4         3        40        8.58     271      168.5
   07/01/2017 09:10      62.7      62.2       82     57.0      0.00      0.00      82.1     0.35      1012.0     2        42         3        36        8.58     271      140.5
   07/01/2017 09:00      62.3      61.9       83     57.1      0.00      0.00      82.4     0.35      1012.0     2        25         3        32        8.58     271       99.9
   07/01/2017 08:50      61.9      61.4       85     57.0      0.00      0.00      82.1     0.35      1012.0     2        20         3        20        8.58     271       89.9
   07/01/2017 08:40      61.6      61.2       85     56.9      0.00      0.00      82.5     0.35      1012.0     2        22         3        69        8.58     271       82.1
   07/01/2017 08:30      61.3      60.9       87     57.0      0.00      0.00      82.5     0.35      1012.0     2        31         3        39        8.58     271       69.4
   07/01/2017 08:20      61.0      60.4       88     57.0      0.00      0.00      82.1     0.35      1012.0     1        70         3        37        8.58     271       52.7
   07/01/2017 08:10      60.5      60.2       88     56.9      0.00      0.00      82.2     0.35      1012.0     2        19         3        58        8.58     271       49.4
   07/01/2017 08:00      60.3      60.1       88     56.7      0.00      0.00      82.6     0.35      1012.0     2        58         4       102        8.58     271       40.1
   07/01/2017 07:50      60.5      60.2       88     56.8      0.00      0.00      82.3     0.35      1012.0     2        21         3         2        8.58     271       35.3
   07/01/2017 07:40      60.4      59.8       89     56.8      0.00      0.00      82.2     0.35      1012.0     1        49         2        35        8.58     271       30.1
   07/01/2017 07:30      60.3      59.7       89     56.8      0.00      0.00      82.5     0.35      1012.0     1        54         2        44        8.58     271       20.0
   07/01/2017 07:20      59.9      59.4       90     56.6      0.00      0.00      82.5     0.35      1012.0     2        18         3        35        8.58     271       18.0
   07/01/2017 07:10      59.7      59.4       90     56.5      0.00      0.00      82.5     0.35      1011.0     2        28         2        15        8.58     271       14.0
   07/01/2017 07:00      59.7      59.4       90     56.5      0.00      0.00      82.5     0.35      1011.0     2        22         3        14        8.58     271        9.3
   07/01/2017 06:50      59.5      59.3       90     56.5      0.00      0.00      82.5     0.35      1011.0     2        22         3        12        8.58     271        3.9
   07/01/2017 06:40      59.5      59.3       90     56.5      0.00      0.00      82.8     0.35      1011.0     2        44         3       104        8.58     271       -0.2
   07/01/2017 06:30      59.4      59.1       90     56.4      0.00      0.00      82.8     0.35      1011.0     2        43         3        28        8.58     271       -3.1
   07/01/2017 06:20      59.4      59.0       90     56.3      0.00      0.00      82.8     0.35      1011.0     2        20         3        24        8.58     271       -4.7
   07/01/2017 06:10      59.4      58.9       90     56.3      0.00      0.00      82.7     0.35      1011.0     2        12         3        21        8.58     271       -7.2
   07/01/2017 06:00      59.2      58.8       90     56.2      0.00      0.00      82.8     0.35      1011.0     2        31         2        55        8.58     270       -8.8
   07/01/2017 05:50      58.9      58.7       90     56.0      0.00      0.00      82.7     0.35      1011.0     2        34         3        25        8.58     270       -9.8
   07/01/2017 05:40      58.8      58.4       90     55.8      0.00      0.00      83.2     0.35      1011.0     2        29         3        36        8.58     270      -10.2
   07/01/2017 05:30      58.7      58.5       89     55.5      0.00      0.00      83.0     0.35      1011.0     3        79         4       109        8.58     270       -9.1
   07/01/2017 05:20      59.0      58.7       88     55.2      0.00      0.00      83.3     0.35      1011.0     3        64         5        77        8.58     270      -22.2
   07/01/2017 05:10      59.5      59.2       87     55.4      0.00      0.00      83.1     0.35      1011.0     3        52         3        56        8.58     270      -35.5
   07/01/2017 05:00      59.6      59.4       87     55.6      0.00      0.00      82.8     0.35      1011.0     2        42         3        33        8.58     270      -35.4
   07/01/2017 04:50      59.5      59.2       87     55.7      0.00      0.00      83.0     0.35      1010.0     2        51         3        34        8.59     270      -36.4
   07/01/2017 04:40      59.3      58.9       88     55.6      0.00      0.00      83.4     0.35      1010.0     1        52         2        46        8.58     270      -37.4
   07/01/2017 04:30      59.1      58.8       88     55.3      0.00      0.00      83.2     0.36      1010.0     1        64         2        27        8.58     270      -38.1
   07/01/2017 04:20      59.1      58.9       88     55.4      0.00      0.00      83.1     0.36      1010.0     1        48         1        86        8.59     269      -39.6
   07/01/2017 04:10      59.2      58.9       87     55.3      0.00      0.00      83.0     0.36      1010.0     1        80         2       100        8.59     269      -43.1
   07/01/2017 04:00      59.0      58.8       86     54.8      0.00      0.00      83.6     0.36      1010.0     1        94         2       104        8.59     269      -47.4
   07/01/2017 03:50      59.4      59.1       86     55.3      0.00      0.00      83.3     0.36      1010.0     1        91         2        72        8.59     269      -47.5
   07/01/2017 03:40      59.5      59.4       86     55.4      0.00      0.00      83.3     0.36      1010.0     1       104         1       125        8.59     269      -49.1
   07/01/2017 03:30      59.5      58.9       85     54.8      0.00      0.00      83.2     0.36      1010.0     1        92         2        66        8.59     269      -53.3
   07/01/2017 03:20      60.1      59.2       85     55.2      0.00      0.00      83.2     0.36      1010.0     1       122         2       118        8.59     269      -53.3
   07/01/2017 03:10      60.1      59.9       85     55.5      0.00      0.00      83.9     0.36      1010.0     0       149         1       156        8.59     269      -53.9
   07/01/2017 03:00      60.3      59.9       84     55.2      0.00      0.00      83.8     0.36      1010.0     0       142         1       199        8.59     269      -56.8
   07/01/2017 02:50      60.6      60.3       85     55.9      0.00      0.00      83.8     0.36      1010.0     0       165         1       196        8.59     269      -52.8
   07/01/2017 02:40      60.6      60.3       85     55.8      0.00      0.00      83.7     0.36      1010.0     0        66         1        82        8.59     269      -56.2
   07/01/2017 02:30      60.5      60.3       84     55.6      0.00      0.00      83.6     0.36      1010.0     1        73         2        65        8.59     269      -59.4
   07/01/2017 02:20      60.9      60.4       83     55.4      0.00      0.00      83.6     0.36      1010.0     1        96         2        89        8.59     269      -61.4
   07/01/2017 02:10      61.1      60.9       83     55.6      0.00      0.00      83.6     0.36      1011.0     1       101         1       105        8.59     269      -61.8
   07/01/2017 02:00      61.4      61.3       82     55.9      0.00      0.00      83.6     0.36      1011.0     1       123         1       121        8.59     269      -63.0
   07/01/2017 01:50      61.4      61.3       82     55.7      0.00      0.00      83.6     0.36      1011.0     0        62         1        68        8.59     269      -63.6
   07/01/2017 01:40      61.5      61.3       81     55.6      0.00      0.00      83.7     0.36      1011.0     1       107         1        86        8.59     269      -65.1
   07/01/2017 01:30      61.7      61.5       81     55.7      0.00      0.00      83.6     0.36      1011.0     1       115         2        97        8.59     269      -64.9
   07/01/2017 01:20      61.9      61.7       80     55.6      0.00      0.00      83.8     0.36      1011.0     1       112         1        86        8.59     269      -65.9
   07/01/2017 01:10      62.3      61.9       79     55.6      0.00      0.00      83.8     0.36      1011.0     1        95         1       110        8.59     269      -66.5
   07/01/2017 01:00      62.5      62.2       79     55.6      0.00      0.00      84.0     0.36      1011.0     0       128         1       154        8.59     269      -66.8
   07/01/2017 00:50      62.7      62.3       77     55.3      0.00      0.00      83.8     0.36      1011.0     1       106         2        75        8.59     269      -68.7
   07/01/2017 00:40      63.0      62.8       77     55.5      0.00      0.00      84.0     0.36      1011.0     1       107         3        87        8.59     269      -69.8
   07/01/2017 00:30      63.4      62.8       76     55.4      0.00      0.00      83.9     0.36      1011.0     1       105         2       112        8.60     269      -69.8
   07/01/2017 00:20      63.8      63.3       75     55.5      0.00      0.00      84.0     0.36      1011.0     1        54         2        57        8.60     269      -72.3
   07/01/2017 00:10      64.3      63.8       74     55.6      0.00      0.00      83.8     0.36      1011.0     1        76         3        77        8.60     269      -72.8
   07/01/2017 00:00      64.4      64.2       74     55.7      0.00      0.00      84.1     0.36      1011.0     2        60         3        79        8.60     269      -73.5


Back to data home page